﻿<?xml version="1.0" encoding="UTF-8" standalone="no" ?>
<gpx xmlns="http://www.topografix.com/GPX/1/1" creator="CompeGPS" version="1.1" xmlns:xsi="http://www.w3.org/2001/XMLSchema-instance" xsi:schemaLocation="http://www.topografix.com/GPX/1/1 http://www.topografix.com/GPX/1/1/gpx.xsd http://www.garmin.com/xmlschemas/GpxExtensions/v3 http://www.garmin.com/xmlschemas/GpxExtensionsv3.xsd http://www.garmin.com/xmlschemas/TrackPointExtension/v1 http://www.garmin.com/xmlschemas/TrackPointExtensionv1.xsd" xmlns:gpxtpx="http://www.garmin.com/xmlschemas/TrackPointExtension/v1">
  <metadata>
    <link href="http://www.compegps.com">
      <text>CompeGPS TEAM, SL</text>
    </link>
    <time>2016-05-29T18:14:34Z</time>
    <bounds maxlat="43.447348" maxlon="-2.715250" minlat="43.366437" minlon="-2.797121"/>
  </metadata>
  <trk>
    <name>2016BermeokoMuga_unified</name>
    <trkseg>
      <trkpt lat="43.419031" lon="-2.724567">
        <ele>11.2</ele>
        <time>2016-05-21T05:08:06Z</time>
      </trkpt>
      <trkpt lat="43.419059" lon="-2.724568">
        <ele>11.7</ele>
        <time>2016-05-21T05:08:34Z</time>
      </trkpt>
      <trkpt lat="43.419120" lon="-2.724594">
        <ele>11.7</ele>
        <time>2016-05-21T05:08:38Z</time>
      </trkpt>
      <trkpt lat="43.419275" lon="-2.724622">
        <ele>12.6</ele>
        <time>2016-05-21T05:08:48Z</time>
      </trkpt>
      <trkpt lat="43.419288" lon="-2.724649">
        <ele>12.6</ele>
        <time>2016-05-21T05:08:51Z</time>
      </trkpt>
      <trkpt lat="43.419457" lon="-2.724875">
        <ele>14.1</ele>
        <time>2016-05-21T05:09:07Z</time>
      </trkpt>
      <trkpt lat="43.419467" lon="-2.724910">
        <ele>14.6</ele>
        <time>2016-05-21T05:09:09Z</time>
      </trkpt>
      <trkpt lat="43.419538" lon="-2.725094">
        <ele>15.5</ele>
        <time>2016-05-21T05:09:19Z</time>
      </trkpt>
      <trkpt lat="43.419562" lon="-2.725156">
        <ele>16.0</ele>
        <time>2016-05-21T05:09:22Z</time>
      </trkpt>
      <trkpt lat="43.419612" lon="-2.725288">
        <ele>17.0</ele>
        <time>2016-05-21T05:09:29Z</time>
      </trkpt>
      <trkpt lat="43.419719" lon="-2.725506">
        <ele>20.3</ele>
        <time>2016-05-21T05:09:46Z</time>
      </trkpt>
      <trkpt lat="43.419908" lon="-2.725489">
        <ele>21.3</ele>
        <time>2016-05-21T05:10:00Z</time>
      </trkpt>
      <trkpt lat="43.420110" lon="-2.725415">
        <ele>25.1</ele>
        <time>2016-05-21T05:10:20Z</time>
      </trkpt>
      <trkpt lat="43.420153" lon="-2.725356">
        <ele>26.1</ele>
        <time>2016-05-21T05:10:24Z</time>
      </trkpt>
      <trkpt lat="43.420279" lon="-2.725444">
        <ele>26.1</ele>
        <time>2016-05-21T05:10:29Z</time>
      </trkpt>
      <trkpt lat="43.420331" lon="-2.725498">
        <ele>26.6</ele>
        <time>2016-05-21T05:10:32Z</time>
      </trkpt>
      <trkpt lat="43.420511" lon="-2.725616">
        <ele>27.5</ele>
        <time>2016-05-21T05:10:46Z</time>
      </trkpt>
      <trkpt lat="43.420546" lon="-2.725641">
        <ele>27.1</ele>
        <time>2016-05-21T05:10:48Z</time>
      </trkpt>
      <trkpt lat="43.420631" lon="-2.725738">
        <ele>29.0</ele>
        <time>2016-05-21T05:10:59Z</time>
      </trkpt>
      <trkpt lat="43.420732" lon="-2.725830">
        <ele>29.9</ele>
        <time>2016-05-21T05:11:04Z</time>
      </trkpt>
      <trkpt lat="43.420824" lon="-2.725952">
        <ele>29.5</ele>
        <time>2016-05-21T05:11:09Z</time>
      </trkpt>
      <trkpt lat="43.420850" lon="-2.725993">
        <ele>29.9</ele>
        <time>2016-05-21T05:11:11Z</time>
      </trkpt>
      <trkpt lat="43.421094" lon="-2.726378">
        <ele>29.9</ele>
        <time>2016-05-21T05:11:36Z</time>
      </trkpt>
      <trkpt lat="43.421107" lon="-2.726498">
        <ele>29.9</ele>
        <time>2016-05-21T05:11:42Z</time>
      </trkpt>
      <trkpt lat="43.421153" lon="-2.726738">
        <ele>30.4</ele>
        <time>2016-05-21T05:11:57Z</time>
      </trkpt>
      <trkpt lat="43.421165" lon="-2.726768">
        <ele>29.9</ele>
        <time>2016-05-21T05:11:59Z</time>
      </trkpt>
      <trkpt lat="43.421184" lon="-2.726836">
        <ele>29.5</ele>
        <time>2016-05-21T05:12:03Z</time>
      </trkpt>
      <trkpt lat="43.421197" lon="-2.726912">
        <ele>30.9</ele>
        <time>2016-05-21T05:12:09Z</time>
      </trkpt>
      <trkpt lat="43.421195" lon="-2.726965">
        <ele>31.9</ele>
        <time>2016-05-21T05:12:13Z</time>
      </trkpt>
      <trkpt lat="43.421230" lon="-2.727056">
        <ele>30.4</ele>
        <time>2016-05-21T05:12:17Z</time>
      </trkpt>
      <trkpt lat="43.421221" lon="-2.727121">
        <ele>30.9</ele>
        <time>2016-05-21T05:12:19Z</time>
      </trkpt>
      <trkpt lat="43.421240" lon="-2.727184">
        <ele>31.4</ele>
        <time>2016-05-21T05:12:24Z</time>
      </trkpt>
      <trkpt lat="43.421351" lon="-2.727530">
        <ele>32.3</ele>
        <time>2016-05-21T05:12:38Z</time>
      </trkpt>
      <trkpt lat="43.421482" lon="-2.727779">
        <ele>32.8</ele>
        <time>2016-05-21T05:12:53Z</time>
      </trkpt>
      <trkpt lat="43.421605" lon="-2.728093">
        <ele>33.3</ele>
        <time>2016-05-21T05:13:10Z</time>
      </trkpt>
      <trkpt lat="43.421724" lon="-2.728360">
        <ele>34.3</ele>
        <time>2016-05-21T05:13:25Z</time>
      </trkpt>
      <trkpt lat="43.421764" lon="-2.728538">
        <ele>34.3</ele>
        <time>2016-05-21T05:13:33Z</time>
      </trkpt>
      <trkpt lat="43.421895" lon="-2.728860">
        <ele>35.7</ele>
        <time>2016-05-21T05:13:49Z</time>
      </trkpt>
      <trkpt lat="43.421991" lon="-2.729141">
        <ele>36.2</ele>
        <time>2016-05-21T05:14:05Z</time>
      </trkpt>
      <trkpt lat="43.422094" lon="-2.729386">
        <ele>37.1</ele>
        <time>2016-05-21T05:14:19Z</time>
      </trkpt>
      <trkpt lat="43.422178" lon="-2.729732">
        <ele>37.6</ele>
        <time>2016-05-21T05:14:37Z</time>
      </trkpt>
      <trkpt lat="43.422286" lon="-2.730079">
        <ele>40.0</ele>
        <time>2016-05-21T05:14:55Z</time>
      </trkpt>
      <trkpt lat="43.422367" lon="-2.730373">
        <ele>41.5</ele>
        <time>2016-05-21T05:15:10Z</time>
      </trkpt>
      <trkpt lat="43.422468" lon="-2.730778">
        <ele>42.4</ele>
        <time>2016-05-21T05:15:30Z</time>
      </trkpt>
      <trkpt lat="43.422523" lon="-2.731177">
        <ele>44.4</ele>
        <time>2016-05-21T05:15:49Z</time>
      </trkpt>
      <trkpt lat="43.422570" lon="-2.731546">
        <ele>43.9</ele>
        <time>2016-05-21T05:16:07Z</time>
      </trkpt>
      <trkpt lat="43.422642" lon="-2.732003">
        <ele>44.8</ele>
        <time>2016-05-21T05:16:29Z</time>
      </trkpt>
      <trkpt lat="43.422697" lon="-2.732344">
        <ele>46.8</ele>
        <time>2016-05-21T05:16:46Z</time>
      </trkpt>
      <trkpt lat="43.422733" lon="-2.732592">
        <ele>46.8</ele>
        <time>2016-05-21T05:16:58Z</time>
      </trkpt>
      <trkpt lat="43.422750" lon="-2.732708">
        <ele>46.8</ele>
        <time>2016-05-21T05:17:04Z</time>
      </trkpt>
      <trkpt lat="43.422842" lon="-2.732979">
        <ele>49.2</ele>
        <time>2016-05-21T05:17:20Z</time>
      </trkpt>
      <trkpt lat="43.422857" lon="-2.733008">
        <ele>49.2</ele>
        <time>2016-05-21T05:17:22Z</time>
      </trkpt>
      <trkpt lat="43.423037" lon="-2.733243">
        <ele>52.5</ele>
        <time>2016-05-21T05:17:39Z</time>
      </trkpt>
      <trkpt lat="43.423199" lon="-2.733419">
        <ele>54.9</ele>
        <time>2016-05-21T05:17:54Z</time>
      </trkpt>
      <trkpt lat="43.423360" lon="-2.733698">
        <ele>55.9</ele>
        <time>2016-05-21T05:18:10Z</time>
      </trkpt>
      <trkpt lat="43.423501" lon="-2.733908">
        <ele>56.9</ele>
        <time>2016-05-21T05:18:23Z</time>
      </trkpt>
      <trkpt lat="43.423576" lon="-2.734052">
        <ele>59.3</ele>
        <time>2016-05-21T05:18:32Z</time>
      </trkpt>
      <trkpt lat="43.423622" lon="-2.734105">
        <ele>60.7</ele>
        <time>2016-05-21T05:18:36Z</time>
      </trkpt>
      <trkpt lat="43.423789" lon="-2.734318">
        <ele>61.2</ele>
        <time>2016-05-21T05:18:51Z</time>
      </trkpt>
      <trkpt lat="43.423936" lon="-2.734516">
        <ele>62.6</ele>
        <time>2016-05-21T05:19:04Z</time>
      </trkpt>
      <trkpt lat="43.423964" lon="-2.734562">
        <ele>62.6</ele>
        <time>2016-05-21T05:19:07Z</time>
      </trkpt>
      <trkpt lat="43.424106" lon="-2.734623">
        <ele>63.6</ele>
        <time>2016-05-21T05:19:15Z</time>
      </trkpt>
      <trkpt lat="43.424317" lon="-2.734905">
        <ele>66.5</ele>
        <time>2016-05-21T05:19:35Z</time>
      </trkpt>
      <trkpt lat="43.424345" lon="-2.734922">
        <ele>66.9</ele>
        <time>2016-05-21T05:19:37Z</time>
      </trkpt>
      <trkpt lat="43.424512" lon="-2.734991">
        <ele>68.9</ele>
        <time>2016-05-21T05:19:51Z</time>
      </trkpt>
      <trkpt lat="43.424698" lon="-2.734984">
        <ele>69.8</ele>
        <time>2016-05-21T05:20:06Z</time>
      </trkpt>
      <trkpt lat="43.424742" lon="-2.734992">
        <ele>69.4</ele>
        <time>2016-05-21T05:20:09Z</time>
      </trkpt>
      <trkpt lat="43.424769" lon="-2.735126">
        <ele>71.3</ele>
        <time>2016-05-21T05:20:16Z</time>
      </trkpt>
      <trkpt lat="43.424682" lon="-2.735441">
        <ele>70.3</ele>
        <time>2016-05-21T05:20:32Z</time>
      </trkpt>
      <trkpt lat="43.424530" lon="-2.735814">
        <ele>71.8</ele>
        <time>2016-05-21T05:20:52Z</time>
      </trkpt>
      <trkpt lat="43.424393" lon="-2.736209">
        <ele>71.8</ele>
        <time>2016-05-21T05:21:12Z</time>
      </trkpt>
      <trkpt lat="43.424333" lon="-2.736681">
        <ele>72.2</ele>
        <time>2016-05-21T05:21:34Z</time>
      </trkpt>
      <trkpt lat="43.424259" lon="-2.737163">
        <ele>71.3</ele>
        <time>2016-05-21T05:21:58Z</time>
      </trkpt>
      <trkpt lat="43.424167" lon="-2.737627">
        <ele>70.8</ele>
        <time>2016-05-21T05:22:21Z</time>
      </trkpt>
      <trkpt lat="43.424052" lon="-2.738122">
        <ele>72.2</ele>
        <time>2016-05-21T05:22:46Z</time>
      </trkpt>
      <trkpt lat="43.424057" lon="-2.738597">
        <ele>74.6</ele>
        <time>2016-05-21T05:23:09Z</time>
      </trkpt>
      <trkpt lat="43.424114" lon="-2.739009">
        <ele>75.1</ele>
        <time>2016-05-21T05:23:29Z</time>
      </trkpt>
      <trkpt lat="43.424191" lon="-2.739329">
        <ele>76.6</ele>
        <time>2016-05-21T05:23:45Z</time>
      </trkpt>
      <trkpt lat="43.424262" lon="-2.739708">
        <ele>74.2</ele>
        <time>2016-05-21T05:24:03Z</time>
      </trkpt>
      <trkpt lat="43.424292" lon="-2.739984">
        <ele>70.3</ele>
        <time>2016-05-21T05:24:16Z</time>
      </trkpt>
      <trkpt lat="43.424256" lon="-2.740349">
        <ele>67.9</ele>
        <time>2016-05-21T05:24:33Z</time>
      </trkpt>
      <trkpt lat="43.424133" lon="-2.740780">
        <ele>66.9</ele>
        <time>2016-05-21T05:24:55Z</time>
      </trkpt>
      <trkpt lat="43.424050" lon="-2.741123">
        <ele>68.9</ele>
        <time>2016-05-21T05:25:13Z</time>
      </trkpt>
      <trkpt lat="43.423992" lon="-2.741361">
        <ele>71.8</ele>
        <time>2016-05-21T05:25:27Z</time>
      </trkpt>
      <trkpt lat="43.423888" lon="-2.741546">
        <ele>75.1</ele>
        <time>2016-05-21T05:25:40Z</time>
      </trkpt>
      <trkpt lat="43.423883" lon="-2.741664">
        <ele>76.6</ele>
        <time>2016-05-21T05:25:48Z</time>
      </trkpt>
      <trkpt lat="43.423920" lon="-2.741729">
        <ele>78.0</ele>
        <time>2016-05-21T05:25:53Z</time>
      </trkpt>
      <trkpt lat="43.424054" lon="-2.741916">
        <ele>80.9</ele>
        <time>2016-05-21T05:26:08Z</time>
      </trkpt>
      <trkpt lat="43.424152" lon="-2.742004">
        <ele>82.8</ele>
        <time>2016-05-21T05:26:19Z</time>
      </trkpt>
      <trkpt lat="43.424331" lon="-2.742089">
        <ele>85.2</ele>
        <time>2016-05-21T05:26:34Z</time>
      </trkpt>
      <trkpt lat="43.424508" lon="-2.742193">
        <ele>86.7</ele>
        <time>2016-05-21T05:26:50Z</time>
      </trkpt>
      <trkpt lat="43.424681" lon="-2.742308">
        <ele>88.6</ele>
        <time>2016-05-21T05:27:03Z</time>
      </trkpt>
      <trkpt lat="43.424780" lon="-2.742409">
        <ele>90.5</ele>
        <time>2016-05-21T05:27:15Z</time>
      </trkpt>
      <trkpt lat="43.424921" lon="-2.742467">
        <ele>94.3</ele>
        <time>2016-05-21T05:27:29Z</time>
      </trkpt>
      <trkpt lat="43.425009" lon="-2.742388">
        <ele>96.3</ele>
        <time>2016-05-21T05:27:44Z</time>
      </trkpt>
      <trkpt lat="43.425023" lon="-2.742334">
        <ele>96.7</ele>
        <time>2016-05-21T05:27:48Z</time>
      </trkpt>
      <trkpt lat="43.425054" lon="-2.742220">
        <ele>100.1</ele>
        <time>2016-05-21T05:27:57Z</time>
      </trkpt>
      <trkpt lat="43.425146" lon="-2.742007">
        <ele>102.5</ele>
        <time>2016-05-21T05:28:13Z</time>
      </trkpt>
      <trkpt lat="43.425237" lon="-2.741915">
        <ele>103.0</ele>
        <time>2016-05-21T05:28:21Z</time>
      </trkpt>
      <trkpt lat="43.425265" lon="-2.741843">
        <ele>103.5</ele>
        <time>2016-05-21T05:28:25Z</time>
      </trkpt>
      <trkpt lat="43.425409" lon="-2.741601">
        <ele>104.0</ele>
        <time>2016-05-21T05:28:44Z</time>
      </trkpt>
      <trkpt lat="43.425456" lon="-2.741657">
        <ele>104.0</ele>
        <time>2016-05-21T05:28:49Z</time>
      </trkpt>
      <trkpt lat="43.425459" lon="-2.741947">
        <ele>106.4</ele>
        <time>2016-05-21T05:29:05Z</time>
      </trkpt>
      <trkpt lat="43.425462" lon="-2.742127">
        <ele>107.8</ele>
        <time>2016-05-21T05:29:15Z</time>
      </trkpt>
      <trkpt lat="43.425567" lon="-2.742339">
        <ele>111.2</ele>
        <time>2016-05-21T05:29:30Z</time>
      </trkpt>
      <trkpt lat="43.425698" lon="-2.742467">
        <ele>114.1</ele>
        <time>2016-05-21T05:29:42Z</time>
      </trkpt>
      <trkpt lat="43.425898" lon="-2.742674">
        <ele>116.9</ele>
        <time>2016-05-21T05:30:00Z</time>
      </trkpt>
      <trkpt lat="43.426067" lon="-2.742865">
        <ele>119.8</ele>
        <time>2016-05-21T05:30:16Z</time>
      </trkpt>
      <trkpt lat="43.426221" lon="-2.742897">
        <ele>122.7</ele>
        <time>2016-05-21T05:30:29Z</time>
      </trkpt>
      <trkpt lat="43.426241" lon="-2.742886">
        <ele>123.7</ele>
        <time>2016-05-21T05:30:31Z</time>
      </trkpt>
      <trkpt lat="43.426383" lon="-2.742821">
        <ele>125.1</ele>
        <time>2016-05-21T05:30:42Z</time>
      </trkpt>
      <trkpt lat="43.426487" lon="-2.742812">
        <ele>127.5</ele>
        <time>2016-05-21T05:30:50Z</time>
      </trkpt>
      <trkpt lat="43.426522" lon="-2.742826">
        <ele>129.0</ele>
        <time>2016-05-21T05:30:53Z</time>
      </trkpt>
      <trkpt lat="43.426577" lon="-2.743042">
        <ele>131.8</ele>
        <time>2016-05-21T05:31:07Z</time>
      </trkpt>
      <trkpt lat="43.426571" lon="-2.743253">
        <ele>135.2</ele>
        <time>2016-05-21T05:31:19Z</time>
      </trkpt>
      <trkpt lat="43.426597" lon="-2.743507">
        <ele>138.1</ele>
        <time>2016-05-21T05:31:33Z</time>
      </trkpt>
      <trkpt lat="43.426601" lon="-2.743796">
        <ele>140.5</ele>
        <time>2016-05-21T05:31:50Z</time>
      </trkpt>
      <trkpt lat="43.426677" lon="-2.743734">
        <ele>141.9</ele>
        <time>2016-05-21T05:31:57Z</time>
      </trkpt>
      <trkpt lat="43.426755" lon="-2.743657">
        <ele>143.9</ele>
        <time>2016-05-21T05:32:05Z</time>
      </trkpt>
      <trkpt lat="43.426926" lon="-2.743518">
        <ele>145.3</ele>
        <time>2016-05-21T05:32:19Z</time>
      </trkpt>
      <trkpt lat="43.427116" lon="-2.743359">
        <ele>146.3</ele>
        <time>2016-05-21T05:32:34Z</time>
      </trkpt>
      <trkpt lat="43.427256" lon="-2.743260">
        <ele>148.7</ele>
        <time>2016-05-21T05:32:46Z</time>
      </trkpt>
      <trkpt lat="43.427475" lon="-2.743130">
        <ele>151.1</ele>
        <time>2016-05-21T05:33:04Z</time>
      </trkpt>
      <trkpt lat="43.427548" lon="-2.743087">
        <ele>153.5</ele>
        <time>2016-05-21T05:33:13Z</time>
      </trkpt>
      <trkpt lat="43.427713" lon="-2.742978">
        <ele>156.8</ele>
        <time>2016-05-21T05:33:29Z</time>
      </trkpt>
      <trkpt lat="43.427843" lon="-2.742899">
        <ele>159.7</ele>
        <time>2016-05-21T05:33:43Z</time>
      </trkpt>
      <trkpt lat="43.428002" lon="-2.742835">
        <ele>161.6</ele>
        <time>2016-05-21T05:33:57Z</time>
      </trkpt>
      <trkpt lat="43.428118" lon="-2.742794">
        <ele>165.0</ele>
        <time>2016-05-21T05:34:07Z</time>
      </trkpt>
      <trkpt lat="43.428263" lon="-2.742750">
        <ele>167.9</ele>
        <time>2016-05-21T05:34:22Z</time>
      </trkpt>
      <trkpt lat="43.428444" lon="-2.742706">
        <ele>170.3</ele>
        <time>2016-05-21T05:34:38Z</time>
      </trkpt>
      <trkpt lat="43.428568" lon="-2.742685">
        <ele>172.7</ele>
        <time>2016-05-21T05:34:49Z</time>
      </trkpt>
      <trkpt lat="43.428696" lon="-2.742706">
        <ele>175.6</ele>
        <time>2016-05-21T05:35:01Z</time>
      </trkpt>
      <trkpt lat="43.428842" lon="-2.742754">
        <ele>178.9</ele>
        <time>2016-05-21T05:35:14Z</time>
      </trkpt>
      <trkpt lat="43.428906" lon="-2.742772">
        <ele>179.9</ele>
        <time>2016-05-21T05:35:19Z</time>
      </trkpt>
      <trkpt lat="43.429149" lon="-2.742724">
        <ele>180.4</ele>
        <time>2016-05-21T05:35:36Z</time>
      </trkpt>
      <trkpt lat="43.429356" lon="-2.742626">
        <ele>182.8</ele>
        <time>2016-05-21T05:35:52Z</time>
      </trkpt>
      <trkpt lat="43.429528" lon="-2.742503">
        <ele>184.2</ele>
        <time>2016-05-21T05:36:07Z</time>
      </trkpt>
      <trkpt lat="43.429635" lon="-2.742424">
        <ele>187.6</ele>
        <time>2016-05-21T05:36:16Z</time>
      </trkpt>
      <trkpt lat="43.429687" lon="-2.742385">
        <ele>188.1</ele>
        <time>2016-05-21T05:36:20Z</time>
      </trkpt>
      <trkpt lat="43.429811" lon="-2.742364">
        <ele>191.4</ele>
        <time>2016-05-21T05:36:32Z</time>
      </trkpt>
      <trkpt lat="43.429853" lon="-2.742380">
        <ele>193.4</ele>
        <time>2016-05-21T05:36:36Z</time>
      </trkpt>
      <trkpt lat="43.429893" lon="-2.742520">
        <ele>193.8</ele>
        <time>2016-05-21T05:36:45Z</time>
      </trkpt>
      <trkpt lat="43.429803" lon="-2.742874">
        <ele>194.8</ele>
        <time>2016-05-21T05:37:04Z</time>
      </trkpt>
      <trkpt lat="43.429728" lon="-2.743250">
        <ele>198.2</ele>
        <time>2016-05-21T05:37:25Z</time>
      </trkpt>
      <trkpt lat="43.429692" lon="-2.743356">
        <ele>199.1</ele>
        <time>2016-05-21T05:37:32Z</time>
      </trkpt>
      <trkpt lat="43.429647" lon="-2.743503">
        <ele>203.0</ele>
        <time>2016-05-21T05:37:42Z</time>
      </trkpt>
      <trkpt lat="43.429601" lon="-2.743649">
        <ele>206.3</ele>
        <time>2016-05-21T05:37:53Z</time>
      </trkpt>
      <trkpt lat="43.429562" lon="-2.743751">
        <ele>207.8</ele>
        <time>2016-05-21T05:38:01Z</time>
      </trkpt>
      <trkpt lat="43.429541" lon="-2.743817">
        <ele>211.1</ele>
        <time>2016-05-21T05:38:06Z</time>
      </trkpt>
      <trkpt lat="43.429456" lon="-2.744067">
        <ele>214.0</ele>
        <time>2016-05-21T05:38:26Z</time>
      </trkpt>
      <trkpt lat="43.429424" lon="-2.744163">
        <ele>217.4</ele>
        <time>2016-05-21T05:38:33Z</time>
      </trkpt>
      <trkpt lat="43.429386" lon="-2.744334">
        <ele>220.3</ele>
        <time>2016-05-21T05:38:45Z</time>
      </trkpt>
      <trkpt lat="43.429370" lon="-2.744420">
        <ele>221.2</ele>
        <time>2016-05-21T05:38:50Z</time>
      </trkpt>
      <trkpt lat="43.429334" lon="-2.744540">
        <ele>222.2</ele>
        <time>2016-05-21T05:38:58Z</time>
      </trkpt>
      <trkpt lat="43.429251" lon="-2.744714">
        <ele>225.6</ele>
        <time>2016-05-21T05:39:12Z</time>
      </trkpt>
      <trkpt lat="43.429148" lon="-2.744866">
        <ele>228.9</ele>
        <time>2016-05-21T05:39:27Z</time>
      </trkpt>
      <trkpt lat="43.428996" lon="-2.745067">
        <ele>231.8</ele>
        <time>2016-05-21T05:39:45Z</time>
      </trkpt>
      <trkpt lat="43.428905" lon="-2.745244">
        <ele>235.2</ele>
        <time>2016-05-21T05:39:57Z</time>
      </trkpt>
      <trkpt lat="43.428898" lon="-2.745259">
        <ele>235.2</ele>
        <time>2016-05-21T05:39:58Z</time>
      </trkpt>
      <trkpt lat="43.428780" lon="-2.745479">
        <ele>237.6</ele>
        <time>2016-05-21T05:40:13Z</time>
      </trkpt>
      <trkpt lat="43.428669" lon="-2.745831">
        <ele>238.5</ele>
        <time>2016-05-21T05:40:33Z</time>
      </trkpt>
      <trkpt lat="43.428595" lon="-2.746206">
        <ele>240.9</ele>
        <time>2016-05-21T05:40:53Z</time>
      </trkpt>
      <trkpt lat="43.428513" lon="-2.746513">
        <ele>243.8</ele>
        <time>2016-05-21T05:41:10Z</time>
      </trkpt>
      <trkpt lat="43.428392" lon="-2.746826">
        <ele>246.7</ele>
        <time>2016-05-21T05:41:29Z</time>
      </trkpt>
      <trkpt lat="43.428374" lon="-2.746876">
        <ele>248.6</ele>
        <time>2016-05-21T05:41:32Z</time>
      </trkpt>
      <trkpt lat="43.428272" lon="-2.747149">
        <ele>252.0</ele>
        <time>2016-05-21T05:41:51Z</time>
      </trkpt>
      <trkpt lat="43.428257" lon="-2.747206">
        <ele>253.4</ele>
        <time>2016-05-21T05:41:55Z</time>
      </trkpt>
      <trkpt lat="43.428241" lon="-2.747339">
        <ele>256.3</ele>
        <time>2016-05-21T05:42:05Z</time>
      </trkpt>
      <trkpt lat="43.428246" lon="-2.747563">
        <ele>259.2</ele>
        <time>2016-05-21T05:42:19Z</time>
      </trkpt>
      <trkpt lat="43.428246" lon="-2.747599">
        <ele>259.2</ele>
        <time>2016-05-21T05:42:21Z</time>
      </trkpt>
      <trkpt lat="43.428232" lon="-2.747766">
        <ele>261.6</ele>
        <time>2016-05-21T05:42:31Z</time>
      </trkpt>
      <trkpt lat="43.428153" lon="-2.747960">
        <ele>262.6</ele>
        <time>2016-05-21T05:42:43Z</time>
      </trkpt>
      <trkpt lat="43.428147" lon="-2.748014">
        <ele>263.5</ele>
        <time>2016-05-21T05:42:46Z</time>
      </trkpt>
      <trkpt lat="43.428127" lon="-2.748203">
        <ele>264.5</ele>
        <time>2016-05-21T05:42:56Z</time>
      </trkpt>
      <trkpt lat="43.428137" lon="-2.748289">
        <ele>265.9</ele>
        <time>2016-05-21T05:43:01Z</time>
      </trkpt>
      <trkpt lat="43.428148" lon="-2.748328">
        <ele>266.4</ele>
        <time>2016-05-21T05:43:03Z</time>
      </trkpt>
      <trkpt lat="43.428170" lon="-2.748599">
        <ele>267.9</ele>
        <time>2016-05-21T05:43:18Z</time>
      </trkpt>
      <trkpt lat="43.428173" lon="-2.748875">
        <ele>270.7</ele>
        <time>2016-05-21T05:43:33Z</time>
      </trkpt>
      <trkpt lat="43.428167" lon="-2.748891">
        <ele>271.2</ele>
        <time>2016-05-21T05:43:34Z</time>
      </trkpt>
      <trkpt lat="43.428161" lon="-2.748919">
        <ele>271.7</ele>
        <time>2016-05-21T05:43:36Z</time>
      </trkpt>
      <trkpt lat="43.428124" lon="-2.749038">
        <ele>274.6</ele>
        <time>2016-05-21T05:43:43Z</time>
      </trkpt>
      <trkpt lat="43.428119" lon="-2.749057">
        <ele>274.1</ele>
        <time>2016-05-21T05:43:44Z</time>
      </trkpt>
      <trkpt lat="43.428051" lon="-2.749280">
        <ele>275.1</ele>
        <time>2016-05-21T05:43:57Z</time>
      </trkpt>
      <trkpt lat="43.428044" lon="-2.749466">
        <ele>277.0</ele>
        <time>2016-05-21T05:44:07Z</time>
      </trkpt>
      <trkpt lat="43.428046" lon="-2.749578">
        <ele>278.9</ele>
        <time>2016-05-21T05:44:13Z</time>
      </trkpt>
      <trkpt lat="43.427998" lon="-2.749851">
        <ele>278.9</ele>
        <time>2016-05-21T05:44:28Z</time>
      </trkpt>
      <trkpt lat="43.427993" lon="-2.749917">
        <ele>277.5</ele>
        <time>2016-05-21T05:44:31Z</time>
      </trkpt>
      <trkpt lat="43.427954" lon="-2.750161">
        <ele>275.1</ele>
        <time>2016-05-21T05:44:43Z</time>
      </trkpt>
      <trkpt lat="43.427937" lon="-2.750412">
        <ele>274.6</ele>
        <time>2016-05-21T05:44:54Z</time>
      </trkpt>
      <trkpt lat="43.427943" lon="-2.750726">
        <ele>274.1</ele>
        <time>2016-05-21T05:45:09Z</time>
      </trkpt>
      <trkpt lat="43.427950" lon="-2.750811">
        <ele>274.1</ele>
        <time>2016-05-21T05:45:13Z</time>
      </trkpt>
      <trkpt lat="43.427960" lon="-2.750876">
        <ele>274.1</ele>
        <time>2016-05-21T05:45:16Z</time>
      </trkpt>
      <trkpt lat="43.427960" lon="-2.750951">
        <ele>274.6</ele>
        <time>2016-05-21T05:45:20Z</time>
      </trkpt>
      <trkpt lat="43.427960" lon="-2.751074">
        <ele>274.1</ele>
        <time>2016-05-21T05:45:25Z</time>
      </trkpt>
      <trkpt lat="43.427979" lon="-2.751191">
        <ele>274.6</ele>
        <time>2016-05-21T05:45:30Z</time>
      </trkpt>
      <trkpt lat="43.427984" lon="-2.751305">
        <ele>274.6</ele>
        <time>2016-05-21T05:45:35Z</time>
      </trkpt>
      <trkpt lat="43.427978" lon="-2.751387">
        <ele>274.6</ele>
        <time>2016-05-21T05:45:39Z</time>
      </trkpt>
      <trkpt lat="43.427970" lon="-2.751717">
        <ele>278.0</ele>
        <time>2016-05-21T05:45:56Z</time>
      </trkpt>
      <trkpt lat="43.428010" lon="-2.752074">
        <ele>279.4</ele>
        <time>2016-05-21T05:46:14Z</time>
      </trkpt>
      <trkpt lat="43.428067" lon="-2.752363">
        <ele>278.0</ele>
        <time>2016-05-21T05:46:28Z</time>
      </trkpt>
      <trkpt lat="43.428084" lon="-2.752569">
        <ele>276.0</ele>
        <time>2016-05-21T05:46:41Z</time>
      </trkpt>
      <trkpt lat="43.428099" lon="-2.752871">
        <ele>274.1</ele>
        <time>2016-05-21T05:46:56Z</time>
      </trkpt>
      <trkpt lat="43.428139" lon="-2.753089">
        <ele>273.6</ele>
        <time>2016-05-21T05:47:07Z</time>
      </trkpt>
      <trkpt lat="43.428156" lon="-2.753170">
        <ele>273.2</ele>
        <time>2016-05-21T05:47:11Z</time>
      </trkpt>
      <trkpt lat="43.428181" lon="-2.753495">
        <ele>274.1</ele>
        <time>2016-05-21T05:47:27Z</time>
      </trkpt>
      <trkpt lat="43.428229" lon="-2.753837">
        <ele>274.6</ele>
        <time>2016-05-21T05:47:44Z</time>
      </trkpt>
      <trkpt lat="43.428271" lon="-2.754105">
        <ele>275.1</ele>
        <time>2016-05-21T05:47:58Z</time>
      </trkpt>
      <trkpt lat="43.428305" lon="-2.754221">
        <ele>277.0</ele>
        <time>2016-05-21T05:48:05Z</time>
      </trkpt>
      <trkpt lat="43.428342" lon="-2.754385">
        <ele>279.9</ele>
        <time>2016-05-21T05:48:15Z</time>
      </trkpt>
      <trkpt lat="43.428366" lon="-2.754703">
        <ele>283.7</ele>
        <time>2016-05-21T05:48:32Z</time>
      </trkpt>
      <trkpt lat="43.428361" lon="-2.755047">
        <ele>285.2</ele>
        <time>2016-05-21T05:48:51Z</time>
      </trkpt>
      <trkpt lat="43.428370" lon="-2.755331">
        <ele>287.1</ele>
        <time>2016-05-21T05:49:06Z</time>
      </trkpt>
      <trkpt lat="43.428419" lon="-2.755635">
        <ele>288.1</ele>
        <time>2016-05-21T05:49:22Z</time>
      </trkpt>
      <trkpt lat="43.428430" lon="-2.755669">
        <ele>288.5</ele>
        <time>2016-05-21T05:49:24Z</time>
      </trkpt>
      <trkpt lat="43.428470" lon="-2.755719">
        <ele>289.5</ele>
        <time>2016-05-21T05:49:28Z</time>
      </trkpt>
      <trkpt lat="43.428485" lon="-2.755746">
        <ele>290.5</ele>
        <time>2016-05-21T05:49:30Z</time>
      </trkpt>
      <trkpt lat="43.428508" lon="-2.755794">
        <ele>290.0</ele>
        <time>2016-05-21T05:49:33Z</time>
      </trkpt>
      <trkpt lat="43.428514" lon="-2.755908">
        <ele>291.9</ele>
        <time>2016-05-21T05:49:40Z</time>
      </trkpt>
      <trkpt lat="43.428514" lon="-2.756046">
        <ele>292.4</ele>
        <time>2016-05-21T05:49:48Z</time>
      </trkpt>
      <trkpt lat="43.428587" lon="-2.756344">
        <ele>294.3</ele>
        <time>2016-05-21T05:50:06Z</time>
      </trkpt>
      <trkpt lat="43.428601" lon="-2.756400">
        <ele>295.3</ele>
        <time>2016-05-21T05:50:10Z</time>
      </trkpt>
      <trkpt lat="43.428619" lon="-2.756442">
        <ele>296.7</ele>
        <time>2016-05-21T05:50:13Z</time>
      </trkpt>
      <trkpt lat="43.428712" lon="-2.756653">
        <ele>299.6</ele>
        <time>2016-05-21T05:50:29Z</time>
      </trkpt>
      <trkpt lat="43.428765" lon="-2.756887">
        <ele>302.5</ele>
        <time>2016-05-21T05:50:46Z</time>
      </trkpt>
      <trkpt lat="43.428783" lon="-2.757031">
        <ele>306.3</ele>
        <time>2016-05-21T05:50:56Z</time>
      </trkpt>
      <trkpt lat="43.428782" lon="-2.757044">
        <ele>306.3</ele>
        <time>2016-05-21T05:50:57Z</time>
      </trkpt>
      <trkpt lat="43.428795" lon="-2.757216">
        <ele>309.2</ele>
        <time>2016-05-21T05:51:09Z</time>
      </trkpt>
      <trkpt lat="43.428800" lon="-2.757384">
        <ele>312.6</ele>
        <time>2016-05-21T05:51:21Z</time>
      </trkpt>
      <trkpt lat="43.428836" lon="-2.757642">
        <ele>314.5</ele>
        <time>2016-05-21T05:51:38Z</time>
      </trkpt>
      <trkpt lat="43.428885" lon="-2.757962">
        <ele>314.5</ele>
        <time>2016-05-21T05:51:55Z</time>
      </trkpt>
      <trkpt lat="43.428926" lon="-2.758141">
        <ele>315.4</ele>
        <time>2016-05-21T05:52:04Z</time>
      </trkpt>
      <trkpt lat="43.428942" lon="-2.758293">
        <ele>315.4</ele>
        <time>2016-05-21T05:52:12Z</time>
      </trkpt>
      <trkpt lat="43.428999" lon="-2.758557">
        <ele>317.9</ele>
        <time>2016-05-21T05:52:27Z</time>
      </trkpt>
      <trkpt lat="43.429039" lon="-2.758608">
        <ele>316.9</ele>
        <time>2016-05-21T05:52:31Z</time>
      </trkpt>
      <trkpt lat="43.429084" lon="-2.758595">
        <ele>316.9</ele>
        <time>2016-05-21T05:52:41Z</time>
      </trkpt>
      <trkpt lat="43.429096" lon="-2.758572">
        <ele>318.3</ele>
        <time>2016-05-21T05:52:54Z</time>
      </trkpt>
      <trkpt lat="43.429167" lon="-2.758502">
        <ele>316.9</ele>
        <time>2016-05-21T05:53:01Z</time>
      </trkpt>
      <trkpt lat="43.429229" lon="-2.758505">
        <ele>316.4</ele>
        <time>2016-05-21T05:53:06Z</time>
      </trkpt>
      <trkpt lat="43.429366" lon="-2.758601">
        <ele>318.3</ele>
        <time>2016-05-21T05:53:18Z</time>
      </trkpt>
      <trkpt lat="43.429511" lon="-2.758801">
        <ele>320.3</ele>
        <time>2016-05-21T05:53:33Z</time>
      </trkpt>
      <trkpt lat="43.429541" lon="-2.758869">
        <ele>320.7</ele>
        <time>2016-05-21T05:53:38Z</time>
      </trkpt>
      <trkpt lat="43.429612" lon="-2.759019">
        <ele>321.2</ele>
        <time>2016-05-21T05:53:47Z</time>
      </trkpt>
      <trkpt lat="43.429700" lon="-2.759102">
        <ele>321.2</ele>
        <time>2016-05-21T05:53:52Z</time>
      </trkpt>
      <trkpt lat="43.429838" lon="-2.759218">
        <ele>322.7</ele>
        <time>2016-05-21T05:54:06Z</time>
      </trkpt>
      <trkpt lat="43.429965" lon="-2.759270">
        <ele>324.1</ele>
        <time>2016-05-21T05:54:17Z</time>
      </trkpt>
      <trkpt lat="43.430019" lon="-2.759322">
        <ele>325.1</ele>
        <time>2016-05-21T05:54:22Z</time>
      </trkpt>
      <trkpt lat="43.430082" lon="-2.759401">
        <ele>328.4</ele>
        <time>2016-05-21T05:54:29Z</time>
      </trkpt>
      <trkpt lat="43.430111" lon="-2.759440">
        <ele>327.5</ele>
        <time>2016-05-21T05:54:32Z</time>
      </trkpt>
      <trkpt lat="43.430263" lon="-2.759622">
        <ele>329.9</ele>
        <time>2016-05-21T05:54:48Z</time>
      </trkpt>
      <trkpt lat="43.430434" lon="-2.759604">
        <ele>331.8</ele>
        <time>2016-05-21T05:55:02Z</time>
      </trkpt>
      <trkpt lat="43.430571" lon="-2.759495">
        <ele>333.2</ele>
        <time>2016-05-21T05:55:16Z</time>
      </trkpt>
      <trkpt lat="43.430598" lon="-2.759379">
        <ele>332.8</ele>
        <time>2016-05-21T05:55:29Z</time>
      </trkpt>
      <trkpt lat="43.430586" lon="-2.759362">
        <ele>333.2</ele>
        <time>2016-05-21T05:55:36Z</time>
      </trkpt>
      <trkpt lat="43.430616" lon="-2.759283">
        <ele>331.8</ele>
        <time>2016-05-21T05:55:40Z</time>
      </trkpt>
      <trkpt lat="43.430708" lon="-2.759053">
        <ele>332.8</ele>
        <time>2016-05-21T05:55:53Z</time>
      </trkpt>
      <trkpt lat="43.430727" lon="-2.759024">
        <ele>332.8</ele>
        <time>2016-05-21T05:55:55Z</time>
      </trkpt>
      <trkpt lat="43.430877" lon="-2.758867">
        <ele>334.2</ele>
        <time>2016-05-21T05:56:09Z</time>
      </trkpt>
      <trkpt lat="43.430891" lon="-2.758860">
        <ele>334.2</ele>
        <time>2016-05-21T05:56:10Z</time>
      </trkpt>
      <trkpt lat="43.431087" lon="-2.758756">
        <ele>335.2</ele>
        <time>2016-05-21T05:56:25Z</time>
      </trkpt>
      <trkpt lat="43.431271" lon="-2.758730">
        <ele>336.6</ele>
        <time>2016-05-21T05:56:37Z</time>
      </trkpt>
      <trkpt lat="43.431430" lon="-2.758640">
        <ele>336.6</ele>
        <time>2016-05-21T05:56:49Z</time>
      </trkpt>
      <trkpt lat="43.431587" lon="-2.758608">
        <ele>336.1</ele>
        <time>2016-05-21T05:57:01Z</time>
      </trkpt>
      <trkpt lat="43.431633" lon="-2.758603">
        <ele>336.6</ele>
        <time>2016-05-21T05:57:05Z</time>
      </trkpt>
      <trkpt lat="43.431841" lon="-2.758570">
        <ele>337.6</ele>
        <time>2016-05-21T05:57:20Z</time>
      </trkpt>
      <trkpt lat="43.432012" lon="-2.758593">
        <ele>338.0</ele>
        <time>2016-05-21T05:57:33Z</time>
      </trkpt>
      <trkpt lat="43.432083" lon="-2.758611">
        <ele>337.1</ele>
        <time>2016-05-21T05:57:40Z</time>
      </trkpt>
      <trkpt lat="43.432256" lon="-2.758708">
        <ele>338.5</ele>
        <time>2016-05-21T05:57:54Z</time>
      </trkpt>
      <trkpt lat="43.432395" lon="-2.758751">
        <ele>338.5</ele>
        <time>2016-05-21T05:58:05Z</time>
      </trkpt>
      <trkpt lat="43.432550" lon="-2.758804">
        <ele>339.0</ele>
        <time>2016-05-21T05:58:17Z</time>
      </trkpt>
      <trkpt lat="43.432695" lon="-2.758850">
        <ele>339.0</ele>
        <time>2016-05-21T05:58:30Z</time>
      </trkpt>
      <trkpt lat="43.432721" lon="-2.758880">
        <ele>339.5</ele>
        <time>2016-05-21T05:58:33Z</time>
      </trkpt>
      <trkpt lat="43.432817" lon="-2.758898">
        <ele>340.0</ele>
        <time>2016-05-21T05:58:48Z</time>
      </trkpt>
      <trkpt lat="43.432894" lon="-2.758897">
        <ele>339.0</ele>
        <time>2016-05-21T05:58:58Z</time>
      </trkpt>
      <trkpt lat="43.433111" lon="-2.758869">
        <ele>336.6</ele>
        <time>2016-05-21T05:59:13Z</time>
      </trkpt>
      <trkpt lat="43.433292" lon="-2.758801">
        <ele>335.6</ele>
        <time>2016-05-21T05:59:27Z</time>
      </trkpt>
      <trkpt lat="43.433310" lon="-2.758765">
        <ele>336.1</ele>
        <time>2016-05-21T05:59:29Z</time>
      </trkpt>
      <trkpt lat="43.433370" lon="-2.758723">
        <ele>336.6</ele>
        <time>2016-05-21T05:59:43Z</time>
      </trkpt>
      <trkpt lat="43.433387" lon="-2.758713">
        <ele>336.1</ele>
        <time>2016-05-21T05:59:45Z</time>
      </trkpt>
      <trkpt lat="43.433565" lon="-2.758608">
        <ele>336.1</ele>
        <time>2016-05-21T06:00:00Z</time>
      </trkpt>
      <trkpt lat="43.433772" lon="-2.758514">
        <ele>335.2</ele>
        <time>2016-05-21T06:00:15Z</time>
      </trkpt>
      <trkpt lat="43.433966" lon="-2.758588">
        <ele>335.6</ele>
        <time>2016-05-21T06:00:31Z</time>
      </trkpt>
      <trkpt lat="43.434049" lon="-2.758620">
        <ele>336.1</ele>
        <time>2016-05-21T06:00:38Z</time>
      </trkpt>
      <trkpt lat="43.434120" lon="-2.758507">
        <ele>335.6</ele>
        <time>2016-05-21T06:00:49Z</time>
      </trkpt>
      <trkpt lat="43.434037" lon="-2.758305">
        <ele>336.6</ele>
        <time>2016-05-21T06:01:01Z</time>
      </trkpt>
      <trkpt lat="43.433993" lon="-2.758002">
        <ele>335.6</ele>
        <time>2016-05-21T06:01:18Z</time>
      </trkpt>
      <trkpt lat="43.433991" lon="-2.757907">
        <ele>335.6</ele>
        <time>2016-05-21T06:01:23Z</time>
      </trkpt>
      <trkpt lat="43.434129" lon="-2.757743">
        <ele>337.6</ele>
        <time>2016-05-21T06:01:37Z</time>
      </trkpt>
      <trkpt lat="43.434154" lon="-2.757733">
        <ele>337.1</ele>
        <time>2016-05-21T06:01:39Z</time>
      </trkpt>
      <trkpt lat="43.434249" lon="-2.757718">
        <ele>339.0</ele>
        <time>2016-05-21T06:01:52Z</time>
      </trkpt>
      <trkpt lat="43.434383" lon="-2.757764">
        <ele>342.4</ele>
        <time>2016-05-21T06:02:03Z</time>
      </trkpt>
      <trkpt lat="43.434470" lon="-2.757770">
        <ele>343.8</ele>
        <time>2016-05-21T06:02:10Z</time>
      </trkpt>
      <trkpt lat="43.434616" lon="-2.757747">
        <ele>344.8</ele>
        <time>2016-05-21T06:02:21Z</time>
      </trkpt>
      <trkpt lat="43.434591" lon="-2.757729">
        <ele>343.3</ele>
        <time>2016-05-21T06:02:24Z</time>
      </trkpt>
      <trkpt lat="43.434590" lon="-2.757727">
        <ele>343.8</ele>
        <time>2016-05-21T06:02:26Z</time>
      </trkpt>
      <trkpt lat="43.434599" lon="-2.757720">
        <ele>344.8</ele>
        <time>2016-05-21T06:02:37Z</time>
      </trkpt>
      <trkpt lat="43.434802" lon="-2.757714">
        <ele>345.7</ele>
        <time>2016-05-21T06:02:52Z</time>
      </trkpt>
      <trkpt lat="43.434870" lon="-2.757752">
        <ele>345.7</ele>
        <time>2016-05-21T06:02:57Z</time>
      </trkpt>
      <trkpt lat="43.435021" lon="-2.757894">
        <ele>349.6</ele>
        <time>2016-05-21T06:03:10Z</time>
      </trkpt>
      <trkpt lat="43.435030" lon="-2.757904">
        <ele>350.1</ele>
        <time>2016-05-21T06:03:11Z</time>
      </trkpt>
      <trkpt lat="43.435182" lon="-2.758019">
        <ele>351.0</ele>
        <time>2016-05-21T06:03:23Z</time>
      </trkpt>
      <trkpt lat="43.435340" lon="-2.758085">
        <ele>352.9</ele>
        <time>2016-05-21T06:03:35Z</time>
      </trkpt>
      <trkpt lat="43.435562" lon="-2.758138">
        <ele>355.8</ele>
        <time>2016-05-21T06:03:49Z</time>
      </trkpt>
      <trkpt lat="43.435571" lon="-2.758144">
        <ele>355.8</ele>
        <time>2016-05-21T06:03:50Z</time>
      </trkpt>
      <trkpt lat="43.435626" lon="-2.758180">
        <ele>357.3</ele>
        <time>2016-05-21T06:03:55Z</time>
      </trkpt>
      <trkpt lat="43.435677" lon="-2.758219">
        <ele>359.2</ele>
        <time>2016-05-21T06:03:59Z</time>
      </trkpt>
      <trkpt lat="43.435763" lon="-2.758285">
        <ele>359.2</ele>
        <time>2016-05-21T06:04:08Z</time>
      </trkpt>
      <trkpt lat="43.435781" lon="-2.758290">
        <ele>360.2</ele>
        <time>2016-05-21T06:04:10Z</time>
      </trkpt>
      <trkpt lat="43.435837" lon="-2.758302">
        <ele>361.1</ele>
        <time>2016-05-21T06:04:15Z</time>
      </trkpt>
      <trkpt lat="43.436012" lon="-2.758348">
        <ele>360.2</ele>
        <time>2016-05-21T06:04:28Z</time>
      </trkpt>
      <trkpt lat="43.436033" lon="-2.758353">
        <ele>359.7</ele>
        <time>2016-05-21T06:04:30Z</time>
      </trkpt>
      <trkpt lat="43.436126" lon="-2.758421">
        <ele>360.2</ele>
        <time>2016-05-21T06:04:42Z</time>
      </trkpt>
      <trkpt lat="43.436133" lon="-2.758423">
        <ele>360.2</ele>
        <time>2016-05-21T06:04:43Z</time>
      </trkpt>
      <trkpt lat="43.436183" lon="-2.758464">
        <ele>360.6</ele>
        <time>2016-05-21T06:04:53Z</time>
      </trkpt>
      <trkpt lat="43.436240" lon="-2.758527">
        <ele>362.1</ele>
        <time>2016-05-21T06:05:03Z</time>
      </trkpt>
      <trkpt lat="43.436294" lon="-2.758584">
        <ele>363.0</ele>
        <time>2016-05-21T06:05:13Z</time>
      </trkpt>
      <trkpt lat="43.436380" lon="-2.758591">
        <ele>362.6</ele>
        <time>2016-05-21T06:05:23Z</time>
      </trkpt>
      <trkpt lat="43.436393" lon="-2.758578">
        <ele>363.0</ele>
        <time>2016-05-21T06:05:25Z</time>
      </trkpt>
      <trkpt lat="43.436435" lon="-2.758600">
        <ele>361.6</ele>
        <time>2016-05-21T06:05:30Z</time>
      </trkpt>
      <trkpt lat="43.436414" lon="-2.758707">
        <ele>362.6</ele>
        <time>2016-05-21T06:05:41Z</time>
      </trkpt>
      <trkpt lat="43.436480" lon="-2.758786">
        <ele>361.6</ele>
        <time>2016-05-21T06:05:54Z</time>
      </trkpt>
      <trkpt lat="43.436531" lon="-2.758802">
        <ele>363.5</ele>
        <time>2016-05-21T06:06:05Z</time>
      </trkpt>
      <trkpt lat="43.436558" lon="-2.758829">
        <ele>362.1</ele>
        <time>2016-05-21T06:06:16Z</time>
      </trkpt>
      <trkpt lat="43.436641" lon="-2.758837">
        <ele>365.0</ele>
        <time>2016-05-21T06:06:36Z</time>
      </trkpt>
      <trkpt lat="43.436697" lon="-2.758853">
        <ele>365.9</ele>
        <time>2016-05-21T06:06:46Z</time>
      </trkpt>
      <trkpt lat="43.436755" lon="-2.758837">
        <ele>365.0</ele>
        <time>2016-05-21T06:06:57Z</time>
      </trkpt>
      <trkpt lat="43.436866" lon="-2.758823">
        <ele>366.4</ele>
        <time>2016-05-21T06:07:12Z</time>
      </trkpt>
      <trkpt lat="43.436899" lon="-2.758881">
        <ele>366.4</ele>
        <time>2016-05-21T06:07:33Z</time>
      </trkpt>
      <trkpt lat="43.436974" lon="-2.758975">
        <ele>367.4</ele>
        <time>2016-05-21T06:07:46Z</time>
      </trkpt>
      <trkpt lat="43.436976" lon="-2.758981">
        <ele>367.8</ele>
        <time>2016-05-21T06:07:47Z</time>
      </trkpt>
      <trkpt lat="43.437013" lon="-2.759053">
        <ele>367.8</ele>
        <time>2016-05-21T06:08:01Z</time>
      </trkpt>
      <trkpt lat="43.437043" lon="-2.759120">
        <ele>367.8</ele>
        <time>2016-05-21T06:08:12Z</time>
      </trkpt>
      <trkpt lat="43.437075" lon="-2.759264">
        <ele>368.3</ele>
        <time>2016-05-21T06:08:31Z</time>
      </trkpt>
      <trkpt lat="43.437247" lon="-2.759212">
        <ele>367.8</ele>
        <time>2016-05-21T06:08:46Z</time>
      </trkpt>
      <trkpt lat="43.437315" lon="-2.759205">
        <ele>367.8</ele>
        <time>2016-05-21T06:08:58Z</time>
      </trkpt>
      <trkpt lat="43.437311" lon="-2.759202">
        <ele>366.4</ele>
        <time>2016-05-21T06:09:05Z</time>
      </trkpt>
      <trkpt lat="43.437326" lon="-2.759205">
        <ele>368.3</ele>
        <time>2016-05-21T06:09:15Z</time>
      </trkpt>
      <trkpt lat="43.437433" lon="-2.759256">
        <ele>368.3</ele>
        <time>2016-05-21T06:09:26Z</time>
      </trkpt>
      <trkpt lat="43.437550" lon="-2.759349">
        <ele>370.7</ele>
        <time>2016-05-21T06:09:38Z</time>
      </trkpt>
      <trkpt lat="43.437638" lon="-2.759456">
        <ele>374.1</ele>
        <time>2016-05-21T06:09:47Z</time>
      </trkpt>
      <trkpt lat="43.437682" lon="-2.759513">
        <ele>374.1</ele>
        <time>2016-05-21T06:09:52Z</time>
      </trkpt>
      <trkpt lat="43.437802" lon="-2.759773">
        <ele>376.0</ele>
        <time>2016-05-21T06:10:09Z</time>
      </trkpt>
      <trkpt lat="43.437831" lon="-2.759997">
        <ele>375.5</ele>
        <time>2016-05-21T06:10:22Z</time>
      </trkpt>
      <trkpt lat="43.437989" lon="-2.760120">
        <ele>375.5</ele>
        <time>2016-05-21T06:10:36Z</time>
      </trkpt>
      <trkpt lat="43.438140" lon="-2.760233">
        <ele>376.5</ele>
        <time>2016-05-21T06:10:49Z</time>
      </trkpt>
      <trkpt lat="43.438240" lon="-2.760339">
        <ele>375.5</ele>
        <time>2016-05-21T06:10:58Z</time>
      </trkpt>
      <trkpt lat="43.438308" lon="-2.760382">
        <ele>375.5</ele>
        <time>2016-05-21T06:11:04Z</time>
      </trkpt>
      <trkpt lat="43.438350" lon="-2.760432">
        <ele>376.0</ele>
        <time>2016-05-21T06:11:08Z</time>
      </trkpt>
      <trkpt lat="43.438387" lon="-2.760464">
        <ele>375.5</ele>
        <time>2016-05-21T06:11:11Z</time>
      </trkpt>
      <trkpt lat="43.438416" lon="-2.760508">
        <ele>374.6</ele>
        <time>2016-05-21T06:11:14Z</time>
      </trkpt>
      <trkpt lat="43.438412" lon="-2.760571">
        <ele>375.5</ele>
        <time>2016-05-21T06:11:18Z</time>
      </trkpt>
      <trkpt lat="43.438451" lon="-2.760647">
        <ele>375.5</ele>
        <time>2016-05-21T06:11:23Z</time>
      </trkpt>
      <trkpt lat="43.438480" lon="-2.760701">
        <ele>376.0</ele>
        <time>2016-05-21T06:11:27Z</time>
      </trkpt>
      <trkpt lat="43.438619" lon="-2.760802">
        <ele>375.5</ele>
        <time>2016-05-21T06:11:37Z</time>
      </trkpt>
      <trkpt lat="43.438830" lon="-2.760982">
        <ele>372.6</ele>
        <time>2016-05-21T06:11:52Z</time>
      </trkpt>
      <trkpt lat="43.438854" lon="-2.761003">
        <ele>371.7</ele>
        <time>2016-05-21T06:11:54Z</time>
      </trkpt>
      <trkpt lat="43.439047" lon="-2.760988">
        <ele>372.6</ele>
        <time>2016-05-21T06:12:08Z</time>
      </trkpt>
      <trkpt lat="43.439069" lon="-2.760978">
        <ele>374.1</ele>
        <time>2016-05-21T06:12:10Z</time>
      </trkpt>
      <trkpt lat="43.439255" lon="-2.761054">
        <ele>374.6</ele>
        <time>2016-05-21T06:12:27Z</time>
      </trkpt>
      <trkpt lat="43.439516" lon="-2.761154">
        <ele>376.5</ele>
        <time>2016-05-21T06:12:50Z</time>
      </trkpt>
      <trkpt lat="43.439729" lon="-2.761212">
        <ele>376.5</ele>
        <time>2016-05-21T06:13:11Z</time>
      </trkpt>
      <trkpt lat="43.439831" lon="-2.761238">
        <ele>377.0</ele>
        <time>2016-05-21T06:13:28Z</time>
      </trkpt>
      <trkpt lat="43.439856" lon="-2.761238">
        <ele>377.0</ele>
        <time>2016-05-21T06:13:31Z</time>
      </trkpt>
      <trkpt lat="43.440022" lon="-2.761191">
        <ele>376.5</ele>
        <time>2016-05-21T06:13:50Z</time>
      </trkpt>
      <trkpt lat="43.440073" lon="-2.761137">
        <ele>376.0</ele>
        <time>2016-05-21T06:13:59Z</time>
      </trkpt>
      <trkpt lat="43.440154" lon="-2.761089">
        <ele>374.1</ele>
        <time>2016-05-21T06:14:16Z</time>
      </trkpt>
      <trkpt lat="43.440207" lon="-2.760979">
        <ele>373.6</ele>
        <time>2016-05-21T06:14:31Z</time>
      </trkpt>
      <trkpt lat="43.440281" lon="-2.760891">
        <ele>373.1</ele>
        <time>2016-05-21T06:14:52Z</time>
      </trkpt>
      <trkpt lat="43.440350" lon="-2.760827">
        <ele>372.2</ele>
        <time>2016-05-21T06:15:06Z</time>
      </trkpt>
      <trkpt lat="43.440463" lon="-2.760779">
        <ele>371.7</ele>
        <time>2016-05-21T06:15:23Z</time>
      </trkpt>
      <trkpt lat="43.440617" lon="-2.760659">
        <ele>370.7</ele>
        <time>2016-05-21T06:15:39Z</time>
      </trkpt>
      <trkpt lat="43.440625" lon="-2.760315">
        <ele>371.7</ele>
        <time>2016-05-21T06:15:58Z</time>
      </trkpt>
      <trkpt lat="43.440697" lon="-2.760077">
        <ele>371.7</ele>
        <time>2016-05-21T06:16:13Z</time>
      </trkpt>
      <trkpt lat="43.440791" lon="-2.759944">
        <ele>369.3</ele>
        <time>2016-05-21T06:16:24Z</time>
      </trkpt>
      <trkpt lat="43.440903" lon="-2.759818">
        <ele>365.9</ele>
        <time>2016-05-21T06:16:36Z</time>
      </trkpt>
      <trkpt lat="43.440918" lon="-2.759794">
        <ele>365.4</ele>
        <time>2016-05-21T06:16:38Z</time>
      </trkpt>
      <trkpt lat="43.441030" lon="-2.759659">
        <ele>361.6</ele>
        <time>2016-05-21T06:16:51Z</time>
      </trkpt>
      <trkpt lat="43.441042" lon="-2.759657">
        <ele>361.6</ele>
        <time>2016-05-21T06:16:52Z</time>
      </trkpt>
      <trkpt lat="43.441262" lon="-2.759666">
        <ele>358.2</ele>
        <time>2016-05-21T06:17:10Z</time>
      </trkpt>
      <trkpt lat="43.441321" lon="-2.759628">
        <ele>357.3</ele>
        <time>2016-05-21T06:17:15Z</time>
      </trkpt>
      <trkpt lat="43.441434" lon="-2.759517">
        <ele>354.4</ele>
        <time>2016-05-21T06:17:25Z</time>
      </trkpt>
      <trkpt lat="43.441567" lon="-2.759402">
        <ele>351.0</ele>
        <time>2016-05-21T06:17:37Z</time>
      </trkpt>
      <trkpt lat="43.441673" lon="-2.759342">
        <ele>347.7</ele>
        <time>2016-05-21T06:17:46Z</time>
      </trkpt>
      <trkpt lat="43.441916" lon="-2.759237">
        <ele>345.3</ele>
        <time>2016-05-21T06:18:05Z</time>
      </trkpt>
      <trkpt lat="43.442013" lon="-2.759148">
        <ele>341.9</ele>
        <time>2016-05-21T06:18:14Z</time>
      </trkpt>
      <trkpt lat="43.442024" lon="-2.759142">
        <ele>341.9</ele>
        <time>2016-05-21T06:18:15Z</time>
      </trkpt>
      <trkpt lat="43.442056" lon="-2.759121">
        <ele>340.4</ele>
        <time>2016-05-21T06:18:18Z</time>
      </trkpt>
      <trkpt lat="43.442101" lon="-2.759088">
        <ele>338.5</ele>
        <time>2016-05-21T06:18:22Z</time>
      </trkpt>
      <trkpt lat="43.442174" lon="-2.759040">
        <ele>335.6</ele>
        <time>2016-05-21T06:18:28Z</time>
      </trkpt>
      <trkpt lat="43.442221" lon="-2.759004">
        <ele>334.2</ele>
        <time>2016-05-21T06:18:32Z</time>
      </trkpt>
      <trkpt lat="43.442300" lon="-2.758952">
        <ele>332.3</ele>
        <time>2016-05-21T06:18:39Z</time>
      </trkpt>
      <trkpt lat="43.442423" lon="-2.758872">
        <ele>328.4</ele>
        <time>2016-05-21T06:18:50Z</time>
      </trkpt>
      <trkpt lat="43.442434" lon="-2.758865">
        <ele>328.4</ele>
        <time>2016-05-21T06:18:51Z</time>
      </trkpt>
      <trkpt lat="43.442557" lon="-2.758799">
        <ele>324.6</ele>
        <time>2016-05-21T06:19:01Z</time>
      </trkpt>
      <trkpt lat="43.442661" lon="-2.758736">
        <ele>321.2</ele>
        <time>2016-05-21T06:19:10Z</time>
      </trkpt>
      <trkpt lat="43.442722" lon="-2.758697">
        <ele>320.3</ele>
        <time>2016-05-21T06:19:16Z</time>
      </trkpt>
      <trkpt lat="43.442830" lon="-2.758634">
        <ele>316.9</ele>
        <time>2016-05-21T06:19:26Z</time>
      </trkpt>
      <trkpt lat="43.442842" lon="-2.758627">
        <ele>316.9</ele>
        <time>2016-05-21T06:19:27Z</time>
      </trkpt>
      <trkpt lat="43.442928" lon="-2.758569">
        <ele>314.0</ele>
        <time>2016-05-21T06:19:35Z</time>
      </trkpt>
      <trkpt lat="43.442950" lon="-2.758554">
        <ele>313.0</ele>
        <time>2016-05-21T06:19:37Z</time>
      </trkpt>
      <trkpt lat="43.443006" lon="-2.758508">
        <ele>311.1</ele>
        <time>2016-05-21T06:19:43Z</time>
      </trkpt>
      <trkpt lat="43.443082" lon="-2.758447">
        <ele>307.8</ele>
        <time>2016-05-21T06:19:51Z</time>
      </trkpt>
      <trkpt lat="43.443119" lon="-2.758412">
        <ele>306.3</ele>
        <time>2016-05-21T06:19:55Z</time>
      </trkpt>
      <trkpt lat="43.443193" lon="-2.758336">
        <ele>303.0</ele>
        <time>2016-05-21T06:20:03Z</time>
      </trkpt>
      <trkpt lat="43.443295" lon="-2.758272">
        <ele>299.6</ele>
        <time>2016-05-21T06:20:12Z</time>
      </trkpt>
      <trkpt lat="43.443422" lon="-2.758212">
        <ele>296.2</ele>
        <time>2016-05-21T06:20:22Z</time>
      </trkpt>
      <trkpt lat="43.443449" lon="-2.758194">
        <ele>295.3</ele>
        <time>2016-05-21T06:20:24Z</time>
      </trkpt>
      <trkpt lat="43.443646" lon="-2.758016">
        <ele>292.4</ele>
        <time>2016-05-21T06:20:40Z</time>
      </trkpt>
      <trkpt lat="43.443835" lon="-2.757838">
        <ele>289.5</ele>
        <time>2016-05-21T06:20:55Z</time>
      </trkpt>
      <trkpt lat="43.444163" lon="-2.757638">
        <ele>290.9</ele>
        <time>2016-05-21T06:21:19Z</time>
      </trkpt>
      <trkpt lat="43.444236" lon="-2.757605">
        <ele>289.0</ele>
        <time>2016-05-21T06:21:24Z</time>
      </trkpt>
      <trkpt lat="43.444484" lon="-2.757450">
        <ele>287.6</ele>
        <time>2016-05-21T06:21:43Z</time>
      </trkpt>
      <trkpt lat="43.444648" lon="-2.757351">
        <ele>283.7</ele>
        <time>2016-05-21T06:21:56Z</time>
      </trkpt>
      <trkpt lat="43.444659" lon="-2.757344">
        <ele>283.7</ele>
        <time>2016-05-21T06:21:57Z</time>
      </trkpt>
      <trkpt lat="43.444728" lon="-2.757295">
        <ele>281.3</ele>
        <time>2016-05-21T06:22:03Z</time>
      </trkpt>
      <trkpt lat="43.444830" lon="-2.757227">
        <ele>278.0</ele>
        <time>2016-05-21T06:22:12Z</time>
      </trkpt>
      <trkpt lat="43.444997" lon="-2.757119">
        <ele>274.6</ele>
        <time>2016-05-21T06:22:26Z</time>
      </trkpt>
      <trkpt lat="43.445135" lon="-2.757031">
        <ele>271.7</ele>
        <time>2016-05-21T06:22:38Z</time>
      </trkpt>
      <trkpt lat="43.445265" lon="-2.756948">
        <ele>267.9</ele>
        <time>2016-05-21T06:22:49Z</time>
      </trkpt>
      <trkpt lat="43.445443" lon="-2.756815">
        <ele>265.9</ele>
        <time>2016-05-21T06:23:03Z</time>
      </trkpt>
      <trkpt lat="43.445641" lon="-2.756699">
        <ele>262.6</ele>
        <time>2016-05-21T06:23:19Z</time>
      </trkpt>
      <trkpt lat="43.445817" lon="-2.756615">
        <ele>259.2</ele>
        <time>2016-05-21T06:23:34Z</time>
      </trkpt>
      <trkpt lat="43.445826" lon="-2.756607">
        <ele>259.2</ele>
        <time>2016-05-21T06:23:35Z</time>
      </trkpt>
      <trkpt lat="43.445974" lon="-2.756523">
        <ele>255.8</ele>
        <time>2016-05-21T06:23:48Z</time>
      </trkpt>
      <trkpt lat="43.446044" lon="-2.756465">
        <ele>253.9</ele>
        <time>2016-05-21T06:23:55Z</time>
      </trkpt>
      <trkpt lat="43.446084" lon="-2.756436">
        <ele>252.0</ele>
        <time>2016-05-21T06:23:59Z</time>
      </trkpt>
      <trkpt lat="43.446200" lon="-2.756405">
        <ele>248.6</ele>
        <time>2016-05-21T06:24:09Z</time>
      </trkpt>
      <trkpt lat="43.446319" lon="-2.756340">
        <ele>245.8</ele>
        <time>2016-05-21T06:24:20Z</time>
      </trkpt>
      <trkpt lat="43.446456" lon="-2.756240">
        <ele>242.4</ele>
        <time>2016-05-21T06:24:32Z</time>
      </trkpt>
      <trkpt lat="43.446512" lon="-2.756192">
        <ele>241.4</ele>
        <time>2016-05-21T06:24:38Z</time>
      </trkpt>
      <trkpt lat="43.446535" lon="-2.756141">
        <ele>239.0</ele>
        <time>2016-05-21T06:24:42Z</time>
      </trkpt>
      <trkpt lat="43.446637" lon="-2.756062">
        <ele>235.7</ele>
        <time>2016-05-21T06:24:52Z</time>
      </trkpt>
      <trkpt lat="43.446647" lon="-2.756052">
        <ele>235.7</ele>
        <time>2016-05-21T06:24:53Z</time>
      </trkpt>
      <trkpt lat="43.446669" lon="-2.756034">
        <ele>234.2</ele>
        <time>2016-05-21T06:24:55Z</time>
      </trkpt>
      <trkpt lat="43.446726" lon="-2.755983">
        <ele>231.8</ele>
        <time>2016-05-21T06:25:00Z</time>
      </trkpt>
      <trkpt lat="43.446777" lon="-2.755945">
        <ele>229.9</ele>
        <time>2016-05-21T06:25:04Z</time>
      </trkpt>
      <trkpt lat="43.446896" lon="-2.755822">
        <ele>226.5</ele>
        <time>2016-05-21T06:25:15Z</time>
      </trkpt>
      <trkpt lat="43.446882" lon="-2.755598">
        <ele>223.2</ele>
        <time>2016-05-21T06:25:27Z</time>
      </trkpt>
      <trkpt lat="43.446874" lon="-2.755539">
        <ele>222.2</ele>
        <time>2016-05-21T06:25:30Z</time>
      </trkpt>
      <trkpt lat="43.447071" lon="-2.755542">
        <ele>223.2</ele>
        <time>2016-05-21T06:25:46Z</time>
      </trkpt>
      <trkpt lat="43.447200" lon="-2.755747">
        <ele>223.2</ele>
        <time>2016-05-21T06:26:02Z</time>
      </trkpt>
      <trkpt lat="43.447206" lon="-2.755784">
        <ele>223.2</ele>
        <time>2016-05-21T06:26:05Z</time>
      </trkpt>
      <trkpt lat="43.447197" lon="-2.755869">
        <ele>223.2</ele>
        <time>2016-05-21T06:26:11Z</time>
      </trkpt>
      <trkpt lat="43.447142" lon="-2.756173">
        <ele>220.3</ele>
        <time>2016-05-21T06:26:29Z</time>
      </trkpt>
      <trkpt lat="43.447031" lon="-2.756402">
        <ele>219.8</ele>
        <time>2016-05-21T06:26:45Z</time>
      </trkpt>
      <trkpt lat="43.446965" lon="-2.756447">
        <ele>218.8</ele>
        <time>2016-05-21T06:26:50Z</time>
      </trkpt>
      <trkpt lat="43.446942" lon="-2.756499">
        <ele>220.3</ele>
        <time>2016-05-21T06:26:54Z</time>
      </trkpt>
      <trkpt lat="43.446843" lon="-2.756798">
        <ele>220.3</ele>
        <time>2016-05-21T06:27:11Z</time>
      </trkpt>
      <trkpt lat="43.446766" lon="-2.757078">
        <ele>220.8</ele>
        <time>2016-05-21T06:27:28Z</time>
      </trkpt>
      <trkpt lat="43.446718" lon="-2.757286">
        <ele>220.3</ele>
        <time>2016-05-21T06:27:41Z</time>
      </trkpt>
      <trkpt lat="43.446637" lon="-2.757641">
        <ele>222.2</ele>
        <time>2016-05-21T06:28:02Z</time>
      </trkpt>
      <trkpt lat="43.446552" lon="-2.757992">
        <ele>222.2</ele>
        <time>2016-05-21T06:28:23Z</time>
      </trkpt>
      <trkpt lat="43.446488" lon="-2.758343">
        <ele>222.7</ele>
        <time>2016-05-21T06:28:42Z</time>
      </trkpt>
      <trkpt lat="43.446429" lon="-2.758607">
        <ele>225.1</ele>
        <time>2016-05-21T06:28:59Z</time>
      </trkpt>
      <trkpt lat="43.446423" lon="-2.758624">
        <ele>224.1</ele>
        <time>2016-05-21T06:29:01Z</time>
      </trkpt>
      <trkpt lat="43.446381" lon="-2.758735">
        <ele>224.1</ele>
        <time>2016-05-21T06:29:09Z</time>
      </trkpt>
      <trkpt lat="43.446280" lon="-2.758993">
        <ele>225.1</ele>
        <time>2016-05-21T06:29:26Z</time>
      </trkpt>
      <trkpt lat="43.446226" lon="-2.759176">
        <ele>225.1</ele>
        <time>2016-05-21T06:29:37Z</time>
      </trkpt>
      <trkpt lat="43.446201" lon="-2.759170">
        <ele>224.6</ele>
        <time>2016-05-21T06:29:40Z</time>
      </trkpt>
      <trkpt lat="43.446142" lon="-2.759273">
        <ele>226.0</ele>
        <time>2016-05-21T06:29:48Z</time>
      </trkpt>
      <trkpt lat="43.446020" lon="-2.759762">
        <ele>227.0</ele>
        <time>2016-05-21T06:30:13Z</time>
      </trkpt>
      <trkpt lat="43.445937" lon="-2.760110">
        <ele>225.1</ele>
        <time>2016-05-21T06:30:30Z</time>
      </trkpt>
      <trkpt lat="43.445891" lon="-2.760511">
        <ele>223.6</ele>
        <time>2016-05-21T06:30:49Z</time>
      </trkpt>
      <trkpt lat="43.445833" lon="-2.760829">
        <ele>222.2</ele>
        <time>2016-05-21T06:31:05Z</time>
      </trkpt>
      <trkpt lat="43.445824" lon="-2.761180">
        <ele>220.8</ele>
        <time>2016-05-21T06:31:22Z</time>
      </trkpt>
      <trkpt lat="43.445778" lon="-2.761606">
        <ele>218.8</ele>
        <time>2016-05-21T06:31:42Z</time>
      </trkpt>
      <trkpt lat="43.445744" lon="-2.761969">
        <ele>218.4</ele>
        <time>2016-05-21T06:31:59Z</time>
      </trkpt>
      <trkpt lat="43.445694" lon="-2.762291">
        <ele>216.4</ele>
        <time>2016-05-21T06:32:14Z</time>
      </trkpt>
      <trkpt lat="43.445603" lon="-2.762613">
        <ele>215.0</ele>
        <time>2016-05-21T06:32:30Z</time>
      </trkpt>
      <trkpt lat="43.445547" lon="-2.762969">
        <ele>212.6</ele>
        <time>2016-05-21T06:32:47Z</time>
      </trkpt>
      <trkpt lat="43.445608" lon="-2.763184">
        <ele>211.6</ele>
        <time>2016-05-21T06:33:00Z</time>
      </trkpt>
      <trkpt lat="43.445666" lon="-2.763171">
        <ele>212.1</ele>
        <time>2016-05-21T06:33:10Z</time>
      </trkpt>
      <trkpt lat="43.445539" lon="-2.763557">
        <ele>208.7</ele>
        <time>2016-05-21T06:33:32Z</time>
      </trkpt>
      <trkpt lat="43.445433" lon="-2.763922">
        <ele>205.9</ele>
        <time>2016-05-21T06:33:50Z</time>
      </trkpt>
      <trkpt lat="43.445412" lon="-2.764034">
        <ele>203.9</ele>
        <time>2016-05-21T06:33:55Z</time>
      </trkpt>
      <trkpt lat="43.445321" lon="-2.764447">
        <ele>201.1</ele>
        <time>2016-05-21T06:34:14Z</time>
      </trkpt>
      <trkpt lat="43.445233" lon="-2.764827">
        <ele>199.6</ele>
        <time>2016-05-21T06:34:32Z</time>
      </trkpt>
      <trkpt lat="43.445208" lon="-2.764930">
        <ele>196.2</ele>
        <time>2016-05-21T06:34:37Z</time>
      </trkpt>
      <trkpt lat="43.445116" lon="-2.765298">
        <ele>193.8</ele>
        <time>2016-05-21T06:34:55Z</time>
      </trkpt>
      <trkpt lat="43.445094" lon="-2.765357">
        <ele>195.3</ele>
        <time>2016-05-21T06:34:58Z</time>
      </trkpt>
      <trkpt lat="43.445062" lon="-2.765450">
        <ele>193.4</ele>
        <time>2016-05-21T06:35:03Z</time>
      </trkpt>
      <trkpt lat="43.444942" lon="-2.765836">
        <ele>193.4</ele>
        <time>2016-05-21T06:35:22Z</time>
      </trkpt>
      <trkpt lat="43.444759" lon="-2.766216">
        <ele>193.8</ele>
        <time>2016-05-21T06:35:43Z</time>
      </trkpt>
      <trkpt lat="43.444571" lon="-2.766533">
        <ele>194.3</ele>
        <time>2016-05-21T06:36:02Z</time>
      </trkpt>
      <trkpt lat="43.444490" lon="-2.766694">
        <ele>195.8</ele>
        <time>2016-05-21T06:36:11Z</time>
      </trkpt>
      <trkpt lat="43.444455" lon="-2.766760">
        <ele>195.3</ele>
        <time>2016-05-21T06:36:15Z</time>
      </trkpt>
      <trkpt lat="43.444331" lon="-2.767004">
        <ele>196.7</ele>
        <time>2016-05-21T06:36:29Z</time>
      </trkpt>
      <trkpt lat="43.444202" lon="-2.767272">
        <ele>196.7</ele>
        <time>2016-05-21T06:36:44Z</time>
      </trkpt>
      <trkpt lat="43.444019" lon="-2.767631">
        <ele>198.2</ele>
        <time>2016-05-21T06:37:04Z</time>
      </trkpt>
      <trkpt lat="43.443936" lon="-2.767777">
        <ele>197.7</ele>
        <time>2016-05-21T06:37:13Z</time>
      </trkpt>
      <trkpt lat="43.443909" lon="-2.767830">
        <ele>201.1</ele>
        <time>2016-05-21T06:37:16Z</time>
      </trkpt>
      <trkpt lat="43.443748" lon="-2.768097">
        <ele>201.5</ele>
        <time>2016-05-21T06:37:32Z</time>
      </trkpt>
      <trkpt lat="43.443545" lon="-2.768470">
        <ele>203.0</ele>
        <time>2016-05-21T06:37:54Z</time>
      </trkpt>
      <trkpt lat="43.443428" lon="-2.768883">
        <ele>204.4</ele>
        <time>2016-05-21T06:38:15Z</time>
      </trkpt>
      <trkpt lat="43.443410" lon="-2.769302">
        <ele>205.4</ele>
        <time>2016-05-21T06:38:35Z</time>
      </trkpt>
      <trkpt lat="43.443397" lon="-2.769401">
        <ele>205.4</ele>
        <time>2016-05-21T06:38:40Z</time>
      </trkpt>
      <trkpt lat="43.443352" lon="-2.769494">
        <ele>205.9</ele>
        <time>2016-05-21T06:38:46Z</time>
      </trkpt>
      <trkpt lat="43.443359" lon="-2.769839">
        <ele>206.3</ele>
        <time>2016-05-21T06:39:03Z</time>
      </trkpt>
      <trkpt lat="43.443375" lon="-2.769992">
        <ele>206.3</ele>
        <time>2016-05-21T06:39:14Z</time>
      </trkpt>
      <trkpt lat="43.443202" lon="-2.770025">
        <ele>204.9</ele>
        <time>2016-05-21T06:39:29Z</time>
      </trkpt>
      <trkpt lat="43.443054" lon="-2.770528">
        <ele>203.0</ele>
        <time>2016-05-21T06:39:55Z</time>
      </trkpt>
      <trkpt lat="43.442962" lon="-2.770874">
        <ele>201.5</ele>
        <time>2016-05-21T06:40:12Z</time>
      </trkpt>
      <trkpt lat="43.442829" lon="-2.771300">
        <ele>199.6</ele>
        <time>2016-05-21T06:40:33Z</time>
      </trkpt>
      <trkpt lat="43.442741" lon="-2.771645">
        <ele>198.2</ele>
        <time>2016-05-21T06:40:50Z</time>
      </trkpt>
      <trkpt lat="43.442718" lon="-2.771883">
        <ele>197.7</ele>
        <time>2016-05-21T06:41:02Z</time>
      </trkpt>
      <trkpt lat="43.442828" lon="-2.771636">
        <ele>195.8</ele>
        <time>2016-05-21T06:41:16Z</time>
      </trkpt>
      <trkpt lat="43.442964" lon="-2.771365">
        <ele>192.9</ele>
        <time>2016-05-21T06:41:31Z</time>
      </trkpt>
      <trkpt lat="43.443164" lon="-2.771112">
        <ele>191.4</ele>
        <time>2016-05-21T06:41:48Z</time>
      </trkpt>
      <trkpt lat="43.443319" lon="-2.770692">
        <ele>189.5</ele>
        <time>2016-05-21T06:42:10Z</time>
      </trkpt>
      <trkpt lat="43.443502" lon="-2.770501">
        <ele>188.1</ele>
        <time>2016-05-21T06:42:26Z</time>
      </trkpt>
      <trkpt lat="43.443710" lon="-2.770551">
        <ele>186.6</ele>
        <time>2016-05-21T06:42:40Z</time>
      </trkpt>
      <trkpt lat="43.443909" lon="-2.770618">
        <ele>183.3</ele>
        <time>2016-05-21T06:42:53Z</time>
      </trkpt>
      <trkpt lat="43.444150" lon="-2.770583">
        <ele>180.9</ele>
        <time>2016-05-21T06:43:09Z</time>
      </trkpt>
      <trkpt lat="43.444282" lon="-2.770621">
        <ele>179.4</ele>
        <time>2016-05-21T06:43:18Z</time>
      </trkpt>
      <trkpt lat="43.444267" lon="-2.770704">
        <ele>177.5</ele>
        <time>2016-05-21T06:43:22Z</time>
      </trkpt>
      <trkpt lat="43.444243" lon="-2.770732">
        <ele>177.5</ele>
        <time>2016-05-21T06:43:24Z</time>
      </trkpt>
      <trkpt lat="43.444052" lon="-2.770930">
        <ele>174.6</ele>
        <time>2016-05-21T06:43:38Z</time>
      </trkpt>
      <trkpt lat="43.443925" lon="-2.771100">
        <ele>172.7</ele>
        <time>2016-05-21T06:43:50Z</time>
      </trkpt>
      <trkpt lat="43.443779" lon="-2.771350">
        <ele>170.3</ele>
        <time>2016-05-21T06:44:06Z</time>
      </trkpt>
      <trkpt lat="43.443708" lon="-2.771563">
        <ele>167.4</ele>
        <time>2016-05-21T06:44:17Z</time>
      </trkpt>
      <trkpt lat="43.443622" lon="-2.771875">
        <ele>164.0</ele>
        <time>2016-05-21T06:44:33Z</time>
      </trkpt>
      <trkpt lat="43.443609" lon="-2.771997">
        <ele>162.6</ele>
        <time>2016-05-21T06:44:39Z</time>
      </trkpt>
      <trkpt lat="43.443576" lon="-2.772150">
        <ele>160.7</ele>
        <time>2016-05-21T06:44:47Z</time>
      </trkpt>
      <trkpt lat="43.443554" lon="-2.772312">
        <ele>158.8</ele>
        <time>2016-05-21T06:44:55Z</time>
      </trkpt>
      <trkpt lat="43.443569" lon="-2.772538">
        <ele>155.4</ele>
        <time>2016-05-21T06:45:06Z</time>
      </trkpt>
      <trkpt lat="43.443571" lon="-2.772559">
        <ele>155.4</ele>
        <time>2016-05-21T06:45:07Z</time>
      </trkpt>
      <trkpt lat="43.443601" lon="-2.772627">
        <ele>154.9</ele>
        <time>2016-05-21T06:45:11Z</time>
      </trkpt>
      <trkpt lat="43.443619" lon="-2.772702">
        <ele>153.0</ele>
        <time>2016-05-21T06:45:15Z</time>
      </trkpt>
      <trkpt lat="43.443625" lon="-2.772791">
        <ele>153.0</ele>
        <time>2016-05-21T06:45:19Z</time>
      </trkpt>
      <trkpt lat="43.443607" lon="-2.773067">
        <ele>150.1</ele>
        <time>2016-05-21T06:45:32Z</time>
      </trkpt>
      <trkpt lat="43.443573" lon="-2.773282">
        <ele>147.2</ele>
        <time>2016-05-21T06:45:42Z</time>
      </trkpt>
      <trkpt lat="43.443514" lon="-2.773495">
        <ele>144.3</ele>
        <time>2016-05-21T06:45:53Z</time>
      </trkpt>
      <trkpt lat="43.443477" lon="-2.773600">
        <ele>144.3</ele>
        <time>2016-05-21T06:46:08Z</time>
      </trkpt>
      <trkpt lat="43.443497" lon="-2.773676">
        <ele>142.4</ele>
        <time>2016-05-21T06:46:16Z</time>
      </trkpt>
      <trkpt lat="43.443502" lon="-2.773874">
        <ele>141.5</ele>
        <time>2016-05-21T06:46:27Z</time>
      </trkpt>
      <trkpt lat="43.443496" lon="-2.773979">
        <ele>139.5</ele>
        <time>2016-05-21T06:46:32Z</time>
      </trkpt>
      <trkpt lat="43.443472" lon="-2.774204">
        <ele>136.2</ele>
        <time>2016-05-21T06:46:43Z</time>
      </trkpt>
      <trkpt lat="43.443441" lon="-2.774452">
        <ele>132.8</ele>
        <time>2016-05-21T06:46:55Z</time>
      </trkpt>
      <trkpt lat="43.443303" lon="-2.774806">
        <ele>129.9</ele>
        <time>2016-05-21T06:47:14Z</time>
      </trkpt>
      <trkpt lat="43.443224" lon="-2.775014">
        <ele>126.1</ele>
        <time>2016-05-21T06:47:25Z</time>
      </trkpt>
      <trkpt lat="43.443174" lon="-2.775300">
        <ele>123.2</ele>
        <time>2016-05-21T06:47:39Z</time>
      </trkpt>
      <trkpt lat="43.443124" lon="-2.775603">
        <ele>120.3</ele>
        <time>2016-05-21T06:47:54Z</time>
      </trkpt>
      <trkpt lat="43.443113" lon="-2.775662">
        <ele>118.9</ele>
        <time>2016-05-21T06:47:57Z</time>
      </trkpt>
      <trkpt lat="43.443077" lon="-2.775900">
        <ele>115.5</ele>
        <time>2016-05-21T06:48:09Z</time>
      </trkpt>
      <trkpt lat="43.443070" lon="-2.775942">
        <ele>115.0</ele>
        <time>2016-05-21T06:48:11Z</time>
      </trkpt>
      <trkpt lat="43.443045" lon="-2.776105">
        <ele>113.1</ele>
        <time>2016-05-21T06:48:19Z</time>
      </trkpt>
      <trkpt lat="43.443032" lon="-2.776199">
        <ele>112.1</ele>
        <time>2016-05-21T06:48:24Z</time>
      </trkpt>
      <trkpt lat="43.442989" lon="-2.776484">
        <ele>109.2</ele>
        <time>2016-05-21T06:48:37Z</time>
      </trkpt>
      <trkpt lat="43.442915" lon="-2.776872">
        <ele>106.8</ele>
        <time>2016-05-21T06:48:56Z</time>
      </trkpt>
      <trkpt lat="43.442832" lon="-2.777187">
        <ele>103.5</ele>
        <time>2016-05-21T06:49:12Z</time>
      </trkpt>
      <trkpt lat="43.442920" lon="-2.777530">
        <ele>99.6</ele>
        <time>2016-05-21T06:49:28Z</time>
      </trkpt>
      <trkpt lat="43.442944" lon="-2.777650">
        <ele>96.7</ele>
        <time>2016-05-21T06:49:34Z</time>
      </trkpt>
      <trkpt lat="43.442909" lon="-2.777896">
        <ele>93.4</ele>
        <time>2016-05-21T06:49:46Z</time>
      </trkpt>
      <trkpt lat="43.442830" lon="-2.778301">
        <ele>91.5</ele>
        <time>2016-05-21T06:50:05Z</time>
      </trkpt>
      <trkpt lat="43.442792" lon="-2.778712">
        <ele>88.1</ele>
        <time>2016-05-21T06:50:24Z</time>
      </trkpt>
      <trkpt lat="43.442796" lon="-2.779061">
        <ele>85.2</ele>
        <time>2016-05-21T06:50:40Z</time>
      </trkpt>
      <trkpt lat="43.442798" lon="-2.779144">
        <ele>83.8</ele>
        <time>2016-05-21T06:50:44Z</time>
      </trkpt>
      <trkpt lat="43.442787" lon="-2.779478">
        <ele>80.4</ele>
        <time>2016-05-21T06:51:00Z</time>
      </trkpt>
      <trkpt lat="43.442784" lon="-2.779562">
        <ele>79.9</ele>
        <time>2016-05-21T06:51:14Z</time>
      </trkpt>
      <trkpt lat="43.442779" lon="-2.779566">
        <ele>80.4</ele>
        <time>2016-05-21T06:51:32Z</time>
      </trkpt>
      <trkpt lat="43.442781" lon="-2.779569">
        <ele>79.9</ele>
        <time>2016-05-21T06:51:50Z</time>
      </trkpt>
      <trkpt lat="43.442791" lon="-2.779644">
        <ele>78.0</ele>
        <time>2016-05-21T06:51:55Z</time>
      </trkpt>
      <trkpt lat="43.442859" lon="-2.779852">
        <ele>74.2</ele>
        <time>2016-05-21T06:52:05Z</time>
      </trkpt>
      <trkpt lat="43.442893" lon="-2.779930">
        <ele>74.6</ele>
        <time>2016-05-21T06:52:09Z</time>
      </trkpt>
      <trkpt lat="43.442925" lon="-2.780062">
        <ele>74.6</ele>
        <time>2016-05-21T06:52:15Z</time>
      </trkpt>
      <trkpt lat="43.442947" lon="-2.780119">
        <ele>73.7</ele>
        <time>2016-05-21T06:52:18Z</time>
      </trkpt>
      <trkpt lat="43.442985" lon="-2.780193">
        <ele>72.2</ele>
        <time>2016-05-21T06:52:22Z</time>
      </trkpt>
      <trkpt lat="43.443003" lon="-2.780233">
        <ele>70.8</ele>
        <time>2016-05-21T06:52:24Z</time>
      </trkpt>
      <trkpt lat="43.443030" lon="-2.780290">
        <ele>70.8</ele>
        <time>2016-05-21T06:52:27Z</time>
      </trkpt>
      <trkpt lat="43.443105" lon="-2.780439">
        <ele>68.4</ele>
        <time>2016-05-21T06:52:35Z</time>
      </trkpt>
      <trkpt lat="43.443173" lon="-2.780831">
        <ele>66.0</ele>
        <time>2016-05-21T06:52:53Z</time>
      </trkpt>
      <trkpt lat="43.443171" lon="-2.780991">
        <ele>65.5</ele>
        <time>2016-05-21T06:53:00Z</time>
      </trkpt>
      <trkpt lat="43.443174" lon="-2.781051">
        <ele>64.1</ele>
        <time>2016-05-21T06:53:03Z</time>
      </trkpt>
      <trkpt lat="43.443196" lon="-2.781152">
        <ele>62.6</ele>
        <time>2016-05-21T06:53:08Z</time>
      </trkpt>
      <trkpt lat="43.443334" lon="-2.781363">
        <ele>59.3</ele>
        <time>2016-05-21T06:53:21Z</time>
      </trkpt>
      <trkpt lat="43.443473" lon="-2.781440">
        <ele>56.4</ele>
        <time>2016-05-21T06:53:30Z</time>
      </trkpt>
      <trkpt lat="43.443589" lon="-2.781557">
        <ele>53.0</ele>
        <time>2016-05-21T06:53:38Z</time>
      </trkpt>
      <trkpt lat="43.443695" lon="-2.781792">
        <ele>51.1</ele>
        <time>2016-05-21T06:53:50Z</time>
      </trkpt>
      <trkpt lat="43.443872" lon="-2.782158">
        <ele>47.7</ele>
        <time>2016-05-21T06:54:09Z</time>
      </trkpt>
      <trkpt lat="43.444073" lon="-2.782474">
        <ele>45.3</ele>
        <time>2016-05-21T06:54:28Z</time>
      </trkpt>
      <trkpt lat="43.444104" lon="-2.782650">
        <ele>43.9</ele>
        <time>2016-05-21T06:54:36Z</time>
      </trkpt>
      <trkpt lat="43.444252" lon="-2.783011">
        <ele>40.5</ele>
        <time>2016-05-21T06:54:55Z</time>
      </trkpt>
      <trkpt lat="43.444359" lon="-2.783234">
        <ele>37.1</ele>
        <time>2016-05-21T06:55:07Z</time>
      </trkpt>
      <trkpt lat="43.444494" lon="-2.783504">
        <ele>34.3</ele>
        <time>2016-05-21T06:55:22Z</time>
      </trkpt>
      <trkpt lat="43.444519" lon="-2.783533">
        <ele>33.8</ele>
        <time>2016-05-21T06:55:24Z</time>
      </trkpt>
      <trkpt lat="43.444664" lon="-2.783679">
        <ele>30.4</ele>
        <time>2016-05-21T06:55:35Z</time>
      </trkpt>
      <trkpt lat="43.444821" lon="-2.783783">
        <ele>27.1</ele>
        <time>2016-05-21T06:55:46Z</time>
      </trkpt>
      <trkpt lat="43.445018" lon="-2.783885">
        <ele>23.7</ele>
        <time>2016-05-21T06:55:59Z</time>
      </trkpt>
      <trkpt lat="43.445199" lon="-2.784039">
        <ele>20.8</ele>
        <time>2016-05-21T06:56:12Z</time>
      </trkpt>
      <trkpt lat="43.445447" lon="-2.784224">
        <ele>17.4</ele>
        <time>2016-05-21T06:56:30Z</time>
      </trkpt>
      <trkpt lat="43.445599" lon="-2.784419">
        <ele>14.6</ele>
        <time>2016-05-21T06:56:42Z</time>
      </trkpt>
      <trkpt lat="43.445806" lon="-2.784513">
        <ele>14.6</ele>
        <time>2016-05-21T06:56:56Z</time>
      </trkpt>
      <trkpt lat="43.446015" lon="-2.784614">
        <ele>13.6</ele>
        <time>2016-05-21T06:57:10Z</time>
      </trkpt>
      <trkpt lat="43.446124" lon="-2.784617">
        <ele>16.0</ele>
        <time>2016-05-21T06:57:18Z</time>
      </trkpt>
      <trkpt lat="43.446187" lon="-2.784584">
        <ele>18.4</ele>
        <time>2016-05-21T06:57:23Z</time>
      </trkpt>
      <trkpt lat="43.446222" lon="-2.784581">
        <ele>19.4</ele>
        <time>2016-05-21T06:57:40Z</time>
      </trkpt>
      <trkpt lat="43.446364" lon="-2.784604">
        <ele>22.7</ele>
        <time>2016-05-21T06:57:53Z</time>
      </trkpt>
      <trkpt lat="43.446373" lon="-2.784605">
        <ele>22.7</ele>
        <time>2016-05-21T06:57:54Z</time>
      </trkpt>
      <trkpt lat="43.446473" lon="-2.784613">
        <ele>26.1</ele>
        <time>2016-05-21T06:58:05Z</time>
      </trkpt>
      <trkpt lat="43.446480" lon="-2.784618">
        <ele>26.6</ele>
        <time>2016-05-21T06:58:06Z</time>
      </trkpt>
      <trkpt lat="43.446602" lon="-2.784735">
        <ele>29.9</ele>
        <time>2016-05-21T06:58:23Z</time>
      </trkpt>
      <trkpt lat="43.446630" lon="-2.784764">
        <ele>32.8</ele>
        <time>2016-05-21T06:58:31Z</time>
      </trkpt>
      <trkpt lat="43.446682" lon="-2.784763">
        <ele>34.7</ele>
        <time>2016-05-21T06:58:37Z</time>
      </trkpt>
      <trkpt lat="43.446751" lon="-2.784770">
        <ele>37.1</ele>
        <time>2016-05-21T06:58:44Z</time>
      </trkpt>
      <trkpt lat="43.446833" lon="-2.784796">
        <ele>40.0</ele>
        <time>2016-05-21T06:58:53Z</time>
      </trkpt>
      <trkpt lat="43.446875" lon="-2.784841">
        <ele>42.4</ele>
        <time>2016-05-21T06:59:02Z</time>
      </trkpt>
      <trkpt lat="43.446762" lon="-2.784958">
        <ele>46.8</ele>
        <time>2016-05-21T06:59:14Z</time>
      </trkpt>
      <trkpt lat="43.446774" lon="-2.784978">
        <ele>47.2</ele>
        <time>2016-05-21T06:59:17Z</time>
      </trkpt>
      <trkpt lat="43.446891" lon="-2.784940">
        <ele>50.6</ele>
        <time>2016-05-21T06:59:28Z</time>
      </trkpt>
      <trkpt lat="43.446977" lon="-2.784909">
        <ele>53.5</ele>
        <time>2016-05-21T06:59:39Z</time>
      </trkpt>
      <trkpt lat="43.446997" lon="-2.784904">
        <ele>54.9</ele>
        <time>2016-05-21T06:59:42Z</time>
      </trkpt>
      <trkpt lat="43.447069" lon="-2.784998">
        <ele>58.3</ele>
        <time>2016-05-21T06:59:57Z</time>
      </trkpt>
      <trkpt lat="43.447090" lon="-2.785037">
        <ele>60.2</ele>
        <time>2016-05-21T07:00:02Z</time>
      </trkpt>
      <trkpt lat="43.447121" lon="-2.785171">
        <ele>63.6</ele>
        <time>2016-05-21T07:00:14Z</time>
      </trkpt>
      <trkpt lat="43.447166" lon="-2.785246">
        <ele>66.0</ele>
        <time>2016-05-21T07:00:30Z</time>
      </trkpt>
      <trkpt lat="43.447211" lon="-2.785137">
        <ele>69.4</ele>
        <time>2016-05-21T07:00:41Z</time>
      </trkpt>
      <trkpt lat="43.447235" lon="-2.785022">
        <ele>72.7</ele>
        <time>2016-05-21T07:00:52Z</time>
      </trkpt>
      <trkpt lat="43.447237" lon="-2.784990">
        <ele>72.7</ele>
        <time>2016-05-21T07:00:56Z</time>
      </trkpt>
      <trkpt lat="43.447248" lon="-2.784852">
        <ele>77.0</ele>
        <time>2016-05-21T07:01:13Z</time>
      </trkpt>
      <trkpt lat="43.447295" lon="-2.784859">
        <ele>79.9</ele>
        <time>2016-05-21T07:01:23Z</time>
      </trkpt>
      <trkpt lat="43.447311" lon="-2.784863">
        <ele>80.4</ele>
        <time>2016-05-21T07:01:25Z</time>
      </trkpt>
      <trkpt lat="43.447348" lon="-2.784851">
        <ele>79.9</ele>
        <time>2016-05-21T07:01:30Z</time>
      </trkpt>
      <trkpt lat="43.447268" lon="-2.784856">
        <ele>77.0</ele>
        <time>2016-05-21T07:01:41Z</time>
      </trkpt>
      <trkpt lat="43.447260" lon="-2.784900">
        <ele>75.6</ele>
        <time>2016-05-21T07:01:46Z</time>
      </trkpt>
      <trkpt lat="43.447248" lon="-2.784978">
        <ele>74.2</ele>
        <time>2016-05-21T07:01:57Z</time>
      </trkpt>
      <trkpt lat="43.447231" lon="-2.785085">
        <ele>70.8</ele>
        <time>2016-05-21T07:02:05Z</time>
      </trkpt>
      <trkpt lat="43.447216" lon="-2.785129">
        <ele>69.4</ele>
        <time>2016-05-21T07:02:08Z</time>
      </trkpt>
      <trkpt lat="43.447197" lon="-2.785203">
        <ele>67.4</ele>
        <time>2016-05-21T07:02:13Z</time>
      </trkpt>
      <trkpt lat="43.447185" lon="-2.785232">
        <ele>66.5</ele>
        <time>2016-05-21T07:02:15Z</time>
      </trkpt>
      <trkpt lat="43.447143" lon="-2.785273">
        <ele>66.0</ele>
        <time>2016-05-21T07:02:19Z</time>
      </trkpt>
      <trkpt lat="43.447114" lon="-2.785222">
        <ele>64.1</ele>
        <time>2016-05-21T07:02:24Z</time>
      </trkpt>
      <trkpt lat="43.447124" lon="-2.785159">
        <ele>63.1</ele>
        <time>2016-05-21T07:02:28Z</time>
      </trkpt>
      <trkpt lat="43.447112" lon="-2.785106">
        <ele>60.7</ele>
        <time>2016-05-21T07:02:31Z</time>
      </trkpt>
      <trkpt lat="43.447068" lon="-2.785005">
        <ele>58.8</ele>
        <time>2016-05-21T07:02:38Z</time>
      </trkpt>
      <trkpt lat="43.447004" lon="-2.784907">
        <ele>55.4</ele>
        <time>2016-05-21T07:02:46Z</time>
      </trkpt>
      <trkpt lat="43.446957" lon="-2.784918">
        <ele>54.5</ele>
        <time>2016-05-21T07:02:50Z</time>
      </trkpt>
      <trkpt lat="43.446838" lon="-2.784961">
        <ele>49.2</ele>
        <time>2016-05-21T07:02:59Z</time>
      </trkpt>
      <trkpt lat="43.446752" lon="-2.784969">
        <ele>46.3</ele>
        <time>2016-05-21T07:03:06Z</time>
      </trkpt>
      <trkpt lat="43.446798" lon="-2.784925">
        <ele>45.8</ele>
        <time>2016-05-21T07:03:10Z</time>
      </trkpt>
      <trkpt lat="43.446874" lon="-2.784854">
        <ele>42.4</ele>
        <time>2016-05-21T07:03:15Z</time>
      </trkpt>
      <trkpt lat="43.446883" lon="-2.784829">
        <ele>42.4</ele>
        <time>2016-05-21T07:03:17Z</time>
      </trkpt>
      <trkpt lat="43.446772" lon="-2.784785">
        <ele>38.6</ele>
        <time>2016-05-21T07:03:26Z</time>
      </trkpt>
      <trkpt lat="43.446679" lon="-2.784776">
        <ele>35.2</ele>
        <time>2016-05-21T07:03:33Z</time>
      </trkpt>
      <trkpt lat="43.446610" lon="-2.784772">
        <ele>31.9</ele>
        <time>2016-05-21T07:03:40Z</time>
      </trkpt>
      <trkpt lat="43.446602" lon="-2.784756">
        <ele>30.9</ele>
        <time>2016-05-21T07:03:42Z</time>
      </trkpt>
      <trkpt lat="43.446593" lon="-2.784728">
        <ele>29.5</ele>
        <time>2016-05-21T07:03:45Z</time>
      </trkpt>
      <trkpt lat="43.446494" lon="-2.784641">
        <ele>27.5</ele>
        <time>2016-05-21T07:03:53Z</time>
      </trkpt>
      <trkpt lat="43.446419" lon="-2.784604">
        <ele>25.1</ele>
        <time>2016-05-21T07:03:59Z</time>
      </trkpt>
      <trkpt lat="43.446343" lon="-2.784601">
        <ele>21.8</ele>
        <time>2016-05-21T07:04:05Z</time>
      </trkpt>
      <trkpt lat="43.446221" lon="-2.784593">
        <ele>18.9</ele>
        <time>2016-05-21T07:04:16Z</time>
      </trkpt>
      <trkpt lat="43.446085" lon="-2.784631">
        <ele>15.5</ele>
        <time>2016-05-21T07:04:26Z</time>
      </trkpt>
      <trkpt lat="43.446055" lon="-2.784628">
        <ele>14.6</ele>
        <time>2016-05-21T07:04:28Z</time>
      </trkpt>
      <trkpt lat="43.445978" lon="-2.784558">
        <ele>14.1</ele>
        <time>2016-05-21T07:04:35Z</time>
      </trkpt>
      <trkpt lat="43.445605" lon="-2.784444">
        <ele>16.5</ele>
        <time>2016-05-21T07:05:00Z</time>
      </trkpt>
      <trkpt lat="43.445345" lon="-2.784087">
        <ele>19.8</ele>
        <time>2016-05-21T07:05:25Z</time>
      </trkpt>
      <trkpt lat="43.445064" lon="-2.783992">
        <ele>22.7</ele>
        <time>2016-05-21T07:05:46Z</time>
      </trkpt>
      <trkpt lat="43.445032" lon="-2.783960">
        <ele>24.7</ele>
        <time>2016-05-21T07:10:02Z</time>
      </trkpt>
      <trkpt lat="43.445019" lon="-2.783890">
        <ele>22.7</ele>
        <time>2016-05-21T07:10:47Z</time>
      </trkpt>
      <trkpt lat="43.444844" lon="-2.783786">
        <ele>27.1</ele>
        <time>2016-05-21T07:11:03Z</time>
      </trkpt>
      <trkpt lat="43.444832" lon="-2.783783">
        <ele>27.5</ele>
        <time>2016-05-21T07:11:04Z</time>
      </trkpt>
      <trkpt lat="43.444653" lon="-2.783686">
        <ele>30.9</ele>
        <time>2016-05-21T07:11:20Z</time>
      </trkpt>
      <trkpt lat="43.444504" lon="-2.783571">
        <ele>32.8</ele>
        <time>2016-05-21T07:11:33Z</time>
      </trkpt>
      <trkpt lat="43.444382" lon="-2.783349">
        <ele>36.2</ele>
        <time>2016-05-21T07:11:49Z</time>
      </trkpt>
      <trkpt lat="43.444265" lon="-2.783093">
        <ele>40.0</ele>
        <time>2016-05-21T07:12:06Z</time>
      </trkpt>
      <trkpt lat="43.444259" lon="-2.783079">
        <ele>39.6</ele>
        <time>2016-05-21T07:12:07Z</time>
      </trkpt>
      <trkpt lat="43.444196" lon="-2.782938">
        <ele>42.0</ele>
        <time>2016-05-21T07:12:17Z</time>
      </trkpt>
      <trkpt lat="43.444087" lon="-2.782637">
        <ele>44.8</ele>
        <time>2016-05-21T07:12:36Z</time>
      </trkpt>
      <trkpt lat="43.443983" lon="-2.782270">
        <ele>46.3</ele>
        <time>2016-05-21T07:12:58Z</time>
      </trkpt>
      <trkpt lat="43.443773" lon="-2.782035">
        <ele>48.7</ele>
        <time>2016-05-21T07:13:18Z</time>
      </trkpt>
      <trkpt lat="43.443675" lon="-2.781739">
        <ele>51.6</ele>
        <time>2016-05-21T07:13:37Z</time>
      </trkpt>
      <trkpt lat="43.443557" lon="-2.781535">
        <ele>54.5</ele>
        <time>2016-05-21T07:13:51Z</time>
      </trkpt>
      <trkpt lat="43.443430" lon="-2.781429">
        <ele>57.8</ele>
        <time>2016-05-21T07:14:04Z</time>
      </trkpt>
      <trkpt lat="43.443293" lon="-2.781399">
        <ele>61.2</ele>
        <time>2016-05-21T07:14:16Z</time>
      </trkpt>
      <trkpt lat="43.443246" lon="-2.781441">
        <ele>62.1</ele>
        <time>2016-05-21T07:14:22Z</time>
      </trkpt>
      <trkpt lat="43.443378" lon="-2.781605">
        <ele>64.1</ele>
        <time>2016-05-21T07:14:39Z</time>
      </trkpt>
      <trkpt lat="43.443379" lon="-2.781668">
        <ele>64.5</ele>
        <time>2016-05-21T07:14:44Z</time>
      </trkpt>
      <trkpt lat="43.443366" lon="-2.781702">
        <ele>65.5</ele>
        <time>2016-05-21T07:14:47Z</time>
      </trkpt>
      <trkpt lat="43.443323" lon="-2.781726">
        <ele>67.4</ele>
        <time>2016-05-21T07:14:53Z</time>
      </trkpt>
      <trkpt lat="43.443209" lon="-2.781790">
        <ele>70.8</ele>
        <time>2016-05-21T07:15:08Z</time>
      </trkpt>
      <trkpt lat="43.443112" lon="-2.781841">
        <ele>74.2</ele>
        <time>2016-05-21T07:15:20Z</time>
      </trkpt>
      <trkpt lat="43.443057" lon="-2.781862">
        <ele>76.6</ele>
        <time>2016-05-21T07:15:28Z</time>
      </trkpt>
      <trkpt lat="43.442980" lon="-2.781880">
        <ele>79.9</ele>
        <time>2016-05-21T07:15:40Z</time>
      </trkpt>
      <trkpt lat="43.442904" lon="-2.781807">
        <ele>82.3</ele>
        <time>2016-05-21T07:15:55Z</time>
      </trkpt>
      <trkpt lat="43.442861" lon="-2.781755">
        <ele>84.7</ele>
        <time>2016-05-21T07:16:03Z</time>
      </trkpt>
      <trkpt lat="43.442822" lon="-2.781689">
        <ele>87.1</ele>
        <time>2016-05-21T07:16:12Z</time>
      </trkpt>
      <trkpt lat="43.442795" lon="-2.781611">
        <ele>90.0</ele>
        <time>2016-05-21T07:16:22Z</time>
      </trkpt>
      <trkpt lat="43.442793" lon="-2.781600">
        <ele>90.0</ele>
        <time>2016-05-21T07:16:23Z</time>
      </trkpt>
      <trkpt lat="43.442776" lon="-2.781506">
        <ele>92.4</ele>
        <time>2016-05-21T07:16:31Z</time>
      </trkpt>
      <trkpt lat="43.442712" lon="-2.781494">
        <ele>95.8</ele>
        <time>2016-05-21T07:16:46Z</time>
      </trkpt>
      <trkpt lat="43.442699" lon="-2.781568">
        <ele>96.7</ele>
        <time>2016-05-21T07:16:53Z</time>
      </trkpt>
      <trkpt lat="43.442698" lon="-2.781630">
        <ele>97.7</ele>
        <time>2016-05-21T07:16:58Z</time>
      </trkpt>
      <trkpt lat="43.442701" lon="-2.781659">
        <ele>98.2</ele>
        <time>2016-05-21T07:17:00Z</time>
      </trkpt>
      <trkpt lat="43.442683" lon="-2.781708">
        <ele>99.2</ele>
        <time>2016-05-21T07:17:04Z</time>
      </trkpt>
      <trkpt lat="43.442676" lon="-2.781760">
        <ele>99.2</ele>
        <time>2016-05-21T07:17:08Z</time>
      </trkpt>
      <trkpt lat="43.442667" lon="-2.781894">
        <ele>103.0</ele>
        <time>2016-05-21T07:17:19Z</time>
      </trkpt>
      <trkpt lat="43.442653" lon="-2.782078">
        <ele>104.4</ele>
        <time>2016-05-21T07:17:34Z</time>
      </trkpt>
      <trkpt lat="43.442653" lon="-2.782144">
        <ele>104.4</ele>
        <time>2016-05-21T07:17:39Z</time>
      </trkpt>
      <trkpt lat="43.442644" lon="-2.782203">
        <ele>105.4</ele>
        <time>2016-05-21T07:17:44Z</time>
      </trkpt>
      <trkpt lat="43.442644" lon="-2.782351">
        <ele>108.3</ele>
        <time>2016-05-21T07:17:56Z</time>
      </trkpt>
      <trkpt lat="43.442649" lon="-2.782572">
        <ele>111.2</ele>
        <time>2016-05-21T07:18:14Z</time>
      </trkpt>
      <trkpt lat="43.442581" lon="-2.782545">
        <ele>114.1</ele>
        <time>2016-05-21T07:18:29Z</time>
      </trkpt>
      <trkpt lat="43.442575" lon="-2.782536">
        <ele>113.6</ele>
        <time>2016-05-21T07:18:30Z</time>
      </trkpt>
      <trkpt lat="43.442523" lon="-2.782442">
        <ele>115.5</ele>
        <time>2016-05-21T07:18:39Z</time>
      </trkpt>
      <trkpt lat="43.442392" lon="-2.782448">
        <ele>117.9</ele>
        <time>2016-05-21T07:18:55Z</time>
      </trkpt>
      <trkpt lat="43.442387" lon="-2.782529">
        <ele>120.3</ele>
        <time>2016-05-21T07:19:07Z</time>
      </trkpt>
      <trkpt lat="43.442388" lon="-2.782624">
        <ele>123.7</ele>
        <time>2016-05-21T07:19:17Z</time>
      </trkpt>
      <trkpt lat="43.442405" lon="-2.782716">
        <ele>126.6</ele>
        <time>2016-05-21T07:19:26Z</time>
      </trkpt>
      <trkpt lat="43.442426" lon="-2.782887">
        <ele>129.9</ele>
        <time>2016-05-21T07:19:40Z</time>
      </trkpt>
      <trkpt lat="43.442381" lon="-2.782939">
        <ele>131.4</ele>
        <time>2016-05-21T07:19:50Z</time>
      </trkpt>
      <trkpt lat="43.442361" lon="-2.782914">
        <ele>132.3</ele>
        <time>2016-05-21T07:19:53Z</time>
      </trkpt>
      <trkpt lat="43.442203" lon="-2.782789">
        <ele>134.2</ele>
        <time>2016-05-21T07:20:09Z</time>
      </trkpt>
      <trkpt lat="43.442096" lon="-2.782643">
        <ele>136.2</ele>
        <time>2016-05-21T07:20:23Z</time>
      </trkpt>
      <trkpt lat="43.442053" lon="-2.782627">
        <ele>138.1</ele>
        <time>2016-05-21T07:20:28Z</time>
      </trkpt>
      <trkpt lat="43.441998" lon="-2.782645">
        <ele>140.5</ele>
        <time>2016-05-21T07:20:35Z</time>
      </trkpt>
      <trkpt lat="43.441891" lon="-2.782656">
        <ele>143.4</ele>
        <time>2016-05-21T07:20:47Z</time>
      </trkpt>
      <trkpt lat="43.441746" lon="-2.782632">
        <ele>146.7</ele>
        <time>2016-05-21T07:21:01Z</time>
      </trkpt>
      <trkpt lat="43.441583" lon="-2.782529">
        <ele>150.1</ele>
        <time>2016-05-21T07:21:17Z</time>
      </trkpt>
      <trkpt lat="43.441452" lon="-2.782377">
        <ele>152.5</ele>
        <time>2016-05-21T07:21:33Z</time>
      </trkpt>
      <trkpt lat="43.441404" lon="-2.782335">
        <ele>153.9</ele>
        <time>2016-05-21T07:21:39Z</time>
      </trkpt>
      <trkpt lat="43.441236" lon="-2.782259">
        <ele>156.8</ele>
        <time>2016-05-21T07:21:56Z</time>
      </trkpt>
      <trkpt lat="43.441148" lon="-2.782242">
        <ele>159.7</ele>
        <time>2016-05-21T07:22:06Z</time>
      </trkpt>
      <trkpt lat="43.441047" lon="-2.782283">
        <ele>163.1</ele>
        <time>2016-05-21T07:22:16Z</time>
      </trkpt>
      <trkpt lat="43.441042" lon="-2.782296">
        <ele>163.1</ele>
        <time>2016-05-21T07:22:17Z</time>
      </trkpt>
      <trkpt lat="43.441080" lon="-2.782484">
        <ele>166.0</ele>
        <time>2016-05-21T07:22:32Z</time>
      </trkpt>
      <trkpt lat="43.441072" lon="-2.782560">
        <ele>167.4</ele>
        <time>2016-05-21T07:22:38Z</time>
      </trkpt>
      <trkpt lat="43.441063" lon="-2.782769">
        <ele>169.3</ele>
        <time>2016-05-21T07:22:51Z</time>
      </trkpt>
      <trkpt lat="43.441029" lon="-2.782909">
        <ele>172.2</ele>
        <time>2016-05-21T07:23:00Z</time>
      </trkpt>
      <trkpt lat="43.440889" lon="-2.783216">
        <ele>174.6</ele>
        <time>2016-05-21T07:23:20Z</time>
      </trkpt>
      <trkpt lat="43.440746" lon="-2.783430">
        <ele>177.0</ele>
        <time>2016-05-21T07:23:37Z</time>
      </trkpt>
      <trkpt lat="43.440575" lon="-2.783366">
        <ele>179.4</ele>
        <time>2016-05-21T07:23:51Z</time>
      </trkpt>
      <trkpt lat="43.440490" lon="-2.783265">
        <ele>179.9</ele>
        <time>2016-05-21T07:24:01Z</time>
      </trkpt>
      <trkpt lat="43.440411" lon="-2.783169">
        <ele>181.8</ele>
        <time>2016-05-21T07:24:14Z</time>
      </trkpt>
      <trkpt lat="43.440315" lon="-2.783089">
        <ele>184.7</ele>
        <time>2016-05-21T07:24:28Z</time>
      </trkpt>
      <trkpt lat="43.440244" lon="-2.783032">
        <ele>187.1</ele>
        <time>2016-05-21T07:24:41Z</time>
      </trkpt>
      <trkpt lat="43.440181" lon="-2.782952">
        <ele>190.0</ele>
        <time>2016-05-21T07:24:54Z</time>
      </trkpt>
      <trkpt lat="43.440182" lon="-2.782915">
        <ele>190.0</ele>
        <time>2016-05-21T07:24:57Z</time>
      </trkpt>
      <trkpt lat="43.440268" lon="-2.782892">
        <ele>190.0</ele>
        <time>2016-05-21T07:25:11Z</time>
      </trkpt>
      <trkpt lat="43.440257" lon="-2.782888">
        <ele>189.5</ele>
        <time>2016-05-21T07:25:27Z</time>
      </trkpt>
      <trkpt lat="43.440224" lon="-2.782859">
        <ele>190.0</ele>
        <time>2016-05-21T07:25:31Z</time>
      </trkpt>
      <trkpt lat="43.440162" lon="-2.782611">
        <ele>190.5</ele>
        <time>2016-05-21T07:25:47Z</time>
      </trkpt>
      <trkpt lat="43.440083" lon="-2.782542">
        <ele>193.4</ele>
        <time>2016-05-21T07:25:59Z</time>
      </trkpt>
      <trkpt lat="43.440047" lon="-2.782481">
        <ele>196.7</ele>
        <time>2016-05-21T07:26:07Z</time>
      </trkpt>
      <trkpt lat="43.440018" lon="-2.782430">
        <ele>198.6</ele>
        <time>2016-05-21T07:26:15Z</time>
      </trkpt>
      <trkpt lat="43.439974" lon="-2.782362">
        <ele>202.0</ele>
        <time>2016-05-21T07:26:25Z</time>
      </trkpt>
      <trkpt lat="43.439900" lon="-2.782247">
        <ele>205.4</ele>
        <time>2016-05-21T07:26:39Z</time>
      </trkpt>
      <trkpt lat="43.439880" lon="-2.782220">
        <ele>206.8</ele>
        <time>2016-05-21T07:26:44Z</time>
      </trkpt>
      <trkpt lat="43.439806" lon="-2.782108">
        <ele>207.3</ele>
        <time>2016-05-21T07:26:59Z</time>
      </trkpt>
      <trkpt lat="43.439757" lon="-2.782029">
        <ele>210.2</ele>
        <time>2016-05-21T07:27:15Z</time>
      </trkpt>
      <trkpt lat="43.439751" lon="-2.782023">
        <ele>210.2</ele>
        <time>2016-05-21T07:27:16Z</time>
      </trkpt>
      <trkpt lat="43.439733" lon="-2.781997">
        <ele>211.6</ele>
        <time>2016-05-21T07:27:19Z</time>
      </trkpt>
      <trkpt lat="43.439724" lon="-2.781980">
        <ele>211.6</ele>
        <time>2016-05-21T07:27:21Z</time>
      </trkpt>
      <trkpt lat="43.439712" lon="-2.781894">
        <ele>211.6</ele>
        <time>2016-05-21T07:27:27Z</time>
      </trkpt>
      <trkpt lat="43.439763" lon="-2.781727">
        <ele>213.6</ele>
        <time>2016-05-21T07:27:38Z</time>
      </trkpt>
      <trkpt lat="43.439771" lon="-2.781638">
        <ele>213.6</ele>
        <time>2016-05-21T07:27:44Z</time>
      </trkpt>
      <trkpt lat="43.439770" lon="-2.781611">
        <ele>214.0</ele>
        <time>2016-05-21T07:27:46Z</time>
      </trkpt>
      <trkpt lat="43.439683" lon="-2.781364">
        <ele>216.0</ele>
        <time>2016-05-21T07:28:03Z</time>
      </trkpt>
      <trkpt lat="43.439627" lon="-2.781099">
        <ele>218.8</ele>
        <time>2016-05-21T07:28:21Z</time>
      </trkpt>
      <trkpt lat="43.439626" lon="-2.780961">
        <ele>222.2</ele>
        <time>2016-05-21T07:28:32Z</time>
      </trkpt>
      <trkpt lat="43.439611" lon="-2.780810">
        <ele>225.6</ele>
        <time>2016-05-21T07:28:44Z</time>
      </trkpt>
      <trkpt lat="43.439583" lon="-2.780689">
        <ele>228.5</ele>
        <time>2016-05-21T07:28:54Z</time>
      </trkpt>
      <trkpt lat="43.439579" lon="-2.780677">
        <ele>228.9</ele>
        <time>2016-05-21T07:28:55Z</time>
      </trkpt>
      <trkpt lat="43.439489" lon="-2.780502">
        <ele>231.8</ele>
        <time>2016-05-21T07:29:13Z</time>
      </trkpt>
      <trkpt lat="43.439422" lon="-2.780378">
        <ele>234.7</ele>
        <time>2016-05-21T07:29:25Z</time>
      </trkpt>
      <trkpt lat="43.439379" lon="-2.780303">
        <ele>237.1</ele>
        <time>2016-05-21T07:29:37Z</time>
      </trkpt>
      <trkpt lat="43.439369" lon="-2.780278">
        <ele>237.1</ele>
        <time>2016-05-21T07:29:39Z</time>
      </trkpt>
      <trkpt lat="43.439264" lon="-2.780010">
        <ele>240.5</ele>
        <time>2016-05-21T07:29:58Z</time>
      </trkpt>
      <trkpt lat="43.439172" lon="-2.779961">
        <ele>240.5</ele>
        <time>2016-05-21T07:30:07Z</time>
      </trkpt>
      <trkpt lat="43.439124" lon="-2.779999">
        <ele>238.5</ele>
        <time>2016-05-21T07:30:12Z</time>
      </trkpt>
      <trkpt lat="43.439112" lon="-2.780000">
        <ele>239.5</ele>
        <time>2016-05-21T07:30:13Z</time>
      </trkpt>
      <trkpt lat="43.438981" lon="-2.779872">
        <ele>235.7</ele>
        <time>2016-05-21T07:30:26Z</time>
      </trkpt>
      <trkpt lat="43.438898" lon="-2.779630">
        <ele>232.3</ele>
        <time>2016-05-21T07:30:41Z</time>
      </trkpt>
      <trkpt lat="43.438705" lon="-2.779483">
        <ele>229.9</ele>
        <time>2016-05-21T07:30:59Z</time>
      </trkpt>
      <trkpt lat="43.438656" lon="-2.779489">
        <ele>229.4</ele>
        <time>2016-05-21T07:31:06Z</time>
      </trkpt>
      <trkpt lat="43.438582" lon="-2.779497">
        <ele>229.4</ele>
        <time>2016-05-21T07:31:15Z</time>
      </trkpt>
      <trkpt lat="43.438555" lon="-2.779455">
        <ele>229.9</ele>
        <time>2016-05-21T07:31:19Z</time>
      </trkpt>
      <trkpt lat="43.438555" lon="-2.779362">
        <ele>229.4</ele>
        <time>2016-05-21T07:31:25Z</time>
      </trkpt>
      <trkpt lat="43.438508" lon="-2.779137">
        <ele>232.8</ele>
        <time>2016-05-21T07:31:40Z</time>
      </trkpt>
      <trkpt lat="43.438413" lon="-2.778976">
        <ele>236.6</ele>
        <time>2016-05-21T07:31:53Z</time>
      </trkpt>
      <trkpt lat="43.438164" lon="-2.778942">
        <ele>238.1</ele>
        <time>2016-05-21T07:32:12Z</time>
      </trkpt>
      <trkpt lat="43.437942" lon="-2.778911">
        <ele>238.1</ele>
        <time>2016-05-21T07:32:28Z</time>
      </trkpt>
      <trkpt lat="43.437748" lon="-2.778830">
        <ele>240.9</ele>
        <time>2016-05-21T07:32:44Z</time>
      </trkpt>
      <trkpt lat="43.437637" lon="-2.778716">
        <ele>242.4</ele>
        <time>2016-05-21T07:32:55Z</time>
      </trkpt>
      <trkpt lat="43.437561" lon="-2.778660">
        <ele>243.4</ele>
        <time>2016-05-21T07:33:11Z</time>
      </trkpt>
      <trkpt lat="43.437514" lon="-2.778701">
        <ele>241.4</ele>
        <time>2016-05-21T07:33:26Z</time>
      </trkpt>
      <trkpt lat="43.437509" lon="-2.778710">
        <ele>241.4</ele>
        <time>2016-05-21T07:33:27Z</time>
      </trkpt>
      <trkpt lat="43.437422" lon="-2.778796">
        <ele>237.6</ele>
        <time>2016-05-21T07:33:37Z</time>
      </trkpt>
      <trkpt lat="43.437391" lon="-2.778834">
        <ele>235.7</ele>
        <time>2016-05-21T07:33:41Z</time>
      </trkpt>
      <trkpt lat="43.437362" lon="-2.778883">
        <ele>233.3</ele>
        <time>2016-05-21T07:33:45Z</time>
      </trkpt>
      <trkpt lat="43.437312" lon="-2.778956">
        <ele>229.9</ele>
        <time>2016-05-21T07:33:51Z</time>
      </trkpt>
      <trkpt lat="43.437276" lon="-2.779026">
        <ele>228.5</ele>
        <time>2016-05-21T07:33:58Z</time>
      </trkpt>
      <trkpt lat="43.437287" lon="-2.779097">
        <ele>228.0</ele>
        <time>2016-05-21T07:34:04Z</time>
      </trkpt>
      <trkpt lat="43.437359" lon="-2.779195">
        <ele>224.6</ele>
        <time>2016-05-21T07:34:12Z</time>
      </trkpt>
      <trkpt lat="43.437495" lon="-2.779347">
        <ele>221.7</ele>
        <time>2016-05-21T07:34:26Z</time>
      </trkpt>
      <trkpt lat="43.437567" lon="-2.779408">
        <ele>219.3</ele>
        <time>2016-05-21T07:34:33Z</time>
      </trkpt>
      <trkpt lat="43.437699" lon="-2.779483">
        <ele>217.9</ele>
        <time>2016-05-21T07:34:44Z</time>
      </trkpt>
      <trkpt lat="43.437729" lon="-2.779500">
        <ele>217.4</ele>
        <time>2016-05-21T07:34:47Z</time>
      </trkpt>
      <trkpt lat="43.437793" lon="-2.779518">
        <ele>216.0</ele>
        <time>2016-05-21T07:34:52Z</time>
      </trkpt>
      <trkpt lat="43.437960" lon="-2.779599">
        <ele>214.0</ele>
        <time>2016-05-21T07:35:04Z</time>
      </trkpt>
      <trkpt lat="43.438023" lon="-2.779649">
        <ele>213.6</ele>
        <time>2016-05-21T07:35:10Z</time>
      </trkpt>
      <trkpt lat="43.438096" lon="-2.779689">
        <ele>213.6</ele>
        <time>2016-05-21T07:35:17Z</time>
      </trkpt>
      <trkpt lat="43.438253" lon="-2.779825">
        <ele>213.1</ele>
        <time>2016-05-21T07:35:32Z</time>
      </trkpt>
      <trkpt lat="43.438309" lon="-2.779909">
        <ele>213.1</ele>
        <time>2016-05-21T07:35:38Z</time>
      </trkpt>
      <trkpt lat="43.438286" lon="-2.780231">
        <ele>213.1</ele>
        <time>2016-05-21T07:35:57Z</time>
      </trkpt>
      <trkpt lat="43.438193" lon="-2.780467">
        <ele>212.1</ele>
        <time>2016-05-21T07:36:12Z</time>
      </trkpt>
      <trkpt lat="43.438078" lon="-2.780647">
        <ele>211.1</ele>
        <time>2016-05-21T07:36:25Z</time>
      </trkpt>
      <trkpt lat="43.438063" lon="-2.780655">
        <ele>210.7</ele>
        <time>2016-05-21T07:36:39Z</time>
      </trkpt>
      <trkpt lat="43.438053" lon="-2.780656">
        <ele>210.7</ele>
        <time>2016-05-21T07:36:49Z</time>
      </trkpt>
      <trkpt lat="43.438056" lon="-2.780609">
        <ele>209.7</ele>
        <time>2016-05-21T07:37:06Z</time>
      </trkpt>
      <trkpt lat="43.438066" lon="-2.780527">
        <ele>208.7</ele>
        <time>2016-05-21T07:37:12Z</time>
      </trkpt>
      <trkpt lat="43.438095" lon="-2.780301">
        <ele>206.8</ele>
        <time>2016-05-21T07:37:25Z</time>
      </trkpt>
      <trkpt lat="43.438105" lon="-2.780175">
        <ele>205.4</ele>
        <time>2016-05-21T07:37:32Z</time>
      </trkpt>
      <trkpt lat="43.438051" lon="-2.780027">
        <ele>205.4</ele>
        <time>2016-05-21T07:37:41Z</time>
      </trkpt>
      <trkpt lat="43.437852" lon="-2.779931">
        <ele>203.9</ele>
        <time>2016-05-21T07:37:57Z</time>
      </trkpt>
      <trkpt lat="43.437658" lon="-2.779920">
        <ele>200.6</ele>
        <time>2016-05-21T07:38:11Z</time>
      </trkpt>
      <trkpt lat="43.437481" lon="-2.779938">
        <ele>199.1</ele>
        <time>2016-05-21T07:38:24Z</time>
      </trkpt>
      <trkpt lat="43.437328" lon="-2.779968">
        <ele>196.2</ele>
        <time>2016-05-21T07:38:36Z</time>
      </trkpt>
      <trkpt lat="43.437178" lon="-2.779985">
        <ele>192.9</ele>
        <time>2016-05-21T07:38:47Z</time>
      </trkpt>
      <trkpt lat="43.437062" lon="-2.779992">
        <ele>190.5</ele>
        <time>2016-05-21T07:38:56Z</time>
      </trkpt>
      <trkpt lat="43.437049" lon="-2.779992">
        <ele>191.0</ele>
        <time>2016-05-21T07:38:57Z</time>
      </trkpt>
      <trkpt lat="43.436891" lon="-2.779943">
        <ele>189.0</ele>
        <time>2016-05-21T07:39:10Z</time>
      </trkpt>
      <trkpt lat="43.436729" lon="-2.779929">
        <ele>186.2</ele>
        <time>2016-05-21T07:39:24Z</time>
      </trkpt>
      <trkpt lat="43.436668" lon="-2.779897">
        <ele>185.7</ele>
        <time>2016-05-21T07:39:29Z</time>
      </trkpt>
      <trkpt lat="43.436583" lon="-2.779870">
        <ele>182.8</ele>
        <time>2016-05-21T07:39:36Z</time>
      </trkpt>
      <trkpt lat="43.436546" lon="-2.779851">
        <ele>182.3</ele>
        <time>2016-05-21T07:39:39Z</time>
      </trkpt>
      <trkpt lat="43.436439" lon="-2.779748">
        <ele>178.5</ele>
        <time>2016-05-21T07:39:50Z</time>
      </trkpt>
      <trkpt lat="43.436314" lon="-2.779557">
        <ele>175.1</ele>
        <time>2016-05-21T07:40:05Z</time>
      </trkpt>
      <trkpt lat="43.436271" lon="-2.779449">
        <ele>171.7</ele>
        <time>2016-05-21T07:40:14Z</time>
      </trkpt>
      <trkpt lat="43.436242" lon="-2.779347">
        <ele>169.3</ele>
        <time>2016-05-21T07:40:20Z</time>
      </trkpt>
      <trkpt lat="43.436124" lon="-2.779219">
        <ele>166.0</ele>
        <time>2016-05-21T07:40:31Z</time>
      </trkpt>
      <trkpt lat="43.436113" lon="-2.779202">
        <ele>165.5</ele>
        <time>2016-05-21T07:40:32Z</time>
      </trkpt>
      <trkpt lat="43.436068" lon="-2.779081">
        <ele>164.0</ele>
        <time>2016-05-21T07:40:40Z</time>
      </trkpt>
      <trkpt lat="43.436022" lon="-2.778972">
        <ele>162.6</ele>
        <time>2016-05-21T07:40:56Z</time>
      </trkpt>
      <trkpt lat="43.435952" lon="-2.778842">
        <ele>159.2</ele>
        <time>2016-05-21T07:41:13Z</time>
      </trkpt>
      <trkpt lat="43.435947" lon="-2.778827">
        <ele>159.2</ele>
        <time>2016-05-21T07:41:14Z</time>
      </trkpt>
      <trkpt lat="43.435895" lon="-2.778793">
        <ele>157.8</ele>
        <time>2016-05-21T07:41:20Z</time>
      </trkpt>
      <trkpt lat="43.435797" lon="-2.778924">
        <ele>154.4</ele>
        <time>2016-05-21T07:41:33Z</time>
      </trkpt>
      <trkpt lat="43.435779" lon="-2.779069">
        <ele>151.1</ele>
        <time>2016-05-21T07:41:43Z</time>
      </trkpt>
      <trkpt lat="43.435757" lon="-2.779228">
        <ele>148.2</ele>
        <time>2016-05-21T07:41:53Z</time>
      </trkpt>
      <trkpt lat="43.435741" lon="-2.779381">
        <ele>146.3</ele>
        <time>2016-05-21T07:42:01Z</time>
      </trkpt>
      <trkpt lat="43.435739" lon="-2.779480">
        <ele>143.4</ele>
        <time>2016-05-21T07:42:07Z</time>
      </trkpt>
      <trkpt lat="43.435654" lon="-2.779611">
        <ele>141.0</ele>
        <time>2016-05-21T07:42:20Z</time>
      </trkpt>
      <trkpt lat="43.435633" lon="-2.779630">
        <ele>140.0</ele>
        <time>2016-05-21T07:42:22Z</time>
      </trkpt>
      <trkpt lat="43.435479" lon="-2.779706">
        <ele>137.6</ele>
        <time>2016-05-21T07:42:35Z</time>
      </trkpt>
      <trkpt lat="43.435436" lon="-2.779752">
        <ele>137.6</ele>
        <time>2016-05-21T07:42:40Z</time>
      </trkpt>
      <trkpt lat="43.435369" lon="-2.779810">
        <ele>136.2</ele>
        <time>2016-05-21T07:42:46Z</time>
      </trkpt>
      <trkpt lat="43.435171" lon="-2.779878">
        <ele>134.2</ele>
        <time>2016-05-21T07:43:01Z</time>
      </trkpt>
      <trkpt lat="43.435027" lon="-2.779959">
        <ele>131.8</ele>
        <time>2016-05-21T07:43:14Z</time>
      </trkpt>
      <trkpt lat="43.434847" lon="-2.780069">
        <ele>131.4</ele>
        <time>2016-05-21T07:43:29Z</time>
      </trkpt>
      <trkpt lat="43.434804" lon="-2.780117">
        <ele>130.4</ele>
        <time>2016-05-21T07:43:34Z</time>
      </trkpt>
      <trkpt lat="43.434767" lon="-2.780145">
        <ele>129.9</ele>
        <time>2016-05-21T07:43:38Z</time>
      </trkpt>
      <trkpt lat="43.434704" lon="-2.780217">
        <ele>130.4</ele>
        <time>2016-05-21T07:43:46Z</time>
      </trkpt>
      <trkpt lat="43.434627" lon="-2.780415">
        <ele>130.4</ele>
        <time>2016-05-21T07:43:59Z</time>
      </trkpt>
      <trkpt lat="43.434594" lon="-2.780520">
        <ele>130.4</ele>
        <time>2016-05-21T07:44:06Z</time>
      </trkpt>
      <trkpt lat="43.434578" lon="-2.780538">
        <ele>129.4</ele>
        <time>2016-05-21T07:44:08Z</time>
      </trkpt>
      <trkpt lat="43.434496" lon="-2.780750">
        <ele>126.6</ele>
        <time>2016-05-21T07:44:23Z</time>
      </trkpt>
      <trkpt lat="43.434491" lon="-2.780784">
        <ele>125.6</ele>
        <time>2016-05-21T07:44:25Z</time>
      </trkpt>
      <trkpt lat="43.434443" lon="-2.780938">
        <ele>125.6</ele>
        <time>2016-05-21T07:44:37Z</time>
      </trkpt>
      <trkpt lat="43.434432" lon="-2.780964">
        <ele>127.0</ele>
        <time>2016-05-21T07:44:40Z</time>
      </trkpt>
      <trkpt lat="43.434413" lon="-2.781062">
        <ele>129.4</ele>
        <time>2016-05-21T07:44:52Z</time>
      </trkpt>
      <trkpt lat="43.434385" lon="-2.781124">
        <ele>130.4</ele>
        <time>2016-05-21T07:44:57Z</time>
      </trkpt>
      <trkpt lat="43.434347" lon="-2.781202">
        <ele>130.9</ele>
        <time>2016-05-21T07:45:07Z</time>
      </trkpt>
      <trkpt lat="43.434245" lon="-2.781427">
        <ele>130.9</ele>
        <time>2016-05-21T07:45:22Z</time>
      </trkpt>
      <trkpt lat="43.434235" lon="-2.781444">
        <ele>130.9</ele>
        <time>2016-05-21T07:45:23Z</time>
      </trkpt>
      <trkpt lat="43.434173" lon="-2.781511">
        <ele>130.9</ele>
        <time>2016-05-21T07:45:29Z</time>
      </trkpt>
      <trkpt lat="43.434091" lon="-2.781581">
        <ele>127.5</ele>
        <time>2016-05-21T07:45:37Z</time>
      </trkpt>
      <trkpt lat="43.434043" lon="-2.781594">
        <ele>125.1</ele>
        <time>2016-05-21T07:45:41Z</time>
      </trkpt>
      <trkpt lat="43.433976" lon="-2.781623">
        <ele>122.2</ele>
        <time>2016-05-21T07:45:47Z</time>
      </trkpt>
      <trkpt lat="43.433900" lon="-2.781655">
        <ele>118.9</ele>
        <time>2016-05-21T07:45:53Z</time>
      </trkpt>
      <trkpt lat="43.433884" lon="-2.781663">
        <ele>118.9</ele>
        <time>2016-05-21T07:45:54Z</time>
      </trkpt>
      <trkpt lat="43.433787" lon="-2.781725">
        <ele>115.5</ele>
        <time>2016-05-21T07:46:01Z</time>
      </trkpt>
      <trkpt lat="43.433769" lon="-2.781741">
        <ele>114.5</ele>
        <time>2016-05-21T07:46:03Z</time>
      </trkpt>
      <trkpt lat="43.433706" lon="-2.781829">
        <ele>112.1</ele>
        <time>2016-05-21T07:46:09Z</time>
      </trkpt>
      <trkpt lat="43.433623" lon="-2.781979">
        <ele>111.7</ele>
        <time>2016-05-21T07:46:23Z</time>
      </trkpt>
      <trkpt lat="43.433533" lon="-2.782031">
        <ele>110.7</ele>
        <time>2016-05-21T07:46:34Z</time>
      </trkpt>
      <trkpt lat="43.433366" lon="-2.782116">
        <ele>110.7</ele>
        <time>2016-05-21T07:46:47Z</time>
      </trkpt>
      <trkpt lat="43.433155" lon="-2.782193">
        <ele>114.1</ele>
        <time>2016-05-21T07:47:05Z</time>
      </trkpt>
      <trkpt lat="43.432978" lon="-2.782272">
        <ele>115.0</ele>
        <time>2016-05-21T07:47:19Z</time>
      </trkpt>
      <trkpt lat="43.432847" lon="-2.782332">
        <ele>111.7</ele>
        <time>2016-05-21T07:47:29Z</time>
      </trkpt>
      <trkpt lat="43.432671" lon="-2.782416">
        <ele>108.8</ele>
        <time>2016-05-21T07:47:45Z</time>
      </trkpt>
      <trkpt lat="43.432653" lon="-2.782410">
        <ele>108.8</ele>
        <time>2016-05-21T07:48:12Z</time>
      </trkpt>
      <trkpt lat="43.432637" lon="-2.782418">
        <ele>109.2</ele>
        <time>2016-05-21T07:48:55Z</time>
      </trkpt>
      <trkpt lat="43.432578" lon="-2.782439">
        <ele>107.3</ele>
        <time>2016-05-21T07:49:00Z</time>
      </trkpt>
      <trkpt lat="43.432562" lon="-2.782445">
        <ele>106.4</ele>
        <time>2016-05-21T07:49:01Z</time>
      </trkpt>
      <trkpt lat="43.432476" lon="-2.782469">
        <ele>102.0</ele>
        <time>2016-05-21T07:49:06Z</time>
      </trkpt>
      <trkpt lat="43.432399" lon="-2.782464">
        <ele>98.7</ele>
        <time>2016-05-21T07:49:11Z</time>
      </trkpt>
      <trkpt lat="43.432312" lon="-2.782481">
        <ele>95.3</ele>
        <time>2016-05-21T07:49:16Z</time>
      </trkpt>
      <trkpt lat="43.432248" lon="-2.782549">
        <ele>91.5</ele>
        <time>2016-05-21T07:49:21Z</time>
      </trkpt>
      <trkpt lat="43.432119" lon="-2.782619">
        <ele>88.1</ele>
        <time>2016-05-21T07:49:31Z</time>
      </trkpt>
      <trkpt lat="43.432109" lon="-2.782618">
        <ele>88.1</ele>
        <time>2016-05-21T07:49:32Z</time>
      </trkpt>
      <trkpt lat="43.432046" lon="-2.782630">
        <ele>84.7</ele>
        <time>2016-05-21T07:49:41Z</time>
      </trkpt>
      <trkpt lat="43.432027" lon="-2.782658">
        <ele>83.3</ele>
        <time>2016-05-21T07:49:47Z</time>
      </trkpt>
      <trkpt lat="43.431993" lon="-2.782665">
        <ele>81.4</ele>
        <time>2016-05-21T07:49:50Z</time>
      </trkpt>
      <trkpt lat="43.431980" lon="-2.782653">
        <ele>80.9</ele>
        <time>2016-05-21T07:49:52Z</time>
      </trkpt>
      <trkpt lat="43.431916" lon="-2.782494">
        <ele>77.5</ele>
        <time>2016-05-21T07:50:03Z</time>
      </trkpt>
      <trkpt lat="43.431919" lon="-2.782455">
        <ele>76.1</ele>
        <time>2016-05-21T07:50:05Z</time>
      </trkpt>
      <trkpt lat="43.431917" lon="-2.782420">
        <ele>76.1</ele>
        <time>2016-05-21T07:50:07Z</time>
      </trkpt>
      <trkpt lat="43.431957" lon="-2.782239">
        <ele>72.2</ele>
        <time>2016-05-21T07:50:19Z</time>
      </trkpt>
      <trkpt lat="43.431959" lon="-2.782222">
        <ele>71.8</ele>
        <time>2016-05-21T07:50:20Z</time>
      </trkpt>
      <trkpt lat="43.431971" lon="-2.782195">
        <ele>71.3</ele>
        <time>2016-05-21T07:50:22Z</time>
      </trkpt>
      <trkpt lat="43.431953" lon="-2.782104">
        <ele>69.4</ele>
        <time>2016-05-21T07:50:28Z</time>
      </trkpt>
      <trkpt lat="43.431860" lon="-2.782222">
        <ele>68.9</ele>
        <time>2016-05-21T07:50:40Z</time>
      </trkpt>
      <trkpt lat="43.431822" lon="-2.782279">
        <ele>68.4</ele>
        <time>2016-05-21T07:50:45Z</time>
      </trkpt>
      <trkpt lat="43.431686" lon="-2.782477">
        <ele>65.5</ele>
        <time>2016-05-21T07:51:01Z</time>
      </trkpt>
      <trkpt lat="43.431624" lon="-2.782523">
        <ele>63.1</ele>
        <time>2016-05-21T07:51:07Z</time>
      </trkpt>
      <trkpt lat="43.431567" lon="-2.782613">
        <ele>63.1</ele>
        <time>2016-05-21T07:51:20Z</time>
      </trkpt>
      <trkpt lat="43.431549" lon="-2.782651">
        <ele>62.6</ele>
        <time>2016-05-21T07:51:23Z</time>
      </trkpt>
      <trkpt lat="43.431477" lon="-2.782605">
        <ele>61.2</ele>
        <time>2016-05-21T07:51:30Z</time>
      </trkpt>
      <trkpt lat="43.431391" lon="-2.782385">
        <ele>63.1</ele>
        <time>2016-05-21T07:51:45Z</time>
      </trkpt>
      <trkpt lat="43.431207" lon="-2.782105">
        <ele>62.6</ele>
        <time>2016-05-21T07:52:05Z</time>
      </trkpt>
      <trkpt lat="43.431201" lon="-2.782090">
        <ele>62.1</ele>
        <time>2016-05-21T07:52:06Z</time>
      </trkpt>
      <trkpt lat="43.431192" lon="-2.781880">
        <ele>62.1</ele>
        <time>2016-05-21T07:52:21Z</time>
      </trkpt>
      <trkpt lat="43.431167" lon="-2.781851">
        <ele>62.1</ele>
        <time>2016-05-21T07:52:30Z</time>
      </trkpt>
      <trkpt lat="43.430996" lon="-2.781771">
        <ele>63.1</ele>
        <time>2016-05-21T07:52:46Z</time>
      </trkpt>
      <trkpt lat="43.430966" lon="-2.781779">
        <ele>64.1</ele>
        <time>2016-05-21T07:52:49Z</time>
      </trkpt>
      <trkpt lat="43.430927" lon="-2.781801">
        <ele>66.0</ele>
        <time>2016-05-21T07:52:53Z</time>
      </trkpt>
      <trkpt lat="43.430760" lon="-2.781729">
        <ele>69.4</ele>
        <time>2016-05-21T07:53:10Z</time>
      </trkpt>
      <trkpt lat="43.430624" lon="-2.781607">
        <ele>72.2</ele>
        <time>2016-05-21T07:53:27Z</time>
      </trkpt>
      <trkpt lat="43.430505" lon="-2.781493">
        <ele>75.6</ele>
        <time>2016-05-21T07:53:41Z</time>
      </trkpt>
      <trkpt lat="43.430463" lon="-2.781449">
        <ele>77.0</ele>
        <time>2016-05-21T07:53:46Z</time>
      </trkpt>
      <trkpt lat="43.430361" lon="-2.781335">
        <ele>79.0</ele>
        <time>2016-05-21T07:54:01Z</time>
      </trkpt>
      <trkpt lat="43.430291" lon="-2.781238">
        <ele>82.3</ele>
        <time>2016-05-21T07:54:10Z</time>
      </trkpt>
      <trkpt lat="43.430141" lon="-2.781101">
        <ele>84.7</ele>
        <time>2016-05-21T07:54:26Z</time>
      </trkpt>
      <trkpt lat="43.430111" lon="-2.781075">
        <ele>84.7</ele>
        <time>2016-05-21T07:54:29Z</time>
      </trkpt>
      <trkpt lat="43.430068" lon="-2.781031">
        <ele>86.2</ele>
        <time>2016-05-21T07:54:34Z</time>
      </trkpt>
      <trkpt lat="43.429886" lon="-2.780882">
        <ele>88.6</ele>
        <time>2016-05-21T07:54:51Z</time>
      </trkpt>
      <trkpt lat="43.429671" lon="-2.780860">
        <ele>91.0</ele>
        <time>2016-05-21T07:55:09Z</time>
      </trkpt>
      <trkpt lat="43.429596" lon="-2.780730">
        <ele>94.3</ele>
        <time>2016-05-21T07:55:21Z</time>
      </trkpt>
      <trkpt lat="43.429603" lon="-2.780623">
        <ele>95.8</ele>
        <time>2016-05-21T07:55:29Z</time>
      </trkpt>
      <trkpt lat="43.429591" lon="-2.780401">
        <ele>98.2</ele>
        <time>2016-05-21T07:55:45Z</time>
      </trkpt>
      <trkpt lat="43.429547" lon="-2.780227">
        <ele>101.1</ele>
        <time>2016-05-21T07:55:58Z</time>
      </trkpt>
      <trkpt lat="43.429493" lon="-2.780090">
        <ele>104.0</ele>
        <time>2016-05-21T07:56:12Z</time>
      </trkpt>
      <trkpt lat="43.429458" lon="-2.780013">
        <ele>105.9</ele>
        <time>2016-05-21T07:56:19Z</time>
      </trkpt>
      <trkpt lat="43.429209" lon="-2.779988">
        <ele>105.4</ele>
        <time>2016-05-21T07:56:39Z</time>
      </trkpt>
      <trkpt lat="43.429118" lon="-2.780016">
        <ele>104.4</ele>
        <time>2016-05-21T07:56:46Z</time>
      </trkpt>
      <trkpt lat="43.428920" lon="-2.780025">
        <ele>103.0</ele>
        <time>2016-05-21T07:57:01Z</time>
      </trkpt>
      <trkpt lat="43.428892" lon="-2.780016">
        <ele>103.0</ele>
        <time>2016-05-21T07:57:04Z</time>
      </trkpt>
      <trkpt lat="43.428899" lon="-2.779904">
        <ele>104.0</ele>
        <time>2016-05-21T07:57:13Z</time>
      </trkpt>
      <trkpt lat="43.428984" lon="-2.779719">
        <ele>106.8</ele>
        <time>2016-05-21T07:57:27Z</time>
      </trkpt>
      <trkpt lat="43.429055" lon="-2.779557">
        <ele>108.8</ele>
        <time>2016-05-21T07:57:40Z</time>
      </trkpt>
      <trkpt lat="43.429078" lon="-2.779458">
        <ele>111.7</ele>
        <time>2016-05-21T07:57:49Z</time>
      </trkpt>
      <trkpt lat="43.429087" lon="-2.779387">
        <ele>113.1</ele>
        <time>2016-05-21T07:57:54Z</time>
      </trkpt>
      <trkpt lat="43.429035" lon="-2.779236">
        <ele>116.5</ele>
        <time>2016-05-21T07:58:09Z</time>
      </trkpt>
      <trkpt lat="43.429016" lon="-2.779207">
        <ele>117.4</ele>
        <time>2016-05-21T07:58:12Z</time>
      </trkpt>
      <trkpt lat="43.428919" lon="-2.779040">
        <ele>120.3</ele>
        <time>2016-05-21T07:58:29Z</time>
      </trkpt>
      <trkpt lat="43.428896" lon="-2.778997">
        <ele>121.3</ele>
        <time>2016-05-21T07:58:33Z</time>
      </trkpt>
      <trkpt lat="43.428779" lon="-2.778882">
        <ele>124.6</ele>
        <time>2016-05-21T07:58:47Z</time>
      </trkpt>
      <trkpt lat="43.428671" lon="-2.778804">
        <ele>128.0</ele>
        <time>2016-05-21T07:58:58Z</time>
      </trkpt>
      <trkpt lat="43.428643" lon="-2.778790">
        <ele>129.4</ele>
        <time>2016-05-21T07:59:01Z</time>
      </trkpt>
      <trkpt lat="43.428535" lon="-2.778713">
        <ele>131.8</ele>
        <time>2016-05-21T07:59:15Z</time>
      </trkpt>
      <trkpt lat="43.428450" lon="-2.778666">
        <ele>135.2</ele>
        <time>2016-05-21T07:59:25Z</time>
      </trkpt>
      <trkpt lat="43.428310" lon="-2.778556">
        <ele>138.6</ele>
        <time>2016-05-21T07:59:41Z</time>
      </trkpt>
      <trkpt lat="43.428256" lon="-2.778527">
        <ele>140.5</ele>
        <time>2016-05-21T07:59:46Z</time>
      </trkpt>
      <trkpt lat="43.428123" lon="-2.778476">
        <ele>142.9</ele>
        <time>2016-05-21T08:00:01Z</time>
      </trkpt>
      <trkpt lat="43.428094" lon="-2.778408">
        <ele>146.3</ele>
        <time>2016-05-21T08:00:09Z</time>
      </trkpt>
      <trkpt lat="43.428089" lon="-2.778399">
        <ele>146.3</ele>
        <time>2016-05-21T08:00:10Z</time>
      </trkpt>
      <trkpt lat="43.428047" lon="-2.778295">
        <ele>147.7</ele>
        <time>2016-05-21T08:00:18Z</time>
      </trkpt>
      <trkpt lat="43.427968" lon="-2.778104">
        <ele>149.1</ele>
        <time>2016-05-21T08:00:32Z</time>
      </trkpt>
      <trkpt lat="43.427868" lon="-2.777899">
        <ele>152.0</ele>
        <time>2016-05-21T08:00:46Z</time>
      </trkpt>
      <trkpt lat="43.427833" lon="-2.777791">
        <ele>153.0</ele>
        <time>2016-05-21T08:00:54Z</time>
      </trkpt>
      <trkpt lat="43.427745" lon="-2.777578">
        <ele>153.9</ele>
        <time>2016-05-21T08:01:09Z</time>
      </trkpt>
      <trkpt lat="43.427637" lon="-2.777372">
        <ele>156.8</ele>
        <time>2016-05-21T08:01:24Z</time>
      </trkpt>
      <trkpt lat="43.427534" lon="-2.777180">
        <ele>157.3</ele>
        <time>2016-05-21T08:01:36Z</time>
      </trkpt>
      <trkpt lat="43.427525" lon="-2.777164">
        <ele>157.3</ele>
        <time>2016-05-21T08:01:37Z</time>
      </trkpt>
      <trkpt lat="43.427461" lon="-2.777071">
        <ele>158.8</ele>
        <time>2016-05-21T08:01:45Z</time>
      </trkpt>
      <trkpt lat="43.427376" lon="-2.776868">
        <ele>159.7</ele>
        <time>2016-05-21T08:01:59Z</time>
      </trkpt>
      <trkpt lat="43.427243" lon="-2.776693">
        <ele>163.1</ele>
        <time>2016-05-21T08:02:12Z</time>
      </trkpt>
      <trkpt lat="43.427172" lon="-2.776575">
        <ele>164.0</ele>
        <time>2016-05-21T08:02:22Z</time>
      </trkpt>
      <trkpt lat="43.427004" lon="-2.776379">
        <ele>165.0</ele>
        <time>2016-05-21T08:02:37Z</time>
      </trkpt>
      <trkpt lat="43.426932" lon="-2.776308">
        <ele>167.9</ele>
        <time>2016-05-21T08:02:47Z</time>
      </trkpt>
      <trkpt lat="43.426814" lon="-2.776266">
        <ele>170.3</ele>
        <time>2016-05-21T08:02:59Z</time>
      </trkpt>
      <trkpt lat="43.426653" lon="-2.776255">
        <ele>173.2</ele>
        <time>2016-05-21T08:03:12Z</time>
      </trkpt>
      <trkpt lat="43.426493" lon="-2.776257">
        <ele>175.6</ele>
        <time>2016-05-21T08:03:28Z</time>
      </trkpt>
      <trkpt lat="43.426318" lon="-2.776288">
        <ele>178.9</ele>
        <time>2016-05-21T08:03:43Z</time>
      </trkpt>
      <trkpt lat="43.426171" lon="-2.776280">
        <ele>181.3</ele>
        <time>2016-05-21T08:03:57Z</time>
      </trkpt>
      <trkpt lat="43.426146" lon="-2.776299">
        <ele>181.8</ele>
        <time>2016-05-21T08:04:00Z</time>
      </trkpt>
      <trkpt lat="43.426027" lon="-2.776468">
        <ele>184.2</ele>
        <time>2016-05-21T08:04:13Z</time>
      </trkpt>
      <trkpt lat="43.425994" lon="-2.776595">
        <ele>186.2</ele>
        <time>2016-05-21T08:04:26Z</time>
      </trkpt>
      <trkpt lat="43.425929" lon="-2.776726">
        <ele>189.0</ele>
        <time>2016-05-21T08:04:39Z</time>
      </trkpt>
      <trkpt lat="43.425967" lon="-2.776883">
        <ele>191.0</ele>
        <time>2016-05-21T08:04:53Z</time>
      </trkpt>
      <trkpt lat="43.426078" lon="-2.776964">
        <ele>192.4</ele>
        <time>2016-05-21T08:05:04Z</time>
      </trkpt>
      <trkpt lat="43.426120" lon="-2.776985">
        <ele>192.9</ele>
        <time>2016-05-21T08:05:09Z</time>
      </trkpt>
      <trkpt lat="43.426271" lon="-2.777064">
        <ele>194.3</ele>
        <time>2016-05-21T08:05:21Z</time>
      </trkpt>
      <trkpt lat="43.426293" lon="-2.777097">
        <ele>195.3</ele>
        <time>2016-05-21T08:05:33Z</time>
      </trkpt>
      <trkpt lat="43.426364" lon="-2.777151">
        <ele>196.2</ele>
        <time>2016-05-21T08:06:16Z</time>
      </trkpt>
      <trkpt lat="43.426412" lon="-2.777297">
        <ele>198.2</ele>
        <time>2016-05-21T08:06:32Z</time>
      </trkpt>
      <trkpt lat="43.426453" lon="-2.777392">
        <ele>200.1</ele>
        <time>2016-05-21T08:06:45Z</time>
      </trkpt>
      <trkpt lat="43.426400" lon="-2.777399">
        <ele>200.6</ele>
        <time>2016-05-21T08:07:21Z</time>
      </trkpt>
      <trkpt lat="43.426309" lon="-2.777493">
        <ele>203.9</ele>
        <time>2016-05-21T08:07:34Z</time>
      </trkpt>
      <trkpt lat="43.426188" lon="-2.777522">
        <ele>205.9</ele>
        <time>2016-05-21T08:07:47Z</time>
      </trkpt>
      <trkpt lat="43.426086" lon="-2.777556">
        <ele>208.7</ele>
        <time>2016-05-21T08:07:59Z</time>
      </trkpt>
      <trkpt lat="43.426066" lon="-2.777561">
        <ele>208.7</ele>
        <time>2016-05-21T08:08:01Z</time>
      </trkpt>
      <trkpt lat="43.426028" lon="-2.777576">
        <ele>209.7</ele>
        <time>2016-05-21T08:08:05Z</time>
      </trkpt>
      <trkpt lat="43.425896" lon="-2.777624">
        <ele>211.1</ele>
        <time>2016-05-21T08:08:20Z</time>
      </trkpt>
      <trkpt lat="43.425852" lon="-2.777651">
        <ele>212.6</ele>
        <time>2016-05-21T08:08:25Z</time>
      </trkpt>
      <trkpt lat="43.425745" lon="-2.777682">
        <ele>215.0</ele>
        <time>2016-05-21T08:08:35Z</time>
      </trkpt>
      <trkpt lat="43.425520" lon="-2.777738">
        <ele>217.4</ele>
        <time>2016-05-21T08:08:54Z</time>
      </trkpt>
      <trkpt lat="43.425291" lon="-2.777774">
        <ele>219.8</ele>
        <time>2016-05-21T08:09:13Z</time>
      </trkpt>
      <trkpt lat="43.425103" lon="-2.777712">
        <ele>221.7</ele>
        <time>2016-05-21T08:09:30Z</time>
      </trkpt>
      <trkpt lat="43.424935" lon="-2.777629">
        <ele>222.2</ele>
        <time>2016-05-21T08:09:45Z</time>
      </trkpt>
      <trkpt lat="43.424790" lon="-2.777712">
        <ele>224.1</ele>
        <time>2016-05-21T08:09:59Z</time>
      </trkpt>
      <trkpt lat="43.424769" lon="-2.777723">
        <ele>224.6</ele>
        <time>2016-05-21T08:10:01Z</time>
      </trkpt>
      <trkpt lat="43.424637" lon="-2.777812">
        <ele>228.0</ele>
        <time>2016-05-21T08:10:14Z</time>
      </trkpt>
      <trkpt lat="43.424466" lon="-2.777894">
        <ele>231.3</ele>
        <time>2016-05-21T08:10:31Z</time>
      </trkpt>
      <trkpt lat="43.424422" lon="-2.777950">
        <ele>232.8</ele>
        <time>2016-05-21T08:10:37Z</time>
      </trkpt>
      <trkpt lat="43.424417" lon="-2.777978">
        <ele>232.8</ele>
        <time>2016-05-21T08:10:39Z</time>
      </trkpt>
      <trkpt lat="43.424427" lon="-2.778038">
        <ele>232.8</ele>
        <time>2016-05-21T08:10:43Z</time>
      </trkpt>
      <trkpt lat="43.424452" lon="-2.778062">
        <ele>233.3</ele>
        <time>2016-05-21T08:10:47Z</time>
      </trkpt>
      <trkpt lat="43.424572" lon="-2.778093">
        <ele>235.7</ele>
        <time>2016-05-21T08:10:58Z</time>
      </trkpt>
      <trkpt lat="43.424632" lon="-2.778126">
        <ele>236.6</ele>
        <time>2016-05-21T08:11:04Z</time>
      </trkpt>
      <trkpt lat="43.424747" lon="-2.778182">
        <ele>239.5</ele>
        <time>2016-05-21T08:11:14Z</time>
      </trkpt>
      <trkpt lat="43.424831" lon="-2.778231">
        <ele>242.9</ele>
        <time>2016-05-21T08:11:25Z</time>
      </trkpt>
      <trkpt lat="43.424971" lon="-2.778330">
        <ele>245.8</ele>
        <time>2016-05-21T08:11:39Z</time>
      </trkpt>
      <trkpt lat="43.425086" lon="-2.778382">
        <ele>249.1</ele>
        <time>2016-05-21T08:11:52Z</time>
      </trkpt>
      <trkpt lat="43.425221" lon="-2.778487">
        <ele>251.0</ele>
        <time>2016-05-21T08:12:06Z</time>
      </trkpt>
      <trkpt lat="43.425360" lon="-2.778639">
        <ele>253.4</ele>
        <time>2016-05-21T08:12:21Z</time>
      </trkpt>
      <trkpt lat="43.425373" lon="-2.778714">
        <ele>253.0</ele>
        <time>2016-05-21T08:12:27Z</time>
      </trkpt>
      <trkpt lat="43.425412" lon="-2.778725">
        <ele>253.9</ele>
        <time>2016-05-21T08:12:36Z</time>
      </trkpt>
      <trkpt lat="43.425212" lon="-2.778719">
        <ele>256.3</ele>
        <time>2016-05-21T08:12:53Z</time>
      </trkpt>
      <trkpt lat="43.425109" lon="-2.778754">
        <ele>259.2</ele>
        <time>2016-05-21T08:13:03Z</time>
      </trkpt>
      <trkpt lat="43.425095" lon="-2.778790">
        <ele>259.7</ele>
        <time>2016-05-21T08:13:06Z</time>
      </trkpt>
      <trkpt lat="43.425116" lon="-2.778863">
        <ele>261.1</ele>
        <time>2016-05-21T08:13:11Z</time>
      </trkpt>
      <trkpt lat="43.425208" lon="-2.778989">
        <ele>263.1</ele>
        <time>2016-05-21T08:13:23Z</time>
      </trkpt>
      <trkpt lat="43.425231" lon="-2.779124">
        <ele>264.5</ele>
        <time>2016-05-21T08:13:32Z</time>
      </trkpt>
      <trkpt lat="43.425237" lon="-2.779168">
        <ele>265.5</ele>
        <time>2016-05-21T08:13:35Z</time>
      </trkpt>
      <trkpt lat="43.425221" lon="-2.779437">
        <ele>267.9</ele>
        <time>2016-05-21T08:13:53Z</time>
      </trkpt>
      <trkpt lat="43.425179" lon="-2.779521">
        <ele>271.2</ele>
        <time>2016-05-21T08:14:01Z</time>
      </trkpt>
      <trkpt lat="43.425050" lon="-2.779616">
        <ele>273.6</ele>
        <time>2016-05-21T08:14:18Z</time>
      </trkpt>
      <trkpt lat="43.424983" lon="-2.779619">
        <ele>275.6</ele>
        <time>2016-05-21T08:14:26Z</time>
      </trkpt>
      <trkpt lat="43.424881" lon="-2.779668">
        <ele>278.9</ele>
        <time>2016-05-21T08:14:40Z</time>
      </trkpt>
      <trkpt lat="43.424758" lon="-2.779777">
        <ele>280.8</ele>
        <time>2016-05-21T08:14:56Z</time>
      </trkpt>
      <trkpt lat="43.424637" lon="-2.779895">
        <ele>283.7</ele>
        <time>2016-05-21T08:15:10Z</time>
      </trkpt>
      <trkpt lat="43.424539" lon="-2.780006">
        <ele>287.1</ele>
        <time>2016-05-21T08:15:23Z</time>
      </trkpt>
      <trkpt lat="43.424448" lon="-2.780162">
        <ele>290.0</ele>
        <time>2016-05-21T08:15:38Z</time>
      </trkpt>
      <trkpt lat="43.424423" lon="-2.780245">
        <ele>292.4</ele>
        <time>2016-05-21T08:15:45Z</time>
      </trkpt>
      <trkpt lat="43.424330" lon="-2.780405">
        <ele>295.7</ele>
        <time>2016-05-21T08:16:01Z</time>
      </trkpt>
      <trkpt lat="43.424322" lon="-2.780413">
        <ele>295.7</ele>
        <time>2016-05-21T08:16:02Z</time>
      </trkpt>
      <trkpt lat="43.424218" lon="-2.780581">
        <ele>299.1</ele>
        <time>2016-05-21T08:16:17Z</time>
      </trkpt>
      <trkpt lat="43.424201" lon="-2.780767">
        <ele>302.5</ele>
        <time>2016-05-21T08:16:31Z</time>
      </trkpt>
      <trkpt lat="43.424188" lon="-2.781058">
        <ele>304.9</ele>
        <time>2016-05-21T08:16:50Z</time>
      </trkpt>
      <trkpt lat="43.424183" lon="-2.781320">
        <ele>308.2</ele>
        <time>2016-05-21T08:17:05Z</time>
      </trkpt>
      <trkpt lat="43.424135" lon="-2.781577">
        <ele>309.2</ele>
        <time>2016-05-21T08:17:20Z</time>
      </trkpt>
      <trkpt lat="43.424130" lon="-2.781595">
        <ele>308.7</ele>
        <time>2016-05-21T08:17:21Z</time>
      </trkpt>
      <trkpt lat="43.424069" lon="-2.781727">
        <ele>309.7</ele>
        <time>2016-05-21T08:17:30Z</time>
      </trkpt>
      <trkpt lat="43.424021" lon="-2.781767">
        <ele>310.2</ele>
        <time>2016-05-21T08:17:35Z</time>
      </trkpt>
      <trkpt lat="43.423994" lon="-2.781772">
        <ele>311.1</ele>
        <time>2016-05-21T08:17:37Z</time>
      </trkpt>
      <trkpt lat="43.423854" lon="-2.781735">
        <ele>313.0</ele>
        <time>2016-05-21T08:17:50Z</time>
      </trkpt>
      <trkpt lat="43.423844" lon="-2.781758">
        <ele>313.5</ele>
        <time>2016-05-21T08:17:54Z</time>
      </trkpt>
      <trkpt lat="43.424011" lon="-2.781934">
        <ele>311.1</ele>
        <time>2016-05-21T08:18:11Z</time>
      </trkpt>
      <trkpt lat="43.424043" lon="-2.782022">
        <ele>309.7</ele>
        <time>2016-05-21T08:18:19Z</time>
      </trkpt>
      <trkpt lat="43.424048" lon="-2.782153">
        <ele>310.2</ele>
        <time>2016-05-21T08:20:28Z</time>
      </trkpt>
      <trkpt lat="43.424042" lon="-2.782263">
        <ele>309.7</ele>
        <time>2016-05-21T08:20:38Z</time>
      </trkpt>
      <trkpt lat="43.424082" lon="-2.782493">
        <ele>307.8</ele>
        <time>2016-05-21T08:20:52Z</time>
      </trkpt>
      <trkpt lat="43.423916" lon="-2.782562">
        <ele>305.8</ele>
        <time>2016-05-21T08:21:05Z</time>
      </trkpt>
      <trkpt lat="43.423780" lon="-2.782566">
        <ele>304.9</ele>
        <time>2016-05-21T08:21:15Z</time>
      </trkpt>
      <trkpt lat="43.423634" lon="-2.782531">
        <ele>303.4</ele>
        <time>2016-05-21T08:21:24Z</time>
      </trkpt>
      <trkpt lat="43.423500" lon="-2.782519">
        <ele>302.5</ele>
        <time>2016-05-21T08:21:33Z</time>
      </trkpt>
      <trkpt lat="43.423341" lon="-2.782528">
        <ele>299.6</ele>
        <time>2016-05-21T08:21:45Z</time>
      </trkpt>
      <trkpt lat="43.423297" lon="-2.782527">
        <ele>299.6</ele>
        <time>2016-05-21T08:21:49Z</time>
      </trkpt>
      <trkpt lat="43.423226" lon="-2.782575">
        <ele>299.6</ele>
        <time>2016-05-21T08:21:56Z</time>
      </trkpt>
      <trkpt lat="43.423193" lon="-2.782572">
        <ele>299.6</ele>
        <time>2016-05-21T08:21:59Z</time>
      </trkpt>
      <trkpt lat="43.423121" lon="-2.782631">
        <ele>299.1</ele>
        <time>2016-05-21T08:22:04Z</time>
      </trkpt>
      <trkpt lat="43.422985" lon="-2.782650">
        <ele>298.6</ele>
        <time>2016-05-21T08:22:14Z</time>
      </trkpt>
      <trkpt lat="43.422803" lon="-2.782641">
        <ele>298.6</ele>
        <time>2016-05-21T08:22:29Z</time>
      </trkpt>
      <trkpt lat="43.422651" lon="-2.782740">
        <ele>298.1</ele>
        <time>2016-05-21T08:22:45Z</time>
      </trkpt>
      <trkpt lat="43.422665" lon="-2.782858">
        <ele>296.7</ele>
        <time>2016-05-21T08:23:02Z</time>
      </trkpt>
      <trkpt lat="43.422665" lon="-2.782979">
        <ele>293.8</ele>
        <time>2016-05-21T08:23:14Z</time>
      </trkpt>
      <trkpt lat="43.422653" lon="-2.783161">
        <ele>290.5</ele>
        <time>2016-05-21T08:23:29Z</time>
      </trkpt>
      <trkpt lat="43.422600" lon="-2.783352">
        <ele>287.1</ele>
        <time>2016-05-21T08:23:43Z</time>
      </trkpt>
      <trkpt lat="43.422558" lon="-2.783392">
        <ele>286.1</ele>
        <time>2016-05-21T08:23:47Z</time>
      </trkpt>
      <trkpt lat="43.422449" lon="-2.783503">
        <ele>282.8</ele>
        <time>2016-05-21T08:23:57Z</time>
      </trkpt>
      <trkpt lat="43.422369" lon="-2.783685">
        <ele>283.2</ele>
        <time>2016-05-21T08:24:10Z</time>
      </trkpt>
      <trkpt lat="43.422344" lon="-2.783719">
        <ele>282.3</ele>
        <time>2016-05-21T08:24:14Z</time>
      </trkpt>
      <trkpt lat="43.422380" lon="-2.783865">
        <ele>279.9</ele>
        <time>2016-05-21T08:24:24Z</time>
      </trkpt>
      <trkpt lat="43.422404" lon="-2.783950">
        <ele>279.9</ele>
        <time>2016-05-21T08:24:30Z</time>
      </trkpt>
      <trkpt lat="43.422473" lon="-2.783971">
        <ele>278.4</ele>
        <time>2016-05-21T08:24:38Z</time>
      </trkpt>
      <trkpt lat="43.422534" lon="-2.783986">
        <ele>277.0</ele>
        <time>2016-05-21T08:24:44Z</time>
      </trkpt>
      <trkpt lat="43.422534" lon="-2.784084">
        <ele>276.5</ele>
        <time>2016-05-21T08:24:51Z</time>
      </trkpt>
      <trkpt lat="43.422482" lon="-2.784186">
        <ele>275.6</ele>
        <time>2016-05-21T08:24:57Z</time>
      </trkpt>
      <trkpt lat="43.422374" lon="-2.784425">
        <ele>273.6</ele>
        <time>2016-05-21T08:25:12Z</time>
      </trkpt>
      <trkpt lat="43.422374" lon="-2.784442">
        <ele>273.2</ele>
        <time>2016-05-21T08:25:13Z</time>
      </trkpt>
      <trkpt lat="43.422296" lon="-2.784568">
        <ele>273.6</ele>
        <time>2016-05-21T08:25:27Z</time>
      </trkpt>
      <trkpt lat="43.422180" lon="-2.784685">
        <ele>273.6</ele>
        <time>2016-05-21T08:25:38Z</time>
      </trkpt>
      <trkpt lat="43.422152" lon="-2.784721">
        <ele>273.6</ele>
        <time>2016-05-21T08:25:41Z</time>
      </trkpt>
      <trkpt lat="43.422130" lon="-2.784723">
        <ele>273.6</ele>
        <time>2016-05-21T08:25:46Z</time>
      </trkpt>
      <trkpt lat="43.422082" lon="-2.784782">
        <ele>273.2</ele>
        <time>2016-05-21T08:25:51Z</time>
      </trkpt>
      <trkpt lat="43.421964" lon="-2.784770">
        <ele>275.1</ele>
        <time>2016-05-21T08:26:01Z</time>
      </trkpt>
      <trkpt lat="43.421926" lon="-2.784842">
        <ele>275.1</ele>
        <time>2016-05-21T08:26:12Z</time>
      </trkpt>
      <trkpt lat="43.421902" lon="-2.785072">
        <ele>275.6</ele>
        <time>2016-05-21T08:26:26Z</time>
      </trkpt>
      <trkpt lat="43.421962" lon="-2.785282">
        <ele>275.1</ele>
        <time>2016-05-21T08:26:41Z</time>
      </trkpt>
      <trkpt lat="43.422039" lon="-2.785516">
        <ele>275.6</ele>
        <time>2016-05-21T08:26:56Z</time>
      </trkpt>
      <trkpt lat="43.422097" lon="-2.785797">
        <ele>274.6</ele>
        <time>2016-05-21T08:27:13Z</time>
      </trkpt>
      <trkpt lat="43.422175" lon="-2.786008">
        <ele>274.1</ele>
        <time>2016-05-21T08:27:27Z</time>
      </trkpt>
      <trkpt lat="43.422192" lon="-2.786044">
        <ele>273.6</ele>
        <time>2016-05-21T08:27:30Z</time>
      </trkpt>
      <trkpt lat="43.422331" lon="-2.786145">
        <ele>269.8</ele>
        <time>2016-05-21T08:27:44Z</time>
      </trkpt>
      <trkpt lat="43.422426" lon="-2.786265">
        <ele>267.4</ele>
        <time>2016-05-21T08:27:56Z</time>
      </trkpt>
      <trkpt lat="43.422471" lon="-2.786430">
        <ele>264.5</ele>
        <time>2016-05-21T08:28:08Z</time>
      </trkpt>
      <trkpt lat="43.422473" lon="-2.786445">
        <ele>264.0</ele>
        <time>2016-05-21T08:28:09Z</time>
      </trkpt>
      <trkpt lat="43.422520" lon="-2.786618">
        <ele>262.6</ele>
        <time>2016-05-21T08:28:20Z</time>
      </trkpt>
      <trkpt lat="43.422498" lon="-2.786885">
        <ele>259.7</ele>
        <time>2016-05-21T08:28:37Z</time>
      </trkpt>
      <trkpt lat="43.422494" lon="-2.786907">
        <ele>258.7</ele>
        <time>2016-05-21T08:28:39Z</time>
      </trkpt>
      <trkpt lat="43.422511" lon="-2.787017">
        <ele>258.3</ele>
        <time>2016-05-21T08:28:53Z</time>
      </trkpt>
      <trkpt lat="43.422536" lon="-2.787106">
        <ele>257.8</ele>
        <time>2016-05-21T08:29:10Z</time>
      </trkpt>
      <trkpt lat="43.422531" lon="-2.787137">
        <ele>256.8</ele>
        <time>2016-05-21T08:29:13Z</time>
      </trkpt>
      <trkpt lat="43.422549" lon="-2.787255">
        <ele>254.9</ele>
        <time>2016-05-21T08:29:21Z</time>
      </trkpt>
      <trkpt lat="43.422569" lon="-2.787384">
        <ele>252.0</ele>
        <time>2016-05-21T08:29:31Z</time>
      </trkpt>
      <trkpt lat="43.422563" lon="-2.787428">
        <ele>251.5</ele>
        <time>2016-05-21T08:29:34Z</time>
      </trkpt>
      <trkpt lat="43.422584" lon="-2.787701">
        <ele>247.7</ele>
        <time>2016-05-21T08:29:49Z</time>
      </trkpt>
      <trkpt lat="43.422597" lon="-2.787743">
        <ele>247.2</ele>
        <time>2016-05-21T08:29:51Z</time>
      </trkpt>
      <trkpt lat="43.422605" lon="-2.787787">
        <ele>246.2</ele>
        <time>2016-05-21T08:29:53Z</time>
      </trkpt>
      <trkpt lat="43.422628" lon="-2.788008">
        <ele>243.8</ele>
        <time>2016-05-21T08:30:06Z</time>
      </trkpt>
      <trkpt lat="43.422644" lon="-2.788233">
        <ele>240.5</ele>
        <time>2016-05-21T08:30:18Z</time>
      </trkpt>
      <trkpt lat="43.422654" lon="-2.788265">
        <ele>240.9</ele>
        <time>2016-05-21T08:30:20Z</time>
      </trkpt>
      <trkpt lat="43.422692" lon="-2.788466">
        <ele>239.0</ele>
        <time>2016-05-21T08:30:31Z</time>
      </trkpt>
      <trkpt lat="43.422697" lon="-2.788699">
        <ele>236.1</ele>
        <time>2016-05-21T08:30:44Z</time>
      </trkpt>
      <trkpt lat="43.422704" lon="-2.788727">
        <ele>235.7</ele>
        <time>2016-05-21T08:30:46Z</time>
      </trkpt>
      <trkpt lat="43.422711" lon="-2.788960">
        <ele>233.7</ele>
        <time>2016-05-21T08:31:01Z</time>
      </trkpt>
      <trkpt lat="43.422700" lon="-2.788981">
        <ele>233.3</ele>
        <time>2016-05-21T08:31:04Z</time>
      </trkpt>
      <trkpt lat="43.422589" lon="-2.789024">
        <ele>235.7</ele>
        <time>2016-05-21T08:31:19Z</time>
      </trkpt>
      <trkpt lat="43.422559" lon="-2.789033">
        <ele>236.1</ele>
        <time>2016-05-21T08:31:23Z</time>
      </trkpt>
      <trkpt lat="43.422338" lon="-2.789094">
        <ele>238.5</ele>
        <time>2016-05-21T08:31:43Z</time>
      </trkpt>
      <trkpt lat="43.422200" lon="-2.789159">
        <ele>238.1</ele>
        <time>2016-05-21T08:31:54Z</time>
      </trkpt>
      <trkpt lat="43.421973" lon="-2.789290">
        <ele>239.5</ele>
        <time>2016-05-21T08:32:13Z</time>
      </trkpt>
      <trkpt lat="43.421952" lon="-2.789310">
        <ele>240.0</ele>
        <time>2016-05-21T08:32:15Z</time>
      </trkpt>
      <trkpt lat="43.421879" lon="-2.789389">
        <ele>239.0</ele>
        <time>2016-05-21T08:32:27Z</time>
      </trkpt>
      <trkpt lat="43.421817" lon="-2.789421">
        <ele>238.5</ele>
        <time>2016-05-21T08:32:32Z</time>
      </trkpt>
      <trkpt lat="43.421649" lon="-2.789640">
        <ele>237.6</ele>
        <time>2016-05-21T08:32:48Z</time>
      </trkpt>
      <trkpt lat="43.421511" lon="-2.789794">
        <ele>238.1</ele>
        <time>2016-05-21T08:33:01Z</time>
      </trkpt>
      <trkpt lat="43.421344" lon="-2.789920">
        <ele>239.5</ele>
        <time>2016-05-21T08:33:17Z</time>
      </trkpt>
      <trkpt lat="43.421125" lon="-2.790093">
        <ele>240.9</ele>
        <time>2016-05-21T08:33:38Z</time>
      </trkpt>
      <trkpt lat="43.420954" lon="-2.790234">
        <ele>240.9</ele>
        <time>2016-05-21T08:33:54Z</time>
      </trkpt>
      <trkpt lat="43.420912" lon="-2.790277">
        <ele>240.9</ele>
        <time>2016-05-21T08:34:13Z</time>
      </trkpt>
      <trkpt lat="43.420893" lon="-2.790262">
        <ele>240.5</ele>
        <time>2016-05-21T08:35:23Z</time>
      </trkpt>
      <trkpt lat="43.420884" lon="-2.790272">
        <ele>240.0</ele>
        <time>2016-05-21T08:35:48Z</time>
      </trkpt>
      <trkpt lat="43.420823" lon="-2.790345">
        <ele>242.4</ele>
        <time>2016-05-21T08:36:27Z</time>
      </trkpt>
      <trkpt lat="43.420751" lon="-2.790408">
        <ele>241.9</ele>
        <time>2016-05-21T08:36:34Z</time>
      </trkpt>
      <trkpt lat="43.420551" lon="-2.790656">
        <ele>242.9</ele>
        <time>2016-05-21T08:36:53Z</time>
      </trkpt>
      <trkpt lat="43.420422" lon="-2.790893">
        <ele>241.9</ele>
        <time>2016-05-21T08:37:08Z</time>
      </trkpt>
      <trkpt lat="43.420326" lon="-2.791104">
        <ele>241.4</ele>
        <time>2016-05-21T08:37:21Z</time>
      </trkpt>
      <trkpt lat="43.420214" lon="-2.791360">
        <ele>239.5</ele>
        <time>2016-05-21T08:37:36Z</time>
      </trkpt>
      <trkpt lat="43.420096" lon="-2.791600">
        <ele>236.1</ele>
        <time>2016-05-21T08:37:51Z</time>
      </trkpt>
      <trkpt lat="43.420070" lon="-2.791651">
        <ele>234.7</ele>
        <time>2016-05-21T08:37:54Z</time>
      </trkpt>
      <trkpt lat="43.419981" lon="-2.791862">
        <ele>231.3</ele>
        <time>2016-05-21T08:38:07Z</time>
      </trkpt>
      <trkpt lat="43.419871" lon="-2.792024">
        <ele>228.0</ele>
        <time>2016-05-21T08:38:18Z</time>
      </trkpt>
      <trkpt lat="43.419781" lon="-2.792064">
        <ele>227.0</ele>
        <time>2016-05-21T08:38:24Z</time>
      </trkpt>
      <trkpt lat="43.419663" lon="-2.791959">
        <ele>226.5</ele>
        <time>2016-05-21T08:38:34Z</time>
      </trkpt>
      <trkpt lat="43.419579" lon="-2.791827">
        <ele>227.0</ele>
        <time>2016-05-21T08:38:47Z</time>
      </trkpt>
      <trkpt lat="43.419543" lon="-2.791783">
        <ele>227.5</ele>
        <time>2016-05-21T08:38:54Z</time>
      </trkpt>
      <trkpt lat="43.419522" lon="-2.791776">
        <ele>227.5</ele>
        <time>2016-05-21T08:38:56Z</time>
      </trkpt>
      <trkpt lat="43.419480" lon="-2.791749">
        <ele>227.5</ele>
        <time>2016-05-21T08:39:00Z</time>
      </trkpt>
      <trkpt lat="43.419366" lon="-2.791683">
        <ele>228.5</ele>
        <time>2016-05-21T08:39:12Z</time>
      </trkpt>
      <trkpt lat="43.419214" lon="-2.791552">
        <ele>229.9</ele>
        <time>2016-05-21T08:39:34Z</time>
      </trkpt>
      <trkpt lat="43.419132" lon="-2.791497">
        <ele>230.9</ele>
        <time>2016-05-21T08:39:39Z</time>
      </trkpt>
      <trkpt lat="43.418923" lon="-2.791377">
        <ele>232.3</ele>
        <time>2016-05-21T08:39:54Z</time>
      </trkpt>
      <trkpt lat="43.418784" lon="-2.791278">
        <ele>231.8</ele>
        <time>2016-05-21T08:40:08Z</time>
      </trkpt>
      <trkpt lat="43.418663" lon="-2.791145">
        <ele>230.9</ele>
        <time>2016-05-21T08:40:21Z</time>
      </trkpt>
      <trkpt lat="43.418531" lon="-2.790969">
        <ele>230.4</ele>
        <time>2016-05-21T08:40:35Z</time>
      </trkpt>
      <trkpt lat="43.418434" lon="-2.790717">
        <ele>229.9</ele>
        <time>2016-05-21T08:40:50Z</time>
      </trkpt>
      <trkpt lat="43.418428" lon="-2.790702">
        <ele>229.4</ele>
        <time>2016-05-21T08:40:51Z</time>
      </trkpt>
      <trkpt lat="43.418389" lon="-2.790558">
        <ele>229.9</ele>
        <time>2016-05-21T08:41:01Z</time>
      </trkpt>
      <trkpt lat="43.418289" lon="-2.790294">
        <ele>228.9</ele>
        <time>2016-05-21T08:41:16Z</time>
      </trkpt>
      <trkpt lat="43.418259" lon="-2.790168">
        <ele>229.4</ele>
        <time>2016-05-21T08:41:23Z</time>
      </trkpt>
      <trkpt lat="43.418209" lon="-2.790036">
        <ele>229.4</ele>
        <time>2016-05-21T08:41:29Z</time>
      </trkpt>
      <trkpt lat="43.418202" lon="-2.789992">
        <ele>228.5</ele>
        <time>2016-05-21T08:41:31Z</time>
      </trkpt>
      <trkpt lat="43.418169" lon="-2.789849">
        <ele>228.5</ele>
        <time>2016-05-21T08:41:38Z</time>
      </trkpt>
      <trkpt lat="43.418153" lon="-2.789585">
        <ele>228.0</ele>
        <time>2016-05-21T08:41:51Z</time>
      </trkpt>
      <trkpt lat="43.418111" lon="-2.789289">
        <ele>226.5</ele>
        <time>2016-05-21T08:42:06Z</time>
      </trkpt>
      <trkpt lat="43.418087" lon="-2.788983">
        <ele>225.6</ele>
        <time>2016-05-21T08:42:21Z</time>
      </trkpt>
      <trkpt lat="43.418090" lon="-2.788969">
        <ele>225.1</ele>
        <time>2016-05-21T08:42:22Z</time>
      </trkpt>
      <trkpt lat="43.418080" lon="-2.788904">
        <ele>225.6</ele>
        <time>2016-05-21T08:42:26Z</time>
      </trkpt>
      <trkpt lat="43.418084" lon="-2.788546">
        <ele>224.6</ele>
        <time>2016-05-21T08:42:43Z</time>
      </trkpt>
      <trkpt lat="43.418083" lon="-2.788523">
        <ele>224.6</ele>
        <time>2016-05-21T08:42:44Z</time>
      </trkpt>
      <trkpt lat="43.418084" lon="-2.788483">
        <ele>224.6</ele>
        <time>2016-05-21T08:42:46Z</time>
      </trkpt>
      <trkpt lat="43.418083" lon="-2.788272">
        <ele>224.6</ele>
        <time>2016-05-21T08:42:58Z</time>
      </trkpt>
      <trkpt lat="43.418029" lon="-2.788034">
        <ele>223.6</ele>
        <time>2016-05-21T08:43:09Z</time>
      </trkpt>
      <trkpt lat="43.418002" lon="-2.787947">
        <ele>223.2</ele>
        <time>2016-05-21T08:43:13Z</time>
      </trkpt>
      <trkpt lat="43.417951" lon="-2.787619">
        <ele>221.7</ele>
        <time>2016-05-21T08:43:30Z</time>
      </trkpt>
      <trkpt lat="43.417913" lon="-2.787501">
        <ele>221.7</ele>
        <time>2016-05-21T08:43:36Z</time>
      </trkpt>
      <trkpt lat="43.417976" lon="-2.787271">
        <ele>225.1</ele>
        <time>2016-05-21T08:43:50Z</time>
      </trkpt>
      <trkpt lat="43.417985" lon="-2.787259">
        <ele>225.1</ele>
        <time>2016-05-21T08:43:51Z</time>
      </trkpt>
      <trkpt lat="43.418003" lon="-2.787149">
        <ele>226.5</ele>
        <time>2016-05-21T08:43:57Z</time>
      </trkpt>
      <trkpt lat="43.417899" lon="-2.786932">
        <ele>229.9</ele>
        <time>2016-05-21T08:44:13Z</time>
      </trkpt>
      <trkpt lat="43.417730" lon="-2.786743">
        <ele>232.3</ele>
        <time>2016-05-21T08:44:30Z</time>
      </trkpt>
      <trkpt lat="43.417632" lon="-2.786651">
        <ele>236.1</ele>
        <time>2016-05-21T08:44:39Z</time>
      </trkpt>
      <trkpt lat="43.417621" lon="-2.786641">
        <ele>235.2</ele>
        <time>2016-05-21T08:44:40Z</time>
      </trkpt>
      <trkpt lat="43.417458" lon="-2.786469">
        <ele>238.5</ele>
        <time>2016-05-21T08:44:56Z</time>
      </trkpt>
      <trkpt lat="43.417282" lon="-2.786267">
        <ele>240.9</ele>
        <time>2016-05-21T08:45:13Z</time>
      </trkpt>
      <trkpt lat="43.417125" lon="-2.786065">
        <ele>244.3</ele>
        <time>2016-05-21T08:45:29Z</time>
      </trkpt>
      <trkpt lat="43.416872" lon="-2.785958">
        <ele>245.8</ele>
        <time>2016-05-21T08:45:49Z</time>
      </trkpt>
      <trkpt lat="43.416616" lon="-2.785971">
        <ele>245.8</ele>
        <time>2016-05-21T08:46:07Z</time>
      </trkpt>
      <trkpt lat="43.416467" lon="-2.785873">
        <ele>244.8</ele>
        <time>2016-05-21T08:46:19Z</time>
      </trkpt>
      <trkpt lat="43.416352" lon="-2.785801">
        <ele>242.9</ele>
        <time>2016-05-21T08:46:29Z</time>
      </trkpt>
      <trkpt lat="43.416267" lon="-2.785710">
        <ele>242.4</ele>
        <time>2016-05-21T08:46:55Z</time>
      </trkpt>
      <trkpt lat="43.416190" lon="-2.785501">
        <ele>242.4</ele>
        <time>2016-05-21T08:47:09Z</time>
      </trkpt>
      <trkpt lat="43.416083" lon="-2.785286">
        <ele>239.5</ele>
        <time>2016-05-21T08:47:23Z</time>
      </trkpt>
      <trkpt lat="43.415999" lon="-2.785064">
        <ele>238.5</ele>
        <time>2016-05-21T08:47:36Z</time>
      </trkpt>
      <trkpt lat="43.415913" lon="-2.784913">
        <ele>237.6</ele>
        <time>2016-05-21T08:47:47Z</time>
      </trkpt>
      <trkpt lat="43.415793" lon="-2.784665">
        <ele>235.2</ele>
        <time>2016-05-21T08:48:00Z</time>
      </trkpt>
      <trkpt lat="43.415695" lon="-2.784416">
        <ele>232.3</ele>
        <time>2016-05-21T08:48:13Z</time>
      </trkpt>
      <trkpt lat="43.415678" lon="-2.784359">
        <ele>232.3</ele>
        <time>2016-05-21T08:48:16Z</time>
      </trkpt>
      <trkpt lat="43.415656" lon="-2.784269">
        <ele>231.8</ele>
        <time>2016-05-21T08:48:21Z</time>
      </trkpt>
      <trkpt lat="43.415641" lon="-2.784182">
        <ele>230.4</ele>
        <time>2016-05-21T08:48:28Z</time>
      </trkpt>
      <trkpt lat="43.415594" lon="-2.783951">
        <ele>229.9</ele>
        <time>2016-05-21T08:48:41Z</time>
      </trkpt>
      <trkpt lat="43.415525" lon="-2.783650">
        <ele>228.5</ele>
        <time>2016-05-21T08:48:56Z</time>
      </trkpt>
      <trkpt lat="43.415469" lon="-2.783492">
        <ele>227.0</ele>
        <time>2016-05-21T08:49:04Z</time>
      </trkpt>
      <trkpt lat="43.415416" lon="-2.783365">
        <ele>226.5</ele>
        <time>2016-05-21T08:49:11Z</time>
      </trkpt>
      <trkpt lat="43.415409" lon="-2.783311">
        <ele>226.5</ele>
        <time>2016-05-21T08:49:14Z</time>
      </trkpt>
      <trkpt lat="43.415377" lon="-2.783228">
        <ele>225.6</ele>
        <time>2016-05-21T08:49:18Z</time>
      </trkpt>
      <trkpt lat="43.415379" lon="-2.783102">
        <ele>224.1</ele>
        <time>2016-05-21T08:49:25Z</time>
      </trkpt>
      <trkpt lat="43.415311" lon="-2.782792">
        <ele>221.2</ele>
        <time>2016-05-21T08:49:40Z</time>
      </trkpt>
      <trkpt lat="43.415304" lon="-2.782650">
        <ele>219.8</ele>
        <time>2016-05-21T08:49:47Z</time>
      </trkpt>
      <trkpt lat="43.415386" lon="-2.782378">
        <ele>218.4</ele>
        <time>2016-05-21T08:50:01Z</time>
      </trkpt>
      <trkpt lat="43.415453" lon="-2.782234">
        <ele>217.4</ele>
        <time>2016-05-21T08:50:10Z</time>
      </trkpt>
      <trkpt lat="43.415450" lon="-2.782110">
        <ele>216.4</ele>
        <time>2016-05-21T08:50:18Z</time>
      </trkpt>
      <trkpt lat="43.415391" lon="-2.782086">
        <ele>216.4</ele>
        <time>2016-05-21T08:50:23Z</time>
      </trkpt>
      <trkpt lat="43.415141" lon="-2.782111">
        <ele>216.9</ele>
        <time>2016-05-21T08:50:35Z</time>
      </trkpt>
      <trkpt lat="43.415003" lon="-2.782083">
        <ele>216.4</ele>
        <time>2016-05-21T08:50:46Z</time>
      </trkpt>
      <trkpt lat="43.414870" lon="-2.782098">
        <ele>216.9</ele>
        <time>2016-05-21T08:50:58Z</time>
      </trkpt>
      <trkpt lat="43.414745" lon="-2.782053">
        <ele>216.9</ele>
        <time>2016-05-21T08:51:10Z</time>
      </trkpt>
      <trkpt lat="43.414579" lon="-2.782043">
        <ele>216.0</ele>
        <time>2016-05-21T08:51:23Z</time>
      </trkpt>
      <trkpt lat="43.414480" lon="-2.782281">
        <ele>214.5</ele>
        <time>2016-05-21T08:51:38Z</time>
      </trkpt>
      <trkpt lat="43.414366" lon="-2.782469">
        <ele>211.6</ele>
        <time>2016-05-21T08:51:51Z</time>
      </trkpt>
      <trkpt lat="43.414357" lon="-2.782479">
        <ele>211.1</ele>
        <time>2016-05-21T08:51:52Z</time>
      </trkpt>
      <trkpt lat="43.414243" lon="-2.782567">
        <ele>208.3</ele>
        <time>2016-05-21T08:52:01Z</time>
      </trkpt>
      <trkpt lat="43.413989" lon="-2.782560">
        <ele>205.4</ele>
        <time>2016-05-21T08:52:18Z</time>
      </trkpt>
      <trkpt lat="43.413977" lon="-2.782559">
        <ele>204.9</ele>
        <time>2016-05-21T08:52:19Z</time>
      </trkpt>
      <trkpt lat="43.413862" lon="-2.782538">
        <ele>201.5</ele>
        <time>2016-05-21T08:52:28Z</time>
      </trkpt>
      <trkpt lat="43.413670" lon="-2.782445">
        <ele>199.1</ele>
        <time>2016-05-21T08:52:43Z</time>
      </trkpt>
      <trkpt lat="43.413530" lon="-2.782327">
        <ele>195.8</ele>
        <time>2016-05-21T08:52:54Z</time>
      </trkpt>
      <trkpt lat="43.413464" lon="-2.782331">
        <ele>196.2</ele>
        <time>2016-05-21T08:52:59Z</time>
      </trkpt>
      <trkpt lat="43.413443" lon="-2.782481">
        <ele>197.7</ele>
        <time>2016-05-21T08:53:10Z</time>
      </trkpt>
      <trkpt lat="43.413610" lon="-2.782661">
        <ele>198.6</ele>
        <time>2016-05-21T08:53:23Z</time>
      </trkpt>
      <trkpt lat="43.413691" lon="-2.783006">
        <ele>198.2</ele>
        <time>2016-05-21T08:53:40Z</time>
      </trkpt>
      <trkpt lat="43.413898" lon="-2.783242">
        <ele>196.7</ele>
        <time>2016-05-21T08:53:59Z</time>
      </trkpt>
      <trkpt lat="43.413935" lon="-2.783534">
        <ele>196.2</ele>
        <time>2016-05-21T08:54:15Z</time>
      </trkpt>
      <trkpt lat="43.413926" lon="-2.783589">
        <ele>195.8</ele>
        <time>2016-05-21T08:54:18Z</time>
      </trkpt>
      <trkpt lat="43.413914" lon="-2.783660">
        <ele>195.3</ele>
        <time>2016-05-21T08:54:22Z</time>
      </trkpt>
      <trkpt lat="43.413881" lon="-2.783803">
        <ele>194.8</ele>
        <time>2016-05-21T08:54:30Z</time>
      </trkpt>
      <trkpt lat="43.413846" lon="-2.784016">
        <ele>194.8</ele>
        <time>2016-05-21T08:54:41Z</time>
      </trkpt>
      <trkpt lat="43.413821" lon="-2.784114">
        <ele>194.3</ele>
        <time>2016-05-21T08:54:46Z</time>
      </trkpt>
      <trkpt lat="43.413799" lon="-2.784181">
        <ele>194.3</ele>
        <time>2016-05-21T08:54:50Z</time>
      </trkpt>
      <trkpt lat="43.413761" lon="-2.784523">
        <ele>193.8</ele>
        <time>2016-05-21T08:55:08Z</time>
      </trkpt>
      <trkpt lat="43.413682" lon="-2.784761">
        <ele>193.4</ele>
        <time>2016-05-21T08:55:22Z</time>
      </trkpt>
      <trkpt lat="43.413572" lon="-2.785015">
        <ele>192.4</ele>
        <time>2016-05-21T08:55:36Z</time>
      </trkpt>
      <trkpt lat="43.413417" lon="-2.785312">
        <ele>191.9</ele>
        <time>2016-05-21T08:55:54Z</time>
      </trkpt>
      <trkpt lat="43.413395" lon="-2.785346">
        <ele>192.4</ele>
        <time>2016-05-21T08:55:56Z</time>
      </trkpt>
      <trkpt lat="43.413337" lon="-2.785471">
        <ele>191.9</ele>
        <time>2016-05-21T08:56:03Z</time>
      </trkpt>
      <trkpt lat="43.413230" lon="-2.785747">
        <ele>191.9</ele>
        <time>2016-05-21T08:56:18Z</time>
      </trkpt>
      <trkpt lat="43.413158" lon="-2.785929">
        <ele>191.9</ele>
        <time>2016-05-21T08:56:28Z</time>
      </trkpt>
      <trkpt lat="43.413098" lon="-2.786155">
        <ele>192.4</ele>
        <time>2016-05-21T08:56:41Z</time>
      </trkpt>
      <trkpt lat="43.413034" lon="-2.786405">
        <ele>191.4</ele>
        <time>2016-05-21T08:56:53Z</time>
      </trkpt>
      <trkpt lat="43.413017" lon="-2.786462">
        <ele>191.4</ele>
        <time>2016-05-21T08:56:56Z</time>
      </trkpt>
      <trkpt lat="43.412908" lon="-2.786804">
        <ele>191.9</ele>
        <time>2016-05-21T08:57:15Z</time>
      </trkpt>
      <trkpt lat="43.412782" lon="-2.786988">
        <ele>192.4</ele>
        <time>2016-05-21T08:57:28Z</time>
      </trkpt>
      <trkpt lat="43.412620" lon="-2.787093">
        <ele>192.4</ele>
        <time>2016-05-21T08:57:40Z</time>
      </trkpt>
      <trkpt lat="43.412459" lon="-2.787211">
        <ele>191.9</ele>
        <time>2016-05-21T08:57:52Z</time>
      </trkpt>
      <trkpt lat="43.412282" lon="-2.787408">
        <ele>192.4</ele>
        <time>2016-05-21T08:58:06Z</time>
      </trkpt>
      <trkpt lat="43.412125" lon="-2.787558">
        <ele>191.9</ele>
        <time>2016-05-21T08:58:20Z</time>
      </trkpt>
      <trkpt lat="43.412015" lon="-2.787669">
        <ele>191.9</ele>
        <time>2016-05-21T08:58:30Z</time>
      </trkpt>
      <trkpt lat="43.412013" lon="-2.787743">
        <ele>191.9</ele>
        <time>2016-05-21T08:58:34Z</time>
      </trkpt>
      <trkpt lat="43.412058" lon="-2.787819">
        <ele>192.4</ele>
        <time>2016-05-21T08:58:39Z</time>
      </trkpt>
      <trkpt lat="43.412285" lon="-2.787902">
        <ele>192.9</ele>
        <time>2016-05-21T08:58:53Z</time>
      </trkpt>
      <trkpt lat="43.412511" lon="-2.788055">
        <ele>194.3</ele>
        <time>2016-05-21T08:59:13Z</time>
      </trkpt>
      <trkpt lat="43.412554" lon="-2.788096">
        <ele>195.3</ele>
        <time>2016-05-21T08:59:18Z</time>
      </trkpt>
      <trkpt lat="43.412560" lon="-2.788177">
        <ele>195.8</ele>
        <time>2016-05-21T08:59:23Z</time>
      </trkpt>
      <trkpt lat="43.412463" lon="-2.788458">
        <ele>196.2</ele>
        <time>2016-05-21T08:59:39Z</time>
      </trkpt>
      <trkpt lat="43.412276" lon="-2.788711">
        <ele>196.2</ele>
        <time>2016-05-21T08:59:56Z</time>
      </trkpt>
      <trkpt lat="43.412048" lon="-2.789008">
        <ele>196.7</ele>
        <time>2016-05-21T09:00:17Z</time>
      </trkpt>
      <trkpt lat="43.411966" lon="-2.789190">
        <ele>196.2</ele>
        <time>2016-05-21T09:00:28Z</time>
      </trkpt>
      <trkpt lat="43.412136" lon="-2.789368">
        <ele>197.7</ele>
        <time>2016-05-21T09:00:44Z</time>
      </trkpt>
      <trkpt lat="43.412279" lon="-2.789475">
        <ele>198.6</ele>
        <time>2016-05-21T09:00:57Z</time>
      </trkpt>
      <trkpt lat="43.412474" lon="-2.789644">
        <ele>202.0</ele>
        <time>2016-05-21T09:01:13Z</time>
      </trkpt>
      <trkpt lat="43.412636" lon="-2.789778">
        <ele>204.9</ele>
        <time>2016-05-21T09:01:26Z</time>
      </trkpt>
      <trkpt lat="43.412647" lon="-2.789790">
        <ele>204.9</ele>
        <time>2016-05-21T09:01:27Z</time>
      </trkpt>
      <trkpt lat="43.412754" lon="-2.790057">
        <ele>205.4</ele>
        <time>2016-05-21T09:01:43Z</time>
      </trkpt>
      <trkpt lat="43.412781" lon="-2.790367">
        <ele>205.9</ele>
        <time>2016-05-21T09:01:58Z</time>
      </trkpt>
      <trkpt lat="43.412712" lon="-2.790704">
        <ele>205.9</ele>
        <time>2016-05-21T09:02:15Z</time>
      </trkpt>
      <trkpt lat="43.412515" lon="-2.790994">
        <ele>205.4</ele>
        <time>2016-05-21T09:02:35Z</time>
      </trkpt>
      <trkpt lat="43.412386" lon="-2.791324">
        <ele>202.5</ele>
        <time>2016-05-21T09:02:54Z</time>
      </trkpt>
      <trkpt lat="43.412510" lon="-2.791629">
        <ele>199.6</ele>
        <time>2016-05-21T09:03:10Z</time>
      </trkpt>
      <trkpt lat="43.412586" lon="-2.791954">
        <ele>198.2</ele>
        <time>2016-05-21T09:03:26Z</time>
      </trkpt>
      <trkpt lat="43.412494" lon="-2.792297">
        <ele>194.8</ele>
        <time>2016-05-21T09:03:43Z</time>
      </trkpt>
      <trkpt lat="43.412492" lon="-2.792577">
        <ele>193.4</ele>
        <time>2016-05-21T09:03:57Z</time>
      </trkpt>
      <trkpt lat="43.412724" lon="-2.792916">
        <ele>191.0</ele>
        <time>2016-05-21T09:04:18Z</time>
      </trkpt>
      <trkpt lat="43.412887" lon="-2.793248">
        <ele>190.5</ele>
        <time>2016-05-21T09:04:37Z</time>
      </trkpt>
      <trkpt lat="43.412898" lon="-2.793247">
        <ele>190.5</ele>
        <time>2016-05-21T09:04:46Z</time>
      </trkpt>
      <trkpt lat="43.412907" lon="-2.793267">
        <ele>190.0</ele>
        <time>2016-05-21T09:04:58Z</time>
      </trkpt>
      <trkpt lat="43.412944" lon="-2.793418">
        <ele>189.5</ele>
        <time>2016-05-21T09:05:06Z</time>
      </trkpt>
      <trkpt lat="43.413007" lon="-2.793505">
        <ele>190.0</ele>
        <time>2016-05-21T09:05:12Z</time>
      </trkpt>
      <trkpt lat="43.413277" lon="-2.793617">
        <ele>190.5</ele>
        <time>2016-05-21T09:05:30Z</time>
      </trkpt>
      <trkpt lat="43.413524" lon="-2.793850">
        <ele>192.9</ele>
        <time>2016-05-21T09:05:51Z</time>
      </trkpt>
      <trkpt lat="43.413695" lon="-2.794184">
        <ele>195.3</ele>
        <time>2016-05-21T09:06:12Z</time>
      </trkpt>
      <trkpt lat="43.413678" lon="-2.794495">
        <ele>196.2</ele>
        <time>2016-05-21T09:06:28Z</time>
      </trkpt>
      <trkpt lat="43.413552" lon="-2.794832">
        <ele>197.2</ele>
        <time>2016-05-21T09:06:47Z</time>
      </trkpt>
      <trkpt lat="43.413631" lon="-2.795163">
        <ele>198.2</ele>
        <time>2016-05-21T09:07:04Z</time>
      </trkpt>
      <trkpt lat="43.413770" lon="-2.795487">
        <ele>198.2</ele>
        <time>2016-05-21T09:07:22Z</time>
      </trkpt>
      <trkpt lat="43.413902" lon="-2.795906">
        <ele>198.2</ele>
        <time>2016-05-21T09:07:43Z</time>
      </trkpt>
      <trkpt lat="43.413833" lon="-2.796182">
        <ele>200.6</ele>
        <time>2016-05-21T09:08:00Z</time>
      </trkpt>
      <trkpt lat="43.413768" lon="-2.796238">
        <ele>201.5</ele>
        <time>2016-05-21T09:08:06Z</time>
      </trkpt>
      <trkpt lat="43.413657" lon="-2.796135">
        <ele>204.9</ele>
        <time>2016-05-21T09:08:20Z</time>
      </trkpt>
      <trkpt lat="43.413538" lon="-2.796026">
        <ele>207.8</ele>
        <time>2016-05-21T09:08:34Z</time>
      </trkpt>
      <trkpt lat="43.413423" lon="-2.795923">
        <ele>210.7</ele>
        <time>2016-05-21T09:08:46Z</time>
      </trkpt>
      <trkpt lat="43.413315" lon="-2.795801">
        <ele>211.6</ele>
        <time>2016-05-21T09:08:58Z</time>
      </trkpt>
      <trkpt lat="43.413222" lon="-2.795641">
        <ele>215.0</ele>
        <time>2016-05-21T09:09:11Z</time>
      </trkpt>
      <trkpt lat="43.413182" lon="-2.795551">
        <ele>216.0</ele>
        <time>2016-05-21T09:09:27Z</time>
      </trkpt>
      <trkpt lat="43.413148" lon="-2.795474">
        <ele>217.4</ele>
        <time>2016-05-21T09:22:36Z</time>
      </trkpt>
      <trkpt lat="43.412877" lon="-2.795259">
        <ele>220.8</ele>
        <time>2016-05-21T09:23:00Z</time>
      </trkpt>
      <trkpt lat="43.412721" lon="-2.795100">
        <ele>223.6</ele>
        <time>2016-05-21T09:23:15Z</time>
      </trkpt>
      <trkpt lat="43.412584" lon="-2.794950">
        <ele>227.0</ele>
        <time>2016-05-21T09:23:28Z</time>
      </trkpt>
      <trkpt lat="43.412481" lon="-2.794720">
        <ele>229.9</ele>
        <time>2016-05-21T09:23:44Z</time>
      </trkpt>
      <trkpt lat="43.412363" lon="-2.794303">
        <ele>232.8</ele>
        <time>2016-05-21T09:24:07Z</time>
      </trkpt>
      <trkpt lat="43.412307" lon="-2.794206">
        <ele>234.2</ele>
        <time>2016-05-21T09:24:25Z</time>
      </trkpt>
      <trkpt lat="43.412302" lon="-2.794279">
        <ele>235.2</ele>
        <time>2016-05-21T09:24:38Z</time>
      </trkpt>
      <trkpt lat="43.412297" lon="-2.794494">
        <ele>237.1</ele>
        <time>2016-05-21T09:24:55Z</time>
      </trkpt>
      <trkpt lat="43.412290" lon="-2.794742">
        <ele>238.1</ele>
        <time>2016-05-21T09:25:12Z</time>
      </trkpt>
      <trkpt lat="43.412246" lon="-2.794971">
        <ele>238.5</ele>
        <time>2016-05-21T09:25:28Z</time>
      </trkpt>
      <trkpt lat="43.412180" lon="-2.795155">
        <ele>239.5</ele>
        <time>2016-05-21T09:25:41Z</time>
      </trkpt>
      <trkpt lat="43.412046" lon="-2.795322">
        <ele>240.5</ele>
        <time>2016-05-21T09:25:55Z</time>
      </trkpt>
      <trkpt lat="43.411900" lon="-2.795444">
        <ele>240.9</ele>
        <time>2016-05-21T09:26:09Z</time>
      </trkpt>
      <trkpt lat="43.411654" lon="-2.795555">
        <ele>241.4</ele>
        <time>2016-05-21T09:26:30Z</time>
      </trkpt>
      <trkpt lat="43.411550" lon="-2.795596">
        <ele>242.4</ele>
        <time>2016-05-21T09:26:38Z</time>
      </trkpt>
      <trkpt lat="43.411536" lon="-2.795561">
        <ele>243.8</ele>
        <time>2016-05-21T09:26:42Z</time>
      </trkpt>
      <trkpt lat="43.411542" lon="-2.795530">
        <ele>244.8</ele>
        <time>2016-05-21T09:26:49Z</time>
      </trkpt>
      <trkpt lat="43.411634" lon="-2.795356">
        <ele>248.2</ele>
        <time>2016-05-21T09:27:04Z</time>
      </trkpt>
      <trkpt lat="43.411660" lon="-2.795292">
        <ele>248.6</ele>
        <time>2016-05-21T09:27:09Z</time>
      </trkpt>
      <trkpt lat="43.411687" lon="-2.795244">
        <ele>248.6</ele>
        <time>2016-05-21T09:27:13Z</time>
      </trkpt>
      <trkpt lat="43.411741" lon="-2.795128">
        <ele>249.6</ele>
        <time>2016-05-21T09:27:20Z</time>
      </trkpt>
      <trkpt lat="43.411831" lon="-2.794931">
        <ele>249.1</ele>
        <time>2016-05-21T09:27:33Z</time>
      </trkpt>
      <trkpt lat="43.411826" lon="-2.794876">
        <ele>250.6</ele>
        <time>2016-05-21T09:27:36Z</time>
      </trkpt>
      <trkpt lat="43.411783" lon="-2.794827">
        <ele>251.5</ele>
        <time>2016-05-21T09:27:41Z</time>
      </trkpt>
      <trkpt lat="43.411660" lon="-2.794920">
        <ele>253.9</ele>
        <time>2016-05-21T09:27:57Z</time>
      </trkpt>
      <trkpt lat="43.411616" lon="-2.794956">
        <ele>254.4</ele>
        <time>2016-05-21T09:28:02Z</time>
      </trkpt>
      <trkpt lat="43.411467" lon="-2.795011">
        <ele>256.8</ele>
        <time>2016-05-21T09:28:17Z</time>
      </trkpt>
      <trkpt lat="43.411300" lon="-2.795082">
        <ele>258.3</ele>
        <time>2016-05-21T09:28:33Z</time>
      </trkpt>
      <trkpt lat="43.411100" lon="-2.795118">
        <ele>260.7</ele>
        <time>2016-05-21T09:28:50Z</time>
      </trkpt>
      <trkpt lat="43.410939" lon="-2.795160">
        <ele>262.1</ele>
        <time>2016-05-21T09:29:02Z</time>
      </trkpt>
      <trkpt lat="43.410691" lon="-2.795148">
        <ele>264.5</ele>
        <time>2016-05-21T09:29:20Z</time>
      </trkpt>
      <trkpt lat="43.410501" lon="-2.795082">
        <ele>264.5</ele>
        <time>2016-05-21T09:29:34Z</time>
      </trkpt>
      <trkpt lat="43.410285" lon="-2.795035">
        <ele>263.1</ele>
        <time>2016-05-21T09:29:49Z</time>
      </trkpt>
      <trkpt lat="43.410228" lon="-2.795035">
        <ele>262.6</ele>
        <time>2016-05-21T09:31:08Z</time>
      </trkpt>
      <trkpt lat="43.410173" lon="-2.795039">
        <ele>262.6</ele>
        <time>2016-05-21T09:31:31Z</time>
      </trkpt>
      <trkpt lat="43.410063" lon="-2.795061">
        <ele>263.1</ele>
        <time>2016-05-21T09:32:30Z</time>
      </trkpt>
      <trkpt lat="43.410009" lon="-2.795082">
        <ele>264.5</ele>
        <time>2016-05-21T09:33:22Z</time>
      </trkpt>
      <trkpt lat="43.409964" lon="-2.795087">
        <ele>264.5</ele>
        <time>2016-05-21T09:33:27Z</time>
      </trkpt>
      <trkpt lat="43.409842" lon="-2.795160">
        <ele>264.5</ele>
        <time>2016-05-21T09:33:41Z</time>
      </trkpt>
      <trkpt lat="43.409696" lon="-2.795276">
        <ele>264.5</ele>
        <time>2016-05-21T09:33:56Z</time>
      </trkpt>
      <trkpt lat="43.409624" lon="-2.795428">
        <ele>265.0</ele>
        <time>2016-05-21T09:34:06Z</time>
      </trkpt>
      <trkpt lat="43.409515" lon="-2.795486">
        <ele>266.4</ele>
        <time>2016-05-21T09:34:19Z</time>
      </trkpt>
      <trkpt lat="43.409437" lon="-2.795456">
        <ele>269.8</ele>
        <time>2016-05-21T09:34:28Z</time>
      </trkpt>
      <trkpt lat="43.409336" lon="-2.795525">
        <ele>269.8</ele>
        <time>2016-05-21T09:34:42Z</time>
      </trkpt>
      <trkpt lat="43.409273" lon="-2.795624">
        <ele>270.3</ele>
        <time>2016-05-21T09:34:53Z</time>
      </trkpt>
      <trkpt lat="43.409222" lon="-2.795760">
        <ele>271.7</ele>
        <time>2016-05-21T09:35:06Z</time>
      </trkpt>
      <trkpt lat="43.409213" lon="-2.795897">
        <ele>271.7</ele>
        <time>2016-05-21T09:35:19Z</time>
      </trkpt>
      <trkpt lat="43.409227" lon="-2.796043">
        <ele>272.7</ele>
        <time>2016-05-21T09:35:29Z</time>
      </trkpt>
      <trkpt lat="43.409219" lon="-2.796270">
        <ele>272.2</ele>
        <time>2016-05-21T09:35:43Z</time>
      </trkpt>
      <trkpt lat="43.409204" lon="-2.796419">
        <ele>271.7</ele>
        <time>2016-05-21T09:35:54Z</time>
      </trkpt>
      <trkpt lat="43.409173" lon="-2.796615">
        <ele>271.7</ele>
        <time>2016-05-21T09:36:10Z</time>
      </trkpt>
      <trkpt lat="43.409134" lon="-2.796833">
        <ele>272.2</ele>
        <time>2016-05-21T09:36:26Z</time>
      </trkpt>
      <trkpt lat="43.409103" lon="-2.796987">
        <ele>272.7</ele>
        <time>2016-05-21T09:36:38Z</time>
      </trkpt>
      <trkpt lat="43.409051" lon="-2.797121">
        <ele>273.6</ele>
        <time>2016-05-21T09:37:05Z</time>
      </trkpt>
      <trkpt lat="43.409024" lon="-2.797099">
        <ele>273.6</ele>
        <time>2016-05-21T09:37:31Z</time>
      </trkpt>
      <trkpt lat="43.408928" lon="-2.797028">
        <ele>274.1</ele>
        <time>2016-05-21T09:37:43Z</time>
      </trkpt>
      <trkpt lat="43.408920" lon="-2.797014">
        <ele>274.6</ele>
        <time>2016-05-21T09:37:44Z</time>
      </trkpt>
      <trkpt lat="43.408891" lon="-2.796964">
        <ele>275.1</ele>
        <time>2016-05-21T09:37:51Z</time>
      </trkpt>
      <trkpt lat="43.408821" lon="-2.796924">
        <ele>274.6</ele>
        <time>2016-05-21T09:38:03Z</time>
      </trkpt>
      <trkpt lat="43.408652" lon="-2.796888">
        <ele>272.7</ele>
        <time>2016-05-21T09:38:17Z</time>
      </trkpt>
      <trkpt lat="43.408574" lon="-2.796880">
        <ele>271.2</ele>
        <time>2016-05-21T09:38:27Z</time>
      </trkpt>
      <trkpt lat="43.408563" lon="-2.796892">
        <ele>270.3</ele>
        <time>2016-05-21T09:38:29Z</time>
      </trkpt>
      <trkpt lat="43.408526" lon="-2.796896">
        <ele>268.3</ele>
        <time>2016-05-21T09:38:35Z</time>
      </trkpt>
      <trkpt lat="43.408432" lon="-2.796900">
        <ele>265.0</ele>
        <time>2016-05-21T09:38:48Z</time>
      </trkpt>
      <trkpt lat="43.408425" lon="-2.796906">
        <ele>264.5</ele>
        <time>2016-05-21T09:38:49Z</time>
      </trkpt>
      <trkpt lat="43.408371" lon="-2.796893">
        <ele>261.6</ele>
        <time>2016-05-21T09:38:55Z</time>
      </trkpt>
      <trkpt lat="43.408361" lon="-2.796890">
        <ele>261.6</ele>
        <time>2016-05-21T09:38:56Z</time>
      </trkpt>
      <trkpt lat="43.408237" lon="-2.796915">
        <ele>258.7</ele>
        <time>2016-05-21T09:39:09Z</time>
      </trkpt>
      <trkpt lat="43.408145" lon="-2.796895">
        <ele>255.8</ele>
        <time>2016-05-21T09:39:22Z</time>
      </trkpt>
      <trkpt lat="43.408063" lon="-2.796890">
        <ele>253.9</ele>
        <time>2016-05-21T09:39:34Z</time>
      </trkpt>
      <trkpt lat="43.407996" lon="-2.796908">
        <ele>251.5</ele>
        <time>2016-05-21T09:39:47Z</time>
      </trkpt>
      <trkpt lat="43.407916" lon="-2.796934">
        <ele>248.6</ele>
        <time>2016-05-21T09:39:58Z</time>
      </trkpt>
      <trkpt lat="43.407907" lon="-2.796938">
        <ele>248.6</ele>
        <time>2016-05-21T09:39:59Z</time>
      </trkpt>
      <trkpt lat="43.407854" lon="-2.796878">
        <ele>245.8</ele>
        <time>2016-05-21T09:40:06Z</time>
      </trkpt>
      <trkpt lat="43.407753" lon="-2.796926">
        <ele>242.4</ele>
        <time>2016-05-21T09:40:21Z</time>
      </trkpt>
      <trkpt lat="43.407741" lon="-2.796914">
        <ele>242.9</ele>
        <time>2016-05-21T09:40:23Z</time>
      </trkpt>
      <trkpt lat="43.407624" lon="-2.796890">
        <ele>240.9</ele>
        <time>2016-05-21T09:40:36Z</time>
      </trkpt>
      <trkpt lat="43.407620" lon="-2.796901">
        <ele>240.9</ele>
        <time>2016-05-21T09:40:37Z</time>
      </trkpt>
      <trkpt lat="43.407601" lon="-2.796975">
        <ele>239.0</ele>
        <time>2016-05-21T09:40:42Z</time>
      </trkpt>
      <trkpt lat="43.407571" lon="-2.797090">
        <ele>237.1</ele>
        <time>2016-05-21T09:40:56Z</time>
      </trkpt>
      <trkpt lat="43.407565" lon="-2.797050">
        <ele>238.5</ele>
        <time>2016-05-21T09:46:35Z</time>
      </trkpt>
      <trkpt lat="43.407512" lon="-2.796839">
        <ele>239.5</ele>
        <time>2016-05-21T09:46:49Z</time>
      </trkpt>
      <trkpt lat="43.407509" lon="-2.796598">
        <ele>237.6</ele>
        <time>2016-05-21T09:47:04Z</time>
      </trkpt>
      <trkpt lat="43.407581" lon="-2.796390">
        <ele>236.1</ele>
        <time>2016-05-21T09:47:17Z</time>
      </trkpt>
      <trkpt lat="43.407635" lon="-2.796232">
        <ele>234.7</ele>
        <time>2016-05-21T09:47:27Z</time>
      </trkpt>
      <trkpt lat="43.407671" lon="-2.796031">
        <ele>233.7</ele>
        <time>2016-05-21T09:47:39Z</time>
      </trkpt>
      <trkpt lat="43.407683" lon="-2.796005">
        <ele>233.3</ele>
        <time>2016-05-21T09:47:41Z</time>
      </trkpt>
      <trkpt lat="43.407705" lon="-2.795901">
        <ele>232.3</ele>
        <time>2016-05-21T09:47:47Z</time>
      </trkpt>
      <trkpt lat="43.407693" lon="-2.795776">
        <ele>231.8</ele>
        <time>2016-05-21T09:47:55Z</time>
      </trkpt>
      <trkpt lat="43.407705" lon="-2.795579">
        <ele>229.9</ele>
        <time>2016-05-21T09:48:07Z</time>
      </trkpt>
      <trkpt lat="43.407697" lon="-2.795495">
        <ele>229.4</ele>
        <time>2016-05-21T09:48:12Z</time>
      </trkpt>
      <trkpt lat="43.407677" lon="-2.795230">
        <ele>229.4</ele>
        <time>2016-05-21T09:48:27Z</time>
      </trkpt>
      <trkpt lat="43.407693" lon="-2.795001">
        <ele>230.4</ele>
        <time>2016-05-21T09:48:41Z</time>
      </trkpt>
      <trkpt lat="43.407673" lon="-2.794928">
        <ele>230.9</ele>
        <time>2016-05-21T09:48:55Z</time>
      </trkpt>
      <trkpt lat="43.407707" lon="-2.794818">
        <ele>230.4</ele>
        <time>2016-05-21T09:49:07Z</time>
      </trkpt>
      <trkpt lat="43.407708" lon="-2.794776">
        <ele>230.9</ele>
        <time>2016-05-21T09:49:18Z</time>
      </trkpt>
      <trkpt lat="43.407707" lon="-2.794735">
        <ele>231.8</ele>
        <time>2016-05-21T09:49:22Z</time>
      </trkpt>
      <trkpt lat="43.407758" lon="-2.794536">
        <ele>231.3</ele>
        <time>2016-05-21T09:49:38Z</time>
      </trkpt>
      <trkpt lat="43.407797" lon="-2.794377">
        <ele>231.8</ele>
        <time>2016-05-21T09:49:49Z</time>
      </trkpt>
      <trkpt lat="43.407894" lon="-2.794192">
        <ele>231.8</ele>
        <time>2016-05-21T09:50:03Z</time>
      </trkpt>
      <trkpt lat="43.408033" lon="-2.794040">
        <ele>229.4</ele>
        <time>2016-05-21T09:50:17Z</time>
      </trkpt>
      <trkpt lat="43.408141" lon="-2.793956">
        <ele>225.6</ele>
        <time>2016-05-21T09:50:26Z</time>
      </trkpt>
      <trkpt lat="43.408158" lon="-2.793933">
        <ele>225.1</ele>
        <time>2016-05-21T09:50:28Z</time>
      </trkpt>
      <trkpt lat="43.408287" lon="-2.793653">
        <ele>221.2</ele>
        <time>2016-05-21T09:50:45Z</time>
      </trkpt>
      <trkpt lat="43.408319" lon="-2.793552">
        <ele>220.3</ele>
        <time>2016-05-21T09:50:51Z</time>
      </trkpt>
      <trkpt lat="43.408357" lon="-2.793303">
        <ele>216.4</ele>
        <time>2016-05-21T09:51:06Z</time>
      </trkpt>
      <trkpt lat="43.408363" lon="-2.793273">
        <ele>215.0</ele>
        <time>2016-05-21T09:51:08Z</time>
      </trkpt>
      <trkpt lat="43.408367" lon="-2.793257">
        <ele>215.0</ele>
        <time>2016-05-21T09:51:09Z</time>
      </trkpt>
      <trkpt lat="43.408361" lon="-2.793193">
        <ele>215.0</ele>
        <time>2016-05-21T09:51:12Z</time>
      </trkpt>
      <trkpt lat="43.408338" lon="-2.793013">
        <ele>208.7</ele>
        <time>2016-05-21T10:05:36Z</time>
      </trkpt>
      <trkpt lat="43.408329" lon="-2.792957">
        <ele>209.2</ele>
        <time>2016-05-21T10:12:31Z</time>
      </trkpt>
      <trkpt lat="43.408222" lon="-2.793024">
        <ele>206.8</ele>
        <time>2016-05-21T10:12:43Z</time>
      </trkpt>
      <trkpt lat="43.408214" lon="-2.793037">
        <ele>207.3</ele>
        <time>2016-05-21T10:12:44Z</time>
      </trkpt>
      <trkpt lat="43.408148" lon="-2.793194">
        <ele>203.9</ele>
        <time>2016-05-21T10:12:57Z</time>
      </trkpt>
      <trkpt lat="43.408108" lon="-2.793254">
        <ele>203.5</ele>
        <time>2016-05-21T10:13:01Z</time>
      </trkpt>
      <trkpt lat="43.408018" lon="-2.793342">
        <ele>202.0</ele>
        <time>2016-05-21T10:13:08Z</time>
      </trkpt>
      <trkpt lat="43.407951" lon="-2.793371">
        <ele>200.6</ele>
        <time>2016-05-21T10:13:12Z</time>
      </trkpt>
      <trkpt lat="43.407876" lon="-2.793378">
        <ele>200.6</ele>
        <time>2016-05-21T10:13:16Z</time>
      </trkpt>
      <trkpt lat="43.407818" lon="-2.793364">
        <ele>199.6</ele>
        <time>2016-05-21T10:13:20Z</time>
      </trkpt>
      <trkpt lat="43.407781" lon="-2.793334">
        <ele>199.1</ele>
        <time>2016-05-21T10:13:26Z</time>
      </trkpt>
      <trkpt lat="43.407731" lon="-2.793328">
        <ele>199.1</ele>
        <time>2016-05-21T10:13:30Z</time>
      </trkpt>
      <trkpt lat="43.407662" lon="-2.793321">
        <ele>199.1</ele>
        <time>2016-05-21T10:13:35Z</time>
      </trkpt>
      <trkpt lat="43.407560" lon="-2.793365">
        <ele>198.2</ele>
        <time>2016-05-21T10:13:42Z</time>
      </trkpt>
      <trkpt lat="43.407441" lon="-2.793466">
        <ele>197.2</ele>
        <time>2016-05-21T10:13:52Z</time>
      </trkpt>
      <trkpt lat="43.407431" lon="-2.793487">
        <ele>197.7</ele>
        <time>2016-05-21T10:13:54Z</time>
      </trkpt>
      <trkpt lat="43.407415" lon="-2.793500">
        <ele>197.2</ele>
        <time>2016-05-21T10:13:56Z</time>
      </trkpt>
      <trkpt lat="43.407377" lon="-2.793567">
        <ele>197.2</ele>
        <time>2016-05-21T10:14:00Z</time>
      </trkpt>
      <trkpt lat="43.407258" lon="-2.793788">
        <ele>197.2</ele>
        <time>2016-05-21T10:14:13Z</time>
      </trkpt>
      <trkpt lat="43.407088" lon="-2.793715">
        <ele>196.7</ele>
        <time>2016-05-21T10:14:26Z</time>
      </trkpt>
      <trkpt lat="43.407017" lon="-2.793649">
        <ele>194.8</ele>
        <time>2016-05-21T10:14:33Z</time>
      </trkpt>
      <trkpt lat="43.406958" lon="-2.793586">
        <ele>192.9</ele>
        <time>2016-05-21T10:14:38Z</time>
      </trkpt>
      <trkpt lat="43.406879" lon="-2.793520">
        <ele>191.0</ele>
        <time>2016-05-21T10:14:46Z</time>
      </trkpt>
      <trkpt lat="43.406758" lon="-2.793549">
        <ele>187.6</ele>
        <time>2016-05-21T10:14:58Z</time>
      </trkpt>
      <trkpt lat="43.406754" lon="-2.793632">
        <ele>186.6</ele>
        <time>2016-05-21T10:15:02Z</time>
      </trkpt>
      <trkpt lat="43.406746" lon="-2.793781">
        <ele>184.7</ele>
        <time>2016-05-21T10:15:11Z</time>
      </trkpt>
      <trkpt lat="43.406751" lon="-2.793838">
        <ele>183.7</ele>
        <time>2016-05-21T10:15:15Z</time>
      </trkpt>
      <trkpt lat="43.406745" lon="-2.793870">
        <ele>183.7</ele>
        <time>2016-05-21T10:15:17Z</time>
      </trkpt>
      <trkpt lat="43.406720" lon="-2.793945">
        <ele>182.3</ele>
        <time>2016-05-21T10:15:21Z</time>
      </trkpt>
      <trkpt lat="43.406670" lon="-2.793895">
        <ele>181.8</ele>
        <time>2016-05-21T10:15:25Z</time>
      </trkpt>
      <trkpt lat="43.406620" lon="-2.793645">
        <ele>181.8</ele>
        <time>2016-05-21T10:15:40Z</time>
      </trkpt>
      <trkpt lat="43.406710" lon="-2.793435">
        <ele>182.3</ele>
        <time>2016-05-21T10:15:56Z</time>
      </trkpt>
      <trkpt lat="43.406796" lon="-2.793375">
        <ele>182.3</ele>
        <time>2016-05-21T10:16:06Z</time>
      </trkpt>
      <trkpt lat="43.406747" lon="-2.793343">
        <ele>180.9</ele>
        <time>2016-05-21T10:16:11Z</time>
      </trkpt>
      <trkpt lat="43.406583" lon="-2.793397">
        <ele>177.5</ele>
        <time>2016-05-21T10:16:26Z</time>
      </trkpt>
      <trkpt lat="43.406517" lon="-2.793494">
        <ele>174.1</ele>
        <time>2016-05-21T10:16:33Z</time>
      </trkpt>
      <trkpt lat="43.406512" lon="-2.793505">
        <ele>174.1</ele>
        <time>2016-05-21T10:16:34Z</time>
      </trkpt>
      <trkpt lat="43.406437" lon="-2.793676">
        <ele>171.3</ele>
        <time>2016-05-21T10:16:48Z</time>
      </trkpt>
      <trkpt lat="43.406417" lon="-2.793767">
        <ele>169.3</ele>
        <time>2016-05-21T10:16:54Z</time>
      </trkpt>
      <trkpt lat="43.406399" lon="-2.793857">
        <ele>166.9</ele>
        <time>2016-05-21T10:16:59Z</time>
      </trkpt>
      <trkpt lat="43.406354" lon="-2.794017">
        <ele>163.6</ele>
        <time>2016-05-21T10:17:10Z</time>
      </trkpt>
      <trkpt lat="43.406312" lon="-2.794113">
        <ele>163.6</ele>
        <time>2016-05-21T10:17:16Z</time>
      </trkpt>
      <trkpt lat="43.406151" lon="-2.794319">
        <ele>161.2</ele>
        <time>2016-05-21T10:17:31Z</time>
      </trkpt>
      <trkpt lat="43.406143" lon="-2.794325">
        <ele>160.7</ele>
        <time>2016-05-21T10:17:32Z</time>
      </trkpt>
      <trkpt lat="43.406123" lon="-2.794318">
        <ele>159.7</ele>
        <time>2016-05-21T10:17:34Z</time>
      </trkpt>
      <trkpt lat="43.406113" lon="-2.794296">
        <ele>160.2</ele>
        <time>2016-05-21T10:17:36Z</time>
      </trkpt>
      <trkpt lat="43.406133" lon="-2.794194">
        <ele>157.3</ele>
        <time>2016-05-21T10:17:43Z</time>
      </trkpt>
      <trkpt lat="43.406099" lon="-2.794050">
        <ele>155.9</ele>
        <time>2016-05-21T10:17:53Z</time>
      </trkpt>
      <trkpt lat="43.406079" lon="-2.793886">
        <ele>155.9</ele>
        <time>2016-05-21T10:18:03Z</time>
      </trkpt>
      <trkpt lat="43.406034" lon="-2.793607">
        <ele>153.0</ele>
        <time>2016-05-21T10:18:21Z</time>
      </trkpt>
      <trkpt lat="43.406019" lon="-2.793560">
        <ele>151.5</ele>
        <time>2016-05-21T10:18:24Z</time>
      </trkpt>
      <trkpt lat="43.405992" lon="-2.793533">
        <ele>151.1</ele>
        <time>2016-05-21T10:18:27Z</time>
      </trkpt>
      <trkpt lat="43.405948" lon="-2.793502">
        <ele>149.6</ele>
        <time>2016-05-21T10:18:32Z</time>
      </trkpt>
      <trkpt lat="43.405928" lon="-2.793487">
        <ele>149.1</ele>
        <time>2016-05-21T10:18:34Z</time>
      </trkpt>
      <trkpt lat="43.405843" lon="-2.793479">
        <ele>146.3</ele>
        <time>2016-05-21T10:18:41Z</time>
      </trkpt>
      <trkpt lat="43.405815" lon="-2.793504">
        <ele>146.3</ele>
        <time>2016-05-21T10:18:44Z</time>
      </trkpt>
      <trkpt lat="43.405776" lon="-2.793522">
        <ele>144.8</ele>
        <time>2016-05-21T10:18:48Z</time>
      </trkpt>
      <trkpt lat="43.405767" lon="-2.793528">
        <ele>144.3</ele>
        <time>2016-05-21T10:18:50Z</time>
      </trkpt>
      <trkpt lat="43.405708" lon="-2.793544">
        <ele>143.4</ele>
        <time>2016-05-21T10:18:54Z</time>
      </trkpt>
      <trkpt lat="43.405568" lon="-2.793624">
        <ele>141.5</ele>
        <time>2016-05-21T10:19:07Z</time>
      </trkpt>
      <trkpt lat="43.405579" lon="-2.793722">
        <ele>140.5</ele>
        <time>2016-05-21T10:19:15Z</time>
      </trkpt>
      <trkpt lat="43.405586" lon="-2.793953">
        <ele>140.0</ele>
        <time>2016-05-21T10:19:30Z</time>
      </trkpt>
      <trkpt lat="43.405548" lon="-2.794038">
        <ele>141.0</ele>
        <time>2016-05-21T10:19:36Z</time>
      </trkpt>
      <trkpt lat="43.405393" lon="-2.794222">
        <ele>141.0</ele>
        <time>2016-05-21T10:19:50Z</time>
      </trkpt>
      <trkpt lat="43.405206" lon="-2.794299">
        <ele>137.6</ele>
        <time>2016-05-21T10:20:03Z</time>
      </trkpt>
      <trkpt lat="43.405083" lon="-2.794344">
        <ele>136.2</ele>
        <time>2016-05-21T10:20:12Z</time>
      </trkpt>
      <trkpt lat="43.404866" lon="-2.794454">
        <ele>135.2</ele>
        <time>2016-05-21T10:20:27Z</time>
      </trkpt>
      <trkpt lat="43.404647" lon="-2.794536">
        <ele>132.8</ele>
        <time>2016-05-21T10:20:42Z</time>
      </trkpt>
      <trkpt lat="43.404583" lon="-2.794562">
        <ele>132.3</ele>
        <time>2016-05-21T10:20:48Z</time>
      </trkpt>
      <trkpt lat="43.404551" lon="-2.794607">
        <ele>131.8</ele>
        <time>2016-05-21T10:20:52Z</time>
      </trkpt>
      <trkpt lat="43.404520" lon="-2.794818">
        <ele>129.4</ele>
        <time>2016-05-21T10:21:04Z</time>
      </trkpt>
      <trkpt lat="43.404498" lon="-2.794985">
        <ele>128.0</ele>
        <time>2016-05-21T10:21:14Z</time>
      </trkpt>
      <trkpt lat="43.404440" lon="-2.795158">
        <ele>127.0</ele>
        <time>2016-05-21T10:21:26Z</time>
      </trkpt>
      <trkpt lat="43.404392" lon="-2.795242">
        <ele>127.0</ele>
        <time>2016-05-21T10:21:33Z</time>
      </trkpt>
      <trkpt lat="43.404271" lon="-2.795387">
        <ele>124.6</ele>
        <time>2016-05-21T10:21:46Z</time>
      </trkpt>
      <trkpt lat="43.404124" lon="-2.795563">
        <ele>123.2</ele>
        <time>2016-05-21T10:21:59Z</time>
      </trkpt>
      <trkpt lat="43.404061" lon="-2.795706">
        <ele>122.2</ele>
        <time>2016-05-21T10:22:07Z</time>
      </trkpt>
      <trkpt lat="43.404021" lon="-2.795989">
        <ele>119.3</ele>
        <time>2016-05-21T10:22:24Z</time>
      </trkpt>
      <trkpt lat="43.404019" lon="-2.796017">
        <ele>118.4</ele>
        <time>2016-05-21T10:22:26Z</time>
      </trkpt>
      <trkpt lat="43.403932" lon="-2.796329">
        <ele>115.5</ele>
        <time>2016-05-21T10:22:42Z</time>
      </trkpt>
      <trkpt lat="43.403891" lon="-2.796447">
        <ele>115.0</ele>
        <time>2016-05-21T10:22:49Z</time>
      </trkpt>
      <trkpt lat="43.403851" lon="-2.796247">
        <ele>114.1</ele>
        <time>2016-05-21T10:23:03Z</time>
      </trkpt>
      <trkpt lat="43.403867" lon="-2.795903">
        <ele>113.6</ele>
        <time>2016-05-21T10:23:18Z</time>
      </trkpt>
      <trkpt lat="43.403852" lon="-2.795634">
        <ele>114.1</ele>
        <time>2016-05-21T10:23:33Z</time>
      </trkpt>
      <trkpt lat="43.403856" lon="-2.795368">
        <ele>114.1</ele>
        <time>2016-05-21T10:23:48Z</time>
      </trkpt>
      <trkpt lat="43.403914" lon="-2.795163">
        <ele>114.5</ele>
        <time>2016-05-21T10:24:01Z</time>
      </trkpt>
      <trkpt lat="43.403949" lon="-2.795118">
        <ele>114.1</ele>
        <time>2016-05-21T10:24:06Z</time>
      </trkpt>
      <trkpt lat="43.404094" lon="-2.794978">
        <ele>114.1</ele>
        <time>2016-05-21T10:24:19Z</time>
      </trkpt>
      <trkpt lat="43.404104" lon="-2.794964">
        <ele>114.1</ele>
        <time>2016-05-21T10:24:20Z</time>
      </trkpt>
      <trkpt lat="43.404171" lon="-2.794845">
        <ele>114.1</ele>
        <time>2016-05-21T10:24:30Z</time>
      </trkpt>
      <trkpt lat="43.404207" lon="-2.794772">
        <ele>114.1</ele>
        <time>2016-05-21T10:24:35Z</time>
      </trkpt>
      <trkpt lat="43.404230" lon="-2.794572">
        <ele>113.6</ele>
        <time>2016-05-21T10:24:49Z</time>
      </trkpt>
      <trkpt lat="43.404278" lon="-2.794396">
        <ele>113.6</ele>
        <time>2016-05-21T10:24:59Z</time>
      </trkpt>
      <trkpt lat="43.404397" lon="-2.794187">
        <ele>113.1</ele>
        <time>2016-05-21T10:25:14Z</time>
      </trkpt>
      <trkpt lat="43.404417" lon="-2.794059">
        <ele>113.1</ele>
        <time>2016-05-21T10:25:23Z</time>
      </trkpt>
      <trkpt lat="43.404432" lon="-2.793808">
        <ele>113.1</ele>
        <time>2016-05-21T10:25:38Z</time>
      </trkpt>
      <trkpt lat="43.404441" lon="-2.793558">
        <ele>112.6</ele>
        <time>2016-05-21T10:25:51Z</time>
      </trkpt>
      <trkpt lat="43.404489" lon="-2.793500">
        <ele>112.6</ele>
        <time>2016-05-21T10:25:58Z</time>
      </trkpt>
      <trkpt lat="43.404460" lon="-2.793261">
        <ele>111.7</ele>
        <time>2016-05-21T10:26:13Z</time>
      </trkpt>
      <trkpt lat="43.404441" lon="-2.793225">
        <ele>111.7</ele>
        <time>2016-05-21T10:26:15Z</time>
      </trkpt>
      <trkpt lat="43.404318" lon="-2.793007">
        <ele>111.7</ele>
        <time>2016-05-21T10:26:30Z</time>
      </trkpt>
      <trkpt lat="43.404265" lon="-2.792928">
        <ele>111.2</ele>
        <time>2016-05-21T10:26:43Z</time>
      </trkpt>
      <trkpt lat="43.404217" lon="-2.792860">
        <ele>111.7</ele>
        <time>2016-05-21T10:26:54Z</time>
      </trkpt>
      <trkpt lat="43.404152" lon="-2.792776">
        <ele>112.1</ele>
        <time>2016-05-21T10:27:06Z</time>
      </trkpt>
      <trkpt lat="43.404114" lon="-2.792698">
        <ele>112.6</ele>
        <time>2016-05-21T10:27:18Z</time>
      </trkpt>
      <trkpt lat="43.404059" lon="-2.792617">
        <ele>112.6</ele>
        <time>2016-05-21T10:27:29Z</time>
      </trkpt>
      <trkpt lat="43.404027" lon="-2.792599">
        <ele>113.1</ele>
        <time>2016-05-21T10:27:32Z</time>
      </trkpt>
      <trkpt lat="43.403961" lon="-2.792515">
        <ele>112.6</ele>
        <time>2016-05-21T10:27:40Z</time>
      </trkpt>
      <trkpt lat="43.403854" lon="-2.792341">
        <ele>112.6</ele>
        <time>2016-05-21T10:27:55Z</time>
      </trkpt>
      <trkpt lat="43.403761" lon="-2.792136">
        <ele>113.1</ele>
        <time>2016-05-21T10:28:10Z</time>
      </trkpt>
      <trkpt lat="43.403736" lon="-2.792104">
        <ele>112.6</ele>
        <time>2016-05-21T10:28:13Z</time>
      </trkpt>
      <trkpt lat="43.403670" lon="-2.791999">
        <ele>113.1</ele>
        <time>2016-05-21T10:28:21Z</time>
      </trkpt>
      <trkpt lat="43.403599" lon="-2.791908">
        <ele>113.1</ele>
        <time>2016-05-21T10:28:28Z</time>
      </trkpt>
      <trkpt lat="43.403431" lon="-2.791706">
        <ele>112.6</ele>
        <time>2016-05-21T10:28:46Z</time>
      </trkpt>
      <trkpt lat="43.403329" lon="-2.791595">
        <ele>113.6</ele>
        <time>2016-05-21T10:28:59Z</time>
      </trkpt>
      <trkpt lat="43.403204" lon="-2.791475">
        <ele>113.6</ele>
        <time>2016-05-21T10:29:12Z</time>
      </trkpt>
      <trkpt lat="43.403047" lon="-2.791284">
        <ele>113.6</ele>
        <time>2016-05-21T10:29:27Z</time>
      </trkpt>
      <trkpt lat="43.402930" lon="-2.791005">
        <ele>114.5</ele>
        <time>2016-05-21T10:29:46Z</time>
      </trkpt>
      <trkpt lat="43.402858" lon="-2.790712">
        <ele>113.6</ele>
        <time>2016-05-21T10:30:02Z</time>
      </trkpt>
      <trkpt lat="43.402817" lon="-2.790469">
        <ele>113.6</ele>
        <time>2016-05-21T10:30:16Z</time>
      </trkpt>
      <trkpt lat="43.402852" lon="-2.790342">
        <ele>113.6</ele>
        <time>2016-05-21T10:30:27Z</time>
      </trkpt>
      <trkpt lat="43.402843" lon="-2.790316">
        <ele>113.1</ele>
        <time>2016-05-21T10:30:29Z</time>
      </trkpt>
      <trkpt lat="43.402888" lon="-2.790176">
        <ele>114.1</ele>
        <time>2016-05-21T10:30:44Z</time>
      </trkpt>
      <trkpt lat="43.402883" lon="-2.790066">
        <ele>114.5</ele>
        <time>2016-05-21T10:30:55Z</time>
      </trkpt>
      <trkpt lat="43.402911" lon="-2.790061">
        <ele>116.0</ele>
        <time>2016-05-21T10:31:13Z</time>
      </trkpt>
      <trkpt lat="43.402876" lon="-2.789978">
        <ele>116.0</ele>
        <time>2016-05-21T10:31:25Z</time>
      </trkpt>
      <trkpt lat="43.402817" lon="-2.789861">
        <ele>116.0</ele>
        <time>2016-05-21T10:31:35Z</time>
      </trkpt>
      <trkpt lat="43.402663" lon="-2.789738">
        <ele>116.0</ele>
        <time>2016-05-21T10:31:49Z</time>
      </trkpt>
      <trkpt lat="43.402470" lon="-2.789593">
        <ele>116.9</ele>
        <time>2016-05-21T10:32:06Z</time>
      </trkpt>
      <trkpt lat="43.402363" lon="-2.789394">
        <ele>117.9</ele>
        <time>2016-05-21T10:32:23Z</time>
      </trkpt>
      <trkpt lat="43.402353" lon="-2.789377">
        <ele>116.9</ele>
        <time>2016-05-21T10:32:34Z</time>
      </trkpt>
      <trkpt lat="43.402354" lon="-2.789399">
        <ele>117.9</ele>
        <time>2016-05-21T10:32:44Z</time>
      </trkpt>
      <trkpt lat="43.402491" lon="-2.789427">
        <ele>118.9</ele>
        <time>2016-05-21T10:32:58Z</time>
      </trkpt>
      <trkpt lat="43.402612" lon="-2.789456">
        <ele>120.3</ele>
        <time>2016-05-21T10:33:09Z</time>
      </trkpt>
      <trkpt lat="43.402621" lon="-2.789326">
        <ele>121.7</ele>
        <time>2016-05-21T10:33:21Z</time>
      </trkpt>
      <trkpt lat="43.402617" lon="-2.789240">
        <ele>124.6</ele>
        <time>2016-05-21T10:33:34Z</time>
      </trkpt>
      <trkpt lat="43.402600" lon="-2.789201">
        <ele>124.1</ele>
        <time>2016-05-21T10:33:47Z</time>
      </trkpt>
      <trkpt lat="43.402606" lon="-2.789190">
        <ele>124.1</ele>
        <time>2016-05-21T10:34:09Z</time>
      </trkpt>
      <trkpt lat="43.402606" lon="-2.789180">
        <ele>124.1</ele>
        <time>2016-05-21T10:34:27Z</time>
      </trkpt>
      <trkpt lat="43.402609" lon="-2.789190">
        <ele>124.1</ele>
        <time>2016-05-21T10:34:44Z</time>
      </trkpt>
      <trkpt lat="43.402636" lon="-2.789117">
        <ele>126.1</ele>
        <time>2016-05-21T10:35:08Z</time>
      </trkpt>
      <trkpt lat="43.402659" lon="-2.789015">
        <ele>128.5</ele>
        <time>2016-05-21T10:35:22Z</time>
      </trkpt>
      <trkpt lat="43.402683" lon="-2.788950">
        <ele>129.9</ele>
        <time>2016-05-21T10:35:33Z</time>
      </trkpt>
      <trkpt lat="43.402714" lon="-2.788815">
        <ele>131.4</ele>
        <time>2016-05-21T10:35:47Z</time>
      </trkpt>
      <trkpt lat="43.402729" lon="-2.788719">
        <ele>133.8</ele>
        <time>2016-05-21T10:35:59Z</time>
      </trkpt>
      <trkpt lat="43.402756" lon="-2.788697">
        <ele>132.8</ele>
        <time>2016-05-21T10:36:15Z</time>
      </trkpt>
      <trkpt lat="43.402749" lon="-2.788644">
        <ele>133.8</ele>
        <time>2016-05-21T10:36:29Z</time>
      </trkpt>
      <trkpt lat="43.402741" lon="-2.788686">
        <ele>134.2</ele>
        <time>2016-05-21T10:36:41Z</time>
      </trkpt>
      <trkpt lat="43.402787" lon="-2.788766">
        <ele>135.2</ele>
        <time>2016-05-21T10:36:54Z</time>
      </trkpt>
      <trkpt lat="43.402814" lon="-2.788886">
        <ele>137.6</ele>
        <time>2016-05-21T10:37:05Z</time>
      </trkpt>
      <trkpt lat="43.402859" lon="-2.788979">
        <ele>140.0</ele>
        <time>2016-05-21T10:37:17Z</time>
      </trkpt>
      <trkpt lat="43.402864" lon="-2.788985">
        <ele>140.0</ele>
        <time>2016-05-21T10:37:18Z</time>
      </trkpt>
      <trkpt lat="43.402915" lon="-2.789040">
        <ele>142.4</ele>
        <time>2016-05-21T10:37:28Z</time>
      </trkpt>
      <trkpt lat="43.402993" lon="-2.789069">
        <ele>142.9</ele>
        <time>2016-05-21T10:37:38Z</time>
      </trkpt>
      <trkpt lat="43.403012" lon="-2.788969">
        <ele>144.8</ele>
        <time>2016-05-21T10:37:47Z</time>
      </trkpt>
      <trkpt lat="43.402992" lon="-2.788832">
        <ele>146.7</ele>
        <time>2016-05-21T10:37:59Z</time>
      </trkpt>
      <trkpt lat="43.402980" lon="-2.788734">
        <ele>147.2</ele>
        <time>2016-05-21T10:38:05Z</time>
      </trkpt>
      <trkpt lat="43.403007" lon="-2.788557">
        <ele>150.1</ele>
        <time>2016-05-21T10:38:18Z</time>
      </trkpt>
      <trkpt lat="43.403027" lon="-2.788435">
        <ele>153.5</ele>
        <time>2016-05-21T10:38:28Z</time>
      </trkpt>
      <trkpt lat="43.403054" lon="-2.788259">
        <ele>154.9</ele>
        <time>2016-05-21T10:38:43Z</time>
      </trkpt>
      <trkpt lat="43.403067" lon="-2.788110">
        <ele>156.4</ele>
        <time>2016-05-21T10:38:55Z</time>
      </trkpt>
      <trkpt lat="43.403037" lon="-2.787944">
        <ele>154.9</ele>
        <time>2016-05-21T10:39:11Z</time>
      </trkpt>
      <trkpt lat="43.403033" lon="-2.787856">
        <ele>154.4</ele>
        <time>2016-05-21T10:39:24Z</time>
      </trkpt>
      <trkpt lat="43.403006" lon="-2.787804">
        <ele>153.0</ele>
        <time>2016-05-21T10:39:34Z</time>
      </trkpt>
      <trkpt lat="43.402953" lon="-2.787660">
        <ele>150.6</ele>
        <time>2016-05-21T10:39:48Z</time>
      </trkpt>
      <trkpt lat="43.402903" lon="-2.787499">
        <ele>147.2</ele>
        <time>2016-05-21T10:40:02Z</time>
      </trkpt>
      <trkpt lat="43.402874" lon="-2.787430">
        <ele>144.8</ele>
        <time>2016-05-21T10:40:10Z</time>
      </trkpt>
      <trkpt lat="43.402843" lon="-2.787284">
        <ele>141.9</ele>
        <time>2016-05-21T10:40:21Z</time>
      </trkpt>
      <trkpt lat="43.402857" lon="-2.787196">
        <ele>141.5</ele>
        <time>2016-05-21T10:40:35Z</time>
      </trkpt>
      <trkpt lat="43.402804" lon="-2.787254">
        <ele>140.5</ele>
        <time>2016-05-21T10:40:49Z</time>
      </trkpt>
      <trkpt lat="43.402776" lon="-2.787337">
        <ele>138.1</ele>
        <time>2016-05-21T10:41:01Z</time>
      </trkpt>
      <trkpt lat="43.402763" lon="-2.787391">
        <ele>136.6</ele>
        <time>2016-05-21T10:41:16Z</time>
      </trkpt>
      <trkpt lat="43.402748" lon="-2.787423">
        <ele>136.2</ele>
        <time>2016-05-21T10:41:32Z</time>
      </trkpt>
      <trkpt lat="43.402742" lon="-2.787449">
        <ele>135.2</ele>
        <time>2016-05-21T10:41:34Z</time>
      </trkpt>
      <trkpt lat="43.402722" lon="-2.787614">
        <ele>132.3</ele>
        <time>2016-05-21T10:41:47Z</time>
      </trkpt>
      <trkpt lat="43.402698" lon="-2.787714">
        <ele>129.4</ele>
        <time>2016-05-21T10:42:03Z</time>
      </trkpt>
      <trkpt lat="43.402665" lon="-2.787692">
        <ele>127.5</ele>
        <time>2016-05-21T10:42:19Z</time>
      </trkpt>
      <trkpt lat="43.402649" lon="-2.787675">
        <ele>127.5</ele>
        <time>2016-05-21T10:42:32Z</time>
      </trkpt>
      <trkpt lat="43.402607" lon="-2.787596">
        <ele>126.1</ele>
        <time>2016-05-21T10:43:06Z</time>
      </trkpt>
      <trkpt lat="43.402569" lon="-2.787535">
        <ele>124.1</ele>
        <time>2016-05-21T10:43:18Z</time>
      </trkpt>
      <trkpt lat="43.402477" lon="-2.787450">
        <ele>121.7</ele>
        <time>2016-05-21T10:43:30Z</time>
      </trkpt>
      <trkpt lat="43.402405" lon="-2.787458">
        <ele>121.3</ele>
        <time>2016-05-21T10:43:44Z</time>
      </trkpt>
      <trkpt lat="43.402392" lon="-2.787347">
        <ele>122.2</ele>
        <time>2016-05-21T10:43:56Z</time>
      </trkpt>
      <trkpt lat="43.402429" lon="-2.787169">
        <ele>123.2</ele>
        <time>2016-05-21T10:44:12Z</time>
      </trkpt>
      <trkpt lat="43.402405" lon="-2.787128">
        <ele>123.2</ele>
        <time>2016-05-21T10:44:24Z</time>
      </trkpt>
      <trkpt lat="43.402391" lon="-2.786970">
        <ele>125.1</ele>
        <time>2016-05-21T10:44:37Z</time>
      </trkpt>
      <trkpt lat="43.402397" lon="-2.786890">
        <ele>125.6</ele>
        <time>2016-05-21T10:44:43Z</time>
      </trkpt>
      <trkpt lat="43.402405" lon="-2.786748">
        <ele>125.6</ele>
        <time>2016-05-21T10:44:58Z</time>
      </trkpt>
      <trkpt lat="43.402399" lon="-2.786707">
        <ele>125.1</ele>
        <time>2016-05-21T10:45:01Z</time>
      </trkpt>
      <trkpt lat="43.402389" lon="-2.786562">
        <ele>125.6</ele>
        <time>2016-05-21T10:45:11Z</time>
      </trkpt>
      <trkpt lat="43.402396" lon="-2.786435">
        <ele>124.6</ele>
        <time>2016-05-21T10:45:21Z</time>
      </trkpt>
      <trkpt lat="43.402409" lon="-2.786304">
        <ele>125.1</ele>
        <time>2016-05-21T10:45:33Z</time>
      </trkpt>
      <trkpt lat="43.402415" lon="-2.786283">
        <ele>124.6</ele>
        <time>2016-05-21T10:45:35Z</time>
      </trkpt>
      <trkpt lat="43.402430" lon="-2.786148">
        <ele>124.6</ele>
        <time>2016-05-21T10:45:50Z</time>
      </trkpt>
      <trkpt lat="43.402465" lon="-2.786052">
        <ele>124.6</ele>
        <time>2016-05-21T10:46:02Z</time>
      </trkpt>
      <trkpt lat="43.402484" lon="-2.785927">
        <ele>124.6</ele>
        <time>2016-05-21T10:46:16Z</time>
      </trkpt>
      <trkpt lat="43.402463" lon="-2.785887">
        <ele>125.6</ele>
        <time>2016-05-21T10:46:42Z</time>
      </trkpt>
      <trkpt lat="43.402481" lon="-2.785826">
        <ele>126.1</ele>
        <time>2016-05-21T10:46:59Z</time>
      </trkpt>
      <trkpt lat="43.402477" lon="-2.785778">
        <ele>125.6</ele>
        <time>2016-05-21T10:47:12Z</time>
      </trkpt>
      <trkpt lat="43.402484" lon="-2.785797">
        <ele>126.1</ele>
        <time>2016-05-21T10:47:28Z</time>
      </trkpt>
      <trkpt lat="43.402508" lon="-2.785814">
        <ele>125.6</ele>
        <time>2016-05-21T10:47:52Z</time>
      </trkpt>
      <trkpt lat="43.402517" lon="-2.785776">
        <ele>127.5</ele>
        <time>2016-05-21T10:48:11Z</time>
      </trkpt>
      <trkpt lat="43.402503" lon="-2.785726">
        <ele>127.5</ele>
        <time>2016-05-21T10:48:28Z</time>
      </trkpt>
      <trkpt lat="43.402492" lon="-2.785670">
        <ele>127.5</ele>
        <time>2016-05-21T10:48:52Z</time>
      </trkpt>
      <trkpt lat="43.402534" lon="-2.785643">
        <ele>129.0</ele>
        <time>2016-05-21T10:49:04Z</time>
      </trkpt>
      <trkpt lat="43.402531" lon="-2.785612">
        <ele>129.4</ele>
        <time>2016-05-21T10:49:26Z</time>
      </trkpt>
      <trkpt lat="43.402510" lon="-2.785548">
        <ele>131.4</ele>
        <time>2016-05-21T10:49:40Z</time>
      </trkpt>
      <trkpt lat="43.402537" lon="-2.785496">
        <ele>131.4</ele>
        <time>2016-05-21T10:49:52Z</time>
      </trkpt>
      <trkpt lat="43.402481" lon="-2.785411">
        <ele>129.9</ele>
        <time>2016-05-21T10:50:05Z</time>
      </trkpt>
      <trkpt lat="43.402456" lon="-2.785357">
        <ele>129.0</ele>
        <time>2016-05-21T10:50:23Z</time>
      </trkpt>
      <trkpt lat="43.402391" lon="-2.785335">
        <ele>129.4</ele>
        <time>2016-05-21T10:50:37Z</time>
      </trkpt>
      <trkpt lat="43.402343" lon="-2.785328">
        <ele>127.5</ele>
        <time>2016-05-21T10:50:52Z</time>
      </trkpt>
      <trkpt lat="43.402300" lon="-2.785333">
        <ele>128.0</ele>
        <time>2016-05-21T10:51:01Z</time>
      </trkpt>
      <trkpt lat="43.402285" lon="-2.785240">
        <ele>130.4</ele>
        <time>2016-05-21T10:51:14Z</time>
      </trkpt>
      <trkpt lat="43.402254" lon="-2.785097">
        <ele>133.3</ele>
        <time>2016-05-21T10:51:28Z</time>
      </trkpt>
      <trkpt lat="43.402142" lon="-2.785011">
        <ele>136.6</ele>
        <time>2016-05-21T10:51:41Z</time>
      </trkpt>
      <trkpt lat="43.402089" lon="-2.784990">
        <ele>137.6</ele>
        <time>2016-05-21T10:51:46Z</time>
      </trkpt>
      <trkpt lat="43.401954" lon="-2.784897">
        <ele>140.5</ele>
        <time>2016-05-21T10:52:02Z</time>
      </trkpt>
      <trkpt lat="43.401832" lon="-2.784772">
        <ele>143.4</ele>
        <time>2016-05-21T10:52:18Z</time>
      </trkpt>
      <trkpt lat="43.401826" lon="-2.784765">
        <ele>143.4</ele>
        <time>2016-05-21T10:52:19Z</time>
      </trkpt>
      <trkpt lat="43.401712" lon="-2.784665">
        <ele>145.8</ele>
        <time>2016-05-21T10:52:34Z</time>
      </trkpt>
      <trkpt lat="43.401639" lon="-2.784562">
        <ele>149.1</ele>
        <time>2016-05-21T10:52:45Z</time>
      </trkpt>
      <trkpt lat="43.401552" lon="-2.784366">
        <ele>151.1</ele>
        <time>2016-05-21T10:53:02Z</time>
      </trkpt>
      <trkpt lat="43.401446" lon="-2.784159">
        <ele>154.4</ele>
        <time>2016-05-21T10:53:18Z</time>
      </trkpt>
      <trkpt lat="43.401316" lon="-2.783941">
        <ele>155.4</ele>
        <time>2016-05-21T10:53:37Z</time>
      </trkpt>
      <trkpt lat="43.401179" lon="-2.783877">
        <ele>154.4</ele>
        <time>2016-05-21T10:53:53Z</time>
      </trkpt>
      <trkpt lat="43.401084" lon="-2.783893">
        <ele>151.1</ele>
        <time>2016-05-21T10:54:05Z</time>
      </trkpt>
      <trkpt lat="43.401009" lon="-2.783874">
        <ele>149.6</ele>
        <time>2016-05-21T10:54:12Z</time>
      </trkpt>
      <trkpt lat="43.400886" lon="-2.783679">
        <ele>151.1</ele>
        <time>2016-05-21T10:54:29Z</time>
      </trkpt>
      <trkpt lat="43.400771" lon="-2.783376">
        <ele>151.1</ele>
        <time>2016-05-21T10:54:49Z</time>
      </trkpt>
      <trkpt lat="43.400686" lon="-2.783213">
        <ele>153.9</ele>
        <time>2016-05-21T10:55:02Z</time>
      </trkpt>
      <trkpt lat="43.400553" lon="-2.783004">
        <ele>157.3</ele>
        <time>2016-05-21T10:55:19Z</time>
      </trkpt>
      <trkpt lat="43.400382" lon="-2.782780">
        <ele>157.3</ele>
        <time>2016-05-21T10:55:38Z</time>
      </trkpt>
      <trkpt lat="43.400198" lon="-2.782572">
        <ele>155.9</ele>
        <time>2016-05-21T10:55:56Z</time>
      </trkpt>
      <trkpt lat="43.400030" lon="-2.782366">
        <ele>158.3</ele>
        <time>2016-05-21T10:56:14Z</time>
      </trkpt>
      <trkpt lat="43.399844" lon="-2.782235">
        <ele>157.8</ele>
        <time>2016-05-21T10:56:30Z</time>
      </trkpt>
      <trkpt lat="43.399619" lon="-2.782198">
        <ele>157.8</ele>
        <time>2016-05-21T10:56:48Z</time>
      </trkpt>
      <trkpt lat="43.399546" lon="-2.782176">
        <ele>157.8</ele>
        <time>2016-05-21T10:57:01Z</time>
      </trkpt>
      <trkpt lat="43.399352" lon="-2.782045">
        <ele>158.3</ele>
        <time>2016-05-21T10:57:19Z</time>
      </trkpt>
      <trkpt lat="43.399333" lon="-2.782034">
        <ele>157.8</ele>
        <time>2016-05-21T10:57:23Z</time>
      </trkpt>
      <trkpt lat="43.399210" lon="-2.781855">
        <ele>155.9</ele>
        <time>2016-05-21T10:57:39Z</time>
      </trkpt>
      <trkpt lat="43.399178" lon="-2.781653">
        <ele>152.5</ele>
        <time>2016-05-21T10:57:49Z</time>
      </trkpt>
      <trkpt lat="43.399176" lon="-2.781526">
        <ele>151.5</ele>
        <time>2016-05-21T10:57:55Z</time>
      </trkpt>
      <trkpt lat="43.399175" lon="-2.781482">
        <ele>151.1</ele>
        <time>2016-05-21T10:57:57Z</time>
      </trkpt>
      <trkpt lat="43.399143" lon="-2.781233">
        <ele>152.0</ele>
        <time>2016-05-21T10:58:10Z</time>
      </trkpt>
      <trkpt lat="43.399042" lon="-2.781002">
        <ele>151.5</ele>
        <time>2016-05-21T10:58:26Z</time>
      </trkpt>
      <trkpt lat="43.398895" lon="-2.780766">
        <ele>153.5</ele>
        <time>2016-05-21T10:58:43Z</time>
      </trkpt>
      <trkpt lat="43.398794" lon="-2.780572">
        <ele>155.4</ele>
        <time>2016-05-21T10:58:59Z</time>
      </trkpt>
      <trkpt lat="43.398648" lon="-2.780431">
        <ele>154.9</ele>
        <time>2016-05-21T10:59:12Z</time>
      </trkpt>
      <trkpt lat="43.398468" lon="-2.780425">
        <ele>152.5</ele>
        <time>2016-05-21T10:59:26Z</time>
      </trkpt>
      <trkpt lat="43.398452" lon="-2.780422">
        <ele>152.0</ele>
        <time>2016-05-21T10:59:27Z</time>
      </trkpt>
      <trkpt lat="43.398359" lon="-2.780414">
        <ele>151.1</ele>
        <time>2016-05-21T10:59:41Z</time>
      </trkpt>
      <trkpt lat="43.398344" lon="-2.780331">
        <ele>153.0</ele>
        <time>2016-05-21T10:59:49Z</time>
      </trkpt>
      <trkpt lat="43.398351" lon="-2.780266">
        <ele>153.0</ele>
        <time>2016-05-21T10:59:55Z</time>
      </trkpt>
      <trkpt lat="43.398367" lon="-2.780202">
        <ele>153.0</ele>
        <time>2016-05-21T11:00:00Z</time>
      </trkpt>
      <trkpt lat="43.398386" lon="-2.780152">
        <ele>153.5</ele>
        <time>2016-05-21T11:00:03Z</time>
      </trkpt>
      <trkpt lat="43.398419" lon="-2.780085">
        <ele>153.9</ele>
        <time>2016-05-21T11:00:08Z</time>
      </trkpt>
      <trkpt lat="43.398443" lon="-2.779882">
        <ele>155.4</ele>
        <time>2016-05-21T11:00:24Z</time>
      </trkpt>
      <trkpt lat="43.398474" lon="-2.779699">
        <ele>156.8</ele>
        <time>2016-05-21T11:00:39Z</time>
      </trkpt>
      <trkpt lat="43.398459" lon="-2.779646">
        <ele>156.8</ele>
        <time>2016-05-21T11:00:48Z</time>
      </trkpt>
      <trkpt lat="43.398443" lon="-2.779563">
        <ele>157.3</ele>
        <time>2016-05-21T11:00:54Z</time>
      </trkpt>
      <trkpt lat="43.398309" lon="-2.779463">
        <ele>157.3</ele>
        <time>2016-05-21T11:01:09Z</time>
      </trkpt>
      <trkpt lat="43.398287" lon="-2.779391">
        <ele>157.8</ele>
        <time>2016-05-21T11:01:14Z</time>
      </trkpt>
      <trkpt lat="43.398172" lon="-2.779163">
        <ele>158.8</ele>
        <time>2016-05-21T11:01:27Z</time>
      </trkpt>
      <trkpt lat="43.398092" lon="-2.778906">
        <ele>159.7</ele>
        <time>2016-05-21T11:01:41Z</time>
      </trkpt>
      <trkpt lat="43.398022" lon="-2.778693">
        <ele>161.2</ele>
        <time>2016-05-21T11:01:53Z</time>
      </trkpt>
      <trkpt lat="43.397894" lon="-2.778427">
        <ele>162.1</ele>
        <time>2016-05-21T11:02:07Z</time>
      </trkpt>
      <trkpt lat="43.397633" lon="-2.778432">
        <ele>161.6</ele>
        <time>2016-05-21T11:02:25Z</time>
      </trkpt>
      <trkpt lat="43.397531" lon="-2.778371">
        <ele>162.1</ele>
        <time>2016-05-21T11:02:38Z</time>
      </trkpt>
      <trkpt lat="43.397503" lon="-2.778300">
        <ele>161.6</ele>
        <time>2016-05-21T11:02:50Z</time>
      </trkpt>
      <trkpt lat="43.397480" lon="-2.778162">
        <ele>160.2</ele>
        <time>2016-05-21T11:03:04Z</time>
      </trkpt>
      <trkpt lat="43.397464" lon="-2.778113">
        <ele>161.6</ele>
        <time>2016-05-21T11:03:06Z</time>
      </trkpt>
      <trkpt lat="43.397460" lon="-2.778102">
        <ele>169.8</ele>
        <time>2016-05-21T11:03:08Z</time>
      </trkpt>
      <trkpt lat="43.397460" lon="-2.778102">
        <ele>163.1</ele>
        <time>2016-05-21T11:03:09Z</time>
      </trkpt>
      <trkpt lat="43.397458" lon="-2.778102">
        <ele>163.1</ele>
        <time>2016-05-21T11:03:10Z</time>
      </trkpt>
      <trkpt lat="43.397523" lon="-2.778067">
        <ele>163.1</ele>
        <time>2016-05-21T11:03:22Z</time>
      </trkpt>
      <trkpt lat="43.397561" lon="-2.778078">
        <ele>163.6</ele>
        <time>2016-05-21T11:03:26Z</time>
      </trkpt>
      <trkpt lat="43.397614" lon="-2.778079">
        <ele>164.0</ele>
        <time>2016-05-21T11:03:29Z</time>
      </trkpt>
      <trkpt lat="43.397643" lon="-2.778018">
        <ele>163.6</ele>
        <time>2016-05-21T11:03:42Z</time>
      </trkpt>
      <trkpt lat="43.397751" lon="-2.778010">
        <ele>164.5</ele>
        <time>2016-05-21T11:04:11Z</time>
      </trkpt>
      <trkpt lat="43.397901" lon="-2.778053">
        <ele>164.5</ele>
        <time>2016-05-21T11:04:22Z</time>
      </trkpt>
      <trkpt lat="43.398015" lon="-2.778081">
        <ele>163.6</ele>
        <time>2016-05-21T11:04:31Z</time>
      </trkpt>
      <trkpt lat="43.398173" lon="-2.778155">
        <ele>163.1</ele>
        <time>2016-05-21T11:04:44Z</time>
      </trkpt>
      <trkpt lat="43.398308" lon="-2.778231">
        <ele>163.1</ele>
        <time>2016-05-21T11:04:55Z</time>
      </trkpt>
      <trkpt lat="43.398402" lon="-2.778226">
        <ele>163.6</ele>
        <time>2016-05-21T11:05:05Z</time>
      </trkpt>
      <trkpt lat="43.398481" lon="-2.778185">
        <ele>164.0</ele>
        <time>2016-05-21T11:05:12Z</time>
      </trkpt>
      <trkpt lat="43.398603" lon="-2.778098">
        <ele>165.0</ele>
        <time>2016-05-21T11:05:21Z</time>
      </trkpt>
      <trkpt lat="43.398758" lon="-2.777987">
        <ele>167.9</ele>
        <time>2016-05-21T11:05:35Z</time>
      </trkpt>
      <trkpt lat="43.398900" lon="-2.777882">
        <ele>169.3</ele>
        <time>2016-05-21T11:05:49Z</time>
      </trkpt>
      <trkpt lat="43.399003" lon="-2.777811">
        <ele>170.8</ele>
        <time>2016-05-21T11:06:12Z</time>
      </trkpt>
      <trkpt lat="43.399109" lon="-2.777744">
        <ele>172.2</ele>
        <time>2016-05-21T11:06:20Z</time>
      </trkpt>
      <trkpt lat="43.399179" lon="-2.777655">
        <ele>174.1</ele>
        <time>2016-05-21T11:06:28Z</time>
      </trkpt>
      <trkpt lat="43.399187" lon="-2.777645">
        <ele>174.1</ele>
        <time>2016-05-21T11:06:29Z</time>
      </trkpt>
      <trkpt lat="43.399201" lon="-2.777329">
        <ele>176.5</ele>
        <time>2016-05-21T11:06:46Z</time>
      </trkpt>
      <trkpt lat="43.399211" lon="-2.777263">
        <ele>177.5</ele>
        <time>2016-05-21T11:06:54Z</time>
      </trkpt>
      <trkpt lat="43.399211" lon="-2.777155">
        <ele>179.9</ele>
        <time>2016-05-21T11:07:04Z</time>
      </trkpt>
      <trkpt lat="43.399173" lon="-2.776835">
        <ele>181.8</ele>
        <time>2016-05-21T11:07:24Z</time>
      </trkpt>
      <trkpt lat="43.399146" lon="-2.776614">
        <ele>185.2</ele>
        <time>2016-05-21T11:07:38Z</time>
      </trkpt>
      <trkpt lat="43.399080" lon="-2.776491">
        <ele>186.6</ele>
        <time>2016-05-21T11:07:52Z</time>
      </trkpt>
      <trkpt lat="43.399036" lon="-2.776534">
        <ele>187.1</ele>
        <time>2016-05-21T11:08:08Z</time>
      </trkpt>
      <trkpt lat="43.399025" lon="-2.776564">
        <ele>187.6</ele>
        <time>2016-05-21T11:08:24Z</time>
      </trkpt>
      <trkpt lat="43.399040" lon="-2.776506">
        <ele>186.6</ele>
        <time>2016-05-21T11:08:39Z</time>
      </trkpt>
      <trkpt lat="43.399045" lon="-2.776535">
        <ele>186.6</ele>
        <time>2016-05-21T11:08:47Z</time>
      </trkpt>
      <trkpt lat="43.399027" lon="-2.776567">
        <ele>186.6</ele>
        <time>2016-05-21T11:08:50Z</time>
      </trkpt>
      <trkpt lat="43.399013" lon="-2.776624">
        <ele>186.6</ele>
        <time>2016-05-21T11:08:54Z</time>
      </trkpt>
      <trkpt lat="43.398935" lon="-2.776834">
        <ele>188.6</ele>
        <time>2016-05-21T11:09:10Z</time>
      </trkpt>
      <trkpt lat="43.398932" lon="-2.776897">
        <ele>188.1</ele>
        <time>2016-05-21T11:09:14Z</time>
      </trkpt>
      <trkpt lat="43.398925" lon="-2.776926">
        <ele>188.1</ele>
        <time>2016-05-21T11:09:16Z</time>
      </trkpt>
      <trkpt lat="43.398864" lon="-2.777165">
        <ele>189.0</ele>
        <time>2016-05-21T11:09:33Z</time>
      </trkpt>
      <trkpt lat="43.398730" lon="-2.777435">
        <ele>187.6</ele>
        <time>2016-05-21T11:09:51Z</time>
      </trkpt>
      <trkpt lat="43.398580" lon="-2.777656">
        <ele>184.2</ele>
        <time>2016-05-21T11:10:06Z</time>
      </trkpt>
      <trkpt lat="43.398416" lon="-2.777785">
        <ele>184.2</ele>
        <time>2016-05-21T11:10:20Z</time>
      </trkpt>
      <trkpt lat="43.398172" lon="-2.777672">
        <ele>184.2</ele>
        <time>2016-05-21T11:10:38Z</time>
      </trkpt>
      <trkpt lat="43.397927" lon="-2.777633">
        <ele>184.2</ele>
        <time>2016-05-21T11:10:55Z</time>
      </trkpt>
      <trkpt lat="43.397694" lon="-2.777656">
        <ele>184.7</ele>
        <time>2016-05-21T11:11:10Z</time>
      </trkpt>
      <trkpt lat="43.397403" lon="-2.777758">
        <ele>185.2</ele>
        <time>2016-05-21T11:11:29Z</time>
      </trkpt>
      <trkpt lat="43.397177" lon="-2.777680">
        <ele>185.7</ele>
        <time>2016-05-21T11:11:45Z</time>
      </trkpt>
      <trkpt lat="43.396903" lon="-2.777597">
        <ele>186.2</ele>
        <time>2016-05-21T11:12:04Z</time>
      </trkpt>
      <trkpt lat="43.396563" lon="-2.777552">
        <ele>186.2</ele>
        <time>2016-05-21T11:12:26Z</time>
      </trkpt>
      <trkpt lat="43.396292" lon="-2.777415">
        <ele>186.2</ele>
        <time>2016-05-21T11:12:45Z</time>
      </trkpt>
      <trkpt lat="43.396032" lon="-2.777323">
        <ele>186.6</ele>
        <time>2016-05-21T11:13:03Z</time>
      </trkpt>
      <trkpt lat="43.395808" lon="-2.777253">
        <ele>186.6</ele>
        <time>2016-05-21T11:13:19Z</time>
      </trkpt>
      <trkpt lat="43.395589" lon="-2.777168">
        <ele>187.1</ele>
        <time>2016-05-21T11:13:36Z</time>
      </trkpt>
      <trkpt lat="43.395380" lon="-2.777085">
        <ele>187.6</ele>
        <time>2016-05-21T11:13:52Z</time>
      </trkpt>
      <trkpt lat="43.395081" lon="-2.777014">
        <ele>189.5</ele>
        <time>2016-05-21T11:14:13Z</time>
      </trkpt>
      <trkpt lat="43.394821" lon="-2.776917">
        <ele>188.6</ele>
        <time>2016-05-21T11:14:31Z</time>
      </trkpt>
      <trkpt lat="43.394556" lon="-2.776905">
        <ele>189.5</ele>
        <time>2016-05-21T11:14:49Z</time>
      </trkpt>
      <trkpt lat="43.394254" lon="-2.776976">
        <ele>191.0</ele>
        <time>2016-05-21T11:15:11Z</time>
      </trkpt>
      <trkpt lat="43.394005" lon="-2.776964">
        <ele>192.9</ele>
        <time>2016-05-21T11:15:29Z</time>
      </trkpt>
      <trkpt lat="43.393886" lon="-2.776971">
        <ele>193.8</ele>
        <time>2016-05-21T11:15:40Z</time>
      </trkpt>
      <trkpt lat="43.393916" lon="-2.777026">
        <ele>193.4</ele>
        <time>2016-05-21T11:15:47Z</time>
      </trkpt>
      <trkpt lat="43.393878" lon="-2.777005">
        <ele>193.4</ele>
        <time>2016-05-21T11:16:04Z</time>
      </trkpt>
      <trkpt lat="43.393867" lon="-2.777001">
        <ele>193.8</ele>
        <time>2016-05-21T11:16:08Z</time>
      </trkpt>
      <trkpt lat="43.393690" lon="-2.777023">
        <ele>195.3</ele>
        <time>2016-05-21T11:16:25Z</time>
      </trkpt>
      <trkpt lat="43.393585" lon="-2.777109">
        <ele>196.7</ele>
        <time>2016-05-21T11:16:36Z</time>
      </trkpt>
      <trkpt lat="43.393556" lon="-2.777120">
        <ele>197.7</ele>
        <time>2016-05-21T11:16:39Z</time>
      </trkpt>
      <trkpt lat="43.393486" lon="-2.777187">
        <ele>199.1</ele>
        <time>2016-05-21T11:16:49Z</time>
      </trkpt>
      <trkpt lat="43.393440" lon="-2.777183">
        <ele>199.1</ele>
        <time>2016-05-21T11:16:53Z</time>
      </trkpt>
      <trkpt lat="43.393202" lon="-2.777129">
        <ele>201.5</ele>
        <time>2016-05-21T11:17:12Z</time>
      </trkpt>
      <trkpt lat="43.393068" lon="-2.777064">
        <ele>203.5</ele>
        <time>2016-05-21T11:17:23Z</time>
      </trkpt>
      <trkpt lat="43.392970" lon="-2.777001">
        <ele>205.9</ele>
        <time>2016-05-21T11:17:32Z</time>
      </trkpt>
      <trkpt lat="43.392816" lon="-2.776894">
        <ele>206.8</ele>
        <time>2016-05-21T11:17:45Z</time>
      </trkpt>
      <trkpt lat="43.392556" lon="-2.776813">
        <ele>208.7</ele>
        <time>2016-05-21T11:18:05Z</time>
      </trkpt>
      <trkpt lat="43.392315" lon="-2.776767">
        <ele>210.2</ele>
        <time>2016-05-21T11:18:23Z</time>
      </trkpt>
      <trkpt lat="43.392060" lon="-2.776735">
        <ele>212.6</ele>
        <time>2016-05-21T11:18:42Z</time>
      </trkpt>
      <trkpt lat="43.391848" lon="-2.776561">
        <ele>215.0</ele>
        <time>2016-05-21T11:19:01Z</time>
      </trkpt>
      <trkpt lat="43.391677" lon="-2.776290">
        <ele>218.4</ele>
        <time>2016-05-21T11:19:22Z</time>
      </trkpt>
      <trkpt lat="43.391575" lon="-2.776005">
        <ele>221.2</ele>
        <time>2016-05-21T11:19:41Z</time>
      </trkpt>
      <trkpt lat="43.391558" lon="-2.775845">
        <ele>223.2</ele>
        <time>2016-05-21T11:19:52Z</time>
      </trkpt>
      <trkpt lat="43.391528" lon="-2.775604">
        <ele>224.6</ele>
        <time>2016-05-21T11:20:06Z</time>
      </trkpt>
      <trkpt lat="43.391471" lon="-2.775299">
        <ele>224.6</ele>
        <time>2016-05-21T11:20:21Z</time>
      </trkpt>
      <trkpt lat="43.391348" lon="-2.774967">
        <ele>224.1</ele>
        <time>2016-05-21T11:20:39Z</time>
      </trkpt>
      <trkpt lat="43.391169" lon="-2.774749">
        <ele>223.2</ele>
        <time>2016-05-21T11:20:55Z</time>
      </trkpt>
      <trkpt lat="43.391029" lon="-2.774965">
        <ele>223.2</ele>
        <time>2016-05-21T11:21:11Z</time>
      </trkpt>
      <trkpt lat="43.391021" lon="-2.775185">
        <ele>226.5</ele>
        <time>2016-05-21T11:21:23Z</time>
      </trkpt>
      <trkpt lat="43.390861" lon="-2.775321">
        <ele>227.5</ele>
        <time>2016-05-21T11:21:40Z</time>
      </trkpt>
      <trkpt lat="43.390717" lon="-2.775278">
        <ele>230.9</ele>
        <time>2016-05-21T11:21:51Z</time>
      </trkpt>
      <trkpt lat="43.390408" lon="-2.775273">
        <ele>233.3</ele>
        <time>2016-05-21T11:22:14Z</time>
      </trkpt>
      <trkpt lat="43.390152" lon="-2.775223">
        <ele>236.6</ele>
        <time>2016-05-21T11:22:34Z</time>
      </trkpt>
      <trkpt lat="43.390112" lon="-2.775150">
        <ele>236.6</ele>
        <time>2016-05-21T11:22:50Z</time>
      </trkpt>
      <trkpt lat="43.390102" lon="-2.775162">
        <ele>236.6</ele>
        <time>2016-05-21T11:23:07Z</time>
      </trkpt>
      <trkpt lat="43.390114" lon="-2.775159">
        <ele>236.6</ele>
        <time>2016-05-21T11:23:14Z</time>
      </trkpt>
      <trkpt lat="43.390303" lon="-2.775108">
        <ele>238.5</ele>
        <time>2016-05-21T11:23:30Z</time>
      </trkpt>
      <trkpt lat="43.390495" lon="-2.774930">
        <ele>240.9</ele>
        <time>2016-05-21T11:23:49Z</time>
      </trkpt>
      <trkpt lat="43.390491" lon="-2.774903">
        <ele>241.4</ele>
        <time>2016-05-21T11:23:51Z</time>
      </trkpt>
      <trkpt lat="43.390302" lon="-2.774743">
        <ele>244.3</ele>
        <time>2016-05-21T11:24:09Z</time>
      </trkpt>
      <trkpt lat="43.390152" lon="-2.774579">
        <ele>247.7</ele>
        <time>2016-05-21T11:24:24Z</time>
      </trkpt>
      <trkpt lat="43.390024" lon="-2.774442">
        <ele>250.1</ele>
        <time>2016-05-21T11:24:39Z</time>
      </trkpt>
      <trkpt lat="43.389919" lon="-2.774269">
        <ele>253.4</ele>
        <time>2016-05-21T11:24:55Z</time>
      </trkpt>
      <trkpt lat="43.389899" lon="-2.774250">
        <ele>253.4</ele>
        <time>2016-05-21T11:24:57Z</time>
      </trkpt>
      <trkpt lat="43.389829" lon="-2.774248">
        <ele>253.4</ele>
        <time>2016-05-21T11:25:04Z</time>
      </trkpt>
      <trkpt lat="43.389802" lon="-2.774223">
        <ele>254.9</ele>
        <time>2016-05-21T11:25:07Z</time>
      </trkpt>
      <trkpt lat="43.389663" lon="-2.774097">
        <ele>256.3</ele>
        <time>2016-05-21T11:25:23Z</time>
      </trkpt>
      <trkpt lat="43.389618" lon="-2.774027">
        <ele>257.3</ele>
        <time>2016-05-21T11:25:29Z</time>
      </trkpt>
      <trkpt lat="43.389645" lon="-2.773991">
        <ele>256.8</ele>
        <time>2016-05-21T11:25:33Z</time>
      </trkpt>
      <trkpt lat="43.389688" lon="-2.773970">
        <ele>259.2</ele>
        <time>2016-05-21T11:25:40Z</time>
      </trkpt>
      <trkpt lat="43.389737" lon="-2.773894">
        <ele>260.7</ele>
        <time>2016-05-21T11:25:55Z</time>
      </trkpt>
      <trkpt lat="43.389861" lon="-2.773862">
        <ele>262.6</ele>
        <time>2016-05-21T11:26:08Z</time>
      </trkpt>
      <trkpt lat="43.389938" lon="-2.773858">
        <ele>262.6</ele>
        <time>2016-05-21T11:26:12Z</time>
      </trkpt>
      <trkpt lat="43.390140" lon="-2.773775">
        <ele>265.5</ele>
        <time>2016-05-21T11:26:28Z</time>
      </trkpt>
      <trkpt lat="43.390266" lon="-2.773701">
        <ele>268.8</ele>
        <time>2016-05-21T11:26:44Z</time>
      </trkpt>
      <trkpt lat="43.390270" lon="-2.773695">
        <ele>268.3</ele>
        <time>2016-05-21T11:26:46Z</time>
      </trkpt>
      <trkpt lat="43.390262" lon="-2.773668">
        <ele>269.3</ele>
        <time>2016-05-21T11:26:53Z</time>
      </trkpt>
      <trkpt lat="43.390337" lon="-2.773576">
        <ele>270.7</ele>
        <time>2016-05-21T11:27:05Z</time>
      </trkpt>
      <trkpt lat="43.390375" lon="-2.773514">
        <ele>272.2</ele>
        <time>2016-05-21T11:27:11Z</time>
      </trkpt>
      <trkpt lat="43.390369" lon="-2.773461">
        <ele>274.1</ele>
        <time>2016-05-21T11:27:15Z</time>
      </trkpt>
      <trkpt lat="43.390361" lon="-2.773454">
        <ele>274.6</ele>
        <time>2016-05-21T11:27:16Z</time>
      </trkpt>
      <trkpt lat="43.390218" lon="-2.773413">
        <ele>278.0</ele>
        <time>2016-05-21T11:27:31Z</time>
      </trkpt>
      <trkpt lat="43.390105" lon="-2.773336">
        <ele>280.8</ele>
        <time>2016-05-21T11:27:44Z</time>
      </trkpt>
      <trkpt lat="43.390088" lon="-2.773262">
        <ele>283.7</ele>
        <time>2016-05-21T11:27:53Z</time>
      </trkpt>
      <trkpt lat="43.390098" lon="-2.773220">
        <ele>284.7</ele>
        <time>2016-05-21T11:27:59Z</time>
      </trkpt>
      <trkpt lat="43.390110" lon="-2.773009">
        <ele>287.1</ele>
        <time>2016-05-21T11:28:16Z</time>
      </trkpt>
      <trkpt lat="43.390082" lon="-2.772908">
        <ele>290.5</ele>
        <time>2016-05-21T11:28:28Z</time>
      </trkpt>
      <trkpt lat="43.390051" lon="-2.772872">
        <ele>292.9</ele>
        <time>2016-05-21T11:28:36Z</time>
      </trkpt>
      <trkpt lat="43.390019" lon="-2.772823">
        <ele>295.3</ele>
        <time>2016-05-21T11:28:44Z</time>
      </trkpt>
      <trkpt lat="43.389946" lon="-2.772711">
        <ele>298.1</ele>
        <time>2016-05-21T11:28:58Z</time>
      </trkpt>
      <trkpt lat="43.389858" lon="-2.772594">
        <ele>300.5</ele>
        <time>2016-05-21T11:29:12Z</time>
      </trkpt>
      <trkpt lat="43.389786" lon="-2.772458">
        <ele>303.9</ele>
        <time>2016-05-21T11:29:25Z</time>
      </trkpt>
      <trkpt lat="43.389767" lon="-2.772346">
        <ele>307.3</ele>
        <time>2016-05-21T11:29:36Z</time>
      </trkpt>
      <trkpt lat="43.389727" lon="-2.772237">
        <ele>308.2</ele>
        <time>2016-05-21T11:29:47Z</time>
      </trkpt>
      <trkpt lat="43.389682" lon="-2.772187">
        <ele>308.7</ele>
        <time>2016-05-21T11:29:53Z</time>
      </trkpt>
      <trkpt lat="43.389676" lon="-2.772162">
        <ele>308.7</ele>
        <time>2016-05-21T11:29:55Z</time>
      </trkpt>
      <trkpt lat="43.389679" lon="-2.771932">
        <ele>312.1</ele>
        <time>2016-05-21T11:30:12Z</time>
      </trkpt>
      <trkpt lat="43.389575" lon="-2.771598">
        <ele>315.0</ele>
        <time>2016-05-21T11:30:35Z</time>
      </trkpt>
      <trkpt lat="43.389506" lon="-2.771496">
        <ele>317.9</ele>
        <time>2016-05-21T11:30:44Z</time>
      </trkpt>
      <trkpt lat="43.389333" lon="-2.771286">
        <ele>320.7</ele>
        <time>2016-05-21T11:31:02Z</time>
      </trkpt>
      <trkpt lat="43.389221" lon="-2.771128">
        <ele>319.8</ele>
        <time>2016-05-21T11:31:16Z</time>
      </trkpt>
      <trkpt lat="43.389105" lon="-2.770986">
        <ele>317.9</ele>
        <time>2016-05-21T11:31:30Z</time>
      </trkpt>
      <trkpt lat="43.389012" lon="-2.770865">
        <ele>318.3</ele>
        <time>2016-05-21T11:31:42Z</time>
      </trkpt>
      <trkpt lat="43.388994" lon="-2.770825">
        <ele>318.3</ele>
        <time>2016-05-21T11:31:45Z</time>
      </trkpt>
      <trkpt lat="43.388991" lon="-2.770785">
        <ele>318.8</ele>
        <time>2016-05-21T11:31:47Z</time>
      </trkpt>
      <trkpt lat="43.388922" lon="-2.770515">
        <ele>320.7</ele>
        <time>2016-05-21T11:32:03Z</time>
      </trkpt>
      <trkpt lat="43.388890" lon="-2.770368">
        <ele>324.1</ele>
        <time>2016-05-21T11:32:16Z</time>
      </trkpt>
      <trkpt lat="43.388815" lon="-2.770251">
        <ele>325.1</ele>
        <time>2016-05-21T11:32:34Z</time>
      </trkpt>
      <trkpt lat="43.388801" lon="-2.770248">
        <ele>325.1</ele>
        <time>2016-05-21T11:32:42Z</time>
      </trkpt>
      <trkpt lat="43.388794" lon="-2.770269">
        <ele>324.6</ele>
        <time>2016-05-21T11:32:44Z</time>
      </trkpt>
      <trkpt lat="43.388795" lon="-2.770226">
        <ele>324.6</ele>
        <time>2016-05-21T11:32:58Z</time>
      </trkpt>
      <trkpt lat="43.388785" lon="-2.770232">
        <ele>324.6</ele>
        <time>2016-05-21T11:33:25Z</time>
      </trkpt>
      <trkpt lat="43.388773" lon="-2.770280">
        <ele>324.6</ele>
        <time>2016-05-21T11:33:49Z</time>
      </trkpt>
      <trkpt lat="43.388685" lon="-2.770536">
        <ele>324.6</ele>
        <time>2016-05-21T11:34:05Z</time>
      </trkpt>
      <trkpt lat="43.388593" lon="-2.770580">
        <ele>324.6</ele>
        <time>2016-05-21T11:34:22Z</time>
      </trkpt>
      <trkpt lat="43.388589" lon="-2.770577">
        <ele>324.1</ele>
        <time>2016-05-21T11:34:31Z</time>
      </trkpt>
      <trkpt lat="43.388579" lon="-2.770499">
        <ele>325.1</ele>
        <time>2016-05-21T11:34:35Z</time>
      </trkpt>
      <trkpt lat="43.388547" lon="-2.770239">
        <ele>328.4</ele>
        <time>2016-05-21T11:34:49Z</time>
      </trkpt>
      <trkpt lat="43.388515" lon="-2.770202">
        <ele>328.9</ele>
        <time>2016-05-21T11:34:54Z</time>
      </trkpt>
      <trkpt lat="43.388398" lon="-2.770262">
        <ele>332.3</ele>
        <time>2016-05-21T11:35:09Z</time>
      </trkpt>
      <trkpt lat="43.388221" lon="-2.770454">
        <ele>333.7</ele>
        <time>2016-05-21T11:35:27Z</time>
      </trkpt>
      <trkpt lat="43.387984" lon="-2.770658">
        <ele>333.7</ele>
        <time>2016-05-21T11:35:47Z</time>
      </trkpt>
      <trkpt lat="43.387867" lon="-2.770622">
        <ele>334.2</ele>
        <time>2016-05-21T11:35:57Z</time>
      </trkpt>
      <trkpt lat="43.387760" lon="-2.770460">
        <ele>337.1</ele>
        <time>2016-05-21T11:36:12Z</time>
      </trkpt>
      <trkpt lat="43.387720" lon="-2.770414">
        <ele>338.0</ele>
        <time>2016-05-21T11:36:17Z</time>
      </trkpt>
      <trkpt lat="43.387563" lon="-2.770308">
        <ele>341.4</ele>
        <time>2016-05-21T11:36:33Z</time>
      </trkpt>
      <trkpt lat="43.387429" lon="-2.770184">
        <ele>344.8</ele>
        <time>2016-05-21T11:36:48Z</time>
      </trkpt>
      <trkpt lat="43.387357" lon="-2.770147">
        <ele>346.2</ele>
        <time>2016-05-21T11:36:55Z</time>
      </trkpt>
      <trkpt lat="43.387148" lon="-2.770024">
        <ele>348.6</ele>
        <time>2016-05-21T11:37:14Z</time>
      </trkpt>
      <trkpt lat="43.386970" lon="-2.769916">
        <ele>351.5</ele>
        <time>2016-05-21T11:37:31Z</time>
      </trkpt>
      <trkpt lat="43.386825" lon="-2.769829">
        <ele>354.9</ele>
        <time>2016-05-21T11:37:45Z</time>
      </trkpt>
      <trkpt lat="43.386696" lon="-2.769771">
        <ele>357.7</ele>
        <time>2016-05-21T11:37:57Z</time>
      </trkpt>
      <trkpt lat="43.386520" lon="-2.769742">
        <ele>361.1</ele>
        <time>2016-05-21T11:38:12Z</time>
      </trkpt>
      <trkpt lat="43.386494" lon="-2.769738">
        <ele>360.6</ele>
        <time>2016-05-21T11:38:14Z</time>
      </trkpt>
      <trkpt lat="43.386384" lon="-2.769732">
        <ele>361.1</ele>
        <time>2016-05-21T11:38:23Z</time>
      </trkpt>
      <trkpt lat="43.386317" lon="-2.769663">
        <ele>363.5</ele>
        <time>2016-05-21T11:38:39Z</time>
      </trkpt>
      <trkpt lat="43.386348" lon="-2.769601">
        <ele>364.0</ele>
        <time>2016-05-21T11:39:05Z</time>
      </trkpt>
      <trkpt lat="43.386360" lon="-2.769584">
        <ele>364.5</ele>
        <time>2016-05-21T11:39:07Z</time>
      </trkpt>
      <trkpt lat="43.386476" lon="-2.769426">
        <ele>366.4</ele>
        <time>2016-05-21T11:39:23Z</time>
      </trkpt>
      <trkpt lat="43.386529" lon="-2.769181">
        <ele>369.3</ele>
        <time>2016-05-21T11:39:41Z</time>
      </trkpt>
      <trkpt lat="43.386514" lon="-2.768965">
        <ele>372.6</ele>
        <time>2016-05-21T11:39:56Z</time>
      </trkpt>
      <trkpt lat="43.386438" lon="-2.768743">
        <ele>376.5</ele>
        <time>2016-05-21T11:40:13Z</time>
      </trkpt>
      <trkpt lat="43.386403" lon="-2.768575">
        <ele>379.4</ele>
        <time>2016-05-21T11:40:25Z</time>
      </trkpt>
      <trkpt lat="43.386373" lon="-2.768303">
        <ele>382.7</ele>
        <time>2016-05-21T11:40:43Z</time>
      </trkpt>
      <trkpt lat="43.386356" lon="-2.767988">
        <ele>386.1</ele>
        <time>2016-05-21T11:41:02Z</time>
      </trkpt>
      <trkpt lat="43.386400" lon="-2.767724">
        <ele>388.5</ele>
        <time>2016-05-21T11:41:19Z</time>
      </trkpt>
      <trkpt lat="43.386413" lon="-2.767478">
        <ele>391.9</ele>
        <time>2016-05-21T11:41:35Z</time>
      </trkpt>
      <trkpt lat="43.386394" lon="-2.767260">
        <ele>393.3</ele>
        <time>2016-05-21T11:41:51Z</time>
      </trkpt>
      <trkpt lat="43.386371" lon="-2.767206">
        <ele>395.7</ele>
        <time>2016-05-21T11:41:56Z</time>
      </trkpt>
      <trkpt lat="43.386360" lon="-2.767176">
        <ele>396.7</ele>
        <time>2016-05-21T11:41:59Z</time>
      </trkpt>
      <trkpt lat="43.386329" lon="-2.767017">
        <ele>399.6</ele>
        <time>2016-05-21T11:42:12Z</time>
      </trkpt>
      <trkpt lat="43.386320" lon="-2.766826">
        <ele>402.9</ele>
        <time>2016-05-21T11:42:27Z</time>
      </trkpt>
      <trkpt lat="43.386296" lon="-2.766672">
        <ele>405.8</ele>
        <time>2016-05-21T11:42:43Z</time>
      </trkpt>
      <trkpt lat="43.386248" lon="-2.766600">
        <ele>409.2</ele>
        <time>2016-05-21T11:42:54Z</time>
      </trkpt>
      <trkpt lat="43.386194" lon="-2.766591">
        <ele>409.2</ele>
        <time>2016-05-21T11:43:02Z</time>
      </trkpt>
      <trkpt lat="43.386101" lon="-2.766541">
        <ele>411.6</ele>
        <time>2016-05-21T11:43:15Z</time>
      </trkpt>
      <trkpt lat="43.386078" lon="-2.766530">
        <ele>411.6</ele>
        <time>2016-05-21T11:43:18Z</time>
      </trkpt>
      <trkpt lat="43.386038" lon="-2.766469">
        <ele>413.5</ele>
        <time>2016-05-21T11:43:26Z</time>
      </trkpt>
      <trkpt lat="43.385978" lon="-2.766347">
        <ele>415.9</ele>
        <time>2016-05-21T11:43:40Z</time>
      </trkpt>
      <trkpt lat="43.385938" lon="-2.766222">
        <ele>419.3</ele>
        <time>2016-05-21T11:43:54Z</time>
      </trkpt>
      <trkpt lat="43.385905" lon="-2.766102">
        <ele>420.2</ele>
        <time>2016-05-21T11:44:09Z</time>
      </trkpt>
      <trkpt lat="43.385858" lon="-2.766039">
        <ele>421.7</ele>
        <time>2016-05-21T11:44:18Z</time>
      </trkpt>
      <trkpt lat="43.385796" lon="-2.765861">
        <ele>424.6</ele>
        <time>2016-05-21T11:44:34Z</time>
      </trkpt>
      <trkpt lat="43.385813" lon="-2.765833">
        <ele>424.6</ele>
        <time>2016-05-21T11:44:37Z</time>
      </trkpt>
      <trkpt lat="43.385908" lon="-2.765714">
        <ele>425.5</ele>
        <time>2016-05-21T11:44:51Z</time>
      </trkpt>
      <trkpt lat="43.385985" lon="-2.765567">
        <ele>426.5</ele>
        <time>2016-05-21T11:45:09Z</time>
      </trkpt>
      <trkpt lat="43.386000" lon="-2.765540">
        <ele>427.0</ele>
        <time>2016-05-21T11:45:11Z</time>
      </trkpt>
      <trkpt lat="43.386048" lon="-2.765428">
        <ele>427.4</ele>
        <time>2016-05-21T11:45:19Z</time>
      </trkpt>
      <trkpt lat="43.386079" lon="-2.765350">
        <ele>427.9</ele>
        <time>2016-05-21T11:45:24Z</time>
      </trkpt>
      <trkpt lat="43.386021" lon="-2.765325">
        <ele>428.4</ele>
        <time>2016-05-21T11:45:32Z</time>
      </trkpt>
      <trkpt lat="43.385867" lon="-2.765377">
        <ele>429.4</ele>
        <time>2016-05-21T11:45:44Z</time>
      </trkpt>
      <trkpt lat="43.385656" lon="-2.765435">
        <ele>432.2</ele>
        <time>2016-05-21T11:46:02Z</time>
      </trkpt>
      <trkpt lat="43.385419" lon="-2.765463">
        <ele>435.1</ele>
        <time>2016-05-21T11:46:21Z</time>
      </trkpt>
      <trkpt lat="43.385252" lon="-2.765366">
        <ele>436.6</ele>
        <time>2016-05-21T11:46:36Z</time>
      </trkpt>
      <trkpt lat="43.385112" lon="-2.765320">
        <ele>437.5</ele>
        <time>2016-05-21T11:46:47Z</time>
      </trkpt>
      <trkpt lat="43.385091" lon="-2.765303">
        <ele>437.5</ele>
        <time>2016-05-21T11:46:50Z</time>
      </trkpt>
      <trkpt lat="43.385029" lon="-2.765322">
        <ele>437.5</ele>
        <time>2016-05-21T11:46:54Z</time>
      </trkpt>
      <trkpt lat="43.384826" lon="-2.765390">
        <ele>437.1</ele>
        <time>2016-05-21T11:47:11Z</time>
      </trkpt>
      <trkpt lat="43.384757" lon="-2.765426">
        <ele>437.1</ele>
        <time>2016-05-21T11:47:16Z</time>
      </trkpt>
      <trkpt lat="43.384602" lon="-2.765638">
        <ele>438.5</ele>
        <time>2016-05-21T11:47:33Z</time>
      </trkpt>
      <trkpt lat="43.384601" lon="-2.765705">
        <ele>439.0</ele>
        <time>2016-05-21T11:47:37Z</time>
      </trkpt>
      <trkpt lat="43.384583" lon="-2.765949">
        <ele>440.4</ele>
        <time>2016-05-21T11:47:53Z</time>
      </trkpt>
      <trkpt lat="43.384445" lon="-2.766000">
        <ele>443.3</ele>
        <time>2016-05-21T11:48:07Z</time>
      </trkpt>
      <trkpt lat="43.384437" lon="-2.765997">
        <ele>443.3</ele>
        <time>2016-05-21T11:48:08Z</time>
      </trkpt>
      <trkpt lat="43.384341" lon="-2.765949">
        <ele>445.2</ele>
        <time>2016-05-21T11:48:18Z</time>
      </trkpt>
      <trkpt lat="43.384167" lon="-2.765871">
        <ele>447.6</ele>
        <time>2016-05-21T11:48:33Z</time>
      </trkpt>
      <trkpt lat="43.384001" lon="-2.765792">
        <ele>451.0</ele>
        <time>2016-05-21T11:48:46Z</time>
      </trkpt>
      <trkpt lat="43.383919" lon="-2.765765">
        <ele>452.9</ele>
        <time>2016-05-21T11:48:53Z</time>
      </trkpt>
      <trkpt lat="43.383740" lon="-2.765690">
        <ele>455.8</ele>
        <time>2016-05-21T11:49:09Z</time>
      </trkpt>
      <trkpt lat="43.383551" lon="-2.765603">
        <ele>457.7</ele>
        <time>2016-05-21T11:49:26Z</time>
      </trkpt>
      <trkpt lat="43.383432" lon="-2.765527">
        <ele>460.6</ele>
        <time>2016-05-21T11:49:39Z</time>
      </trkpt>
      <trkpt lat="43.383307" lon="-2.765475">
        <ele>460.6</ele>
        <time>2016-05-21T11:49:52Z</time>
      </trkpt>
      <trkpt lat="43.383207" lon="-2.765571">
        <ele>460.6</ele>
        <time>2016-05-21T11:50:03Z</time>
      </trkpt>
      <trkpt lat="43.383128" lon="-2.765663">
        <ele>460.6</ele>
        <time>2016-05-21T11:50:15Z</time>
      </trkpt>
      <trkpt lat="43.382966" lon="-2.765829">
        <ele>459.2</ele>
        <time>2016-05-21T11:50:30Z</time>
      </trkpt>
      <trkpt lat="43.382844" lon="-2.765957">
        <ele>458.7</ele>
        <time>2016-05-21T11:50:43Z</time>
      </trkpt>
      <trkpt lat="43.382670" lon="-2.766108">
        <ele>458.2</ele>
        <time>2016-05-21T11:50:58Z</time>
      </trkpt>
      <trkpt lat="43.382465" lon="-2.766197">
        <ele>456.3</ele>
        <time>2016-05-21T11:51:13Z</time>
      </trkpt>
      <trkpt lat="43.382213" lon="-2.766173">
        <ele>456.3</ele>
        <time>2016-05-21T11:51:31Z</time>
      </trkpt>
      <trkpt lat="43.382010" lon="-2.766042">
        <ele>456.3</ele>
        <time>2016-05-21T11:51:47Z</time>
      </trkpt>
      <trkpt lat="43.381927" lon="-2.765936">
        <ele>456.8</ele>
        <time>2016-05-21T11:51:55Z</time>
      </trkpt>
      <trkpt lat="43.381754" lon="-2.765683">
        <ele>457.2</ele>
        <time>2016-05-21T11:52:13Z</time>
      </trkpt>
      <trkpt lat="43.381746" lon="-2.765674">
        <ele>457.2</ele>
        <time>2016-05-21T11:52:14Z</time>
      </trkpt>
      <trkpt lat="43.381595" lon="-2.765770">
        <ele>459.2</ele>
        <time>2016-05-21T11:52:29Z</time>
      </trkpt>
      <trkpt lat="43.381495" lon="-2.765953">
        <ele>460.1</ele>
        <time>2016-05-21T11:52:42Z</time>
      </trkpt>
      <trkpt lat="43.381357" lon="-2.766167">
        <ele>462.5</ele>
        <time>2016-05-21T11:52:58Z</time>
      </trkpt>
      <trkpt lat="43.381202" lon="-2.766260">
        <ele>463.5</ele>
        <time>2016-05-21T11:53:12Z</time>
      </trkpt>
      <trkpt lat="43.380997" lon="-2.766373">
        <ele>465.9</ele>
        <time>2016-05-21T11:53:30Z</time>
      </trkpt>
      <trkpt lat="43.380842" lon="-2.766551">
        <ele>467.8</ele>
        <time>2016-05-21T11:53:45Z</time>
      </trkpt>
      <trkpt lat="43.380669" lon="-2.766739">
        <ele>469.7</ele>
        <time>2016-05-21T11:54:03Z</time>
      </trkpt>
      <trkpt lat="43.380544" lon="-2.766923">
        <ele>470.7</ele>
        <time>2016-05-21T11:54:17Z</time>
      </trkpt>
      <trkpt lat="43.380541" lon="-2.766942">
        <ele>470.7</ele>
        <time>2016-05-21T11:54:18Z</time>
      </trkpt>
      <trkpt lat="43.380419" lon="-2.767096">
        <ele>472.1</ele>
        <time>2016-05-21T11:54:31Z</time>
      </trkpt>
      <trkpt lat="43.380306" lon="-2.767367">
        <ele>474.1</ele>
        <time>2016-05-21T11:54:49Z</time>
      </trkpt>
      <trkpt lat="43.380172" lon="-2.767583">
        <ele>476.5</ele>
        <time>2016-05-21T11:55:05Z</time>
      </trkpt>
      <trkpt lat="43.380129" lon="-2.767644">
        <ele>477.0</ele>
        <time>2016-05-21T11:55:10Z</time>
      </trkpt>
      <trkpt lat="43.379967" lon="-2.767802">
        <ele>478.9</ele>
        <time>2016-05-21T11:55:26Z</time>
      </trkpt>
      <trkpt lat="43.379726" lon="-2.767956">
        <ele>481.3</ele>
        <time>2016-05-21T11:55:44Z</time>
      </trkpt>
      <trkpt lat="43.379564" lon="-2.768017">
        <ele>482.7</ele>
        <time>2016-05-21T11:55:58Z</time>
      </trkpt>
      <trkpt lat="43.379532" lon="-2.768022">
        <ele>482.7</ele>
        <time>2016-05-21T11:56:00Z</time>
      </trkpt>
      <trkpt lat="43.379414" lon="-2.768235">
        <ele>483.2</ele>
        <time>2016-05-21T11:56:16Z</time>
      </trkpt>
      <trkpt lat="43.379312" lon="-2.768468">
        <ele>481.3</ele>
        <time>2016-05-21T11:56:30Z</time>
      </trkpt>
      <trkpt lat="43.379258" lon="-2.768586">
        <ele>480.3</ele>
        <time>2016-05-21T11:56:38Z</time>
      </trkpt>
      <trkpt lat="43.379213" lon="-2.768606">
        <ele>480.3</ele>
        <time>2016-05-21T11:56:43Z</time>
      </trkpt>
      <trkpt lat="43.379152" lon="-2.768558">
        <ele>482.7</ele>
        <time>2016-05-21T11:56:55Z</time>
      </trkpt>
      <trkpt lat="43.379082" lon="-2.768510">
        <ele>485.6</ele>
        <time>2016-05-21T11:57:05Z</time>
      </trkpt>
      <trkpt lat="43.379001" lon="-2.768438">
        <ele>488.5</ele>
        <time>2016-05-21T11:57:21Z</time>
      </trkpt>
      <trkpt lat="43.378989" lon="-2.768396">
        <ele>488.5</ele>
        <time>2016-05-21T11:57:40Z</time>
      </trkpt>
      <trkpt lat="43.378944" lon="-2.768336">
        <ele>491.9</ele>
        <time>2016-05-21T11:57:55Z</time>
      </trkpt>
      <trkpt lat="43.378893" lon="-2.768294">
        <ele>495.2</ele>
        <time>2016-05-21T11:58:06Z</time>
      </trkpt>
      <trkpt lat="43.378879" lon="-2.768269">
        <ele>495.7</ele>
        <time>2016-05-21T11:58:10Z</time>
      </trkpt>
      <trkpt lat="43.378849" lon="-2.768203">
        <ele>499.1</ele>
        <time>2016-05-21T11:58:23Z</time>
      </trkpt>
      <trkpt lat="43.378809" lon="-2.768151">
        <ele>501.9</ele>
        <time>2016-05-21T11:58:36Z</time>
      </trkpt>
      <trkpt lat="43.378770" lon="-2.768098">
        <ele>505.8</ele>
        <time>2016-05-21T11:58:45Z</time>
      </trkpt>
      <trkpt lat="43.378762" lon="-2.768094">
        <ele>505.8</ele>
        <time>2016-05-21T11:58:46Z</time>
      </trkpt>
      <trkpt lat="43.378703" lon="-2.767997">
        <ele>507.7</ele>
        <time>2016-05-21T11:58:59Z</time>
      </trkpt>
      <trkpt lat="43.378636" lon="-2.767920">
        <ele>511.1</ele>
        <time>2016-05-21T11:59:10Z</time>
      </trkpt>
      <trkpt lat="43.378561" lon="-2.767842">
        <ele>514.4</ele>
        <time>2016-05-21T11:59:24Z</time>
      </trkpt>
      <trkpt lat="43.378463" lon="-2.767753">
        <ele>515.9</ele>
        <time>2016-05-21T11:59:39Z</time>
      </trkpt>
      <trkpt lat="43.378379" lon="-2.767677">
        <ele>518.8</ele>
        <time>2016-05-21T11:59:52Z</time>
      </trkpt>
      <trkpt lat="43.378286" lon="-2.767603">
        <ele>522.1</ele>
        <time>2016-05-21T12:00:07Z</time>
      </trkpt>
      <trkpt lat="43.378195" lon="-2.767508">
        <ele>525.5</ele>
        <time>2016-05-21T12:00:22Z</time>
      </trkpt>
      <trkpt lat="43.378109" lon="-2.767406">
        <ele>528.9</ele>
        <time>2016-05-21T12:00:37Z</time>
      </trkpt>
      <trkpt lat="43.377997" lon="-2.767296">
        <ele>532.2</ele>
        <time>2016-05-21T12:00:54Z</time>
      </trkpt>
      <trkpt lat="43.377907" lon="-2.767207">
        <ele>535.6</ele>
        <time>2016-05-21T12:01:08Z</time>
      </trkpt>
      <trkpt lat="43.377840" lon="-2.767121">
        <ele>539.4</ele>
        <time>2016-05-21T12:01:22Z</time>
      </trkpt>
      <trkpt lat="43.377836" lon="-2.767112">
        <ele>539.4</ele>
        <time>2016-05-21T12:01:23Z</time>
      </trkpt>
      <trkpt lat="43.377785" lon="-2.767033">
        <ele>541.8</ele>
        <time>2016-05-21T12:01:36Z</time>
      </trkpt>
      <trkpt lat="43.377722" lon="-2.766942">
        <ele>544.7</ele>
        <time>2016-05-21T12:01:51Z</time>
      </trkpt>
      <trkpt lat="43.377673" lon="-2.766835">
        <ele>548.1</ele>
        <time>2016-05-21T12:02:03Z</time>
      </trkpt>
      <trkpt lat="43.377628" lon="-2.766758">
        <ele>550.0</ele>
        <time>2016-05-21T12:02:12Z</time>
      </trkpt>
      <trkpt lat="43.377521" lon="-2.766625">
        <ele>551.9</ele>
        <time>2016-05-21T12:02:29Z</time>
      </trkpt>
      <trkpt lat="43.377436" lon="-2.766582">
        <ele>555.3</ele>
        <time>2016-05-21T12:02:41Z</time>
      </trkpt>
      <trkpt lat="43.377379" lon="-2.766567">
        <ele>557.2</ele>
        <time>2016-05-21T12:02:48Z</time>
      </trkpt>
      <trkpt lat="43.377222" lon="-2.766520">
        <ele>559.6</ele>
        <time>2016-05-21T12:03:06Z</time>
      </trkpt>
      <trkpt lat="43.377191" lon="-2.766501">
        <ele>559.6</ele>
        <time>2016-05-21T12:03:10Z</time>
      </trkpt>
      <trkpt lat="43.377053" lon="-2.766405">
        <ele>563.5</ele>
        <time>2016-05-21T12:03:26Z</time>
      </trkpt>
      <trkpt lat="43.376983" lon="-2.766357">
        <ele>566.4</ele>
        <time>2016-05-21T12:03:35Z</time>
      </trkpt>
      <trkpt lat="43.376858" lon="-2.766310">
        <ele>569.7</ele>
        <time>2016-05-21T12:03:52Z</time>
      </trkpt>
      <trkpt lat="43.376806" lon="-2.766286">
        <ele>573.1</ele>
        <time>2016-05-21T12:04:00Z</time>
      </trkpt>
      <trkpt lat="43.376693" lon="-2.766264">
        <ele>576.4</ele>
        <time>2016-05-21T12:04:15Z</time>
      </trkpt>
      <trkpt lat="43.376682" lon="-2.766266">
        <ele>576.9</ele>
        <time>2016-05-21T12:04:16Z</time>
      </trkpt>
      <trkpt lat="43.376562" lon="-2.766240">
        <ele>579.8</ele>
        <time>2016-05-21T12:04:31Z</time>
      </trkpt>
      <trkpt lat="43.376441" lon="-2.766182">
        <ele>582.7</ele>
        <time>2016-05-21T12:04:48Z</time>
      </trkpt>
      <trkpt lat="43.376365" lon="-2.766153">
        <ele>585.6</ele>
        <time>2016-05-21T12:04:58Z</time>
      </trkpt>
      <trkpt lat="43.376220" lon="-2.766069">
        <ele>587.0</ele>
        <time>2016-05-21T12:05:17Z</time>
      </trkpt>
      <trkpt lat="43.376269" lon="-2.765924">
        <ele>589.4</ele>
        <time>2016-05-21T12:05:32Z</time>
      </trkpt>
      <trkpt lat="43.376338" lon="-2.765690">
        <ele>589.9</ele>
        <time>2016-05-21T12:05:50Z</time>
      </trkpt>
      <trkpt lat="43.376332" lon="-2.765687">
        <ele>588.9</ele>
        <time>2016-05-21T12:05:51Z</time>
      </trkpt>
      <trkpt lat="43.376325" lon="-2.765638">
        <ele>588.9</ele>
        <time>2016-05-21T12:05:58Z</time>
      </trkpt>
      <trkpt lat="43.376361" lon="-2.765536">
        <ele>588.0</ele>
        <time>2016-05-21T12:06:05Z</time>
      </trkpt>
      <trkpt lat="43.376464" lon="-2.765322">
        <ele>587.0</ele>
        <time>2016-05-21T12:06:23Z</time>
      </trkpt>
      <trkpt lat="43.376486" lon="-2.765301">
        <ele>587.0</ele>
        <time>2016-05-21T12:06:26Z</time>
      </trkpt>
      <trkpt lat="43.376531" lon="-2.765249">
        <ele>586.5</ele>
        <time>2016-05-21T12:06:46Z</time>
      </trkpt>
      <trkpt lat="43.376582" lon="-2.765206">
        <ele>586.5</ele>
        <time>2016-05-21T12:07:02Z</time>
      </trkpt>
      <trkpt lat="43.376581" lon="-2.765100">
        <ele>588.5</ele>
        <time>2016-05-21T12:07:13Z</time>
      </trkpt>
      <trkpt lat="43.376558" lon="-2.764988">
        <ele>591.8</ele>
        <time>2016-05-21T12:07:25Z</time>
      </trkpt>
      <trkpt lat="43.376546" lon="-2.764931">
        <ele>593.3</ele>
        <time>2016-05-21T12:07:31Z</time>
      </trkpt>
      <trkpt lat="43.376504" lon="-2.764831">
        <ele>595.2</ele>
        <time>2016-05-21T12:07:44Z</time>
      </trkpt>
      <trkpt lat="43.376529" lon="-2.764745">
        <ele>597.1</ele>
        <time>2016-05-21T12:08:02Z</time>
      </trkpt>
      <trkpt lat="43.376539" lon="-2.764726">
        <ele>598.6</ele>
        <time>2016-05-21T12:08:05Z</time>
      </trkpt>
      <trkpt lat="43.376548" lon="-2.764604">
        <ele>601.9</ele>
        <time>2016-05-21T12:08:18Z</time>
      </trkpt>
      <trkpt lat="43.376513" lon="-2.764493">
        <ele>604.8</ele>
        <time>2016-05-21T12:08:30Z</time>
      </trkpt>
      <trkpt lat="43.376497" lon="-2.764412">
        <ele>607.7</ele>
        <time>2016-05-21T12:08:40Z</time>
      </trkpt>
      <trkpt lat="43.376429" lon="-2.764326">
        <ele>610.6</ele>
        <time>2016-05-21T12:08:56Z</time>
      </trkpt>
      <trkpt lat="43.376416" lon="-2.764318">
        <ele>611.1</ele>
        <time>2016-05-21T12:08:58Z</time>
      </trkpt>
      <trkpt lat="43.376379" lon="-2.764252">
        <ele>614.4</ele>
        <time>2016-05-21T12:09:12Z</time>
      </trkpt>
      <trkpt lat="43.376321" lon="-2.764161">
        <ele>616.8</ele>
        <time>2016-05-21T12:09:27Z</time>
      </trkpt>
      <trkpt lat="43.376271" lon="-2.764060">
        <ele>620.2</ele>
        <time>2016-05-21T12:09:41Z</time>
      </trkpt>
      <trkpt lat="43.376240" lon="-2.763946">
        <ele>623.6</ele>
        <time>2016-05-21T12:09:55Z</time>
      </trkpt>
      <trkpt lat="43.376230" lon="-2.763922">
        <ele>624.5</ele>
        <time>2016-05-21T12:09:59Z</time>
      </trkpt>
      <trkpt lat="43.376213" lon="-2.763825">
        <ele>626.9</ele>
        <time>2016-05-21T12:10:12Z</time>
      </trkpt>
      <trkpt lat="43.376185" lon="-2.763719">
        <ele>629.8</ele>
        <time>2016-05-21T12:10:25Z</time>
      </trkpt>
      <trkpt lat="43.376161" lon="-2.763672">
        <ele>630.8</ele>
        <time>2016-05-21T12:10:31Z</time>
      </trkpt>
      <trkpt lat="43.376130" lon="-2.763596">
        <ele>634.1</ele>
        <time>2016-05-21T12:10:40Z</time>
      </trkpt>
      <trkpt lat="43.376088" lon="-2.763507">
        <ele>636.0</ele>
        <time>2016-05-21T12:10:55Z</time>
      </trkpt>
      <trkpt lat="43.376063" lon="-2.763394">
        <ele>638.9</ele>
        <time>2016-05-21T12:11:10Z</time>
      </trkpt>
      <trkpt lat="43.376050" lon="-2.763381">
        <ele>640.4</ele>
        <time>2016-05-21T12:11:13Z</time>
      </trkpt>
      <trkpt lat="43.376054" lon="-2.763246">
        <ele>642.8</ele>
        <time>2016-05-21T12:11:28Z</time>
      </trkpt>
      <trkpt lat="43.375966" lon="-2.763108">
        <ele>644.7</ele>
        <time>2016-05-21T12:11:42Z</time>
      </trkpt>
      <trkpt lat="43.375921" lon="-2.763007">
        <ele>646.6</ele>
        <time>2016-05-21T12:11:56Z</time>
      </trkpt>
      <trkpt lat="43.375883" lon="-2.762912">
        <ele>646.6</ele>
        <time>2016-05-21T12:12:13Z</time>
      </trkpt>
      <trkpt lat="43.375902" lon="-2.762938">
        <ele>646.6</ele>
        <time>2016-05-21T12:12:36Z</time>
      </trkpt>
      <trkpt lat="43.375902" lon="-2.762933">
        <ele>647.6</ele>
        <time>2016-05-21T12:13:02Z</time>
      </trkpt>
      <trkpt lat="43.375865" lon="-2.762939">
        <ele>649.5</ele>
        <time>2016-05-21T12:13:15Z</time>
      </trkpt>
      <trkpt lat="43.375841" lon="-2.762843">
        <ele>650.0</ele>
        <time>2016-05-21T12:13:24Z</time>
      </trkpt>
    </trkseg>
    <trkseg>
      <trkpt lat="43.375841" lon="-2.762836">
        <ele>635.9</ele>
        <time>2016-05-29T17:02:09Z</time>
      </trkpt>
      <trkpt lat="43.375800" lon="-2.762800">
        <ele>637.0</ele>
        <time>2016-05-29T17:02:09Z</time>
      </trkpt>
      <trkpt lat="43.375628" lon="-2.762911">
        <ele>637.5</ele>
        <time>2016-05-29T17:02:09Z</time>
      </trkpt>
      <trkpt lat="43.374871" lon="-2.763291">
        <ele>642.9</ele>
        <time>2016-05-29T17:02:09Z</time>
      </trkpt>
      <trkpt lat="43.373831" lon="-2.763767">
        <ele>636.3</ele>
        <time>2016-05-29T17:02:09Z</time>
      </trkpt>
      <trkpt lat="43.373109" lon="-2.764141">
        <ele>633.4</ele>
        <time>2016-05-29T17:02:09Z</time>
      </trkpt>
      <trkpt lat="43.372391" lon="-2.764493">
        <ele>628.9</ele>
        <time>2016-05-29T17:02:09Z</time>
      </trkpt>
      <trkpt lat="43.371701" lon="-2.764455">
        <ele>639.4</ele>
        <time>2016-05-29T17:02:09Z</time>
      </trkpt>
      <trkpt lat="43.371251" lon="-2.764435">
        <ele>650.8</ele>
        <time>2016-05-29T17:02:09Z</time>
      </trkpt>
      <trkpt lat="43.370974" lon="-2.764344">
        <ele>659.7</ele>
        <time>2016-05-29T17:02:09Z</time>
      </trkpt>
      <trkpt lat="43.370763" lon="-2.764098">
        <ele>667.8</ele>
        <time>2016-05-29T17:02:09Z</time>
      </trkpt>
      <trkpt lat="43.370628" lon="-2.763750">
        <ele>669.0</ele>
        <time>2016-05-29T17:02:09Z</time>
      </trkpt>
      <trkpt lat="43.370544" lon="-2.763391">
        <ele>669.2</ele>
        <time>2016-05-29T17:02:09Z</time>
      </trkpt>
      <trkpt lat="43.370447" lon="-2.763463">
        <ele>670.1</ele>
        <time>2016-05-29T17:02:09Z</time>
      </trkpt>
      <trkpt lat="43.370493" lon="-2.763914">
        <ele>670.6</ele>
        <time>2016-05-29T17:02:09Z</time>
      </trkpt>
      <trkpt lat="43.370185" lon="-2.763464">
        <ele>672.1</ele>
        <time>2016-05-29T17:02:09Z</time>
      </trkpt>
      <trkpt lat="43.369930" lon="-2.763259">
        <ele>669.6</ele>
        <time>2016-05-29T17:02:09Z</time>
      </trkpt>
      <trkpt lat="43.369640" lon="-2.762914">
        <ele>657.7</ele>
        <time>2016-05-29T17:02:09Z</time>
      </trkpt>
      <trkpt lat="43.369475" lon="-2.762841">
        <ele>656.9</ele>
        <time>2016-05-29T17:02:09Z</time>
      </trkpt>
      <trkpt lat="43.369324" lon="-2.762586">
        <ele>654.9</ele>
        <time>2016-05-29T17:02:09Z</time>
      </trkpt>
      <trkpt lat="43.369229" lon="-2.762358">
        <ele>652.0</ele>
        <time>2016-05-29T17:02:09Z</time>
      </trkpt>
      <trkpt lat="43.369222" lon="-2.762218">
        <ele>648.6</ele>
        <time>2016-05-29T17:02:09Z</time>
      </trkpt>
      <trkpt lat="43.369111" lon="-2.762081">
        <ele>646.5</ele>
        <time>2016-05-29T17:02:09Z</time>
      </trkpt>
      <trkpt lat="43.368798" lon="-2.761957">
        <ele>647.0</ele>
        <time>2016-05-29T17:02:09Z</time>
      </trkpt>
      <trkpt lat="43.368520" lon="-2.761371">
        <ele>636.6</ele>
        <time>2016-05-29T17:02:09Z</time>
      </trkpt>
      <trkpt lat="43.368227" lon="-2.761033">
        <ele>629.1</ele>
        <time>2016-05-29T17:02:09Z</time>
      </trkpt>
      <trkpt lat="43.367408" lon="-2.760427">
        <ele>615.2</ele>
        <time>2016-05-29T17:02:09Z</time>
      </trkpt>
      <trkpt lat="43.366948" lon="-2.760084">
        <ele>604.5</ele>
        <time>2016-05-29T17:02:09Z</time>
      </trkpt>
      <trkpt lat="43.366493" lon="-2.759871">
        <ele>598.0</ele>
        <time>2016-05-29T17:02:09Z</time>
      </trkpt>
      <trkpt lat="43.366437" lon="-2.759629">
        <ele>594.2</ele>
        <time>2016-05-29T17:02:09Z</time>
      </trkpt>
      <trkpt lat="43.366497" lon="-2.759415">
        <ele>590.5</ele>
        <time>2016-05-29T17:02:09Z</time>
      </trkpt>
      <trkpt lat="43.366694" lon="-2.759234">
        <ele>586.5</ele>
        <time>2016-05-29T17:02:09Z</time>
      </trkpt>
      <trkpt lat="43.366876" lon="-2.759489">
        <ele>591.5</ele>
        <time>2016-05-29T17:02:09Z</time>
      </trkpt>
      <trkpt lat="43.367098" lon="-2.759606">
        <ele>594.7</ele>
        <time>2016-05-29T17:02:09Z</time>
      </trkpt>
      <trkpt lat="43.367461" lon="-2.759584">
        <ele>594.9</ele>
        <time>2016-05-29T17:02:09Z</time>
      </trkpt>
      <trkpt lat="43.367633" lon="-2.759576">
        <ele>594.0</ele>
        <time>2016-05-29T17:02:09Z</time>
      </trkpt>
      <trkpt lat="43.367990" lon="-2.759264">
        <ele>582.8</ele>
        <time>2016-05-29T17:02:09Z</time>
      </trkpt>
      <trkpt lat="43.368329" lon="-2.759193">
        <ele>578.7</ele>
        <time>2016-05-29T17:02:09Z</time>
      </trkpt>
      <trkpt lat="43.368707" lon="-2.759240">
        <ele>570.3</ele>
        <time>2016-05-29T17:02:09Z</time>
      </trkpt>
      <trkpt lat="43.369187" lon="-2.759494">
        <ele>565.1</ele>
        <time>2016-05-29T17:02:09Z</time>
      </trkpt>
      <trkpt lat="43.369631" lon="-2.759859">
        <ele>561.3</ele>
        <time>2016-05-29T17:02:09Z</time>
      </trkpt>
      <trkpt lat="43.369935" lon="-2.760134">
        <ele>560.9</ele>
        <time>2016-05-29T17:02:09Z</time>
      </trkpt>
      <trkpt lat="43.370223" lon="-2.760430">
        <ele>565.8</ele>
        <time>2016-05-29T17:02:09Z</time>
      </trkpt>
      <trkpt lat="43.370652" lon="-2.760733">
        <ele>573.5</ele>
        <time>2016-05-29T17:02:09Z</time>
      </trkpt>
      <trkpt lat="43.370905" lon="-2.760863">
        <ele>578.0</ele>
        <time>2016-05-29T17:02:09Z</time>
      </trkpt>
      <trkpt lat="43.371354" lon="-2.760903">
        <ele>580.9</ele>
        <time>2016-05-29T17:02:09Z</time>
      </trkpt>
      <trkpt lat="43.371943" lon="-2.760728">
        <ele>569.4</ele>
        <time>2016-05-29T17:02:09Z</time>
      </trkpt>
      <trkpt lat="43.372478" lon="-2.760442">
        <ele>552.4</ele>
        <time>2016-05-29T17:02:09Z</time>
      </trkpt>
      <trkpt lat="43.372765" lon="-2.760427">
        <ele>548.3</ele>
        <time>2016-05-29T17:02:09Z</time>
      </trkpt>
      <trkpt lat="43.373073" lon="-2.760509">
        <ele>546.3</ele>
        <time>2016-05-29T17:02:09Z</time>
      </trkpt>
      <trkpt lat="43.373174" lon="-2.760668">
        <ele>549.6</ele>
        <time>2016-05-29T17:02:09Z</time>
      </trkpt>
      <trkpt lat="43.373140" lon="-2.761069">
        <ele>560.7</ele>
        <time>2016-05-29T17:02:09Z</time>
      </trkpt>
      <trkpt lat="43.373166" lon="-2.761352">
        <ele>568.7</ele>
        <time>2016-05-29T17:02:09Z</time>
      </trkpt>
      <trkpt lat="43.373489" lon="-2.761690">
        <ele>582.6</ele>
        <time>2016-05-29T17:02:09Z</time>
      </trkpt>
      <trkpt lat="43.374140" lon="-2.761611">
        <ele>594.7</ele>
        <time>2016-05-29T17:02:09Z</time>
      </trkpt>
      <trkpt lat="43.374498" lon="-2.761541">
        <ele>607.0</ele>
        <time>2016-05-29T17:02:09Z</time>
      </trkpt>
      <trkpt lat="43.374780" lon="-2.761339">
        <ele>611.6</ele>
        <time>2016-05-29T17:02:09Z</time>
      </trkpt>
      <trkpt lat="43.375264" lon="-2.761026">
        <ele>617.8</ele>
        <time>2016-05-29T17:02:09Z</time>
      </trkpt>
      <trkpt lat="43.375435" lon="-2.760742">
        <ele>617.0</ele>
        <time>2016-05-29T17:02:09Z</time>
      </trkpt>
      <trkpt lat="43.375695" lon="-2.759966">
        <ele>613.5</ele>
        <time>2016-05-29T17:02:09Z</time>
      </trkpt>
      <trkpt lat="43.375980" lon="-2.758921">
        <ele>592.4</ele>
        <time>2016-05-29T17:02:09Z</time>
      </trkpt>
      <trkpt lat="43.376287" lon="-2.758366">
        <ele>578.3</ele>
        <time>2016-05-29T17:02:09Z</time>
      </trkpt>
      <trkpt lat="43.376892" lon="-2.757894">
        <ele>566.4</ele>
        <time>2016-05-29T17:02:09Z</time>
      </trkpt>
      <trkpt lat="43.377249" lon="-2.757705">
        <ele>554.9</ele>
        <time>2016-05-29T17:02:09Z</time>
      </trkpt>
      <trkpt lat="43.377430" lon="-2.757207">
        <ele>544.6</ele>
        <time>2016-05-29T17:02:09Z</time>
      </trkpt>
      <trkpt lat="43.377520" lon="-2.756923">
        <ele>540.4</ele>
        <time>2016-05-29T17:02:09Z</time>
      </trkpt>
      <trkpt lat="43.377807" lon="-2.756784">
        <ele>532.9</ele>
        <time>2016-05-29T17:02:09Z</time>
      </trkpt>
      <trkpt lat="43.377887" lon="-2.756583">
        <ele>529.6</ele>
        <time>2016-05-29T17:02:09Z</time>
      </trkpt>
      <trkpt lat="43.377902" lon="-2.756071">
        <ele>526.2</ele>
        <time>2016-05-29T17:02:09Z</time>
      </trkpt>
      <trkpt lat="43.377925" lon="-2.755061">
        <ele>520.2</ele>
        <time>2016-05-29T17:02:09Z</time>
      </trkpt>
      <trkpt lat="43.377929" lon="-2.754514">
        <ele>516.9</ele>
        <time>2016-05-29T17:02:09Z</time>
      </trkpt>
      <trkpt lat="43.378100" lon="-2.754251">
        <ele>512.5</ele>
        <time>2016-05-29T17:02:09Z</time>
      </trkpt>
    </trkseg>
    <trkseg>
      <trkpt lat="43.378103" lon="-2.754255">
        <ele>529.3</ele>
        <time>2016-05-21T12:27:36Z</time>
      </trkpt>
      <trkpt lat="43.378046" lon="-2.754034">
        <ele>527.4</ele>
        <time>2016-05-21T12:27:52Z</time>
      </trkpt>
      <trkpt lat="43.378037" lon="-2.753933">
        <ele>526.9</ele>
        <time>2016-05-21T12:27:58Z</time>
      </trkpt>
      <trkpt lat="43.378091" lon="-2.753579">
        <ele>527.9</ele>
        <time>2016-05-21T12:28:18Z</time>
      </trkpt>
      <trkpt lat="43.378122" lon="-2.753262">
        <ele>530.8</ele>
        <time>2016-05-21T12:28:35Z</time>
      </trkpt>
      <trkpt lat="43.378162" lon="-2.752936">
        <ele>531.7</ele>
        <time>2016-05-21T12:28:52Z</time>
      </trkpt>
      <trkpt lat="43.378208" lon="-2.752513">
        <ele>534.6</ele>
        <time>2016-05-21T12:29:14Z</time>
      </trkpt>
      <trkpt lat="43.378254" lon="-2.752161">
        <ele>535.1</ele>
        <time>2016-05-21T12:29:32Z</time>
      </trkpt>
      <trkpt lat="43.378302" lon="-2.751746">
        <ele>535.6</ele>
        <time>2016-05-21T12:29:53Z</time>
      </trkpt>
      <trkpt lat="43.378348" lon="-2.751337">
        <ele>536.6</ele>
        <time>2016-05-21T12:30:14Z</time>
      </trkpt>
      <trkpt lat="43.378391" lon="-2.750964">
        <ele>537.0</ele>
        <time>2016-05-21T12:30:33Z</time>
      </trkpt>
      <trkpt lat="43.378455" lon="-2.750539">
        <ele>537.0</ele>
        <time>2016-05-21T12:30:54Z</time>
      </trkpt>
      <trkpt lat="43.378522" lon="-2.750140">
        <ele>535.6</ele>
        <time>2016-05-21T12:31:14Z</time>
      </trkpt>
      <trkpt lat="43.378542" lon="-2.749923">
        <ele>535.1</ele>
        <time>2016-05-21T12:31:33Z</time>
      </trkpt>
      <trkpt lat="43.378542" lon="-2.749926">
        <ele>535.1</ele>
        <time>2016-05-21T12:31:49Z</time>
      </trkpt>
      <trkpt lat="43.378574" lon="-2.749775">
        <ele>535.6</ele>
        <time>2016-05-21T12:32:01Z</time>
      </trkpt>
      <trkpt lat="43.378626" lon="-2.749401">
        <ele>535.1</ele>
        <time>2016-05-21T12:32:20Z</time>
      </trkpt>
      <trkpt lat="43.378668" lon="-2.749208">
        <ele>534.6</ele>
        <time>2016-05-21T12:32:35Z</time>
      </trkpt>
      <trkpt lat="43.378690" lon="-2.748975">
        <ele>534.6</ele>
        <time>2016-05-21T12:32:47Z</time>
      </trkpt>
      <trkpt lat="43.378761" lon="-2.748528">
        <ele>535.1</ele>
        <time>2016-05-21T12:33:09Z</time>
      </trkpt>
      <trkpt lat="43.378827" lon="-2.748093">
        <ele>538.5</ele>
        <time>2016-05-21T12:33:31Z</time>
      </trkpt>
      <trkpt lat="43.378845" lon="-2.747908">
        <ele>537.5</ele>
        <time>2016-05-21T12:33:45Z</time>
      </trkpt>
      <trkpt lat="43.378903" lon="-2.747680">
        <ele>537.5</ele>
        <time>2016-05-21T12:33:59Z</time>
      </trkpt>
      <trkpt lat="43.378952" lon="-2.747387">
        <ele>535.1</ele>
        <time>2016-05-21T12:34:13Z</time>
      </trkpt>
      <trkpt lat="43.379057" lon="-2.746900">
        <ele>534.1</ele>
        <time>2016-05-21T12:34:38Z</time>
      </trkpt>
      <trkpt lat="43.379145" lon="-2.746599">
        <ele>534.6</ele>
        <time>2016-05-21T12:34:54Z</time>
      </trkpt>
      <trkpt lat="43.379157" lon="-2.746581">
        <ele>534.6</ele>
        <time>2016-05-21T12:35:00Z</time>
      </trkpt>
      <trkpt lat="43.379194" lon="-2.746413">
        <ele>534.6</ele>
        <time>2016-05-21T12:35:11Z</time>
      </trkpt>
      <trkpt lat="43.379182" lon="-2.746362">
        <ele>535.1</ele>
        <time>2016-05-21T12:35:20Z</time>
      </trkpt>
      <trkpt lat="43.379224" lon="-2.746170">
        <ele>535.1</ele>
        <time>2016-05-21T12:35:30Z</time>
      </trkpt>
      <trkpt lat="43.379340" lon="-2.745856">
        <ele>535.1</ele>
        <time>2016-05-21T12:35:47Z</time>
      </trkpt>
      <trkpt lat="43.379415" lon="-2.745641">
        <ele>535.1</ele>
        <time>2016-05-21T12:35:59Z</time>
      </trkpt>
      <trkpt lat="43.379494" lon="-2.745362">
        <ele>532.2</ele>
        <time>2016-05-21T12:36:14Z</time>
      </trkpt>
      <trkpt lat="43.379512" lon="-2.745014">
        <ele>530.3</ele>
        <time>2016-05-21T12:36:31Z</time>
      </trkpt>
      <trkpt lat="43.379489" lon="-2.744650">
        <ele>527.4</ele>
        <time>2016-05-21T12:36:49Z</time>
      </trkpt>
      <trkpt lat="43.379509" lon="-2.744196">
        <ele>524.5</ele>
        <time>2016-05-21T12:37:12Z</time>
      </trkpt>
      <trkpt lat="43.379511" lon="-2.743948">
        <ele>521.2</ele>
        <time>2016-05-21T12:37:24Z</time>
      </trkpt>
      <trkpt lat="43.379518" lon="-2.743648">
        <ele>519.2</ele>
        <time>2016-05-21T12:37:42Z</time>
      </trkpt>
      <trkpt lat="43.379478" lon="-2.743271">
        <ele>516.4</ele>
        <time>2016-05-21T12:38:01Z</time>
      </trkpt>
      <trkpt lat="43.379451" lon="-2.742934">
        <ele>514.0</ele>
        <time>2016-05-21T12:38:20Z</time>
      </trkpt>
      <trkpt lat="43.379408" lon="-2.742704">
        <ele>513.0</ele>
        <time>2016-05-21T12:38:33Z</time>
      </trkpt>
      <trkpt lat="43.379397" lon="-2.742616">
        <ele>512.0</ele>
        <time>2016-05-21T12:38:38Z</time>
      </trkpt>
      <trkpt lat="43.379357" lon="-2.742317">
        <ele>508.7</ele>
        <time>2016-05-21T12:38:53Z</time>
      </trkpt>
      <trkpt lat="43.379309" lon="-2.741992">
        <ele>505.3</ele>
        <time>2016-05-21T12:39:09Z</time>
      </trkpt>
      <trkpt lat="43.379203" lon="-2.741576">
        <ele>502.4</ele>
        <time>2016-05-21T12:39:30Z</time>
      </trkpt>
      <trkpt lat="43.379102" lon="-2.741195">
        <ele>500.0</ele>
        <time>2016-05-21T12:39:50Z</time>
      </trkpt>
      <trkpt lat="43.378972" lon="-2.740775">
        <ele>496.7</ele>
        <time>2016-05-21T12:40:12Z</time>
      </trkpt>
      <trkpt lat="43.378846" lon="-2.740381">
        <ele>495.7</ele>
        <time>2016-05-21T12:40:33Z</time>
      </trkpt>
      <trkpt lat="43.378731" lon="-2.739998">
        <ele>494.7</ele>
        <time>2016-05-21T12:40:53Z</time>
      </trkpt>
      <trkpt lat="43.378566" lon="-2.739572">
        <ele>495.2</ele>
        <time>2016-05-21T12:41:18Z</time>
      </trkpt>
      <trkpt lat="43.378383" lon="-2.739293">
        <ele>494.3</ele>
        <time>2016-05-21T12:41:40Z</time>
      </trkpt>
      <trkpt lat="43.378379" lon="-2.739289">
        <ele>494.7</ele>
        <time>2016-05-21T12:41:51Z</time>
      </trkpt>
      <trkpt lat="43.378367" lon="-2.739245">
        <ele>493.8</ele>
        <time>2016-05-21T12:41:54Z</time>
      </trkpt>
      <trkpt lat="43.378325" lon="-2.739139">
        <ele>492.3</ele>
        <time>2016-05-21T12:42:00Z</time>
      </trkpt>
      <trkpt lat="43.378206" lon="-2.738853">
        <ele>491.4</ele>
        <time>2016-05-21T12:42:17Z</time>
      </trkpt>
      <trkpt lat="43.378160" lon="-2.738549">
        <ele>490.9</ele>
        <time>2016-05-21T12:42:32Z</time>
      </trkpt>
      <trkpt lat="43.378103" lon="-2.738241">
        <ele>488.0</ele>
        <time>2016-05-21T12:42:47Z</time>
      </trkpt>
      <trkpt lat="43.378017" lon="-2.737984">
        <ele>486.6</ele>
        <time>2016-05-21T12:43:01Z</time>
      </trkpt>
      <trkpt lat="43.377982" lon="-2.737777">
        <ele>483.2</ele>
        <time>2016-05-21T12:43:11Z</time>
      </trkpt>
      <trkpt lat="43.377954" lon="-2.737659">
        <ele>482.7</ele>
        <time>2016-05-21T12:43:17Z</time>
      </trkpt>
      <trkpt lat="43.377945" lon="-2.737505">
        <ele>480.8</ele>
        <time>2016-05-21T12:43:25Z</time>
      </trkpt>
      <trkpt lat="43.377911" lon="-2.737185">
        <ele>477.0</ele>
        <time>2016-05-21T12:43:40Z</time>
      </trkpt>
      <trkpt lat="43.377883" lon="-2.736884">
        <ele>474.1</ele>
        <time>2016-05-21T12:43:55Z</time>
      </trkpt>
      <trkpt lat="43.377883" lon="-2.736859">
        <ele>473.1</ele>
        <time>2016-05-21T12:43:56Z</time>
      </trkpt>
      <trkpt lat="43.377907" lon="-2.736635">
        <ele>472.1</ele>
        <time>2016-05-21T12:44:07Z</time>
      </trkpt>
      <trkpt lat="43.377938" lon="-2.736483">
        <ele>469.7</ele>
        <time>2016-05-21T12:44:15Z</time>
      </trkpt>
      <trkpt lat="43.377944" lon="-2.736448">
        <ele>468.8</ele>
        <time>2016-05-21T12:44:17Z</time>
      </trkpt>
      <trkpt lat="43.377954" lon="-2.736351">
        <ele>467.3</ele>
        <time>2016-05-21T12:44:22Z</time>
      </trkpt>
      <trkpt lat="43.377956" lon="-2.736275">
        <ele>465.9</ele>
        <time>2016-05-21T12:44:26Z</time>
      </trkpt>
      <trkpt lat="43.377990" lon="-2.736126">
        <ele>464.0</ele>
        <time>2016-05-21T12:44:34Z</time>
      </trkpt>
      <trkpt lat="43.378015" lon="-2.736064">
        <ele>462.5</ele>
        <time>2016-05-21T12:44:38Z</time>
      </trkpt>
      <trkpt lat="43.378086" lon="-2.735860">
        <ele>459.6</ele>
        <time>2016-05-21T12:44:49Z</time>
      </trkpt>
      <trkpt lat="43.378197" lon="-2.735662">
        <ele>456.3</ele>
        <time>2016-05-21T12:45:00Z</time>
      </trkpt>
      <trkpt lat="43.378342" lon="-2.735468">
        <ele>453.4</ele>
        <time>2016-05-21T12:45:14Z</time>
      </trkpt>
      <trkpt lat="43.378534" lon="-2.735306">
        <ele>451.0</ele>
        <time>2016-05-21T12:45:29Z</time>
      </trkpt>
      <trkpt lat="43.378717" lon="-2.735188">
        <ele>449.1</ele>
        <time>2016-05-21T12:45:43Z</time>
      </trkpt>
      <trkpt lat="43.378916" lon="-2.735057">
        <ele>446.2</ele>
        <time>2016-05-21T12:45:57Z</time>
      </trkpt>
      <trkpt lat="43.379140" lon="-2.734951">
        <ele>444.7</ele>
        <time>2016-05-21T12:46:12Z</time>
      </trkpt>
      <trkpt lat="43.379315" lon="-2.734830">
        <ele>443.8</ele>
        <time>2016-05-21T12:46:25Z</time>
      </trkpt>
      <trkpt lat="43.379527" lon="-2.734684">
        <ele>441.4</ele>
        <time>2016-05-21T12:46:40Z</time>
      </trkpt>
      <trkpt lat="43.379646" lon="-2.734610">
        <ele>438.0</ele>
        <time>2016-05-21T12:46:48Z</time>
      </trkpt>
      <trkpt lat="43.379852" lon="-2.734462">
        <ele>435.6</ele>
        <time>2016-05-21T12:47:03Z</time>
      </trkpt>
      <trkpt lat="43.380054" lon="-2.734280">
        <ele>432.7</ele>
        <time>2016-05-21T12:47:18Z</time>
      </trkpt>
      <trkpt lat="43.380188" lon="-2.734108">
        <ele>429.4</ele>
        <time>2016-05-21T12:47:30Z</time>
      </trkpt>
      <trkpt lat="43.380307" lon="-2.733861">
        <ele>425.5</ele>
        <time>2016-05-21T12:47:43Z</time>
      </trkpt>
      <trkpt lat="43.380531" lon="-2.733592">
        <ele>423.6</ele>
        <time>2016-05-21T12:48:02Z</time>
      </trkpt>
      <trkpt lat="43.380723" lon="-2.733457">
        <ele>420.2</ele>
        <time>2016-05-21T12:48:16Z</time>
      </trkpt>
      <trkpt lat="43.380971" lon="-2.733305">
        <ele>417.3</ele>
        <time>2016-05-21T12:48:34Z</time>
      </trkpt>
      <trkpt lat="43.381175" lon="-2.733195">
        <ele>414.5</ele>
        <time>2016-05-21T12:48:49Z</time>
      </trkpt>
      <trkpt lat="43.381353" lon="-2.733042">
        <ele>412.1</ele>
        <time>2016-05-21T12:49:02Z</time>
      </trkpt>
      <trkpt lat="43.381457" lon="-2.732762">
        <ele>409.2</ele>
        <time>2016-05-21T12:49:16Z</time>
      </trkpt>
      <trkpt lat="43.381502" lon="-2.732409">
        <ele>406.8</ele>
        <time>2016-05-21T12:49:33Z</time>
      </trkpt>
      <trkpt lat="43.381568" lon="-2.732197">
        <ele>403.9</ele>
        <time>2016-05-21T12:49:44Z</time>
      </trkpt>
      <trkpt lat="43.381585" lon="-2.732159">
        <ele>402.9</ele>
        <time>2016-05-21T12:49:46Z</time>
      </trkpt>
      <trkpt lat="43.381723" lon="-2.732006">
        <ele>399.6</ele>
        <time>2016-05-21T12:49:58Z</time>
      </trkpt>
      <trkpt lat="43.381971" lon="-2.731866">
        <ele>397.2</ele>
        <time>2016-05-21T12:50:15Z</time>
      </trkpt>
      <trkpt lat="43.382050" lon="-2.731814">
        <ele>395.2</ele>
        <time>2016-05-21T12:50:21Z</time>
      </trkpt>
      <trkpt lat="43.382157" lon="-2.731747">
        <ele>393.3</ele>
        <time>2016-05-21T12:50:30Z</time>
      </trkpt>
      <trkpt lat="43.382323" lon="-2.731563">
        <ele>391.9</ele>
        <time>2016-05-21T12:50:44Z</time>
      </trkpt>
      <trkpt lat="43.382378" lon="-2.731384">
        <ele>388.5</ele>
        <time>2016-05-21T12:50:53Z</time>
      </trkpt>
      <trkpt lat="43.382380" lon="-2.731362">
        <ele>388.5</ele>
        <time>2016-05-21T12:50:54Z</time>
      </trkpt>
      <trkpt lat="43.382390" lon="-2.731108">
        <ele>386.6</ele>
        <time>2016-05-21T12:51:07Z</time>
      </trkpt>
      <trkpt lat="43.382378" lon="-2.730813">
        <ele>383.7</ele>
        <time>2016-05-21T12:51:21Z</time>
      </trkpt>
      <trkpt lat="43.382348" lon="-2.730584">
        <ele>380.3</ele>
        <time>2016-05-21T12:51:32Z</time>
      </trkpt>
      <trkpt lat="43.382310" lon="-2.730324">
        <ele>377.5</ele>
        <time>2016-05-21T12:51:45Z</time>
      </trkpt>
      <trkpt lat="43.382309" lon="-2.730304">
        <ele>377.5</ele>
        <time>2016-05-21T12:51:46Z</time>
      </trkpt>
      <trkpt lat="43.382202" lon="-2.730012">
        <ele>373.6</ele>
        <time>2016-05-21T12:52:01Z</time>
      </trkpt>
      <trkpt lat="43.382133" lon="-2.729768">
        <ele>370.2</ele>
        <time>2016-05-21T12:52:14Z</time>
      </trkpt>
      <trkpt lat="43.382189" lon="-2.729589">
        <ele>367.4</ele>
        <time>2016-05-21T12:52:23Z</time>
      </trkpt>
      <trkpt lat="43.382208" lon="-2.729545">
        <ele>366.4</ele>
        <time>2016-05-21T12:52:25Z</time>
      </trkpt>
      <trkpt lat="43.382270" lon="-2.729450">
        <ele>365.0</ele>
        <time>2016-05-21T12:52:31Z</time>
      </trkpt>
      <trkpt lat="43.382507" lon="-2.729383">
        <ele>361.6</ele>
        <time>2016-05-21T12:52:47Z</time>
      </trkpt>
      <trkpt lat="43.382678" lon="-2.729371">
        <ele>358.7</ele>
        <time>2016-05-21T12:52:59Z</time>
      </trkpt>
      <trkpt lat="43.382898" lon="-2.729380">
        <ele>357.3</ele>
        <time>2016-05-21T12:53:13Z</time>
      </trkpt>
      <trkpt lat="43.383059" lon="-2.729387">
        <ele>353.9</ele>
        <time>2016-05-21T12:53:24Z</time>
      </trkpt>
      <trkpt lat="43.383282" lon="-2.729436">
        <ele>352.5</ele>
        <time>2016-05-21T12:53:39Z</time>
      </trkpt>
      <trkpt lat="43.383342" lon="-2.729488">
        <ele>352.5</ele>
        <time>2016-05-21T12:53:44Z</time>
      </trkpt>
      <trkpt lat="43.383510" lon="-2.729668">
        <ele>352.0</ele>
        <time>2016-05-21T12:53:58Z</time>
      </trkpt>
      <trkpt lat="43.383654" lon="-2.729842">
        <ele>351.5</ele>
        <time>2016-05-21T12:54:11Z</time>
      </trkpt>
      <trkpt lat="43.383702" lon="-2.729877">
        <ele>351.0</ele>
        <time>2016-05-21T12:54:15Z</time>
      </trkpt>
      <trkpt lat="43.383906" lon="-2.730001">
        <ele>350.1</ele>
        <time>2016-05-21T12:54:29Z</time>
      </trkpt>
      <trkpt lat="43.384055" lon="-2.730131">
        <ele>349.1</ele>
        <time>2016-05-21T12:54:41Z</time>
      </trkpt>
      <trkpt lat="43.384087" lon="-2.730182">
        <ele>348.6</ele>
        <time>2016-05-21T12:54:44Z</time>
      </trkpt>
      <trkpt lat="43.384120" lon="-2.730503">
        <ele>349.6</ele>
        <time>2016-05-21T12:55:00Z</time>
      </trkpt>
      <trkpt lat="43.384108" lon="-2.730809">
        <ele>350.1</ele>
        <time>2016-05-21T12:55:15Z</time>
      </trkpt>
      <trkpt lat="43.384104" lon="-2.730928">
        <ele>351.0</ele>
        <time>2016-05-21T12:55:21Z</time>
      </trkpt>
      <trkpt lat="43.384015" lon="-2.731230">
        <ele>352.9</ele>
        <time>2016-05-21T12:55:38Z</time>
      </trkpt>
      <trkpt lat="43.384003" lon="-2.731187">
        <ele>352.5</ele>
        <time>2016-05-21T12:55:48Z</time>
      </trkpt>
      <trkpt lat="43.383893" lon="-2.731433">
        <ele>352.5</ele>
        <time>2016-05-21T12:56:03Z</time>
      </trkpt>
      <trkpt lat="43.383811" lon="-2.731645">
        <ele>352.9</ele>
        <time>2016-05-21T12:56:15Z</time>
      </trkpt>
      <trkpt lat="43.383627" lon="-2.731926">
        <ele>352.9</ele>
        <time>2016-05-21T12:56:33Z</time>
      </trkpt>
      <trkpt lat="43.383571" lon="-2.732035">
        <ele>353.9</ele>
        <time>2016-05-21T12:56:46Z</time>
      </trkpt>
      <trkpt lat="43.383561" lon="-2.732026">
        <ele>352.9</ele>
        <time>2016-05-21T12:56:55Z</time>
      </trkpt>
      <trkpt lat="43.383578" lon="-2.732050">
        <ele>352.9</ele>
        <time>2016-05-21T12:57:16Z</time>
      </trkpt>
      <trkpt lat="43.383537" lon="-2.732136">
        <ele>353.4</ele>
        <time>2016-05-21T12:57:30Z</time>
      </trkpt>
      <trkpt lat="43.383525" lon="-2.732137">
        <ele>352.9</ele>
        <time>2016-05-21T12:57:43Z</time>
      </trkpt>
      <trkpt lat="43.383461" lon="-2.732324">
        <ele>353.9</ele>
        <time>2016-05-21T12:58:00Z</time>
      </trkpt>
      <trkpt lat="43.383519" lon="-2.732558">
        <ele>353.4</ele>
        <time>2016-05-21T12:58:15Z</time>
      </trkpt>
      <trkpt lat="43.383735" lon="-2.732841">
        <ele>352.9</ele>
        <time>2016-05-21T12:58:35Z</time>
      </trkpt>
      <trkpt lat="43.383876" lon="-2.733111">
        <ele>352.9</ele>
        <time>2016-05-21T12:58:51Z</time>
      </trkpt>
      <trkpt lat="43.383974" lon="-2.733360">
        <ele>352.0</ele>
        <time>2016-05-21T12:59:04Z</time>
      </trkpt>
      <trkpt lat="43.384102" lon="-2.733661">
        <ele>351.0</ele>
        <time>2016-05-21T12:59:20Z</time>
      </trkpt>
      <trkpt lat="43.384213" lon="-2.733985">
        <ele>350.5</ele>
        <time>2016-05-21T12:59:39Z</time>
      </trkpt>
      <trkpt lat="43.384320" lon="-2.734111">
        <ele>349.1</ele>
        <time>2016-05-21T12:59:52Z</time>
      </trkpt>
      <trkpt lat="43.384502" lon="-2.734003">
        <ele>345.3</ele>
        <time>2016-05-21T13:00:06Z</time>
      </trkpt>
      <trkpt lat="43.384618" lon="-2.733786">
        <ele>341.9</ele>
        <time>2016-05-21T13:00:20Z</time>
      </trkpt>
      <trkpt lat="43.384629" lon="-2.733749">
        <ele>341.4</ele>
        <time>2016-05-21T13:00:22Z</time>
      </trkpt>
      <trkpt lat="43.384679" lon="-2.733604">
        <ele>339.0</ele>
        <time>2016-05-21T13:00:30Z</time>
      </trkpt>
      <trkpt lat="43.384742" lon="-2.733441">
        <ele>335.6</ele>
        <time>2016-05-21T13:00:41Z</time>
      </trkpt>
      <trkpt lat="43.384782" lon="-2.733329">
        <ele>334.2</ele>
        <time>2016-05-21T13:00:47Z</time>
      </trkpt>
      <trkpt lat="43.384800" lon="-2.733147">
        <ele>331.8</ele>
        <time>2016-05-21T13:00:57Z</time>
      </trkpt>
      <trkpt lat="43.384805" lon="-2.733099">
        <ele>329.9</ele>
        <time>2016-05-21T13:02:05Z</time>
      </trkpt>
      <trkpt lat="43.384903" lon="-2.733043">
        <ele>327.5</ele>
        <time>2016-05-21T13:02:13Z</time>
      </trkpt>
      <trkpt lat="43.385153" lon="-2.733202">
        <ele>326.0</ele>
        <time>2016-05-21T13:02:31Z</time>
      </trkpt>
      <trkpt lat="43.385292" lon="-2.733400">
        <ele>323.1</ele>
        <time>2016-05-21T13:02:44Z</time>
      </trkpt>
      <trkpt lat="43.385400" lon="-2.733546">
        <ele>319.3</ele>
        <time>2016-05-21T13:02:55Z</time>
      </trkpt>
      <trkpt lat="43.385412" lon="-2.733559">
        <ele>319.3</ele>
        <time>2016-05-21T13:02:56Z</time>
      </trkpt>
      <trkpt lat="43.385529" lon="-2.733799">
        <ele>315.9</ele>
        <time>2016-05-21T13:03:09Z</time>
      </trkpt>
      <trkpt lat="43.385576" lon="-2.733888">
        <ele>314.5</ele>
        <time>2016-05-21T13:03:14Z</time>
      </trkpt>
      <trkpt lat="43.385657" lon="-2.734033">
        <ele>311.6</ele>
        <time>2016-05-21T13:03:23Z</time>
      </trkpt>
      <trkpt lat="43.385680" lon="-2.734155">
        <ele>309.7</ele>
        <time>2016-05-21T13:03:29Z</time>
      </trkpt>
      <trkpt lat="43.385708" lon="-2.734235">
        <ele>308.7</ele>
        <time>2016-05-21T13:03:34Z</time>
      </trkpt>
      <trkpt lat="43.385884" lon="-2.734240">
        <ele>304.9</ele>
        <time>2016-05-21T13:03:46Z</time>
      </trkpt>
      <trkpt lat="43.386040" lon="-2.734145">
        <ele>303.4</ele>
        <time>2016-05-21T13:03:58Z</time>
      </trkpt>
      <trkpt lat="43.386137" lon="-2.734040">
        <ele>300.1</ele>
        <time>2016-05-21T13:04:06Z</time>
      </trkpt>
      <trkpt lat="43.386190" lon="-2.733987">
        <ele>297.7</ele>
        <time>2016-05-21T13:04:10Z</time>
      </trkpt>
      <trkpt lat="43.386261" lon="-2.733914">
        <ele>295.3</ele>
        <time>2016-05-21T13:04:16Z</time>
      </trkpt>
      <trkpt lat="43.386354" lon="-2.733829">
        <ele>293.3</ele>
        <time>2016-05-21T13:04:24Z</time>
      </trkpt>
      <trkpt lat="43.386371" lon="-2.733804">
        <ele>292.9</ele>
        <time>2016-05-21T13:04:26Z</time>
      </trkpt>
      <trkpt lat="43.386467" lon="-2.733712">
        <ele>289.5</ele>
        <time>2016-05-21T13:04:34Z</time>
      </trkpt>
      <trkpt lat="43.386632" lon="-2.733628">
        <ele>286.1</ele>
        <time>2016-05-21T13:04:45Z</time>
      </trkpt>
      <trkpt lat="43.386827" lon="-2.733605">
        <ele>283.7</ele>
        <time>2016-05-21T13:04:58Z</time>
      </trkpt>
      <trkpt lat="43.387045" lon="-2.733655">
        <ele>281.8</ele>
        <time>2016-05-21T13:05:13Z</time>
      </trkpt>
      <trkpt lat="43.387105" lon="-2.733665">
        <ele>281.3</ele>
        <time>2016-05-21T13:05:17Z</time>
      </trkpt>
      <trkpt lat="43.387179" lon="-2.733679">
        <ele>279.9</ele>
        <time>2016-05-21T13:05:22Z</time>
      </trkpt>
      <trkpt lat="43.387412" lon="-2.733607">
        <ele>278.0</ele>
        <time>2016-05-21T13:05:38Z</time>
      </trkpt>
      <trkpt lat="43.387604" lon="-2.733546">
        <ele>274.1</ele>
        <time>2016-05-21T13:05:50Z</time>
      </trkpt>
      <trkpt lat="43.387735" lon="-2.733664">
        <ele>272.2</ele>
        <time>2016-05-21T13:06:03Z</time>
      </trkpt>
      <trkpt lat="43.387754" lon="-2.733725">
        <ele>271.7</ele>
        <time>2016-05-21T13:06:07Z</time>
      </trkpt>
      <trkpt lat="43.387879" lon="-2.733865">
        <ele>268.3</ele>
        <time>2016-05-21T13:06:19Z</time>
      </trkpt>
      <trkpt lat="43.387964" lon="-2.733907">
        <ele>265.5</ele>
        <time>2016-05-21T13:06:25Z</time>
      </trkpt>
      <trkpt lat="43.388163" lon="-2.733844">
        <ele>262.6</ele>
        <time>2016-05-21T13:06:39Z</time>
      </trkpt>
      <trkpt lat="43.388229" lon="-2.733814">
        <ele>260.7</ele>
        <time>2016-05-21T13:06:44Z</time>
      </trkpt>
      <trkpt lat="43.388334" lon="-2.733740">
        <ele>256.8</ele>
        <time>2016-05-21T13:06:52Z</time>
      </trkpt>
      <trkpt lat="43.388475" lon="-2.733554">
        <ele>253.4</ele>
        <time>2016-05-21T13:07:05Z</time>
      </trkpt>
      <trkpt lat="43.388488" lon="-2.733541">
        <ele>253.4</ele>
        <time>2016-05-21T13:07:06Z</time>
      </trkpt>
      <trkpt lat="43.388556" lon="-2.733434">
        <ele>251.5</ele>
        <time>2016-05-21T13:07:13Z</time>
      </trkpt>
      <trkpt lat="43.388625" lon="-2.733304">
        <ele>249.6</ele>
        <time>2016-05-21T13:07:21Z</time>
      </trkpt>
      <trkpt lat="43.388657" lon="-2.733264">
        <ele>249.1</ele>
        <time>2016-05-21T13:07:24Z</time>
      </trkpt>
      <trkpt lat="43.388727" lon="-2.733193">
        <ele>248.2</ele>
        <time>2016-05-21T13:07:30Z</time>
      </trkpt>
      <trkpt lat="43.388887" lon="-2.733076">
        <ele>243.8</ele>
        <time>2016-05-21T13:07:42Z</time>
      </trkpt>
      <trkpt lat="43.388954" lon="-2.733048">
        <ele>240.5</ele>
        <time>2016-05-21T13:07:47Z</time>
      </trkpt>
      <trkpt lat="43.388968" lon="-2.733044">
        <ele>240.5</ele>
        <time>2016-05-21T13:07:48Z</time>
      </trkpt>
      <trkpt lat="43.389118" lon="-2.733030">
        <ele>237.1</ele>
        <time>2016-05-21T13:07:59Z</time>
      </trkpt>
      <trkpt lat="43.389145" lon="-2.733028">
        <ele>236.1</ele>
        <time>2016-05-21T13:08:01Z</time>
      </trkpt>
      <trkpt lat="43.389227" lon="-2.733015">
        <ele>233.3</ele>
        <time>2016-05-21T13:08:07Z</time>
      </trkpt>
      <trkpt lat="43.389241" lon="-2.733014">
        <ele>232.8</ele>
        <time>2016-05-21T13:08:08Z</time>
      </trkpt>
      <trkpt lat="43.389470" lon="-2.732935">
        <ele>229.9</ele>
        <time>2016-05-21T13:08:26Z</time>
      </trkpt>
      <trkpt lat="43.389569" lon="-2.732799">
        <ele>226.5</ele>
        <time>2016-05-21T13:08:38Z</time>
      </trkpt>
      <trkpt lat="43.389648" lon="-2.732544">
        <ele>223.2</ele>
        <time>2016-05-21T13:08:54Z</time>
      </trkpt>
      <trkpt lat="43.389671" lon="-2.732427">
        <ele>220.3</ele>
        <time>2016-05-21T13:09:01Z</time>
      </trkpt>
      <trkpt lat="43.389654" lon="-2.732262">
        <ele>216.9</ele>
        <time>2016-05-21T13:09:12Z</time>
      </trkpt>
      <trkpt lat="43.389476" lon="-2.732003">
        <ele>216.0</ele>
        <time>2016-05-21T13:09:31Z</time>
      </trkpt>
      <trkpt lat="43.389322" lon="-2.731689">
        <ele>213.6</ele>
        <time>2016-05-21T13:09:52Z</time>
      </trkpt>
      <trkpt lat="43.389352" lon="-2.731610">
        <ele>213.1</ele>
        <time>2016-05-21T13:09:57Z</time>
      </trkpt>
      <trkpt lat="43.389520" lon="-2.731430">
        <ele>213.6</ele>
        <time>2016-05-21T13:10:13Z</time>
      </trkpt>
      <trkpt lat="43.389612" lon="-2.731217">
        <ele>216.9</ele>
        <time>2016-05-21T13:10:28Z</time>
      </trkpt>
      <trkpt lat="43.389694" lon="-2.731025">
        <ele>218.8</ele>
        <time>2016-05-21T13:10:44Z</time>
      </trkpt>
      <trkpt lat="43.389762" lon="-2.730861">
        <ele>222.7</ele>
        <time>2016-05-21T13:10:57Z</time>
      </trkpt>
      <trkpt lat="43.389843" lon="-2.730658">
        <ele>225.6</ele>
        <time>2016-05-21T13:11:12Z</time>
      </trkpt>
      <trkpt lat="43.389853" lon="-2.730633">
        <ele>226.0</ele>
        <time>2016-05-21T13:11:14Z</time>
      </trkpt>
      <trkpt lat="43.389958" lon="-2.730347">
        <ele>228.9</ele>
        <time>2016-05-21T13:11:34Z</time>
      </trkpt>
      <trkpt lat="43.390040" lon="-2.730030">
        <ele>230.9</ele>
        <time>2016-05-21T13:11:54Z</time>
      </trkpt>
      <trkpt lat="43.390215" lon="-2.729946">
        <ele>228.5</ele>
        <time>2016-05-21T13:12:10Z</time>
      </trkpt>
      <trkpt lat="43.390417" lon="-2.730095">
        <ele>225.1</ele>
        <time>2016-05-21T13:12:28Z</time>
      </trkpt>
      <trkpt lat="43.390541" lon="-2.730269">
        <ele>221.7</ele>
        <time>2016-05-21T13:12:41Z</time>
      </trkpt>
      <trkpt lat="43.390559" lon="-2.730293">
        <ele>221.2</ele>
        <time>2016-05-21T13:12:43Z</time>
      </trkpt>
      <trkpt lat="43.390670" lon="-2.730403">
        <ele>217.9</ele>
        <time>2016-05-21T13:12:54Z</time>
      </trkpt>
      <trkpt lat="43.390833" lon="-2.730485">
        <ele>215.0</ele>
        <time>2016-05-21T13:13:07Z</time>
      </trkpt>
      <trkpt lat="43.390925" lon="-2.730558">
        <ele>212.1</ele>
        <time>2016-05-21T13:13:16Z</time>
      </trkpt>
      <trkpt lat="43.390947" lon="-2.730572">
        <ele>210.7</ele>
        <time>2016-05-21T13:13:18Z</time>
      </trkpt>
      <trkpt lat="43.390987" lon="-2.730616">
        <ele>208.7</ele>
        <time>2016-05-21T13:13:22Z</time>
      </trkpt>
      <trkpt lat="43.391015" lon="-2.730670">
        <ele>207.3</ele>
        <time>2016-05-21T13:13:26Z</time>
      </trkpt>
      <trkpt lat="43.391039" lon="-2.730824">
        <ele>204.4</ele>
        <time>2016-05-21T13:13:35Z</time>
      </trkpt>
      <trkpt lat="43.391081" lon="-2.730936">
        <ele>202.5</ele>
        <time>2016-05-21T13:13:42Z</time>
      </trkpt>
      <trkpt lat="43.391146" lon="-2.730991">
        <ele>201.1</ele>
        <time>2016-05-21T13:13:48Z</time>
      </trkpt>
      <trkpt lat="43.391178" lon="-2.731030">
        <ele>199.6</ele>
        <time>2016-05-21T13:13:52Z</time>
      </trkpt>
      <trkpt lat="43.391340" lon="-2.731213">
        <ele>197.7</ele>
        <time>2016-05-21T13:14:08Z</time>
      </trkpt>
      <trkpt lat="43.391421" lon="-2.731314">
        <ele>195.8</ele>
        <time>2016-05-21T13:14:16Z</time>
      </trkpt>
      <trkpt lat="43.391567" lon="-2.731441">
        <ele>192.9</ele>
        <time>2016-05-21T13:14:29Z</time>
      </trkpt>
      <trkpt lat="43.391598" lon="-2.731476">
        <ele>192.4</ele>
        <time>2016-05-21T13:14:32Z</time>
      </trkpt>
      <trkpt lat="43.391807" lon="-2.731641">
        <ele>189.0</ele>
        <time>2016-05-21T13:14:48Z</time>
      </trkpt>
      <trkpt lat="43.391982" lon="-2.731737">
        <ele>187.6</ele>
        <time>2016-05-21T13:15:01Z</time>
      </trkpt>
      <trkpt lat="43.392012" lon="-2.731763">
        <ele>187.6</ele>
        <time>2016-05-21T13:15:12Z</time>
      </trkpt>
      <trkpt lat="43.392156" lon="-2.731884">
        <ele>185.7</ele>
        <time>2016-05-21T13:15:28Z</time>
      </trkpt>
      <trkpt lat="43.392297" lon="-2.731922">
        <ele>182.8</ele>
        <time>2016-05-21T13:15:38Z</time>
      </trkpt>
      <trkpt lat="43.392436" lon="-2.731967">
        <ele>179.9</ele>
        <time>2016-05-21T13:15:48Z</time>
      </trkpt>
      <trkpt lat="43.392632" lon="-2.731988">
        <ele>176.5</ele>
        <time>2016-05-21T13:16:02Z</time>
      </trkpt>
      <trkpt lat="43.392822" lon="-2.732020">
        <ele>173.7</ele>
        <time>2016-05-21T13:16:16Z</time>
      </trkpt>
      <trkpt lat="43.392897" lon="-2.732017">
        <ele>171.3</ele>
        <time>2016-05-21T13:16:21Z</time>
      </trkpt>
      <trkpt lat="43.393034" lon="-2.731998">
        <ele>168.4</ele>
        <time>2016-05-21T13:16:31Z</time>
      </trkpt>
      <trkpt lat="43.393063" lon="-2.731996">
        <ele>167.4</ele>
        <time>2016-05-21T13:16:33Z</time>
      </trkpt>
      <trkpt lat="43.393113" lon="-2.731982">
        <ele>165.5</ele>
        <time>2016-05-21T13:16:37Z</time>
      </trkpt>
      <trkpt lat="43.393251" lon="-2.731909">
        <ele>162.1</ele>
        <time>2016-05-21T13:16:48Z</time>
      </trkpt>
      <trkpt lat="43.393392" lon="-2.731908">
        <ele>159.2</ele>
        <time>2016-05-21T13:17:02Z</time>
      </trkpt>
      <trkpt lat="43.393466" lon="-2.731919">
        <ele>157.3</ele>
        <time>2016-05-21T13:17:08Z</time>
      </trkpt>
      <trkpt lat="43.393590" lon="-2.731915">
        <ele>154.4</ele>
        <time>2016-05-21T13:17:17Z</time>
      </trkpt>
      <trkpt lat="43.393669" lon="-2.731903">
        <ele>153.5</ele>
        <time>2016-05-21T13:17:22Z</time>
      </trkpt>
      <trkpt lat="43.393822" lon="-2.731794">
        <ele>151.5</ele>
        <time>2016-05-21T13:17:36Z</time>
      </trkpt>
      <trkpt lat="43.393843" lon="-2.731722">
        <ele>151.5</ele>
        <time>2016-05-21T13:17:52Z</time>
      </trkpt>
      <trkpt lat="43.393841" lon="-2.731739">
        <ele>151.1</ele>
        <time>2016-05-21T13:19:26Z</time>
      </trkpt>
      <trkpt lat="43.393778" lon="-2.731859">
        <ele>152.0</ele>
        <time>2016-05-21T13:19:40Z</time>
      </trkpt>
      <trkpt lat="43.393705" lon="-2.731914">
        <ele>152.0</ele>
        <time>2016-05-21T13:19:50Z</time>
      </trkpt>
      <trkpt lat="43.393656" lon="-2.732016">
        <ele>152.0</ele>
        <time>2016-05-21T13:20:04Z</time>
      </trkpt>
      <trkpt lat="43.393711" lon="-2.732157">
        <ele>148.7</ele>
        <time>2016-05-21T13:20:18Z</time>
      </trkpt>
      <trkpt lat="43.393723" lon="-2.732177">
        <ele>147.7</ele>
        <time>2016-05-21T13:20:20Z</time>
      </trkpt>
      <trkpt lat="43.393754" lon="-2.732249">
        <ele>147.2</ele>
        <time>2016-05-21T13:20:26Z</time>
      </trkpt>
      <trkpt lat="43.393794" lon="-2.732394">
        <ele>143.9</ele>
        <time>2016-05-21T13:20:36Z</time>
      </trkpt>
      <trkpt lat="43.393803" lon="-2.732509">
        <ele>141.0</ele>
        <time>2016-05-21T13:20:44Z</time>
      </trkpt>
      <trkpt lat="43.393809" lon="-2.732554">
        <ele>140.0</ele>
        <time>2016-05-21T13:20:47Z</time>
      </trkpt>
      <trkpt lat="43.393826" lon="-2.732742">
        <ele>135.7</ele>
        <time>2016-05-21T13:20:58Z</time>
      </trkpt>
      <trkpt lat="43.393827" lon="-2.732758">
        <ele>135.7</ele>
        <time>2016-05-21T13:20:59Z</time>
      </trkpt>
      <trkpt lat="43.393824" lon="-2.732856">
        <ele>134.2</ele>
        <time>2016-05-21T13:21:06Z</time>
      </trkpt>
      <trkpt lat="43.393890" lon="-2.732960">
        <ele>130.4</ele>
        <time>2016-05-21T13:21:52Z</time>
      </trkpt>
      <trkpt lat="43.393946" lon="-2.732862">
        <ele>127.5</ele>
        <time>2016-05-21T13:22:00Z</time>
      </trkpt>
      <trkpt lat="43.394052" lon="-2.732730">
        <ele>123.7</ele>
        <time>2016-05-21T13:22:11Z</time>
      </trkpt>
      <trkpt lat="43.394064" lon="-2.732717">
        <ele>123.7</ele>
        <time>2016-05-21T13:22:12Z</time>
      </trkpt>
      <trkpt lat="43.394141" lon="-2.732695">
        <ele>121.7</ele>
        <time>2016-05-21T13:22:21Z</time>
      </trkpt>
      <trkpt lat="43.394294" lon="-2.732629">
        <ele>118.4</ele>
        <time>2016-05-21T13:22:34Z</time>
      </trkpt>
      <trkpt lat="43.394416" lon="-2.732583">
        <ele>115.5</ele>
        <time>2016-05-21T13:22:44Z</time>
      </trkpt>
      <trkpt lat="43.394550" lon="-2.732467">
        <ele>112.1</ele>
        <time>2016-05-21T13:22:55Z</time>
      </trkpt>
      <trkpt lat="43.394783" lon="-2.732510">
        <ele>110.7</ele>
        <time>2016-05-21T13:23:15Z</time>
      </trkpt>
      <trkpt lat="43.394932" lon="-2.732628">
        <ele>111.7</ele>
        <time>2016-05-21T13:23:29Z</time>
      </trkpt>
      <trkpt lat="43.395106" lon="-2.732700">
        <ele>112.1</ele>
        <time>2016-05-21T13:23:42Z</time>
      </trkpt>
      <trkpt lat="43.395350" lon="-2.732687">
        <ele>110.7</ele>
        <time>2016-05-21T13:24:00Z</time>
      </trkpt>
      <trkpt lat="43.395374" lon="-2.732682">
        <ele>111.2</ele>
        <time>2016-05-21T13:24:13Z</time>
      </trkpt>
      <trkpt lat="43.395391" lon="-2.732682">
        <ele>110.7</ele>
        <time>2016-05-21T13:24:16Z</time>
      </trkpt>
      <trkpt lat="43.395560" lon="-2.732676">
        <ele>109.7</ele>
        <time>2016-05-21T13:24:29Z</time>
      </trkpt>
      <trkpt lat="43.395621" lon="-2.732687">
        <ele>109.7</ele>
        <time>2016-05-21T13:24:33Z</time>
      </trkpt>
      <trkpt lat="43.395818" lon="-2.732566">
        <ele>105.4</ele>
        <time>2016-05-21T13:24:49Z</time>
      </trkpt>
      <trkpt lat="43.395829" lon="-2.732555">
        <ele>105.4</ele>
        <time>2016-05-21T13:24:50Z</time>
      </trkpt>
      <trkpt lat="43.395937" lon="-2.732491">
        <ele>102.5</ele>
        <time>2016-05-21T13:24:58Z</time>
      </trkpt>
      <trkpt lat="43.396180" lon="-2.732479">
        <ele>100.6</ele>
        <time>2016-05-21T13:25:15Z</time>
      </trkpt>
      <trkpt lat="43.396303" lon="-2.732495">
        <ele>97.2</ele>
        <time>2016-05-21T13:25:24Z</time>
      </trkpt>
      <trkpt lat="43.396315" lon="-2.732495">
        <ele>97.2</ele>
        <time>2016-05-21T13:25:25Z</time>
      </trkpt>
      <trkpt lat="43.396504" lon="-2.732483">
        <ele>93.9</ele>
        <time>2016-05-21T13:25:39Z</time>
      </trkpt>
      <trkpt lat="43.396714" lon="-2.732356">
        <ele>91.0</ele>
        <time>2016-05-21T13:25:56Z</time>
      </trkpt>
      <trkpt lat="43.396905" lon="-2.732220">
        <ele>87.6</ele>
        <time>2016-05-21T13:26:12Z</time>
      </trkpt>
      <trkpt lat="43.397083" lon="-2.732054">
        <ele>85.7</ele>
        <time>2016-05-21T13:26:28Z</time>
      </trkpt>
      <trkpt lat="43.397201" lon="-2.731855">
        <ele>83.3</ele>
        <time>2016-05-21T13:26:42Z</time>
      </trkpt>
      <trkpt lat="43.397242" lon="-2.731733">
        <ele>82.3</ele>
        <time>2016-05-21T13:26:49Z</time>
      </trkpt>
      <trkpt lat="43.397291" lon="-2.731539">
        <ele>80.9</ele>
        <time>2016-05-21T13:27:03Z</time>
      </trkpt>
      <trkpt lat="43.397184" lon="-2.731422">
        <ele>81.8</ele>
        <time>2016-05-21T13:27:16Z</time>
      </trkpt>
      <trkpt lat="43.397028" lon="-2.731476">
        <ele>82.8</ele>
        <time>2016-05-21T13:27:32Z</time>
      </trkpt>
      <trkpt lat="43.396862" lon="-2.731458">
        <ele>85.2</ele>
        <time>2016-05-21T13:27:47Z</time>
      </trkpt>
      <trkpt lat="43.396805" lon="-2.731453">
        <ele>88.6</ele>
        <time>2016-05-21T13:27:54Z</time>
      </trkpt>
      <trkpt lat="43.396795" lon="-2.731454">
        <ele>87.1</ele>
        <time>2016-05-21T13:27:55Z</time>
      </trkpt>
      <trkpt lat="43.396576" lon="-2.731400">
        <ele>90.5</ele>
        <time>2016-05-21T13:28:14Z</time>
      </trkpt>
      <trkpt lat="43.396462" lon="-2.731384">
        <ele>91.5</ele>
        <time>2016-05-21T13:28:25Z</time>
      </trkpt>
      <trkpt lat="43.396276" lon="-2.731386">
        <ele>93.9</ele>
        <time>2016-05-21T13:28:41Z</time>
      </trkpt>
      <trkpt lat="43.396129" lon="-2.731412">
        <ele>95.3</ele>
        <time>2016-05-21T13:28:54Z</time>
      </trkpt>
      <trkpt lat="43.395962" lon="-2.731437">
        <ele>98.2</ele>
        <time>2016-05-21T13:29:08Z</time>
      </trkpt>
      <trkpt lat="43.395771" lon="-2.731429">
        <ele>100.6</ele>
        <time>2016-05-21T13:29:23Z</time>
      </trkpt>
      <trkpt lat="43.395764" lon="-2.731422">
        <ele>100.6</ele>
        <time>2016-05-21T13:29:24Z</time>
      </trkpt>
      <trkpt lat="43.395761" lon="-2.731396">
        <ele>100.1</ele>
        <time>2016-05-21T13:29:30Z</time>
      </trkpt>
      <trkpt lat="43.395597" lon="-2.731347">
        <ele>101.6</ele>
        <time>2016-05-21T13:29:43Z</time>
      </trkpt>
      <trkpt lat="43.395536" lon="-2.731289">
        <ele>102.5</ele>
        <time>2016-05-21T13:29:56Z</time>
      </trkpt>
      <trkpt lat="43.395569" lon="-2.731277">
        <ele>103.0</ele>
        <time>2016-05-21T13:30:16Z</time>
      </trkpt>
      <trkpt lat="43.395627" lon="-2.731313">
        <ele>102.5</ele>
        <time>2016-05-21T13:30:27Z</time>
      </trkpt>
      <trkpt lat="43.395727" lon="-2.731307">
        <ele>103.0</ele>
        <time>2016-05-21T13:30:38Z</time>
      </trkpt>
      <trkpt lat="43.395783" lon="-2.731304">
        <ele>104.0</ele>
        <time>2016-05-21T13:30:43Z</time>
      </trkpt>
      <trkpt lat="43.395819" lon="-2.731283">
        <ele>104.0</ele>
        <time>2016-05-21T13:30:47Z</time>
      </trkpt>
      <trkpt lat="43.395909" lon="-2.731236">
        <ele>104.0</ele>
        <time>2016-05-21T13:31:01Z</time>
      </trkpt>
      <trkpt lat="43.395973" lon="-2.731272">
        <ele>104.4</ele>
        <time>2016-05-21T13:31:18Z</time>
      </trkpt>
      <trkpt lat="43.396025" lon="-2.731241">
        <ele>104.4</ele>
        <time>2016-05-21T13:31:26Z</time>
      </trkpt>
      <trkpt lat="43.396178" lon="-2.731106">
        <ele>105.9</ele>
        <time>2016-05-21T13:31:45Z</time>
      </trkpt>
      <trkpt lat="43.396196" lon="-2.731043">
        <ele>107.3</ele>
        <time>2016-05-21T13:31:57Z</time>
      </trkpt>
      <trkpt lat="43.396227" lon="-2.730946">
        <ele>109.7</ele>
        <time>2016-05-21T13:32:09Z</time>
      </trkpt>
      <trkpt lat="43.396238" lon="-2.730895">
        <ele>110.7</ele>
        <time>2016-05-21T13:32:13Z</time>
      </trkpt>
      <trkpt lat="43.396321" lon="-2.730792">
        <ele>111.2</ele>
        <time>2016-05-21T13:32:27Z</time>
      </trkpt>
      <trkpt lat="43.396327" lon="-2.730783">
        <ele>111.2</ele>
        <time>2016-05-21T13:32:28Z</time>
      </trkpt>
      <trkpt lat="43.396408" lon="-2.730719">
        <ele>111.2</ele>
        <time>2016-05-21T13:32:38Z</time>
      </trkpt>
      <trkpt lat="43.396617" lon="-2.730679">
        <ele>114.5</ele>
        <time>2016-05-21T13:32:59Z</time>
      </trkpt>
      <trkpt lat="43.396802" lon="-2.730580">
        <ele>114.5</ele>
        <time>2016-05-21T13:33:17Z</time>
      </trkpt>
      <trkpt lat="43.396797" lon="-2.730541">
        <ele>114.5</ele>
        <time>2016-05-21T13:33:27Z</time>
      </trkpt>
      <trkpt lat="43.396826" lon="-2.730313">
        <ele>115.5</ele>
        <time>2016-05-21T13:33:43Z</time>
      </trkpt>
      <trkpt lat="43.396790" lon="-2.730060">
        <ele>113.6</ele>
        <time>2016-05-21T13:33:58Z</time>
      </trkpt>
      <trkpt lat="43.396773" lon="-2.729947">
        <ele>114.1</ele>
        <time>2016-05-21T13:34:06Z</time>
      </trkpt>
      <trkpt lat="43.396787" lon="-2.729712">
        <ele>114.1</ele>
        <time>2016-05-21T13:34:21Z</time>
      </trkpt>
      <trkpt lat="43.396739" lon="-2.729419">
        <ele>114.1</ele>
        <time>2016-05-21T13:34:39Z</time>
      </trkpt>
      <trkpt lat="43.396744" lon="-2.729119">
        <ele>117.4</ele>
        <time>2016-05-21T13:34:57Z</time>
      </trkpt>
      <trkpt lat="43.396768" lon="-2.729016">
        <ele>117.4</ele>
        <time>2016-05-21T13:35:03Z</time>
      </trkpt>
      <trkpt lat="43.396815" lon="-2.728780">
        <ele>118.4</ele>
        <time>2016-05-21T13:35:18Z</time>
      </trkpt>
      <trkpt lat="43.396845" lon="-2.728649">
        <ele>118.9</ele>
        <time>2016-05-21T13:35:27Z</time>
      </trkpt>
      <trkpt lat="43.396897" lon="-2.728503">
        <ele>118.4</ele>
        <time>2016-05-21T13:35:36Z</time>
      </trkpt>
      <trkpt lat="43.396951" lon="-2.728289">
        <ele>117.9</ele>
        <time>2016-05-21T13:35:48Z</time>
      </trkpt>
      <trkpt lat="43.397079" lon="-2.728024">
        <ele>116.9</ele>
        <time>2016-05-21T13:36:06Z</time>
      </trkpt>
      <trkpt lat="43.397117" lon="-2.727849">
        <ele>118.9</ele>
        <time>2016-05-21T13:36:21Z</time>
      </trkpt>
      <trkpt lat="43.397120" lon="-2.727871">
        <ele>118.9</ele>
        <time>2016-05-21T13:36:24Z</time>
      </trkpt>
      <trkpt lat="43.397242" lon="-2.727763">
        <ele>120.3</ele>
        <time>2016-05-21T13:36:37Z</time>
      </trkpt>
      <trkpt lat="43.397333" lon="-2.727649">
        <ele>122.2</ele>
        <time>2016-05-21T13:36:49Z</time>
      </trkpt>
      <trkpt lat="43.397381" lon="-2.727638">
        <ele>124.1</ele>
        <time>2016-05-21T13:37:03Z</time>
      </trkpt>
      <trkpt lat="43.397421" lon="-2.727582">
        <ele>125.1</ele>
        <time>2016-05-21T13:37:31Z</time>
      </trkpt>
      <trkpt lat="43.397496" lon="-2.727455">
        <ele>126.1</ele>
        <time>2016-05-21T13:37:44Z</time>
      </trkpt>
      <trkpt lat="43.397565" lon="-2.727360">
        <ele>126.1</ele>
        <time>2016-05-21T13:37:52Z</time>
      </trkpt>
      <trkpt lat="43.397715" lon="-2.727167">
        <ele>127.0</ele>
        <time>2016-05-21T13:38:10Z</time>
      </trkpt>
      <trkpt lat="43.397830" lon="-2.727006">
        <ele>127.0</ele>
        <time>2016-05-21T13:38:23Z</time>
      </trkpt>
      <trkpt lat="43.397897" lon="-2.726900">
        <ele>126.6</ele>
        <time>2016-05-21T13:38:31Z</time>
      </trkpt>
      <trkpt lat="43.397915" lon="-2.726755">
        <ele>126.6</ele>
        <time>2016-05-21T13:38:44Z</time>
      </trkpt>
      <trkpt lat="43.398033" lon="-2.726656">
        <ele>127.5</ele>
        <time>2016-05-21T13:38:59Z</time>
      </trkpt>
      <trkpt lat="43.398157" lon="-2.726590">
        <ele>131.4</ele>
        <time>2016-05-21T13:39:14Z</time>
      </trkpt>
      <trkpt lat="43.398201" lon="-2.726528">
        <ele>131.8</ele>
        <time>2016-05-21T13:39:20Z</time>
      </trkpt>
      <trkpt lat="43.398253" lon="-2.726355">
        <ele>135.2</ele>
        <time>2016-05-21T13:39:34Z</time>
      </trkpt>
      <trkpt lat="43.398233" lon="-2.726228">
        <ele>136.6</ele>
        <time>2016-05-21T13:39:48Z</time>
      </trkpt>
      <trkpt lat="43.398191" lon="-2.726186">
        <ele>138.6</ele>
        <time>2016-05-21T13:39:53Z</time>
      </trkpt>
      <trkpt lat="43.398025" lon="-2.726074">
        <ele>141.9</ele>
        <time>2016-05-21T13:40:09Z</time>
      </trkpt>
      <trkpt lat="43.397912" lon="-2.726019">
        <ele>145.3</ele>
        <time>2016-05-21T13:40:22Z</time>
      </trkpt>
      <trkpt lat="43.397841" lon="-2.726018">
        <ele>146.3</ele>
        <time>2016-05-21T13:40:40Z</time>
      </trkpt>
      <trkpt lat="43.397693" lon="-2.725905">
        <ele>148.2</ele>
        <time>2016-05-21T13:40:55Z</time>
      </trkpt>
      <trkpt lat="43.397577" lon="-2.725840">
        <ele>151.5</ele>
        <time>2016-05-21T13:41:08Z</time>
      </trkpt>
      <trkpt lat="43.397570" lon="-2.725834">
        <ele>151.5</ele>
        <time>2016-05-21T13:41:09Z</time>
      </trkpt>
      <trkpt lat="43.397434" lon="-2.725763">
        <ele>153.5</ele>
        <time>2016-05-21T13:41:22Z</time>
      </trkpt>
      <trkpt lat="43.397414" lon="-2.725720">
        <ele>154.4</ele>
        <time>2016-05-21T13:41:26Z</time>
      </trkpt>
      <trkpt lat="43.397442" lon="-2.725662">
        <ele>155.4</ele>
        <time>2016-05-21T13:41:31Z</time>
      </trkpt>
      <trkpt lat="43.397552" lon="-2.725601">
        <ele>157.3</ele>
        <time>2016-05-21T13:41:43Z</time>
      </trkpt>
      <trkpt lat="43.397676" lon="-2.725495">
        <ele>159.7</ele>
        <time>2016-05-21T13:41:58Z</time>
      </trkpt>
      <trkpt lat="43.397798" lon="-2.725390">
        <ele>161.6</ele>
        <time>2016-05-21T13:42:12Z</time>
      </trkpt>
      <trkpt lat="43.397846" lon="-2.725314">
        <ele>161.6</ele>
        <time>2016-05-21T13:42:25Z</time>
      </trkpt>
      <trkpt lat="43.397805" lon="-2.725311">
        <ele>161.6</ele>
        <time>2016-05-21T13:42:32Z</time>
      </trkpt>
      <trkpt lat="43.397704" lon="-2.725296">
        <ele>164.0</ele>
        <time>2016-05-21T13:42:46Z</time>
      </trkpt>
      <trkpt lat="43.397597" lon="-2.725267">
        <ele>166.4</ele>
        <time>2016-05-21T13:42:57Z</time>
      </trkpt>
      <trkpt lat="43.397477" lon="-2.725199">
        <ele>167.4</ele>
        <time>2016-05-21T13:43:13Z</time>
      </trkpt>
      <trkpt lat="43.397371" lon="-2.725135">
        <ele>169.3</ele>
        <time>2016-05-21T13:43:25Z</time>
      </trkpt>
      <trkpt lat="43.397298" lon="-2.725028">
        <ele>171.3</ele>
        <time>2016-05-21T13:43:36Z</time>
      </trkpt>
      <trkpt lat="43.397268" lon="-2.724924">
        <ele>172.7</ele>
        <time>2016-05-21T13:43:56Z</time>
      </trkpt>
      <trkpt lat="43.397269" lon="-2.724888">
        <ele>172.7</ele>
        <time>2016-05-21T13:44:10Z</time>
      </trkpt>
      <trkpt lat="43.397293" lon="-2.724941">
        <ele>172.2</ele>
        <time>2016-05-21T13:44:15Z</time>
      </trkpt>
      <trkpt lat="43.397381" lon="-2.724991">
        <ele>171.7</ele>
        <time>2016-05-21T13:44:28Z</time>
      </trkpt>
      <trkpt lat="43.397577" lon="-2.725056">
        <ele>170.3</ele>
        <time>2016-05-21T13:44:45Z</time>
      </trkpt>
      <trkpt lat="43.397658" lon="-2.725072">
        <ele>169.3</ele>
        <time>2016-05-21T13:44:51Z</time>
      </trkpt>
      <trkpt lat="43.397840" lon="-2.725088">
        <ele>166.0</ele>
        <time>2016-05-21T13:45:04Z</time>
      </trkpt>
      <trkpt lat="43.397913" lon="-2.725102">
        <ele>165.0</ele>
        <time>2016-05-21T13:45:09Z</time>
      </trkpt>
      <trkpt lat="43.398106" lon="-2.725062">
        <ele>164.0</ele>
        <time>2016-05-21T13:45:22Z</time>
      </trkpt>
      <trkpt lat="43.398165" lon="-2.724999">
        <ele>163.1</ele>
        <time>2016-05-21T13:45:28Z</time>
      </trkpt>
      <trkpt lat="43.398278" lon="-2.724826">
        <ele>161.2</ele>
        <time>2016-05-21T13:45:41Z</time>
      </trkpt>
      <trkpt lat="43.398373" lon="-2.724729">
        <ele>159.2</ele>
        <time>2016-05-21T13:45:57Z</time>
      </trkpt>
      <trkpt lat="43.398428" lon="-2.724761">
        <ele>158.8</ele>
        <time>2016-05-21T13:46:20Z</time>
      </trkpt>
      <trkpt lat="43.398468" lon="-2.724728">
        <ele>158.3</ele>
        <time>2016-05-21T13:46:30Z</time>
      </trkpt>
      <trkpt lat="43.398647" lon="-2.724737">
        <ele>157.3</ele>
        <time>2016-05-21T13:46:47Z</time>
      </trkpt>
      <trkpt lat="43.398844" lon="-2.724707">
        <ele>157.3</ele>
        <time>2016-05-21T13:47:05Z</time>
      </trkpt>
      <trkpt lat="43.399014" lon="-2.724695">
        <ele>155.9</ele>
        <time>2016-05-21T13:47:21Z</time>
      </trkpt>
      <trkpt lat="43.399093" lon="-2.724712">
        <ele>155.4</ele>
        <time>2016-05-21T13:47:29Z</time>
      </trkpt>
      <trkpt lat="43.399108" lon="-2.724756">
        <ele>155.9</ele>
        <time>2016-05-21T13:47:32Z</time>
      </trkpt>
      <trkpt lat="43.399132" lon="-2.725138">
        <ele>157.3</ele>
        <time>2016-05-21T13:47:56Z</time>
      </trkpt>
      <trkpt lat="43.399185" lon="-2.725320">
        <ele>159.2</ele>
        <time>2016-05-21T13:48:15Z</time>
      </trkpt>
      <trkpt lat="43.399189" lon="-2.725340">
        <ele>159.7</ele>
        <time>2016-05-21T13:48:17Z</time>
      </trkpt>
      <trkpt lat="43.399252" lon="-2.725497">
        <ele>160.7</ele>
        <time>2016-05-21T13:48:31Z</time>
      </trkpt>
      <trkpt lat="43.399375" lon="-2.725731">
        <ele>162.1</ele>
        <time>2016-05-21T13:48:50Z</time>
      </trkpt>
      <trkpt lat="43.399444" lon="-2.725832">
        <ele>162.6</ele>
        <time>2016-05-21T13:48:59Z</time>
      </trkpt>
      <trkpt lat="43.399562" lon="-2.725846">
        <ele>163.1</ele>
        <time>2016-05-21T13:49:10Z</time>
      </trkpt>
      <trkpt lat="43.399727" lon="-2.725694">
        <ele>165.0</ele>
        <time>2016-05-21T13:49:28Z</time>
      </trkpt>
      <trkpt lat="43.399710" lon="-2.725642">
        <ele>165.0</ele>
        <time>2016-05-21T13:49:31Z</time>
      </trkpt>
      <trkpt lat="43.399926" lon="-2.725631">
        <ele>166.4</ele>
        <time>2016-05-21T13:49:50Z</time>
      </trkpt>
      <trkpt lat="43.399947" lon="-2.725611">
        <ele>167.4</ele>
        <time>2016-05-21T13:50:02Z</time>
      </trkpt>
      <trkpt lat="43.399963" lon="-2.725565">
        <ele>168.4</ele>
        <time>2016-05-21T13:50:17Z</time>
      </trkpt>
      <trkpt lat="43.400018" lon="-2.725384">
        <ele>171.3</ele>
        <time>2016-05-21T13:50:34Z</time>
      </trkpt>
      <trkpt lat="43.400032" lon="-2.725225">
        <ele>174.6</ele>
        <time>2016-05-21T13:50:47Z</time>
      </trkpt>
      <trkpt lat="43.400015" lon="-2.725141">
        <ele>175.6</ele>
        <time>2016-05-21T13:50:56Z</time>
      </trkpt>
      <trkpt lat="43.399977" lon="-2.724953">
        <ele>177.0</ele>
        <time>2016-05-21T13:51:10Z</time>
      </trkpt>
      <trkpt lat="43.399997" lon="-2.724922">
        <ele>178.9</ele>
        <time>2016-05-21T13:51:13Z</time>
      </trkpt>
      <trkpt lat="43.400027" lon="-2.724900">
        <ele>180.4</ele>
        <time>2016-05-21T13:51:16Z</time>
      </trkpt>
      <trkpt lat="43.400233" lon="-2.724872">
        <ele>182.3</ele>
        <time>2016-05-21T13:51:35Z</time>
      </trkpt>
      <trkpt lat="43.400424" lon="-2.724869">
        <ele>184.7</ele>
        <time>2016-05-21T13:51:53Z</time>
      </trkpt>
      <trkpt lat="43.400504" lon="-2.724801">
        <ele>186.6</ele>
        <time>2016-05-21T13:52:04Z</time>
      </trkpt>
      <trkpt lat="43.400565" lon="-2.724640">
        <ele>190.5</ele>
        <time>2016-05-21T13:52:18Z</time>
      </trkpt>
      <trkpt lat="43.400570" lon="-2.724618">
        <ele>191.0</ele>
        <time>2016-05-21T13:52:20Z</time>
      </trkpt>
      <trkpt lat="43.400602" lon="-2.724404">
        <ele>194.8</ele>
        <time>2016-05-21T13:52:37Z</time>
      </trkpt>
      <trkpt lat="43.400621" lon="-2.724223">
        <ele>198.2</ele>
        <time>2016-05-21T13:52:52Z</time>
      </trkpt>
      <trkpt lat="43.400642" lon="-2.724069">
        <ele>201.1</ele>
        <time>2016-05-21T13:53:04Z</time>
      </trkpt>
      <trkpt lat="43.400688" lon="-2.723879">
        <ele>203.9</ele>
        <time>2016-05-21T13:53:21Z</time>
      </trkpt>
      <trkpt lat="43.400744" lon="-2.723704">
        <ele>207.3</ele>
        <time>2016-05-21T13:53:36Z</time>
      </trkpt>
      <trkpt lat="43.400788" lon="-2.723566">
        <ele>208.7</ele>
        <time>2016-05-21T13:53:46Z</time>
      </trkpt>
      <trkpt lat="43.400815" lon="-2.723487">
        <ele>210.2</ele>
        <time>2016-05-21T13:53:52Z</time>
      </trkpt>
      <trkpt lat="43.400863" lon="-2.723250">
        <ele>213.1</ele>
        <time>2016-05-21T13:54:08Z</time>
      </trkpt>
      <trkpt lat="43.400927" lon="-2.723027">
        <ele>216.0</ele>
        <time>2016-05-21T13:54:25Z</time>
      </trkpt>
      <trkpt lat="43.400967" lon="-2.722834">
        <ele>219.3</ele>
        <time>2016-05-21T13:54:39Z</time>
      </trkpt>
      <trkpt lat="43.400982" lon="-2.722669">
        <ele>220.8</ele>
        <time>2016-05-21T13:54:54Z</time>
      </trkpt>
      <trkpt lat="43.400987" lon="-2.722535">
        <ele>223.2</ele>
        <time>2016-05-21T13:55:02Z</time>
      </trkpt>
      <trkpt lat="43.401075" lon="-2.722310">
        <ele>223.6</ele>
        <time>2016-05-21T13:55:18Z</time>
      </trkpt>
      <trkpt lat="43.401111" lon="-2.722222">
        <ele>226.0</ele>
        <time>2016-05-21T13:55:26Z</time>
      </trkpt>
      <trkpt lat="43.401132" lon="-2.722117">
        <ele>229.4</ele>
        <time>2016-05-21T13:55:35Z</time>
      </trkpt>
      <trkpt lat="43.401219" lon="-2.721958">
        <ele>232.3</ele>
        <time>2016-05-21T13:55:51Z</time>
      </trkpt>
      <trkpt lat="43.401391" lon="-2.721802">
        <ele>231.8</ele>
        <time>2016-05-21T13:56:07Z</time>
      </trkpt>
      <trkpt lat="43.401535" lon="-2.721635">
        <ele>229.9</ele>
        <time>2016-05-21T13:56:21Z</time>
      </trkpt>
      <trkpt lat="43.401586" lon="-2.721547">
        <ele>229.4</ele>
        <time>2016-05-21T13:56:27Z</time>
      </trkpt>
      <trkpt lat="43.401683" lon="-2.721264">
        <ele>227.0</ele>
        <time>2016-05-21T13:56:45Z</time>
      </trkpt>
      <trkpt lat="43.401689" lon="-2.721152">
        <ele>226.0</ele>
        <time>2016-05-21T13:56:51Z</time>
      </trkpt>
      <trkpt lat="43.401707" lon="-2.721040">
        <ele>225.6</ele>
        <time>2016-05-21T13:56:57Z</time>
      </trkpt>
      <trkpt lat="43.401859" lon="-2.720850">
        <ele>224.1</ele>
        <time>2016-05-21T13:57:11Z</time>
      </trkpt>
      <trkpt lat="43.401922" lon="-2.720801">
        <ele>223.6</ele>
        <time>2016-05-21T13:57:22Z</time>
      </trkpt>
      <trkpt lat="43.402165" lon="-2.720677">
        <ele>223.2</ele>
        <time>2016-05-21T13:57:39Z</time>
      </trkpt>
      <trkpt lat="43.402426" lon="-2.720478">
        <ele>220.8</ele>
        <time>2016-05-21T13:58:02Z</time>
      </trkpt>
      <trkpt lat="43.402518" lon="-2.720385">
        <ele>218.4</ele>
        <time>2016-05-21T13:58:11Z</time>
      </trkpt>
      <trkpt lat="43.402603" lon="-2.720356">
        <ele>218.4</ele>
        <time>2016-05-21T13:58:25Z</time>
      </trkpt>
    </trkseg>
    <trkseg>
      <trkpt lat="43.402614" lon="-2.720389">
        <ele>227.5</ele>
        <time>2016-05-25T17:32:13Z</time>
      </trkpt>
      <trkpt lat="43.402650" lon="-2.720434">
        <ele>225.1</ele>
        <time>2016-05-25T17:32:16Z</time>
      </trkpt>
      <trkpt lat="43.402725" lon="-2.720723">
        <ele>222.7</ele>
        <time>2016-05-25T17:32:32Z</time>
      </trkpt>
      <trkpt lat="43.402743" lon="-2.720843">
        <ele>219.8</ele>
        <time>2016-05-25T17:32:38Z</time>
      </trkpt>
      <trkpt lat="43.402753" lon="-2.721081">
        <ele>216.0</ele>
        <time>2016-05-25T17:32:49Z</time>
      </trkpt>
      <trkpt lat="43.402769" lon="-2.721158">
        <ele>214.0</ele>
        <time>2016-05-25T17:32:53Z</time>
      </trkpt>
      <trkpt lat="43.402797" lon="-2.721242">
        <ele>212.1</ele>
        <time>2016-05-25T17:32:58Z</time>
      </trkpt>
      <trkpt lat="43.402891" lon="-2.721308">
        <ele>209.2</ele>
        <time>2016-05-25T17:33:07Z</time>
      </trkpt>
      <trkpt lat="43.402909" lon="-2.721324">
        <ele>208.7</ele>
        <time>2016-05-25T17:33:09Z</time>
      </trkpt>
      <trkpt lat="43.403055" lon="-2.721459">
        <ele>204.9</ele>
        <time>2016-05-25T17:33:21Z</time>
      </trkpt>
      <trkpt lat="43.403251" lon="-2.721783">
        <ele>202.0</ele>
        <time>2016-05-25T17:33:42Z</time>
      </trkpt>
      <trkpt lat="43.403351" lon="-2.722006">
        <ele>199.1</ele>
        <time>2016-05-25T17:33:56Z</time>
      </trkpt>
      <trkpt lat="43.403503" lon="-2.722330">
        <ele>196.2</ele>
        <time>2016-05-25T17:34:15Z</time>
      </trkpt>
      <trkpt lat="43.403563" lon="-2.722571">
        <ele>192.9</ele>
        <time>2016-05-25T17:34:28Z</time>
      </trkpt>
      <trkpt lat="43.403619" lon="-2.722846">
        <ele>189.5</ele>
        <time>2016-05-25T17:34:42Z</time>
      </trkpt>
      <trkpt lat="43.403646" lon="-2.722949">
        <ele>187.6</ele>
        <time>2016-05-25T17:34:48Z</time>
      </trkpt>
      <trkpt lat="43.403658" lon="-2.722985">
        <ele>186.2</ele>
        <time>2016-05-25T17:34:50Z</time>
      </trkpt>
      <trkpt lat="43.403714" lon="-2.723225">
        <ele>182.8</ele>
        <time>2016-05-25T17:35:04Z</time>
      </trkpt>
      <trkpt lat="43.403805" lon="-2.723273">
        <ele>182.3</ele>
        <time>2016-05-25T17:35:19Z</time>
      </trkpt>
      <trkpt lat="43.404125" lon="-2.723069">
        <ele>184.7</ele>
        <time>2016-05-25T17:35:43Z</time>
      </trkpt>
      <trkpt lat="43.404434" lon="-2.722842">
        <ele>187.6</ele>
        <time>2016-05-25T17:36:07Z</time>
      </trkpt>
      <trkpt lat="43.404647" lon="-2.722716">
        <ele>184.2</ele>
        <time>2016-05-25T17:36:23Z</time>
      </trkpt>
      <trkpt lat="43.404659" lon="-2.722705">
        <ele>184.2</ele>
        <time>2016-05-25T17:36:24Z</time>
      </trkpt>
      <trkpt lat="43.404810" lon="-2.722533">
        <ele>180.9</ele>
        <time>2016-05-25T17:36:38Z</time>
      </trkpt>
      <trkpt lat="43.404992" lon="-2.722362">
        <ele>177.5</ele>
        <time>2016-05-25T17:36:53Z</time>
      </trkpt>
      <trkpt lat="43.405097" lon="-2.722295">
        <ele>174.1</ele>
        <time>2016-05-25T17:37:02Z</time>
      </trkpt>
      <trkpt lat="43.405113" lon="-2.722286">
        <ele>174.1</ele>
        <time>2016-05-25T17:37:03Z</time>
      </trkpt>
      <trkpt lat="43.405378" lon="-2.722070">
        <ele>171.3</ele>
        <time>2016-05-25T17:37:24Z</time>
      </trkpt>
      <trkpt lat="43.405495" lon="-2.721963">
        <ele>168.4</ele>
        <time>2016-05-25T17:37:43Z</time>
      </trkpt>
      <trkpt lat="43.405515" lon="-2.721963">
        <ele>167.4</ele>
        <time>2016-05-25T17:37:45Z</time>
      </trkpt>
      <trkpt lat="43.405763" lon="-2.721978">
        <ele>164.5</ele>
        <time>2016-05-25T17:38:03Z</time>
      </trkpt>
      <trkpt lat="43.405973" lon="-2.722051">
        <ele>161.2</ele>
        <time>2016-05-25T17:38:17Z</time>
      </trkpt>
      <trkpt lat="43.406169" lon="-2.722105">
        <ele>157.8</ele>
        <time>2016-05-25T17:38:30Z</time>
      </trkpt>
      <trkpt lat="43.406237" lon="-2.722035">
        <ele>155.9</ele>
        <time>2016-05-25T17:38:45Z</time>
      </trkpt>
      <trkpt lat="43.406209" lon="-2.722000">
        <ele>154.4</ele>
        <time>2016-05-25T17:38:48Z</time>
      </trkpt>
      <trkpt lat="43.406068" lon="-2.721843">
        <ele>152.5</ele>
        <time>2016-05-25T17:38:59Z</time>
      </trkpt>
      <trkpt lat="43.405974" lon="-2.721728">
        <ele>149.6</ele>
        <time>2016-05-25T17:39:06Z</time>
      </trkpt>
      <trkpt lat="43.405807" lon="-2.721576">
        <ele>146.7</ele>
        <time>2016-05-25T17:39:18Z</time>
      </trkpt>
      <trkpt lat="43.405651" lon="-2.721408">
        <ele>143.4</ele>
        <time>2016-05-25T17:39:30Z</time>
      </trkpt>
      <trkpt lat="43.405598" lon="-2.721323">
        <ele>140.5</ele>
        <time>2016-05-25T17:39:35Z</time>
      </trkpt>
      <trkpt lat="43.405561" lon="-2.721273">
        <ele>139.0</ele>
        <time>2016-05-25T17:39:38Z</time>
      </trkpt>
      <trkpt lat="43.405344" lon="-2.721156">
        <ele>136.2</ele>
        <time>2016-05-25T17:39:53Z</time>
      </trkpt>
      <trkpt lat="43.405329" lon="-2.721153">
        <ele>135.7</ele>
        <time>2016-05-25T17:39:54Z</time>
      </trkpt>
      <trkpt lat="43.405170" lon="-2.721021">
        <ele>132.3</ele>
        <time>2016-05-25T17:40:07Z</time>
      </trkpt>
      <trkpt lat="43.405148" lon="-2.720978">
        <ele>130.9</ele>
        <time>2016-05-25T17:40:12Z</time>
      </trkpt>
      <trkpt lat="43.405105" lon="-2.720616">
        <ele>128.0</ele>
        <time>2016-05-25T17:40:31Z</time>
      </trkpt>
      <trkpt lat="43.404979" lon="-2.720356">
        <ele>124.6</ele>
        <time>2016-05-25T17:40:46Z</time>
      </trkpt>
      <trkpt lat="43.404864" lon="-2.720085">
        <ele>124.1</ele>
        <time>2016-05-25T17:41:29Z</time>
      </trkpt>
      <trkpt lat="43.404915" lon="-2.720039">
        <ele>122.2</ele>
        <time>2016-05-25T17:42:18Z</time>
      </trkpt>
      <trkpt lat="43.404938" lon="-2.720028">
        <ele>121.7</ele>
        <time>2016-05-25T17:42:20Z</time>
      </trkpt>
      <trkpt lat="43.405316" lon="-2.720137">
        <ele>121.7</ele>
        <time>2016-05-25T17:42:45Z</time>
      </trkpt>
      <trkpt lat="43.405488" lon="-2.720008">
        <ele>125.1</ele>
        <time>2016-05-25T17:42:59Z</time>
      </trkpt>
      <trkpt lat="43.405499" lon="-2.719996">
        <ele>125.1</ele>
        <time>2016-05-25T17:43:00Z</time>
      </trkpt>
      <trkpt lat="43.405532" lon="-2.719962">
        <ele>123.7</ele>
        <time>2016-05-25T17:43:03Z</time>
      </trkpt>
      <trkpt lat="43.405845" lon="-2.719647">
        <ele>120.3</ele>
        <time>2016-05-25T17:43:25Z</time>
      </trkpt>
      <trkpt lat="43.406028" lon="-2.719551">
        <ele>120.3</ele>
        <time>2016-05-25T17:43:38Z</time>
      </trkpt>
      <trkpt lat="43.406347" lon="-2.719517">
        <ele>122.2</ele>
        <time>2016-05-25T17:44:01Z</time>
      </trkpt>
      <trkpt lat="43.406585" lon="-2.719555">
        <ele>125.1</ele>
        <time>2016-05-25T17:44:21Z</time>
      </trkpt>
      <trkpt lat="43.406759" lon="-2.719595">
        <ele>129.0</ele>
        <time>2016-05-25T17:44:34Z</time>
      </trkpt>
      <trkpt lat="43.406967" lon="-2.719582">
        <ele>130.4</ele>
        <time>2016-05-25T17:44:51Z</time>
      </trkpt>
      <trkpt lat="43.407241" lon="-2.719547">
        <ele>132.3</ele>
        <time>2016-05-25T17:45:13Z</time>
      </trkpt>
      <trkpt lat="43.407463" lon="-2.719447">
        <ele>132.8</ele>
        <time>2016-05-25T17:45:32Z</time>
      </trkpt>
      <trkpt lat="43.407604" lon="-2.719317">
        <ele>129.4</ele>
        <time>2016-05-25T17:45:42Z</time>
      </trkpt>
      <trkpt lat="43.407772" lon="-2.719132">
        <ele>126.1</ele>
        <time>2016-05-25T17:45:56Z</time>
      </trkpt>
      <trkpt lat="43.407800" lon="-2.718947">
        <ele>123.2</ele>
        <time>2016-05-25T17:46:04Z</time>
      </trkpt>
      <trkpt lat="43.407840" lon="-2.718611">
        <ele>119.8</ele>
        <time>2016-05-25T17:46:23Z</time>
      </trkpt>
      <trkpt lat="43.407894" lon="-2.718306">
        <ele>120.3</ele>
        <time>2016-05-25T17:46:40Z</time>
      </trkpt>
      <trkpt lat="43.408084" lon="-2.717918">
        <ele>118.9</ele>
        <time>2016-05-25T17:47:00Z</time>
      </trkpt>
      <trkpt lat="43.408129" lon="-2.717773">
        <ele>117.4</ele>
        <time>2016-05-25T17:47:07Z</time>
      </trkpt>
      <trkpt lat="43.408266" lon="-2.717421">
        <ele>114.1</ele>
        <time>2016-05-25T17:47:29Z</time>
      </trkpt>
      <trkpt lat="43.408405" lon="-2.717129">
        <ele>110.7</ele>
        <time>2016-05-25T17:47:47Z</time>
      </trkpt>
      <trkpt lat="43.408669" lon="-2.716661">
        <ele>108.8</ele>
        <time>2016-05-25T17:48:04Z</time>
      </trkpt>
      <trkpt lat="43.408773" lon="-2.716676">
        <ele>107.8</ele>
        <time>2016-05-25T17:48:22Z</time>
      </trkpt>
      <trkpt lat="43.408951" lon="-2.716857">
        <ele>110.7</ele>
        <time>2016-05-25T17:48:34Z</time>
      </trkpt>
      <trkpt lat="43.409093" lon="-2.716997">
        <ele>114.1</ele>
        <time>2016-05-25T17:48:49Z</time>
      </trkpt>
      <trkpt lat="43.409178" lon="-2.717037">
        <ele>116.0</ele>
        <time>2016-05-25T17:48:56Z</time>
      </trkpt>
      <trkpt lat="43.409200" lon="-2.717046">
        <ele>117.4</ele>
        <time>2016-05-25T17:48:58Z</time>
      </trkpt>
      <trkpt lat="43.409338" lon="-2.717055">
        <ele>119.3</ele>
        <time>2016-05-25T17:49:10Z</time>
      </trkpt>
      <trkpt lat="43.409488" lon="-2.717108">
        <ele>122.2</ele>
        <time>2016-05-25T17:49:22Z</time>
      </trkpt>
      <trkpt lat="43.409501" lon="-2.717114">
        <ele>121.7</ele>
        <time>2016-05-25T17:49:23Z</time>
      </trkpt>
      <trkpt lat="43.409640" lon="-2.717162">
        <ele>122.7</ele>
        <time>2016-05-25T17:49:33Z</time>
      </trkpt>
      <trkpt lat="43.409801" lon="-2.716916">
        <ele>123.7</ele>
        <time>2016-05-25T17:49:50Z</time>
      </trkpt>
      <trkpt lat="43.409840" lon="-2.716495">
        <ele>121.3</ele>
        <time>2016-05-25T17:50:11Z</time>
      </trkpt>
      <trkpt lat="43.409928" lon="-2.716320">
        <ele>117.9</ele>
        <time>2016-05-25T17:50:21Z</time>
      </trkpt>
      <trkpt lat="43.410228" lon="-2.715921">
        <ele>116.5</ele>
        <time>2016-05-25T17:50:45Z</time>
      </trkpt>
      <trkpt lat="43.410506" lon="-2.715640">
        <ele>119.3</ele>
        <time>2016-05-25T17:51:11Z</time>
      </trkpt>
      <trkpt lat="43.410617" lon="-2.715624">
        <ele>120.3</ele>
        <time>2016-05-25T17:51:15Z</time>
      </trkpt>
      <trkpt lat="43.410853" lon="-2.715725">
        <ele>123.7</ele>
        <time>2016-05-25T17:51:33Z</time>
      </trkpt>
      <trkpt lat="43.411007" lon="-2.715824">
        <ele>126.6</ele>
        <time>2016-05-25T17:51:54Z</time>
      </trkpt>
      <trkpt lat="43.411098" lon="-2.715789">
        <ele>126.6</ele>
        <time>2016-05-25T17:51:59Z</time>
      </trkpt>
      <trkpt lat="43.411159" lon="-2.715758">
        <ele>126.1</ele>
        <time>2016-05-25T17:52:07Z</time>
      </trkpt>
      <trkpt lat="43.411405" lon="-2.715580">
        <ele>124.6</ele>
        <time>2016-05-25T17:52:32Z</time>
      </trkpt>
      <trkpt lat="43.411713" lon="-2.715395">
        <ele>126.1</ele>
        <time>2016-05-25T17:52:55Z</time>
      </trkpt>
      <trkpt lat="43.412012" lon="-2.715250">
        <ele>128.5</ele>
        <time>2016-05-25T17:53:20Z</time>
      </trkpt>
      <trkpt lat="43.412088" lon="-2.715381">
        <ele>130.4</ele>
        <time>2016-05-25T17:53:25Z</time>
      </trkpt>
      <trkpt lat="43.412135" lon="-2.715608">
        <ele>133.8</ele>
        <time>2016-05-25T17:53:39Z</time>
      </trkpt>
      <trkpt lat="43.412218" lon="-2.715911">
        <ele>136.6</ele>
        <time>2016-05-25T17:53:58Z</time>
      </trkpt>
      <trkpt lat="43.412341" lon="-2.716203">
        <ele>139.0</ele>
        <time>2016-05-25T17:54:18Z</time>
      </trkpt>
      <trkpt lat="43.412407" lon="-2.716525">
        <ele>141.5</ele>
        <time>2016-05-25T17:54:37Z</time>
      </trkpt>
      <trkpt lat="43.412379" lon="-2.716974">
        <ele>143.4</ele>
        <time>2016-05-25T17:54:58Z</time>
      </trkpt>
      <trkpt lat="43.412516" lon="-2.717286">
        <ele>143.9</ele>
        <time>2016-05-25T17:55:19Z</time>
      </trkpt>
      <trkpt lat="43.412819" lon="-2.717422">
        <ele>142.9</ele>
        <time>2016-05-25T17:55:40Z</time>
      </trkpt>
      <trkpt lat="43.412929" lon="-2.717664">
        <ele>141.5</ele>
        <time>2016-05-25T17:55:54Z</time>
      </trkpt>
      <trkpt lat="43.413014" lon="-2.718085">
        <ele>140.5</ele>
        <time>2016-05-25T17:56:15Z</time>
      </trkpt>
      <trkpt lat="43.413046" lon="-2.718337">
        <ele>138.6</ele>
        <time>2016-05-25T17:56:29Z</time>
      </trkpt>
      <trkpt lat="43.413031" lon="-2.718402">
        <ele>138.6</ele>
        <time>2016-05-25T17:56:33Z</time>
      </trkpt>
      <trkpt lat="43.413176" lon="-2.718650">
        <ele>137.6</ele>
        <time>2016-05-25T17:56:49Z</time>
      </trkpt>
      <trkpt lat="43.413310" lon="-2.718824">
        <ele>133.8</ele>
        <time>2016-05-25T17:57:01Z</time>
      </trkpt>
      <trkpt lat="43.413506" lon="-2.719061">
        <ele>130.9</ele>
        <time>2016-05-25T17:57:19Z</time>
      </trkpt>
      <trkpt lat="43.413610" lon="-2.719164">
        <ele>129.0</ele>
        <time>2016-05-25T17:57:28Z</time>
      </trkpt>
      <trkpt lat="43.413589" lon="-2.719437">
        <ele>127.0</ele>
        <time>2016-05-25T17:57:47Z</time>
      </trkpt>
      <trkpt lat="43.413634" lon="-2.719516">
        <ele>125.6</ele>
        <time>2016-05-25T17:57:56Z</time>
      </trkpt>
      <trkpt lat="43.413690" lon="-2.719576">
        <ele>123.2</ele>
        <time>2016-05-25T17:58:02Z</time>
      </trkpt>
      <trkpt lat="43.413783" lon="-2.719636">
        <ele>120.3</ele>
        <time>2016-05-25T17:58:11Z</time>
      </trkpt>
      <trkpt lat="43.413794" lon="-2.719642">
        <ele>119.8</ele>
        <time>2016-05-25T17:58:12Z</time>
      </trkpt>
      <trkpt lat="43.413931" lon="-2.719720">
        <ele>116.5</ele>
        <time>2016-05-25T17:58:24Z</time>
      </trkpt>
      <trkpt lat="43.414036" lon="-2.719765">
        <ele>113.6</ele>
        <time>2016-05-25T17:58:33Z</time>
      </trkpt>
      <trkpt lat="43.414108" lon="-2.719791">
        <ele>111.2</ele>
        <time>2016-05-25T17:58:39Z</time>
      </trkpt>
      <trkpt lat="43.414119" lon="-2.719851">
        <ele>110.2</ele>
        <time>2016-05-25T17:58:43Z</time>
      </trkpt>
      <trkpt lat="43.414082" lon="-2.720198">
        <ele>109.7</ele>
        <time>2016-05-25T17:59:03Z</time>
      </trkpt>
      <trkpt lat="43.414138" lon="-2.720611">
        <ele>106.4</ele>
        <time>2016-05-25T17:59:25Z</time>
      </trkpt>
      <trkpt lat="43.414147" lon="-2.720736">
        <ele>104.0</ele>
        <time>2016-05-25T17:59:32Z</time>
      </trkpt>
      <trkpt lat="43.414211" lon="-2.721017">
        <ele>101.1</ele>
        <time>2016-05-25T17:59:49Z</time>
      </trkpt>
      <trkpt lat="43.414234" lon="-2.721060">
        <ele>100.1</ele>
        <time>2016-05-25T17:59:52Z</time>
      </trkpt>
      <trkpt lat="43.414450" lon="-2.721084">
        <ele>98.2</ele>
        <time>2016-05-25T18:00:10Z</time>
      </trkpt>
      <trkpt lat="43.414555" lon="-2.721126">
        <ele>94.8</ele>
        <time>2016-05-25T18:00:19Z</time>
      </trkpt>
      <trkpt lat="43.414686" lon="-2.721234">
        <ele>91.9</ele>
        <time>2016-05-25T18:00:32Z</time>
      </trkpt>
      <trkpt lat="43.414783" lon="-2.721312">
        <ele>89.1</ele>
        <time>2016-05-25T18:00:41Z</time>
      </trkpt>
      <trkpt lat="43.414788" lon="-2.721390">
        <ele>89.5</ele>
        <time>2016-05-25T18:00:45Z</time>
      </trkpt>
      <trkpt lat="43.414737" lon="-2.721629">
        <ele>86.2</ele>
        <time>2016-05-25T18:00:59Z</time>
      </trkpt>
      <trkpt lat="43.414872" lon="-2.721774">
        <ele>82.3</ele>
        <time>2016-05-25T18:01:13Z</time>
      </trkpt>
      <trkpt lat="43.414941" lon="-2.721879">
        <ele>79.4</ele>
        <time>2016-05-25T18:01:22Z</time>
      </trkpt>
      <trkpt lat="43.414947" lon="-2.721889">
        <ele>78.5</ele>
        <time>2016-05-25T18:01:23Z</time>
      </trkpt>
      <trkpt lat="43.415022" lon="-2.722019">
        <ele>75.1</ele>
        <time>2016-05-25T18:01:33Z</time>
      </trkpt>
      <trkpt lat="43.415028" lon="-2.722034">
        <ele>75.1</ele>
        <time>2016-05-25T18:01:34Z</time>
      </trkpt>
      <trkpt lat="43.415084" lon="-2.722142">
        <ele>71.8</ele>
        <time>2016-05-25T18:01:43Z</time>
      </trkpt>
      <trkpt lat="43.415132" lon="-2.722258">
        <ele>68.4</ele>
        <time>2016-05-25T18:01:55Z</time>
      </trkpt>
      <trkpt lat="43.415143" lon="-2.722302">
        <ele>67.9</ele>
        <time>2016-05-25T18:02:08Z</time>
      </trkpt>
      <trkpt lat="43.415171" lon="-2.722318">
        <ele>66.9</ele>
        <time>2016-05-25T18:02:22Z</time>
      </trkpt>
      <trkpt lat="43.415207" lon="-2.722412">
        <ele>65.5</ele>
        <time>2016-05-25T18:02:35Z</time>
      </trkpt>
      <trkpt lat="43.415245" lon="-2.722429">
        <ele>64.5</ele>
        <time>2016-05-25T18:02:39Z</time>
      </trkpt>
      <trkpt lat="43.415302" lon="-2.722415">
        <ele>62.6</ele>
        <time>2016-05-25T18:02:52Z</time>
      </trkpt>
      <trkpt lat="43.415322" lon="-2.722438">
        <ele>61.7</ele>
        <time>2016-05-25T18:03:08Z</time>
      </trkpt>
      <trkpt lat="43.415343" lon="-2.722470">
        <ele>60.7</ele>
        <time>2016-05-25T18:03:11Z</time>
      </trkpt>
      <trkpt lat="43.415420" lon="-2.722571">
        <ele>56.9</ele>
        <time>2016-05-25T18:03:20Z</time>
      </trkpt>
      <trkpt lat="43.415425" lon="-2.722581">
        <ele>56.4</ele>
        <time>2016-05-25T18:03:21Z</time>
      </trkpt>
      <trkpt lat="43.415458" lon="-2.722672">
        <ele>53.5</ele>
        <time>2016-05-25T18:03:29Z</time>
      </trkpt>
      <trkpt lat="43.415465" lon="-2.722677">
        <ele>52.5</ele>
        <time>2016-05-25T18:03:30Z</time>
      </trkpt>
      <trkpt lat="43.415486" lon="-2.722711">
        <ele>51.1</ele>
        <time>2016-05-25T18:03:34Z</time>
      </trkpt>
      <trkpt lat="43.415490" lon="-2.722721">
        <ele>50.6</ele>
        <time>2016-05-25T18:03:35Z</time>
      </trkpt>
      <trkpt lat="43.415555" lon="-2.722860">
        <ele>47.7</ele>
        <time>2016-05-25T18:03:46Z</time>
      </trkpt>
      <trkpt lat="43.415572" lon="-2.722894">
        <ele>46.8</ele>
        <time>2016-05-25T18:03:49Z</time>
      </trkpt>
      <trkpt lat="43.415622" lon="-2.722896">
        <ele>45.8</ele>
        <time>2016-05-25T18:03:53Z</time>
      </trkpt>
      <trkpt lat="43.415873" lon="-2.722736">
        <ele>42.4</ele>
        <time>2016-05-25T18:04:13Z</time>
      </trkpt>
      <trkpt lat="43.415921" lon="-2.722671">
        <ele>42.0</ele>
        <time>2016-05-25T18:04:30Z</time>
      </trkpt>
      <trkpt lat="43.416006" lon="-2.722764">
        <ele>38.6</ele>
        <time>2016-05-25T18:04:40Z</time>
      </trkpt>
      <trkpt lat="43.416014" lon="-2.722773">
        <ele>38.1</ele>
        <time>2016-05-25T18:04:41Z</time>
      </trkpt>
      <trkpt lat="43.416041" lon="-2.722799">
        <ele>37.1</ele>
        <time>2016-05-25T18:04:44Z</time>
      </trkpt>
      <trkpt lat="43.416125" lon="-2.722869">
        <ele>34.7</ele>
        <time>2016-05-25T18:04:56Z</time>
      </trkpt>
      <trkpt lat="43.416195" lon="-2.722951">
        <ele>31.4</ele>
        <time>2016-05-25T18:05:04Z</time>
      </trkpt>
      <trkpt lat="43.416285" lon="-2.723034">
        <ele>27.5</ele>
        <time>2016-05-25T18:05:17Z</time>
      </trkpt>
      <trkpt lat="43.416376" lon="-2.723002">
        <ele>25.1</ele>
        <time>2016-05-25T18:05:25Z</time>
      </trkpt>
      <trkpt lat="43.416431" lon="-2.722967">
        <ele>23.7</ele>
        <time>2016-05-25T18:05:28Z</time>
      </trkpt>
      <trkpt lat="43.416472" lon="-2.723029">
        <ele>21.8</ele>
        <time>2016-05-25T18:05:35Z</time>
      </trkpt>
      <trkpt lat="43.416532" lon="-2.723082">
        <ele>20.8</ele>
        <time>2016-05-25T18:05:39Z</time>
      </trkpt>
      <trkpt lat="43.416597" lon="-2.723102">
        <ele>19.8</ele>
        <time>2016-05-25T18:05:44Z</time>
      </trkpt>
      <trkpt lat="43.416644" lon="-2.723101">
        <ele>18.9</ele>
        <time>2016-05-25T18:05:49Z</time>
      </trkpt>
      <trkpt lat="43.416710" lon="-2.723053">
        <ele>17.4</ele>
        <time>2016-05-25T18:05:55Z</time>
      </trkpt>
      <trkpt lat="43.416798" lon="-2.723034">
        <ele>15.5</ele>
        <time>2016-05-25T18:06:06Z</time>
      </trkpt>
      <trkpt lat="43.417012" lon="-2.722924">
        <ele>12.2</ele>
        <time>2016-05-25T18:06:27Z</time>
      </trkpt>
      <trkpt lat="43.417587" lon="-2.723262">
        <ele>10.7</ele>
        <time>2016-05-25T18:07:19Z</time>
      </trkpt>
      <trkpt lat="43.418204" lon="-2.723689">
        <ele>9.8</ele>
        <time>2016-05-25T18:07:56Z</time>
      </trkpt>
      <trkpt lat="43.418285" lon="-2.723799">
        <ele>9.3</ele>
        <time>2016-05-25T18:08:11Z</time>
      </trkpt>
      <trkpt lat="43.418162" lon="-2.724115">
        <ele>7.8</ele>
        <time>2016-05-25T18:08:39Z</time>
      </trkpt>
      <trkpt lat="43.418249" lon="-2.724184">
        <ele>8.8</ele>
        <time>2016-05-25T18:08:43Z</time>
      </trkpt>
      <trkpt lat="43.418376" lon="-2.723939">
        <ele>8.3</ele>
        <time>2016-05-25T18:08:50Z</time>
      </trkpt>
      <trkpt lat="43.418725" lon="-2.723958">
        <ele>6.4</ele>
        <time>2016-05-25T18:09:17Z</time>
      </trkpt>
      <trkpt lat="43.418993" lon="-2.724428">
        <ele>7.8</ele>
        <time>2016-05-25T18:09:43Z</time>
      </trkpt>
      <trkpt lat="43.419066" lon="-2.724640">
        <ele>7.8</ele>
        <time>2016-05-25T18:09:57Z</time>
      </trkpt>
    </trkseg>
  </trk>
</gpx>
